<?xml version="1.0" encoding="UTF-8" standalone="no" ?>
<gpx xmlns="http://www.topografix.com/GPX/1/1" xmlns:xsi="http://www.w3.org/2001/XMLSchema-instance" xsi:schemaLocation="http://www.topografix.com/GPX/1/1 http://www.topografix.com/GPX/1/1/gpx.xsd" version="1.1" creator="VisuGPX - https://www.visugpx.com">
  <metadata>
    <name>Excursion au Lac de Vitalaca</name>
    <desc><![CDATA[Départ du val d\'Ese au Lac de Vitalaca]]></desc>
  </metadata>
  <trk>
    <name><![CDATA[Vitalaca]]></name>
    <trkseg>
      <trkpt lat="42.00007" lon="9.12332">
        <ele>1627.942871</ele>
        <time>2011-10-29T08:54:41Z</time>
      </trkpt>
      <trkpt lat="42.00009" lon="9.12328">
        <ele>1628.648438</ele>
        <time>2011-10-29T08:54:46Z</time>
      </trkpt>
      <trkpt lat="42.00012" lon="9.12326">
        <ele>1629.224976</ele>
        <time>2011-10-29T08:54:50Z</time>
      </trkpt>
      <trkpt lat="42.00016" lon="9.12322">
        <ele>1629.905273</ele>
        <time>2011-10-29T08:54:54Z</time>
      </trkpt>
      <trkpt lat="42.00018" lon="9.12318">
        <ele>1630.682617</ele>
        <time>2011-10-29T08:54:58Z</time>
      </trkpt>
      <trkpt lat="42.00021" lon="9.12314">
        <ele>1631.363525</ele>
        <time>2011-10-29T08:55:03Z</time>
      </trkpt>
      <trkpt lat="42.00021" lon="9.12313">
        <ele>1631.501831</ele>
        <time>2011-10-29T08:55:04Z</time>
      </trkpt>
      <trkpt lat="42.00028" lon="9.1231">
        <ele>1632.404541</ele>
        <time>2011-10-29T08:55:12Z</time>
      </trkpt>
      <trkpt lat="42.00032" lon="9.1231">
        <ele>1632.782227</ele>
        <time>2011-10-29T08:55:17Z</time>
      </trkpt>
      <trkpt lat="42.00036" lon="9.12312">
        <ele>1633.128906</ele>
        <time>2011-10-29T08:55:22Z</time>
      </trkpt>
      <trkpt lat="42.0004" lon="9.12315">
        <ele>1633.44043</ele>
        <time>2011-10-29T08:55:27Z</time>
      </trkpt>
      <trkpt lat="42.00043" lon="9.12318">
        <ele>1633.812866</ele>
        <time>2011-10-29T08:55:32Z</time>
      </trkpt>
      <trkpt lat="42.00047" lon="9.12319">
        <ele>1634.241333</ele>
        <time>2011-10-29T08:55:36Z</time>
      </trkpt>
      <trkpt lat="42.0005" lon="9.12322">
        <ele>1634.557007</ele>
        <time>2011-10-29T08:55:40Z</time>
      </trkpt>
      <trkpt lat="42.00054" lon="9.12323">
        <ele>1635.197632</ele>
        <time>2011-10-29T08:55:44Z</time>
      </trkpt>
      <trkpt lat="42.00058" lon="9.12326">
        <ele>1635.643066</ele>
        <time>2011-10-29T08:55:48Z</time>
      </trkpt>
      <trkpt lat="42.00061" lon="9.12329">
        <ele>1636.056274</ele>
        <time>2011-10-29T08:55:52Z</time>
      </trkpt>
      <trkpt lat="42.00064" lon="9.12332">
        <ele>1636.543579</ele>
        <time>2011-10-29T08:55:57Z</time>
      </trkpt>
      <trkpt lat="42.00067" lon="9.12335">
        <ele>1637.116699</ele>
        <time>2011-10-29T08:56:02Z</time>
      </trkpt>
      <trkpt lat="42.00071" lon="9.12338">
        <ele>1637.761719</ele>
        <time>2011-10-29T08:56:06Z</time>
      </trkpt>
      <trkpt lat="42.00072" lon="9.12338">
        <ele>1637.956787</ele>
        <time>2011-10-29T08:56:07Z</time>
      </trkpt>
      <trkpt lat="42.00079" lon="9.12337">
        <ele>1639.445923</ele>
        <time>2011-10-29T08:56:15Z</time>
      </trkpt>
      <trkpt lat="42.00082" lon="9.12339">
        <ele>1640.261963</ele>
        <time>2011-10-29T08:56:20Z</time>
      </trkpt>
      <trkpt lat="42.00087" lon="9.12341">
        <ele>1641.167358</ele>
        <time>2011-10-29T08:56:25Z</time>
      </trkpt>
      <trkpt lat="42.0009" lon="9.12344">
        <ele>1641.978638</ele>
        <time>2011-10-29T08:56:31Z</time>
      </trkpt>
      <trkpt lat="42.00092" lon="9.12348">
        <ele>1642.596802</ele>
        <time>2011-10-29T08:56:36Z</time>
      </trkpt>
      <trkpt lat="42.00096" lon="9.12351">
        <ele>1643.456543</ele>
        <time>2011-10-29T08:56:41Z</time>
      </trkpt>
      <trkpt lat="42.00099" lon="9.12354">
        <ele>1644.26123</ele>
        <time>2011-10-29T08:56:46Z</time>
      </trkpt>
      <trkpt lat="42.00102" lon="9.12356">
        <ele>1645.233887</ele>
        <time>2011-10-29T08:56:51Z</time>
      </trkpt>
      <trkpt lat="42.00106" lon="9.12357">
        <ele>1646.14502</ele>
        <time>2011-10-29T08:56:55Z</time>
      </trkpt>
      <trkpt lat="42.0011" lon="9.12358">
        <ele>1647.104248</ele>
        <time>2011-10-29T08:57:00Z</time>
      </trkpt>
      <trkpt lat="42.00114" lon="9.12356">
        <ele>1647.905029</ele>
        <time>2011-10-29T08:57:06Z</time>
      </trkpt>
      <trkpt lat="42.00117" lon="9.12359">
        <ele>1648.769043</ele>
        <time>2011-10-29T08:57:16Z</time>
      </trkpt>
      <trkpt lat="42.00117" lon="9.1236">
        <ele>1648.930054</ele>
        <time>2011-10-29T08:57:17Z</time>
      </trkpt>
      <trkpt lat="42.0012" lon="9.12368">
        <ele>1648.852783</ele>
        <time>2011-10-29T08:57:26Z</time>
      </trkpt>
      <trkpt lat="42.00123" lon="9.12373">
        <ele>1648.960571</ele>
        <time>2011-10-29T08:57:32Z</time>
      </trkpt>
      <trkpt lat="42.00127" lon="9.12375">
        <ele>1649.498901</ele>
        <time>2011-10-29T08:57:39Z</time>
      </trkpt>
      <trkpt lat="42.0013" lon="9.12379">
        <ele>1649.818604</ele>
        <time>2011-10-29T08:57:46Z</time>
      </trkpt>
      <trkpt lat="42.00135" lon="9.12377">
        <ele>1650.902954</ele>
        <time>2011-10-29T08:57:55Z</time>
      </trkpt>
      <trkpt lat="42.00138" lon="9.12377">
        <ele>1651.717896</ele>
        <time>2011-10-29T08:58:01Z</time>
      </trkpt>
      <trkpt lat="42.00142" lon="9.12378">
        <ele>1652.426758</ele>
        <time>2011-10-29T08:58:07Z</time>
      </trkpt>
      <trkpt lat="42.00146" lon="9.1238">
        <ele>1652.998413</ele>
        <time>2011-10-29T08:58:13Z</time>
      </trkpt>
      <trkpt lat="42.00149" lon="9.12384">
        <ele>1653.338989</ele>
        <time>2011-10-29T08:58:19Z</time>
      </trkpt>
      <trkpt lat="42.00149" lon="9.12385">
        <ele>1653.319824</ele>
        <time>2011-10-29T08:58:20Z</time>
      </trkpt>
      <trkpt lat="42.00156" lon="9.12387">
        <ele>1654.600586</ele>
        <time>2011-10-29T08:58:32Z</time>
      </trkpt>
      <trkpt lat="42.0016" lon="9.12388">
        <ele>1655.516113</ele>
        <time>2011-10-29T08:58:39Z</time>
      </trkpt>
      <trkpt lat="42.00164" lon="9.12388">
        <ele>1656.315918</ele>
        <time>2011-10-29T08:58:45Z</time>
      </trkpt>
      <trkpt lat="42.00168" lon="9.12386">
        <ele>1657.304321</ele>
        <time>2011-10-29T08:58:51Z</time>
      </trkpt>
      <trkpt lat="42.00172" lon="9.12386">
        <ele>1658.226074</ele>
        <time>2011-10-29T08:58:56Z</time>
      </trkpt>
      <trkpt lat="42.00176" lon="9.12388">
        <ele>1659.067261</ele>
        <time>2011-10-29T08:59:02Z</time>
      </trkpt>
      <trkpt lat="42.0018" lon="9.12387">
        <ele>1659.904175</ele>
        <time>2011-10-29T08:59:08Z</time>
      </trkpt>
      <trkpt lat="42.00184" lon="9.12387">
        <ele>1660.733887</ele>
        <time>2011-10-29T08:59:14Z</time>
      </trkpt>
      <trkpt lat="42.00188" lon="9.12388">
        <ele>1661.644775</ele>
        <time>2011-10-29T08:59:20Z</time>
      </trkpt>
      <trkpt lat="42.00189" lon="9.12389">
        <ele>1661.756958</ele>
        <time>2011-10-29T08:59:21Z</time>
      </trkpt>
      <trkpt lat="42.00196" lon="9.12392">
        <ele>1663.351318</ele>
        <time>2011-10-29T08:59:33Z</time>
      </trkpt>
      <trkpt lat="42.002" lon="9.12395">
        <ele>1664.196045</ele>
        <time>2011-10-29T08:59:39Z</time>
      </trkpt>
      <trkpt lat="42.00202" lon="9.12399">
        <ele>1664.864136</ele>
        <time>2011-10-29T08:59:44Z</time>
      </trkpt>
      <trkpt lat="42.00206" lon="9.12402">
        <ele>1665.775024</ele>
        <time>2011-10-29T08:59:49Z</time>
      </trkpt>
      <trkpt lat="42.00208" lon="9.12407">
        <ele>1666.58252</ele>
        <time>2011-10-29T08:59:55Z</time>
      </trkpt>
      <trkpt lat="42.00212" lon="9.12409">
        <ele>1667.52002</ele>
        <time>2011-10-29T09:00:00Z</time>
      </trkpt>
      <trkpt lat="42.00215" lon="9.12412">
        <ele>1668.412476</ele>
        <time>2011-10-29T09:00:05Z</time>
      </trkpt>
      <trkpt lat="42.00218" lon="9.12414">
        <ele>1669.244995</ele>
        <time>2011-10-29T09:00:10Z</time>
      </trkpt>
      <trkpt lat="42.00222" lon="9.12417">
        <ele>1670.295044</ele>
        <time>2011-10-29T09:00:16Z</time>
      </trkpt>
      <trkpt lat="42.00226" lon="9.12417">
        <ele>1671.26001</ele>
        <time>2011-10-29T09:00:22Z</time>
      </trkpt>
      <trkpt lat="42.00227" lon="9.12417">
        <ele>1671.425049</ele>
        <time>2011-10-29T09:00:23Z</time>
      </trkpt>
      <trkpt lat="42.00234" lon="9.12419">
        <ele>1673.262451</ele>
        <time>2011-10-29T09:00:35Z</time>
      </trkpt>
      <trkpt lat="42.00238" lon="9.1242">
        <ele>1674.257446</ele>
        <time>2011-10-29T09:00:41Z</time>
      </trkpt>
      <trkpt lat="42.00242" lon="9.12421">
        <ele>1675.244995</ele>
        <time>2011-10-29T09:00:46Z</time>
      </trkpt>
      <trkpt lat="42.00246" lon="9.12422">
        <ele>1676.255005</ele>
        <time>2011-10-29T09:00:52Z</time>
      </trkpt>
      <trkpt lat="42.0025" lon="9.12425">
        <ele>1676.939697</ele>
        <time>2011-10-29T09:00:57Z</time>
      </trkpt>
      <trkpt lat="42.00254" lon="9.12427">
        <ele>1677.361206</ele>
        <time>2011-10-29T09:01:04Z</time>
      </trkpt>
      <trkpt lat="42.00258" lon="9.12427">
        <ele>1677.721313</ele>
        <time>2011-10-29T09:01:11Z</time>
      </trkpt>
      <trkpt lat="42.00262" lon="9.12425">
        <ele>1678.06897</ele>
        <time>2011-10-29T09:01:20Z</time>
      </trkpt>
      <trkpt lat="42.00265" lon="9.12423">
        <ele>1678.361694</ele>
        <time>2011-10-29T09:01:27Z</time>
      </trkpt>
      <trkpt lat="42.00266" lon="9.12423">
        <ele>1678.450195</ele>
        <time>2011-10-29T09:01:28Z</time>
      </trkpt>
      <trkpt lat="42.00274" lon="9.12424">
        <ele>1679.175659</ele>
        <time>2011-10-29T09:01:39Z</time>
      </trkpt>
      <trkpt lat="42.00278" lon="9.12426">
        <ele>1679.58606</ele>
        <time>2011-10-29T09:01:45Z</time>
      </trkpt>
      <trkpt lat="42.00282" lon="9.12427">
        <ele>1679.973022</ele>
        <time>2011-10-29T09:01:51Z</time>
      </trkpt>
      <trkpt lat="42.00286" lon="9.1243">
        <ele>1680.350586</ele>
        <time>2011-10-29T09:01:57Z</time>
      </trkpt>
      <trkpt lat="42.00289" lon="9.12434">
        <ele>1680.690063</ele>
        <time>2011-10-29T09:02:06Z</time>
      </trkpt>
      <trkpt lat="42.00293" lon="9.12436">
        <ele>1680.984131</ele>
        <time>2011-10-29T09:02:11Z</time>
      </trkpt>
      <trkpt lat="42.00296" lon="9.12439">
        <ele>1680.835205</ele>
        <time>2011-10-29T09:02:15Z</time>
      </trkpt>
      <trkpt lat="42.00299" lon="9.12442">
        <ele>1680.697754</ele>
        <time>2011-10-29T09:02:19Z</time>
      </trkpt>
      <trkpt lat="42.00302" lon="9.12446">
        <ele>1680.313965</ele>
        <time>2011-10-29T09:02:23Z</time>
      </trkpt>
      <trkpt lat="42.00304" lon="9.1245">
        <ele>1679.856079</ele>
        <time>2011-10-29T09:02:27Z</time>
      </trkpt>
      <trkpt lat="42.00307" lon="9.12453">
        <ele>1679.416992</ele>
        <time>2011-10-29T09:02:31Z</time>
      </trkpt>
      <trkpt lat="42.00308" lon="9.12453">
        <ele>1679.28479</ele>
        <time>2011-10-29T09:02:32Z</time>
      </trkpt>
      <trkpt lat="42.00315" lon="9.12457">
        <ele>1678.505249</ele>
        <time>2011-10-29T09:02:39Z</time>
      </trkpt>
      <trkpt lat="42.00318" lon="9.12459">
        <ele>1678.1875</ele>
        <time>2011-10-29T09:02:43Z</time>
      </trkpt>
      <trkpt lat="42.00322" lon="9.1246">
        <ele>1677.869141</ele>
        <time>2011-10-29T09:02:47Z</time>
      </trkpt>
      <trkpt lat="42.00326" lon="9.1246">
        <ele>1677.614502</ele>
        <time>2011-10-29T09:02:51Z</time>
      </trkpt>
      <trkpt lat="42.00329" lon="9.12462">
        <ele>1677.171509</ele>
        <time>2011-10-29T09:02:55Z</time>
      </trkpt>
      <trkpt lat="42.00333" lon="9.12464">
        <ele>1676.651611</ele>
        <time>2011-10-29T09:03:00Z</time>
      </trkpt>
      <trkpt lat="42.00337" lon="9.12467">
        <ele>1675.786743</ele>
        <time>2011-10-29T09:03:05Z</time>
      </trkpt>
      <trkpt lat="42.00341" lon="9.12469">
        <ele>1674.643066</ele>
        <time>2011-10-29T09:03:10Z</time>
      </trkpt>
      <trkpt lat="42.00344" lon="9.12472">
        <ele>1673.376343</ele>
        <time>2011-10-29T09:03:14Z</time>
      </trkpt>
      <trkpt lat="42.00348" lon="9.12473">
        <ele>1672.347778</ele>
        <time>2011-10-29T09:03:19Z</time>
      </trkpt>
      <trkpt lat="42.00351" lon="9.12472">
        <ele>1671.795044</ele>
        <time>2011-10-29T09:03:23Z</time>
      </trkpt>
      <trkpt lat="42.00356" lon="9.12473">
        <ele>1670.716187</ele>
        <time>2011-10-29T09:03:27Z</time>
      </trkpt>
      <trkpt lat="42.0036" lon="9.12473">
        <ele>1669.807861</ele>
        <time>2011-10-29T09:03:32Z</time>
      </trkpt>
      <trkpt lat="42.0036" lon="9.12473">
        <ele>1669.732788</ele>
        <time>2011-10-29T09:03:33Z</time>
      </trkpt>
      <trkpt lat="42.00367" lon="9.12475">
        <ele>1667.835938</ele>
        <time>2011-10-29T09:03:42Z</time>
      </trkpt>
      <trkpt lat="42.00371" lon="9.12476">
        <ele>1666.746582</ele>
        <time>2011-10-29T09:03:47Z</time>
      </trkpt>
      <trkpt lat="42.00375" lon="9.12476">
        <ele>1666.000366</ele>
        <time>2011-10-29T09:03:52Z</time>
      </trkpt>
      <trkpt lat="42.00379" lon="9.12474">
        <ele>1665.279541</ele>
        <time>2011-10-29T09:03:57Z</time>
      </trkpt>
      <trkpt lat="42.00383" lon="9.12475">
        <ele>1664.992676</ele>
        <time>2011-10-29T09:04:01Z</time>
      </trkpt>
      <trkpt lat="42.00387" lon="9.12476">
        <ele>1664.841187</ele>
        <time>2011-10-29T09:04:06Z</time>
      </trkpt>
      <trkpt lat="42.00391" lon="9.12476">
        <ele>1664.846924</ele>
        <time>2011-10-29T09:04:12Z</time>
      </trkpt>
      <trkpt lat="42.00395" lon="9.12477">
        <ele>1664.719971</ele>
        <time>2011-10-29T09:04:15Z</time>
      </trkpt>
      <trkpt lat="42.00399" lon="9.12479">
        <ele>1664.456055</ele>
        <time>2011-10-29T09:04:20Z</time>
      </trkpt>
      <trkpt lat="42.00403" lon="9.12479">
        <ele>1664.446289</ele>
        <time>2011-10-29T09:04:24Z</time>
      </trkpt>
      <trkpt lat="42.00407" lon="9.1248">
        <ele>1664.34082</ele>
        <time>2011-10-29T09:04:34Z</time>
      </trkpt>
      <trkpt lat="42.00408" lon="9.12481">
        <ele>1664.254028</ele>
        <time>2011-10-29T09:04:35Z</time>
      </trkpt>
      <trkpt lat="42.00414" lon="9.12486">
        <ele>1663.733032</ele>
        <time>2011-10-29T09:04:42Z</time>
      </trkpt>
      <trkpt lat="42.00417" lon="9.12488">
        <ele>1663.510376</ele>
        <time>2011-10-29T09:04:46Z</time>
      </trkpt>
      <trkpt lat="42.0042" lon="9.12491">
        <ele>1663.278931</ele>
        <time>2011-10-29T09:04:50Z</time>
      </trkpt>
      <trkpt lat="42.00424" lon="9.12494">
        <ele>1663.026123</ele>
        <time>2011-10-29T09:04:54Z</time>
      </trkpt>
      <trkpt lat="42.00427" lon="9.12497">
        <ele>1663.365967</ele>
        <time>2011-10-29T09:04:58Z</time>
      </trkpt>
      <trkpt lat="42.00431" lon="9.12499">
        <ele>1664.049927</ele>
        <time>2011-10-29T09:05:03Z</time>
      </trkpt>
      <trkpt lat="42.00434" lon="9.125">
        <ele>1664.694458</ele>
        <time>2011-10-29T09:05:07Z</time>
      </trkpt>
      <trkpt lat="42.00438" lon="9.12501">
        <ele>1665.409668</ele>
        <time>2011-10-29T09:05:11Z</time>
      </trkpt>
      <trkpt lat="42.0044" lon="9.12507">
        <ele>1665.574341</ele>
        <time>2011-10-29T09:05:16Z</time>
      </trkpt>
      <trkpt lat="42.00443" lon="9.1251">
        <ele>1666.036743</ele>
        <time>2011-10-29T09:05:20Z</time>
      </trkpt>
      <trkpt lat="42.00446" lon="9.12513">
        <ele>1666.660034</ele>
        <time>2011-10-29T09:05:25Z</time>
      </trkpt>
      <trkpt lat="42.00448" lon="9.12518">
        <ele>1666.842773</ele>
        <time>2011-10-29T09:05:29Z</time>
      </trkpt>
      <trkpt lat="42.0045" lon="9.12523">
        <ele>1667.455078</ele>
        <time>2011-10-29T09:05:34Z</time>
      </trkpt>
      <trkpt lat="42.00453" lon="9.12527">
        <ele>1668.579712</ele>
        <time>2011-10-29T09:05:39Z</time>
      </trkpt>
      <trkpt lat="42.00453" lon="9.12528">
        <ele>1668.814819</ele>
        <time>2011-10-29T09:05:40Z</time>
      </trkpt>
      <trkpt lat="42.00458" lon="9.12536">
        <ele>1670.862305</ele>
        <time>2011-10-29T09:05:49Z</time>
      </trkpt>
      <trkpt lat="42.00461" lon="9.12539">
        <ele>1672.020508</ele>
        <time>2011-10-29T09:05:54Z</time>
      </trkpt>
      <trkpt lat="42.00463" lon="9.12543">
        <ele>1673.121826</ele>
        <time>2011-10-29T09:06:00Z</time>
      </trkpt>
      <trkpt lat="42.00466" lon="9.12547">
        <ele>1674.284424</ele>
        <time>2011-10-29T09:06:06Z</time>
      </trkpt>
      <trkpt lat="42.00469" lon="9.12552">
        <ele>1675.36499</ele>
        <time>2011-10-29T09:06:13Z</time>
      </trkpt>
      <trkpt lat="42.0047" lon="9.12557">
        <ele>1676.327637</ele>
        <time>2011-10-29T09:06:19Z</time>
      </trkpt>
      <trkpt lat="42.00472" lon="9.12562">
        <ele>1677.297607</ele>
        <time>2011-10-29T09:06:24Z</time>
      </trkpt>
      <trkpt lat="42.00474" lon="9.12567">
        <ele>1678.309692</ele>
        <time>2011-10-29T09:06:29Z</time>
      </trkpt>
      <trkpt lat="42.00477" lon="9.12571">
        <ele>1679.37915</ele>
        <time>2011-10-29T09:06:34Z</time>
      </trkpt>
      <trkpt lat="42.0048" lon="9.12576">
        <ele>1680.391602</ele>
        <time>2011-10-29T09:06:39Z</time>
      </trkpt>
      <trkpt lat="42.00483" lon="9.12579">
        <ele>1681.188721</ele>
        <time>2011-10-29T09:06:43Z</time>
      </trkpt>
      <trkpt lat="42.00484" lon="9.12579">
        <ele>1681.422852</ele>
        <time>2011-10-29T09:06:44Z</time>
      </trkpt>
      <trkpt lat="42.0049" lon="9.12583">
        <ele>1682.80896</ele>
        <time>2011-10-29T09:06:52Z</time>
      </trkpt>
      <trkpt lat="42.00492" lon="9.12588">
        <ele>1683.592773</ele>
        <time>2011-10-29T09:06:57Z</time>
      </trkpt>
      <trkpt lat="42.00492" lon="9.12594">
        <ele>1684.281372</ele>
        <time>2011-10-29T09:07:02Z</time>
      </trkpt>
      <trkpt lat="42.00492" lon="9.12599">
        <ele>1684.82019</ele>
        <time>2011-10-29T09:07:06Z</time>
      </trkpt>
      <trkpt lat="42.00493" lon="9.12604">
        <ele>1685.401001</ele>
        <time>2011-10-29T09:07:10Z</time>
      </trkpt>
      <trkpt lat="42.00492" lon="9.12609">
        <ele>1685.894287</ele>
        <time>2011-10-29T09:07:14Z</time>
      </trkpt>
      <trkpt lat="42.00491" lon="9.12614">
        <ele>1686.269897</ele>
        <time>2011-10-29T09:07:18Z</time>
      </trkpt>
      <trkpt lat="42.00491" lon="9.12619">
        <ele>1686.723511</ele>
        <time>2011-10-29T09:07:22Z</time>
      </trkpt>
      <trkpt lat="42.00493" lon="9.12624">
        <ele>1687.538696</ele>
        <time>2011-10-29T09:07:27Z</time>
      </trkpt>
      <trkpt lat="42.00495" lon="9.12628">
        <ele>1688.433716</ele>
        <time>2011-10-29T09:07:32Z</time>
      </trkpt>
      <trkpt lat="42.00497" lon="9.12634">
        <ele>1689.202026</ele>
        <time>2011-10-29T09:07:37Z</time>
      </trkpt>
      <trkpt lat="42.00497" lon="9.1264">
        <ele>1689.926514</ele>
        <time>2011-10-29T09:07:43Z</time>
      </trkpt>
      <trkpt lat="42.005" lon="9.12643">
        <ele>1690.762573</ele>
        <time>2011-10-29T09:07:49Z</time>
      </trkpt>
      <trkpt lat="42.005" lon="9.12644">
        <ele>1690.950317</ele>
        <time>2011-10-29T09:07:50Z</time>
      </trkpt>
      <trkpt lat="42.00506" lon="9.12651">
        <ele>1692.37207</ele>
        <time>2011-10-29T09:08:01Z</time>
      </trkpt>
      <trkpt lat="42.00509" lon="9.12655">
        <ele>1692.870361</ele>
        <time>2011-10-29T09:08:07Z</time>
      </trkpt>
      <trkpt lat="42.00511" lon="9.1266">
        <ele>1693.305542</ele>
        <time>2011-10-29T09:08:12Z</time>
      </trkpt>
      <trkpt lat="42.00515" lon="9.12663">
        <ele>1693.901489</ele>
        <time>2011-10-29T09:08:18Z</time>
      </trkpt>
      <trkpt lat="42.00518" lon="9.12666">
        <ele>1694.417725</ele>
        <time>2011-10-29T09:08:24Z</time>
      </trkpt>
      <trkpt lat="42.0052" lon="9.12671">
        <ele>1694.873291</ele>
        <time>2011-10-29T09:08:30Z</time>
      </trkpt>
      <trkpt lat="42.00522" lon="9.12676">
        <ele>1695.446045</ele>
        <time>2011-10-29T09:08:36Z</time>
      </trkpt>
      <trkpt lat="42.00525" lon="9.1268">
        <ele>1696.007202</ele>
        <time>2011-10-29T09:08:42Z</time>
      </trkpt>
      <trkpt lat="42.00527" lon="9.12684">
        <ele>1696.523804</ele>
        <time>2011-10-29T09:08:48Z</time>
      </trkpt>
      <trkpt lat="42.00529" lon="9.12689">
        <ele>1697.094238</ele>
        <time>2011-10-29T09:08:53Z</time>
      </trkpt>
      <trkpt lat="42.00529" lon="9.1269">
        <ele>1697.181763</ele>
        <time>2011-10-29T09:08:54Z</time>
      </trkpt>
      <trkpt lat="42.00535" lon="9.12696">
        <ele>1698.346069</ele>
        <time>2011-10-29T09:09:04Z</time>
      </trkpt>
      <trkpt lat="42.00538" lon="9.12699">
        <ele>1699.0448</ele>
        <time>2011-10-29T09:09:10Z</time>
      </trkpt>
      <trkpt lat="42.00541" lon="9.12704">
        <ele>1699.739502</ele>
        <time>2011-10-29T09:09:16Z</time>
      </trkpt>
      <trkpt lat="42.00543" lon="9.12708">
        <ele>1700.338013</ele>
        <time>2011-10-29T09:09:21Z</time>
      </trkpt>
      <trkpt lat="42.00545" lon="9.12714">
        <ele>1700.977539</ele>
        <time>2011-10-29T09:09:26Z</time>
      </trkpt>
      <trkpt lat="42.00547" lon="9.12718">
        <ele>1701.074707</ele>
        <time>2011-10-29T09:09:31Z</time>
      </trkpt>
      <trkpt lat="42.00549" lon="9.12722">
        <ele>1701.224731</ele>
        <time>2011-10-29T09:09:36Z</time>
      </trkpt>
      <trkpt lat="42.00551" lon="9.12727">
        <ele>1701.350952</ele>
        <time>2011-10-29T09:09:41Z</time>
      </trkpt>
      <trkpt lat="42.00554" lon="9.12732">
        <ele>1701.555298</ele>
        <time>2011-10-29T09:09:46Z</time>
      </trkpt>
      <trkpt lat="42.00556" lon="9.12736">
        <ele>1701.706665</ele>
        <time>2011-10-29T09:09:50Z</time>
      </trkpt>
      <trkpt lat="42.00558" lon="9.1274">
        <ele>1701.897583</ele>
        <time>2011-10-29T09:09:54Z</time>
      </trkpt>
      <trkpt lat="42.00559" lon="9.12741">
        <ele>1701.960327</ele>
        <time>2011-10-29T09:09:55Z</time>
      </trkpt>
      <trkpt lat="42.00564" lon="9.12747">
        <ele>1702.429199</ele>
        <time>2011-10-29T09:10:02Z</time>
      </trkpt>
      <trkpt lat="42.00567" lon="9.12751">
        <ele>1702.718994</ele>
        <time>2011-10-29T09:10:06Z</time>
      </trkpt>
      <trkpt lat="42.0057" lon="9.12754">
        <ele>1703.050537</ele>
        <time>2011-10-29T09:10:13Z</time>
      </trkpt>
      <trkpt lat="42.00574" lon="9.12755">
        <ele>1703.397705</ele>
        <time>2011-10-29T09:10:17Z</time>
      </trkpt>
      <trkpt lat="42.00577" lon="9.12758">
        <ele>1703.728882</ele>
        <time>2011-10-29T09:10:21Z</time>
      </trkpt>
      <trkpt lat="42.0058" lon="9.12761">
        <ele>1704.078003</ele>
        <time>2011-10-29T09:10:26Z</time>
      </trkpt>
      <trkpt lat="42.00584" lon="9.12763">
        <ele>1704.493408</ele>
        <time>2011-10-29T09:10:32Z</time>
      </trkpt>
      <trkpt lat="42.00588" lon="9.12765">
        <ele>1705.031372</ele>
        <time>2011-10-29T09:10:38Z</time>
      </trkpt>
      <trkpt lat="42.00592" lon="9.12767">
        <ele>1705.703125</ele>
        <time>2011-10-29T09:10:43Z</time>
      </trkpt>
      <trkpt lat="42.00595" lon="9.12769">
        <ele>1706.32666</ele>
        <time>2011-10-29T09:10:47Z</time>
      </trkpt>
      <trkpt lat="42.00599" lon="9.12771">
        <ele>1706.935913</ele>
        <time>2011-10-29T09:10:51Z</time>
      </trkpt>
      <trkpt lat="42.00602" lon="9.12773">
        <ele>1707.611328</ele>
        <time>2011-10-29T09:10:55Z</time>
      </trkpt>
      <trkpt lat="42.00603" lon="9.12774">
        <ele>1707.766235</ele>
        <time>2011-10-29T09:10:56Z</time>
      </trkpt>
      <trkpt lat="42.0061" lon="9.12778">
        <ele>1709.104126</ele>
        <time>2011-10-29T09:11:03Z</time>
      </trkpt>
      <trkpt lat="42.00613" lon="9.1278">
        <ele>1709.833008</ele>
        <time>2011-10-29T09:11:07Z</time>
      </trkpt>
      <trkpt lat="42.00617" lon="9.12781">
        <ele>1710.541382</ele>
        <time>2011-10-29T09:11:11Z</time>
      </trkpt>
      <trkpt lat="42.0062" lon="9.12784">
        <ele>1711.231689</ele>
        <time>2011-10-29T09:11:15Z</time>
      </trkpt>
      <trkpt lat="42.00624" lon="9.12786">
        <ele>1712.001343</ele>
        <time>2011-10-29T09:11:19Z</time>
      </trkpt>
      <trkpt lat="42.00628" lon="9.12788">
        <ele>1712.651123</ele>
        <time>2011-10-29T09:11:23Z</time>
      </trkpt>
      <trkpt lat="42.00631" lon="9.1279">
        <ele>1713.287842</ele>
        <time>2011-10-29T09:11:27Z</time>
      </trkpt>
      <trkpt lat="42.00634" lon="9.12793">
        <ele>1713.988525</ele>
        <time>2011-10-29T09:11:31Z</time>
      </trkpt>
      <trkpt lat="42.00637" lon="9.12796">
        <ele>1714.683594</ele>
        <time>2011-10-29T09:11:35Z</time>
      </trkpt>
      <trkpt lat="42.00641" lon="9.12798">
        <ele>1715.409424</ele>
        <time>2011-10-29T09:11:39Z</time>
      </trkpt>
      <trkpt lat="42.00645" lon="9.12799">
        <ele>1716.276001</ele>
        <time>2011-10-29T09:11:44Z</time>
      </trkpt>
      <trkpt lat="42.00649" lon="9.12801">
        <ele>1717.038574</ele>
        <time>2011-10-29T09:11:49Z</time>
      </trkpt>
      <trkpt lat="42.00652" lon="9.12803">
        <ele>1717.815552</ele>
        <time>2011-10-29T09:11:54Z</time>
      </trkpt>
      <trkpt lat="42.00657" lon="9.12805">
        <ele>1718.675171</ele>
        <time>2011-10-29T09:12:00Z</time>
      </trkpt>
      <trkpt lat="42.00657" lon="9.12806">
        <ele>1718.763916</ele>
        <time>2011-10-29T09:12:01Z</time>
      </trkpt>
      <trkpt lat="42.00665" lon="9.12809">
        <ele>1720.355103</ele>
        <time>2011-10-29T09:12:12Z</time>
      </trkpt>
      <trkpt lat="42.00669" lon="9.1281">
        <ele>1721.136719</ele>
        <time>2011-10-29T09:12:17Z</time>
      </trkpt>
      <trkpt lat="42.00672" lon="9.12814">
        <ele>1721.807007</ele>
        <time>2011-10-29T09:12:22Z</time>
      </trkpt>
      <trkpt lat="42.00675" lon="9.12817">
        <ele>1722.46814</ele>
        <time>2011-10-29T09:12:27Z</time>
      </trkpt>
      <trkpt lat="42.00679" lon="9.1282">
        <ele>1723.393188</ele>
        <time>2011-10-29T09:12:32Z</time>
      </trkpt>
      <trkpt lat="42.00683" lon="9.12822">
        <ele>1724.361328</ele>
        <time>2011-10-29T09:12:37Z</time>
      </trkpt>
      <trkpt lat="42.00686" lon="9.12824">
        <ele>1725.257446</ele>
        <time>2011-10-29T09:12:42Z</time>
      </trkpt>
      <trkpt lat="42.0069" lon="9.12827">
        <ele>1726.268921</ele>
        <time>2011-10-29T09:12:48Z</time>
      </trkpt>
      <trkpt lat="42.00694" lon="9.12829">
        <ele>1727.250854</ele>
        <time>2011-10-29T09:12:53Z</time>
      </trkpt>
      <trkpt lat="42.00698" lon="9.12831">
        <ele>1728.245728</ele>
        <time>2011-10-29T09:12:58Z</time>
      </trkpt>
      <trkpt lat="42.00702" lon="9.12833">
        <ele>1729.32666</ele>
        <time>2011-10-29T09:13:04Z</time>
      </trkpt>
      <trkpt lat="42.00703" lon="9.12833">
        <ele>1729.502075</ele>
        <time>2011-10-29T09:13:05Z</time>
      </trkpt>
      <trkpt lat="42.0071" lon="9.12835">
        <ele>1731.469116</ele>
        <time>2011-10-29T09:13:17Z</time>
      </trkpt>
      <trkpt lat="42.00714" lon="9.12836">
        <ele>1732.48999</ele>
        <time>2011-10-29T09:13:23Z</time>
      </trkpt>
      <trkpt lat="42.00718" lon="9.12839">
        <ele>1733.519775</ele>
        <time>2011-10-29T09:13:29Z</time>
      </trkpt>
      <trkpt lat="42.00722" lon="9.12839">
        <ele>1734.323608</ele>
        <time>2011-10-29T09:13:34Z</time>
      </trkpt>
      <trkpt lat="42.00725" lon="9.12842">
        <ele>1735.198242</ele>
        <time>2011-10-29T09:13:39Z</time>
      </trkpt>
      <trkpt lat="42.00729" lon="9.12845">
        <ele>1736.17688</ele>
        <time>2011-10-29T09:13:44Z</time>
      </trkpt>
      <trkpt lat="42.00731" lon="9.12849">
        <ele>1737.015869</ele>
        <time>2011-10-29T09:13:49Z</time>
      </trkpt>
      <trkpt lat="42.00735" lon="9.12852">
        <ele>1737.919434</ele>
        <time>2011-10-29T09:13:54Z</time>
      </trkpt>
      <trkpt lat="42.00739" lon="9.12854">
        <ele>1738.974243</ele>
        <time>2011-10-29T09:14:00Z</time>
      </trkpt>
      <trkpt lat="42.00743" lon="9.12855">
        <ele>1739.867065</ele>
        <time>2011-10-29T09:14:05Z</time>
      </trkpt>
      <trkpt lat="42.00743" lon="9.12856">
        <ele>1740.043701</ele>
        <time>2011-10-29T09:14:06Z</time>
      </trkpt>
      <trkpt lat="42.0075" lon="9.12859">
        <ele>1741.599976</ele>
        <time>2011-10-29T09:14:15Z</time>
      </trkpt>
      <trkpt lat="42.00753" lon="9.12861">
        <ele>1742.425049</ele>
        <time>2011-10-29T09:14:20Z</time>
      </trkpt>
      <trkpt lat="42.00757" lon="9.12863">
        <ele>1743.275024</ele>
        <time>2011-10-29T09:14:25Z</time>
      </trkpt>
      <trkpt lat="42.00761" lon="9.12865">
        <ele>1744.151367</ele>
        <time>2011-10-29T09:14:31Z</time>
      </trkpt>
      <trkpt lat="42.00765" lon="9.12867">
        <ele>1745.037842</ele>
        <time>2011-10-29T09:14:37Z</time>
      </trkpt>
      <trkpt lat="42.00768" lon="9.1287">
        <ele>1745.904053</ele>
        <time>2011-10-29T09:14:43Z</time>
      </trkpt>
      <trkpt lat="42.00773" lon="9.1287">
        <ele>1746.894165</ele>
        <time>2011-10-29T09:14:49Z</time>
      </trkpt>
      <trkpt lat="42.00777" lon="9.12872">
        <ele>1747.845825</ele>
        <time>2011-10-29T09:14:56Z</time>
      </trkpt>
      <trkpt lat="42.0078" lon="9.12875">
        <ele>1748.600098</ele>
        <time>2011-10-29T09:15:02Z</time>
      </trkpt>
      <trkpt lat="42.00783" lon="9.12878">
        <ele>1749.466064</ele>
        <time>2011-10-29T09:15:08Z</time>
      </trkpt>
      <trkpt lat="42.00784" lon="9.12878">
        <ele>1749.598511</ele>
        <time>2011-10-29T09:15:09Z</time>
      </trkpt>
      <trkpt lat="42.00791" lon="9.12883">
        <ele>1751.387695</ele>
        <time>2011-10-29T09:15:21Z</time>
      </trkpt>
      <trkpt lat="42.00795" lon="9.12886">
        <ele>1752.30603</ele>
        <time>2011-10-29T09:15:28Z</time>
      </trkpt>
      <trkpt lat="42.00798" lon="9.12889">
        <ele>1753.191284</ele>
        <time>2011-10-29T09:15:33Z</time>
      </trkpt>
      <trkpt lat="42.00802" lon="9.12891">
        <ele>1754.205078</ele>
        <time>2011-10-29T09:15:38Z</time>
      </trkpt>
      <trkpt lat="42.00806" lon="9.12894">
        <ele>1755.059448</ele>
        <time>2011-10-29T09:15:44Z</time>
      </trkpt>
      <trkpt lat="42.00809" lon="9.12896">
        <ele>1755.844238</ele>
        <time>2011-10-29T09:15:49Z</time>
      </trkpt>
      <trkpt lat="42.00813" lon="9.12898">
        <ele>1756.755005</ele>
        <time>2011-10-29T09:15:55Z</time>
      </trkpt>
      <trkpt lat="42.00818" lon="9.12899">
        <ele>1757.704834</ele>
        <time>2011-10-29T09:16:02Z</time>
      </trkpt>
      <trkpt lat="42.00822" lon="9.12902">
        <ele>1758.583252</ele>
        <time>2011-10-29T09:16:09Z</time>
      </trkpt>
      <trkpt lat="42.00822" lon="9.12902">
        <ele>1758.710083</ele>
        <time>2011-10-29T09:16:10Z</time>
      </trkpt>
      <trkpt lat="42.00829" lon="9.12905">
        <ele>1760.259521</ele>
        <time>2011-10-29T09:16:21Z</time>
      </trkpt>
      <trkpt lat="42.00833" lon="9.12906">
        <ele>1761.062134</ele>
        <time>2011-10-29T09:16:26Z</time>
      </trkpt>
      <trkpt lat="42.00836" lon="9.12908">
        <ele>1761.986206</ele>
        <time>2011-10-29T09:16:32Z</time>
      </trkpt>
      <trkpt lat="42.0084" lon="9.12911">
        <ele>1762.905762</ele>
        <time>2011-10-29T09:16:38Z</time>
      </trkpt>
      <trkpt lat="42.00844" lon="9.12915">
        <ele>1763.827148</ele>
        <time>2011-10-29T09:16:44Z</time>
      </trkpt>
      <trkpt lat="42.00847" lon="9.12917">
        <ele>1764.615479</ele>
        <time>2011-10-29T09:16:49Z</time>
      </trkpt>
      <trkpt lat="42.00851" lon="9.1292">
        <ele>1765.388062</ele>
        <time>2011-10-29T09:16:54Z</time>
      </trkpt>
      <trkpt lat="42.00854" lon="9.12921">
        <ele>1766.106934</ele>
        <time>2011-10-29T09:17:00Z</time>
      </trkpt>
      <trkpt lat="42.00858" lon="9.12923">
        <ele>1766.981201</ele>
        <time>2011-10-29T09:17:05Z</time>
      </trkpt>
      <trkpt lat="42.00862" lon="9.12924">
        <ele>1767.750488</ele>
        <time>2011-10-29T09:17:09Z</time>
      </trkpt>
      <trkpt lat="42.00866" lon="9.12926">
        <ele>1768.5625</ele>
        <time>2011-10-29T09:17:14Z</time>
      </trkpt>
      <trkpt lat="42.00867" lon="9.12926">
        <ele>1768.710571</ele>
        <time>2011-10-29T09:17:15Z</time>
      </trkpt>
      <trkpt lat="42.00873" lon="9.12931">
        <ele>1770.345703</ele>
        <time>2011-10-29T09:17:25Z</time>
      </trkpt>
      <trkpt lat="42.00877" lon="9.12934">
        <ele>1771.230225</ele>
        <time>2011-10-29T09:17:30Z</time>
      </trkpt>
      <trkpt lat="42.00881" lon="9.12936">
        <ele>1772.033813</ele>
        <time>2011-10-29T09:17:35Z</time>
      </trkpt>
      <trkpt lat="42.00884" lon="9.12938">
        <ele>1772.75293</ele>
        <time>2011-10-29T09:17:40Z</time>
      </trkpt>
      <trkpt lat="42.00888" lon="9.12941">
        <ele>1773.498901</ele>
        <time>2011-10-29T09:17:45Z</time>
      </trkpt>
      <trkpt lat="42.00891" lon="9.12943">
        <ele>1774.203003</ele>
        <time>2011-10-29T09:17:50Z</time>
      </trkpt>
      <trkpt lat="42.00896" lon="9.12945">
        <ele>1774.913574</ele>
        <time>2011-10-29T09:17:56Z</time>
      </trkpt>
      <trkpt lat="42.009" lon="9.12947">
        <ele>1775.619507</ele>
        <time>2011-10-29T09:18:01Z</time>
      </trkpt>
      <trkpt lat="42.00904" lon="9.12949">
        <ele>1776.343872</ele>
        <time>2011-10-29T09:18:06Z</time>
      </trkpt>
      <trkpt lat="42.00907" lon="9.12951">
        <ele>1777.046387</ele>
        <time>2011-10-29T09:18:11Z</time>
      </trkpt>
      <trkpt lat="42.00911" lon="9.12953">
        <ele>1777.800049</ele>
        <time>2011-10-29T09:18:16Z</time>
      </trkpt>
      <trkpt lat="42.00912" lon="9.12954">
        <ele>1777.947876</ele>
        <time>2011-10-29T09:18:17Z</time>
      </trkpt>
      <trkpt lat="42.00919" lon="9.12958">
        <ele>1779.343262</ele>
        <time>2011-10-29T09:18:26Z</time>
      </trkpt>
      <trkpt lat="42.00923" lon="9.12959">
        <ele>1780.060791</ele>
        <time>2011-10-29T09:18:34Z</time>
      </trkpt>
      <trkpt lat="42.00927" lon="9.12961">
        <ele>1780.806152</ele>
        <time>2011-10-29T09:18:39Z</time>
      </trkpt>
      <trkpt lat="42.0093" lon="9.12964">
        <ele>1781.48938</ele>
        <time>2011-10-29T09:18:43Z</time>
      </trkpt>
      <trkpt lat="42.00934" lon="9.12967">
        <ele>1782.349976</ele>
        <time>2011-10-29T09:18:48Z</time>
      </trkpt>
      <trkpt lat="42.00937" lon="9.1297">
        <ele>1783.164185</ele>
        <time>2011-10-29T09:18:53Z</time>
      </trkpt>
      <trkpt lat="42.00941" lon="9.12972">
        <ele>1783.951904</ele>
        <time>2011-10-29T09:18:57Z</time>
      </trkpt>
      <trkpt lat="42.00944" lon="9.12974">
        <ele>1784.663452</ele>
        <time>2011-10-29T09:19:01Z</time>
      </trkpt>
      <trkpt lat="42.00948" lon="9.12976">
        <ele>1785.432739</ele>
        <time>2011-10-29T09:19:05Z</time>
      </trkpt>
      <trkpt lat="42.00952" lon="9.12979">
        <ele>1786.250854</ele>
        <time>2011-10-29T09:19:09Z</time>
      </trkpt>
      <trkpt lat="42.00955" lon="9.12981">
        <ele>1787.079956</ele>
        <time>2011-10-29T09:19:14Z</time>
      </trkpt>
      <trkpt lat="42.00959" lon="9.12983">
        <ele>1787.940918</ele>
        <time>2011-10-29T09:19:19Z</time>
      </trkpt>
      <trkpt lat="42.0096" lon="9.12983">
        <ele>1788.087036</ele>
        <time>2011-10-29T09:19:20Z</time>
      </trkpt>
      <trkpt lat="42.00966" lon="9.12988">
        <ele>1789.609741</ele>
        <time>2011-10-29T09:19:28Z</time>
      </trkpt>
      <trkpt lat="42.0097" lon="9.1299">
        <ele>1790.415527</ele>
        <time>2011-10-29T09:19:32Z</time>
      </trkpt>
      <trkpt lat="42.00974" lon="9.12992">
        <ele>1791.325073</ele>
        <time>2011-10-29T09:19:36Z</time>
      </trkpt>
      <trkpt lat="42.00978" lon="9.12994">
        <ele>1792.265015</ele>
        <time>2011-10-29T09:19:41Z</time>
      </trkpt>
      <trkpt lat="42.00981" lon="9.12996">
        <ele>1793.046753</ele>
        <time>2011-10-29T09:19:45Z</time>
      </trkpt>
      <trkpt lat="42.00985" lon="9.12998">
        <ele>1793.964355</ele>
        <time>2011-10-29T09:19:50Z</time>
      </trkpt>
      <trkpt lat="42.00989" lon="9.13">
        <ele>1794.87793</ele>
        <time>2011-10-29T09:19:55Z</time>
      </trkpt>
      <trkpt lat="42.00993" lon="9.13002">
        <ele>1795.723145</ele>
        <time>2011-10-29T09:20:00Z</time>
      </trkpt>
      <trkpt lat="42.00996" lon="9.13004">
        <ele>1796.618652</ele>
        <time>2011-10-29T09:20:05Z</time>
      </trkpt>
      <trkpt lat="42.01" lon="9.13006">
        <ele>1797.511353</ele>
        <time>2011-10-29T09:20:10Z</time>
      </trkpt>
      <trkpt lat="42.01003" lon="9.13008">
        <ele>1798.48999</ele>
        <time>2011-10-29T09:20:16Z</time>
      </trkpt>
      <trkpt lat="42.01007" lon="9.1301">
        <ele>1799.237549</ele>
        <time>2011-10-29T09:20:22Z</time>
      </trkpt>
      <trkpt lat="42.01008" lon="9.1301">
        <ele>1799.369995</ele>
        <time>2011-10-29T09:20:23Z</time>
      </trkpt>
      <trkpt lat="42.01015" lon="9.13014">
        <ele>1800.852539</ele>
        <time>2011-10-29T09:20:34Z</time>
      </trkpt>
      <trkpt lat="42.01019" lon="9.13015">
        <ele>1801.622559</ele>
        <time>2011-10-29T09:20:39Z</time>
      </trkpt>
      <trkpt lat="42.01023" lon="9.13016">
        <ele>1802.155396</ele>
        <time>2011-10-29T09:20:44Z</time>
      </trkpt>
      <trkpt lat="42.01027" lon="9.13018">
        <ele>1802.475708</ele>
        <time>2011-10-29T09:20:49Z</time>
      </trkpt>
      <trkpt lat="42.01031" lon="9.13019">
        <ele>1802.827637</ele>
        <time>2011-10-29T09:20:54Z</time>
      </trkpt>
      <trkpt lat="42.01034" lon="9.13021">
        <ele>1803.114014</ele>
        <time>2011-10-29T09:20:58Z</time>
      </trkpt>
      <trkpt lat="42.01038" lon="9.13023">
        <ele>1803.46521</ele>
        <time>2011-10-29T09:21:02Z</time>
      </trkpt>
      <trkpt lat="42.01041" lon="9.13025">
        <ele>1803.795044</ele>
        <time>2011-10-29T09:21:06Z</time>
      </trkpt>
      <trkpt lat="42.01045" lon="9.13027">
        <ele>1804.162109</ele>
        <time>2011-10-29T09:21:12Z</time>
      </trkpt>
      <trkpt lat="42.01049" lon="9.13029">
        <ele>1804.477051</ele>
        <time>2011-10-29T09:21:17Z</time>
      </trkpt>
      <trkpt lat="42.01052" lon="9.13032">
        <ele>1804.776611</ele>
        <time>2011-10-29T09:21:20Z</time>
      </trkpt>
      <trkpt lat="42.01055" lon="9.13034">
        <ele>1805.100952</ele>
        <time>2011-10-29T09:21:23Z</time>
      </trkpt>
      <trkpt lat="42.01056" lon="9.13035">
        <ele>1805.218384</ele>
        <time>2011-10-29T09:21:24Z</time>
      </trkpt>
      <trkpt lat="42.01062" lon="9.13039">
        <ele>1805.769531</ele>
        <time>2011-10-29T09:21:29Z</time>
      </trkpt>
      <trkpt lat="42.01065" lon="9.1304">
        <ele>1806.060059</ele>
        <time>2011-10-29T09:21:32Z</time>
      </trkpt>
      <trkpt lat="42.01068" lon="9.13042">
        <ele>1806.300049</ele>
        <time>2011-10-29T09:21:35Z</time>
      </trkpt>
      <trkpt lat="42.01072" lon="9.13044">
        <ele>1806.517456</ele>
        <time>2011-10-29T09:21:38Z</time>
      </trkpt>
      <trkpt lat="42.01076" lon="9.13046">
        <ele>1806.795044</ele>
        <time>2011-10-29T09:21:42Z</time>
      </trkpt>
      <trkpt lat="42.01079" lon="9.13048">
        <ele>1807.027466</ele>
        <time>2011-10-29T09:21:45Z</time>
      </trkpt>
      <trkpt lat="42.01083" lon="9.13051">
        <ele>1807.290039</ele>
        <time>2011-10-29T09:21:49Z</time>
      </trkpt>
      <trkpt lat="42.01086" lon="9.13053">
        <ele>1807.537476</ele>
        <time>2011-10-29T09:21:53Z</time>
      </trkpt>
      <trkpt lat="42.0109" lon="9.13056">
        <ele>1807.777466</ele>
        <time>2011-10-29T09:21:57Z</time>
      </trkpt>
      <trkpt lat="42.01093" lon="9.13057">
        <ele>1808.017456</ele>
        <time>2011-10-29T09:22:01Z</time>
      </trkpt>
      <trkpt lat="42.01097" lon="9.13059">
        <ele>1808.287476</ele>
        <time>2011-10-29T09:22:05Z</time>
      </trkpt>
      <trkpt lat="42.011" lon="9.13062">
        <ele>1808.505005</ele>
        <time>2011-10-29T09:22:09Z</time>
      </trkpt>
      <trkpt lat="42.01104" lon="9.13065">
        <ele>1808.737549</ele>
        <time>2011-10-29T09:22:13Z</time>
      </trkpt>
      <trkpt lat="42.01107" lon="9.13067">
        <ele>1808.977539</ele>
        <time>2011-10-29T09:22:17Z</time>
      </trkpt>
      <trkpt lat="42.0111" lon="9.1307">
        <ele>1809.334961</ele>
        <time>2011-10-29T09:22:21Z</time>
      </trkpt>
      <trkpt lat="42.01114" lon="9.13071">
        <ele>1809.753174</ele>
        <time>2011-10-29T09:22:27Z</time>
      </trkpt>
      <trkpt lat="42.01115" lon="9.13071">
        <ele>1809.823608</ele>
        <time>2011-10-29T09:22:28Z</time>
      </trkpt>
      <trkpt lat="42.01123" lon="9.1307">
        <ele>1810.596802</ele>
        <time>2011-10-29T09:24:03Z</time>
      </trkpt>
      <trkpt lat="42.01123" lon="9.13071">
        <ele>1810.659546</ele>
        <time>2011-10-29T09:24:04Z</time>
      </trkpt>
      <trkpt lat="42.0113" lon="9.13076">
        <ele>1811.477783</ele>
        <time>2011-10-29T09:24:31Z</time>
      </trkpt>
      <trkpt lat="42.01134" lon="9.1308">
        <ele>1811.940308</ele>
        <time>2011-10-29T09:25:23Z</time>
      </trkpt>
      <trkpt lat="42.01134" lon="9.1308">
        <ele>1811.991943</ele>
        <time>2011-10-29T09:25:24Z</time>
      </trkpt>
      <trkpt lat="42.01141" lon="9.13084">
        <ele>1812.863403</ele>
        <time>2011-10-29T09:25:37Z</time>
      </trkpt>
      <trkpt lat="42.01145" lon="9.13087">
        <ele>1813.186157</ele>
        <time>2011-10-29T09:25:42Z</time>
      </trkpt>
      <trkpt lat="42.01148" lon="9.13089">
        <ele>1813.443726</ele>
        <time>2011-10-29T09:25:47Z</time>
      </trkpt>
      <trkpt lat="42.01151" lon="9.13091">
        <ele>1813.690918</ele>
        <time>2011-10-29T09:25:51Z</time>
      </trkpt>
      <trkpt lat="42.01155" lon="9.13093">
        <ele>1814.176514</ele>
        <time>2011-10-29T09:25:58Z</time>
      </trkpt>
      <trkpt lat="42.01158" lon="9.13096">
        <ele>1814.48584</ele>
        <time>2011-10-29T09:26:02Z</time>
      </trkpt>
      <trkpt lat="42.01162" lon="9.13099">
        <ele>1814.846191</ele>
        <time>2011-10-29T09:26:06Z</time>
      </trkpt>
      <trkpt lat="42.01165" lon="9.13103">
        <ele>1815.075439</ele>
        <time>2011-10-29T09:26:10Z</time>
      </trkpt>
      <trkpt lat="42.01168" lon="9.13107">
        <ele>1815.338135</ele>
        <time>2011-10-29T09:26:14Z</time>
      </trkpt>
      <trkpt lat="42.01171" lon="9.13111">
        <ele>1815.494507</ele>
        <time>2011-10-29T09:26:18Z</time>
      </trkpt>
      <trkpt lat="42.01174" lon="9.13115">
        <ele>1815.732544</ele>
        <time>2011-10-29T09:26:22Z</time>
      </trkpt>
      <trkpt lat="42.01177" lon="9.13119">
        <ele>1815.988403</ele>
        <time>2011-10-29T09:26:26Z</time>
      </trkpt>
      <trkpt lat="42.01177" lon="9.1312">
        <ele>1816.027588</ele>
        <time>2011-10-29T09:26:27Z</time>
      </trkpt>
      <trkpt lat="42.01182" lon="9.13128">
        <ele>1816.46936</ele>
        <time>2011-10-29T09:26:35Z</time>
      </trkpt>
      <trkpt lat="42.01185" lon="9.13132">
        <ele>1816.752197</ele>
        <time>2011-10-29T09:26:40Z</time>
      </trkpt>
      <trkpt lat="42.01188" lon="9.13135">
        <ele>1817.04126</ele>
        <time>2011-10-29T09:26:44Z</time>
      </trkpt>
      <trkpt lat="42.01191" lon="9.13139">
        <ele>1817.411133</ele>
        <time>2011-10-29T09:26:48Z</time>
      </trkpt>
      <trkpt lat="42.01195" lon="9.13142">
        <ele>1817.804932</ele>
        <time>2011-10-29T09:26:52Z</time>
      </trkpt>
      <trkpt lat="42.01198" lon="9.13145">
        <ele>1818.208496</ele>
        <time>2011-10-29T09:26:57Z</time>
      </trkpt>
      <trkpt lat="42.01201" lon="9.13149">
        <ele>1818.546997</ele>
        <time>2011-10-29T09:27:02Z</time>
      </trkpt>
      <trkpt lat="42.01204" lon="9.13152">
        <ele>1818.956177</ele>
        <time>2011-10-29T09:27:06Z</time>
      </trkpt>
      <trkpt lat="42.01207" lon="9.13157">
        <ele>1819.158569</ele>
        <time>2011-10-29T09:27:11Z</time>
      </trkpt>
      <trkpt lat="42.0121" lon="9.1316">
        <ele>1819.394897</ele>
        <time>2011-10-29T09:27:15Z</time>
      </trkpt>
      <trkpt lat="42.01213" lon="9.13163">
        <ele>1819.663818</ele>
        <time>2011-10-29T09:27:19Z</time>
      </trkpt>
      <trkpt lat="42.01216" lon="9.13167">
        <ele>1819.98877</ele>
        <time>2011-10-29T09:27:23Z</time>
      </trkpt>
      <trkpt lat="42.01219" lon="9.13171">
        <ele>1820.270508</ele>
        <time>2011-10-29T09:27:27Z</time>
      </trkpt>
      <trkpt lat="42.0122" lon="9.13171">
        <ele>1820.366699</ele>
        <time>2011-10-29T09:27:28Z</time>
      </trkpt>
      <trkpt lat="42.01225" lon="9.13178">
        <ele>1820.93042</ele>
        <time>2011-10-29T09:27:36Z</time>
      </trkpt>
      <trkpt lat="42.01228" lon="9.13182">
        <ele>1821.272217</ele>
        <time>2011-10-29T09:27:40Z</time>
      </trkpt>
      <trkpt lat="42.0123" lon="9.13186">
        <ele>1821.671265</ele>
        <time>2011-10-29T09:27:44Z</time>
      </trkpt>
      <trkpt lat="42.01233" lon="9.1319">
        <ele>1822.037842</ele>
        <time>2011-10-29T09:27:48Z</time>
      </trkpt>
      <trkpt lat="42.01236" lon="9.13193">
        <ele>1822.47876</ele>
        <time>2011-10-29T09:27:52Z</time>
      </trkpt>
      <trkpt lat="42.01239" lon="9.13197">
        <ele>1822.929321</ele>
        <time>2011-10-29T09:27:57Z</time>
      </trkpt>
      <trkpt lat="42.01243" lon="9.132">
        <ele>1823.540405</ele>
        <time>2011-10-29T09:28:02Z</time>
      </trkpt>
      <trkpt lat="42.01246" lon="9.13203">
        <ele>1824.107056</ele>
        <time>2011-10-29T09:28:07Z</time>
      </trkpt>
      <trkpt lat="42.01249" lon="9.132">
        <ele>1824.836304</ele>
        <time>2011-10-29T09:28:14Z</time>
      </trkpt>
      <trkpt lat="42.01253" lon="9.13201">
        <ele>1825.671631</ele>
        <time>2011-10-29T09:28:20Z</time>
      </trkpt>
      <trkpt lat="42.01257" lon="9.13202">
        <ele>1826.421265</ele>
        <time>2011-10-29T09:28:25Z</time>
      </trkpt>
      <trkpt lat="42.01261" lon="9.13203">
        <ele>1827.123413</ele>
        <time>2011-10-29T09:28:29Z</time>
      </trkpt>
      <trkpt lat="42.01262" lon="9.13203">
        <ele>1827.276245</ele>
        <time>2011-10-29T09:28:30Z</time>
      </trkpt>
      <trkpt lat="42.01269" lon="9.13207">
        <ele>1828.634766</ele>
        <time>2011-10-29T09:28:40Z</time>
      </trkpt>
      <trkpt lat="42.01273" lon="9.13209">
        <ele>1829.349243</ele>
        <time>2011-10-29T09:28:45Z</time>
      </trkpt>
      <trkpt lat="42.01277" lon="9.1321">
        <ele>1830.176758</ele>
        <time>2011-10-29T09:28:52Z</time>
      </trkpt>
      <trkpt lat="42.0128" lon="9.13214">
        <ele>1830.853027</ele>
        <time>2011-10-29T09:28:59Z</time>
      </trkpt>
      <trkpt lat="42.01283" lon="9.13218">
        <ele>1831.428955</ele>
        <time>2011-10-29T09:29:05Z</time>
      </trkpt>
      <trkpt lat="42.01286" lon="9.13221">
        <ele>1832.204102</ele>
        <time>2011-10-29T09:29:12Z</time>
      </trkpt>
      <trkpt lat="42.01289" lon="9.13226">
        <ele>1832.878906</ele>
        <time>2011-10-29T09:29:19Z</time>
      </trkpt>
      <trkpt lat="42.01292" lon="9.1323">
        <ele>1833.779663</ele>
        <time>2011-10-29T09:29:25Z</time>
      </trkpt>
      <trkpt lat="42.01296" lon="9.13233">
        <ele>1834.850342</ele>
        <time>2011-10-29T09:29:33Z</time>
      </trkpt>
      <trkpt lat="42.01296" lon="9.13233">
        <ele>1834.968384</ele>
        <time>2011-10-29T09:29:34Z</time>
      </trkpt>
      <trkpt lat="42.01303" lon="9.13235">
        <ele>1836.857422</ele>
        <time>2011-10-29T09:29:45Z</time>
      </trkpt>
      <trkpt lat="42.01308" lon="9.13236">
        <ele>1837.988525</ele>
        <time>2011-10-29T09:29:52Z</time>
      </trkpt>
      <trkpt lat="42.0131" lon="9.13241">
        <ele>1838.805542</ele>
        <time>2011-10-29T09:29:58Z</time>
      </trkpt>
      <trkpt lat="42.01312" lon="9.13244">
        <ele>1839.64563</ele>
        <time>2011-10-29T09:30:03Z</time>
      </trkpt>
      <trkpt lat="42.01316" lon="9.13248">
        <ele>1840.801514</ele>
        <time>2011-10-29T09:30:09Z</time>
      </trkpt>
      <trkpt lat="42.01319" lon="9.13252">
        <ele>1841.79126</ele>
        <time>2011-10-29T09:30:15Z</time>
      </trkpt>
      <trkpt lat="42.01322" lon="9.13256">
        <ele>1843.023193</ele>
        <time>2011-10-29T09:30:21Z</time>
      </trkpt>
      <trkpt lat="42.01325" lon="9.1326">
        <ele>1844.513306</ele>
        <time>2011-10-29T09:30:29Z</time>
      </trkpt>
      <trkpt lat="42.01327" lon="9.13265">
        <ele>1845.606934</ele>
        <time>2011-10-29T09:30:36Z</time>
      </trkpt>
      <trkpt lat="42.01327" lon="9.13265">
        <ele>1845.726563</ele>
        <time>2011-10-29T09:30:37Z</time>
      </trkpt>
      <trkpt lat="42.01331" lon="9.13274">
        <ele>1848.099731</ele>
        <time>2011-10-29T09:30:50Z</time>
      </trkpt>
      <trkpt lat="42.01334" lon="9.13279">
        <ele>1849.37085</ele>
        <time>2011-10-29T09:30:56Z</time>
      </trkpt>
      <trkpt lat="42.01335" lon="9.13284">
        <ele>1850.32605</ele>
        <time>2011-10-29T09:31:01Z</time>
      </trkpt>
      <trkpt lat="42.01336" lon="9.13289">
        <ele>1851.322388</ele>
        <time>2011-10-29T09:31:06Z</time>
      </trkpt>
      <trkpt lat="42.01337" lon="9.13294">
        <ele>1852.022461</ele>
        <time>2011-10-29T09:31:11Z</time>
      </trkpt>
      <trkpt lat="42.01338" lon="9.133">
        <ele>1852.781738</ele>
        <time>2011-10-29T09:31:17Z</time>
      </trkpt>
      <trkpt lat="42.01339" lon="9.13306">
        <ele>1853.339355</ele>
        <time>2011-10-29T09:31:24Z</time>
      </trkpt>
      <trkpt lat="42.01341" lon="9.1331">
        <ele>1854.372681</ele>
        <time>2011-10-29T09:31:29Z</time>
      </trkpt>
      <trkpt lat="42.01343" lon="9.13315">
        <ele>1855.714111</ele>
        <time>2011-10-29T09:31:36Z</time>
      </trkpt>
      <trkpt lat="42.01346" lon="9.13318">
        <ele>1857.149292</ele>
        <time>2011-10-29T09:31:44Z</time>
      </trkpt>
      <trkpt lat="42.01347" lon="9.13318">
        <ele>1857.298218</ele>
        <time>2011-10-29T09:31:45Z</time>
      </trkpt>
      <trkpt lat="42.01353" lon="9.13325">
        <ele>1860.046143</ele>
        <time>2011-10-29T09:32:02Z</time>
      </trkpt>
      <trkpt lat="42.01355" lon="9.1333">
        <ele>1861.136597</ele>
        <time>2011-10-29T09:32:10Z</time>
      </trkpt>
      <trkpt lat="42.01356" lon="9.13336">
        <ele>1861.931885</ele>
        <time>2011-10-29T09:32:17Z</time>
      </trkpt>
      <trkpt lat="42.01358" lon="9.13341">
        <ele>1863.038696</ele>
        <time>2011-10-29T09:32:24Z</time>
      </trkpt>
      <trkpt lat="42.01361" lon="9.13345">
        <ele>1864.137573</ele>
        <time>2011-10-29T09:32:30Z</time>
      </trkpt>
      <trkpt lat="42.01364" lon="9.13349">
        <ele>1865.410522</ele>
        <time>2011-10-29T09:32:37Z</time>
      </trkpt>
      <trkpt lat="42.01367" lon="9.13351">
        <ele>1866.879028</ele>
        <time>2011-10-29T09:32:43Z</time>
      </trkpt>
      <trkpt lat="42.0137" lon="9.13355">
        <ele>1868.05835</ele>
        <time>2011-10-29T09:32:49Z</time>
      </trkpt>
      <trkpt lat="42.01371" lon="9.13356">
        <ele>1868.253296</ele>
        <time>2011-10-29T09:32:50Z</time>
      </trkpt>
      <trkpt lat="42.01376" lon="9.13363">
        <ele>1870.27002</ele>
        <time>2011-10-29T09:33:00Z</time>
      </trkpt>
      <trkpt lat="42.01379" lon="9.13367">
        <ele>1871.281372</ele>
        <time>2011-10-29T09:33:05Z</time>
      </trkpt>
      <trkpt lat="42.01382" lon="9.13371">
        <ele>1872.221802</ele>
        <time>2011-10-29T09:33:11Z</time>
      </trkpt>
      <trkpt lat="42.01385" lon="9.13374">
        <ele>1873.28064</ele>
        <time>2011-10-29T09:33:17Z</time>
      </trkpt>
      <trkpt lat="42.01388" lon="9.13379">
        <ele>1874.384277</ele>
        <time>2011-10-29T09:33:24Z</time>
      </trkpt>
      <trkpt lat="42.01391" lon="9.13383">
        <ele>1875.392944</ele>
        <time>2011-10-29T09:33:31Z</time>
      </trkpt>
      <trkpt lat="42.01395" lon="9.13385">
        <ele>1876.700317</ele>
        <time>2011-10-29T09:33:38Z</time>
      </trkpt>
      <trkpt lat="42.01398" lon="9.13388">
        <ele>1877.824097</ele>
        <time>2011-10-29T09:33:44Z</time>
      </trkpt>
      <trkpt lat="42.01401" lon="9.13393">
        <ele>1878.656982</ele>
        <time>2011-10-29T09:33:50Z</time>
      </trkpt>
      <trkpt lat="42.01402" lon="9.13393">
        <ele>1878.805176</ele>
        <time>2011-10-29T09:33:51Z</time>
      </trkpt>
      <trkpt lat="42.01409" lon="9.13397">
        <ele>1880.743164</ele>
        <time>2011-10-29T09:34:02Z</time>
      </trkpt>
      <trkpt lat="42.01412" lon="9.13399">
        <ele>1881.7052</ele>
        <time>2011-10-29T09:34:07Z</time>
      </trkpt>
      <trkpt lat="42.01416" lon="9.13403">
        <ele>1882.71106</ele>
        <time>2011-10-29T09:34:13Z</time>
      </trkpt>
      <trkpt lat="42.01419" lon="9.13405">
        <ele>1883.792725</ele>
        <time>2011-10-29T09:34:19Z</time>
      </trkpt>
      <trkpt lat="42.01424" lon="9.13404">
        <ele>1884.970581</ele>
        <time>2011-10-29T09:34:26Z</time>
      </trkpt>
      <trkpt lat="42.01427" lon="9.13401">
        <ele>1885.774414</ele>
        <time>2011-10-29T09:34:33Z</time>
      </trkpt>
      <trkpt lat="42.01431" lon="9.13402">
        <ele>1886.97168</ele>
        <time>2011-10-29T09:34:42Z</time>
      </trkpt>
      <trkpt lat="42.01435" lon="9.134">
        <ele>1888.027954</ele>
        <time>2011-10-29T09:34:49Z</time>
      </trkpt>
      <trkpt lat="42.01439" lon="9.13401">
        <ele>1889.177124</ele>
        <time>2011-10-29T09:34:56Z</time>
      </trkpt>
      <trkpt lat="42.0144" lon="9.13401">
        <ele>1889.331177</ele>
        <time>2011-10-29T09:34:57Z</time>
      </trkpt>
      <trkpt lat="42.01447" lon="9.13405">
        <ele>1891.331055</ele>
        <time>2011-10-29T09:35:11Z</time>
      </trkpt>
      <trkpt lat="42.01448" lon="9.13411">
        <ele>1891.964966</ele>
        <time>2011-10-29T09:35:18Z</time>
      </trkpt>
      <trkpt lat="42.01449" lon="9.13416">
        <ele>1892.464966</ele>
        <time>2011-10-29T09:35:24Z</time>
      </trkpt>
      <trkpt lat="42.01449" lon="9.13422">
        <ele>1892.770264</ele>
        <time>2011-10-29T09:35:29Z</time>
      </trkpt>
      <trkpt lat="42.01449" lon="9.13428">
        <ele>1893.121704</ele>
        <time>2011-10-29T09:35:34Z</time>
      </trkpt>
      <trkpt lat="42.01451" lon="9.13432">
        <ele>1893.650024</ele>
        <time>2011-10-29T09:35:40Z</time>
      </trkpt>
      <trkpt lat="42.01453" lon="9.13437">
        <ele>1894.254517</ele>
        <time>2011-10-29T09:35:45Z</time>
      </trkpt>
      <trkpt lat="42.01455" lon="9.13442">
        <ele>1895.073608</ele>
        <time>2011-10-29T09:35:50Z</time>
      </trkpt>
      <trkpt lat="42.01458" lon="9.13446">
        <ele>1895.977661</ele>
        <time>2011-10-29T09:35:55Z</time>
      </trkpt>
      <trkpt lat="42.0146" lon="9.1345">
        <ele>1896.807983</ele>
        <time>2011-10-29T09:36:00Z</time>
      </trkpt>
      <trkpt lat="42.01461" lon="9.13451">
        <ele>1896.964966</ele>
        <time>2011-10-29T09:36:01Z</time>
      </trkpt>
      <trkpt lat="42.01466" lon="9.13458">
        <ele>1898.852661</ele>
        <time>2011-10-29T09:36:12Z</time>
      </trkpt>
      <trkpt lat="42.0147" lon="9.1346">
        <ele>1900.067871</ele>
        <time>2011-10-29T09:36:20Z</time>
      </trkpt>
      <trkpt lat="42.01474" lon="9.13461">
        <ele>1901.13855</ele>
        <time>2011-10-29T09:36:26Z</time>
      </trkpt>
      <trkpt lat="42.01478" lon="9.13464">
        <ele>1902.38562</ele>
        <time>2011-10-29T09:36:32Z</time>
      </trkpt>
      <trkpt lat="42.01482" lon="9.13465">
        <ele>1903.630615</ele>
        <time>2011-10-29T09:36:38Z</time>
      </trkpt>
      <trkpt lat="42.01486" lon="9.13467">
        <ele>1904.897583</ele>
        <time>2011-10-29T09:36:45Z</time>
      </trkpt>
      <trkpt lat="42.0149" lon="9.1347">
        <ele>1905.870483</ele>
        <time>2011-10-29T09:36:52Z</time>
      </trkpt>
      <trkpt lat="42.01492" lon="9.13475">
        <ele>1906.861206</ele>
        <time>2011-10-29T09:36:58Z</time>
      </trkpt>
      <trkpt lat="42.01493" lon="9.1348">
        <ele>1907.612305</ele>
        <time>2011-10-29T09:37:05Z</time>
      </trkpt>
      <trkpt lat="42.01493" lon="9.13481">
        <ele>1907.763184</ele>
        <time>2011-10-29T09:37:06Z</time>
      </trkpt>
      <trkpt lat="42.015" lon="9.13488">
        <ele>1909.741455</ele>
        <time>2011-10-29T09:37:18Z</time>
      </trkpt>
      <trkpt lat="42.01503" lon="9.13489">
        <ele>1910.615479</ele>
        <time>2011-10-29T09:37:25Z</time>
      </trkpt>
      <trkpt lat="42.01506" lon="9.13494">
        <ele>1911.687744</ele>
        <time>2011-10-29T09:37:31Z</time>
      </trkpt>
      <trkpt lat="42.01508" lon="9.13499">
        <ele>1912.687622</ele>
        <time>2011-10-29T09:37:37Z</time>
      </trkpt>
      <trkpt lat="42.01511" lon="9.13503">
        <ele>1913.724487</ele>
        <time>2011-10-29T09:37:42Z</time>
      </trkpt>
      <trkpt lat="42.01513" lon="9.13508">
        <ele>1914.724854</ele>
        <time>2011-10-29T09:37:47Z</time>
      </trkpt>
      <trkpt lat="42.01515" lon="9.13512">
        <ele>1915.790527</ele>
        <time>2011-10-29T09:37:52Z</time>
      </trkpt>
      <trkpt lat="42.01517" lon="9.13516">
        <ele>1916.81311</ele>
        <time>2011-10-29T09:37:57Z</time>
      </trkpt>
      <trkpt lat="42.0152" lon="9.13521">
        <ele>1917.93396</ele>
        <time>2011-10-29T09:38:02Z</time>
      </trkpt>
      <trkpt lat="42.01522" lon="9.13525">
        <ele>1919.183105</ele>
        <time>2011-10-29T09:38:31Z</time>
      </trkpt>
      <trkpt lat="42.01523" lon="9.13526">
        <ele>1919.320679</ele>
        <time>2011-10-29T09:38:32Z</time>
      </trkpt>
      <trkpt lat="42.01529" lon="9.13533">
        <ele>1921.638062</ele>
        <time>2011-10-29T09:38:48Z</time>
      </trkpt>
      <trkpt lat="42.0153" lon="9.13538">
        <ele>1922.626465</ele>
        <time>2011-10-29T09:38:54Z</time>
      </trkpt>
      <trkpt lat="42.01533" lon="9.13543">
        <ele>1923.591797</ele>
        <time>2011-10-29T09:38:59Z</time>
      </trkpt>
      <trkpt lat="42.01535" lon="9.13547">
        <ele>1924.623535</ele>
        <time>2011-10-29T09:39:05Z</time>
      </trkpt>
      <trkpt lat="42.01539" lon="9.1355">
        <ele>1925.495117</ele>
        <time>2011-10-29T09:39:11Z</time>
      </trkpt>
      <trkpt lat="42.01543" lon="9.13553">
        <ele>1926.461182</ele>
        <time>2011-10-29T09:39:16Z</time>
      </trkpt>
      <trkpt lat="42.01546" lon="9.13556">
        <ele>1927.122314</ele>
        <time>2011-10-29T09:39:20Z</time>
      </trkpt>
      <trkpt lat="42.01548" lon="9.1356">
        <ele>1927.660034</ele>
        <time>2011-10-29T09:39:24Z</time>
      </trkpt>
      <trkpt lat="42.01551" lon="9.13564">
        <ele>1928.232666</ele>
        <time>2011-10-29T09:39:28Z</time>
      </trkpt>
      <trkpt lat="42.01553" lon="9.13568">
        <ele>1928.786255</ele>
        <time>2011-10-29T09:39:32Z</time>
      </trkpt>
      <trkpt lat="42.01554" lon="9.13569">
        <ele>1928.925781</ele>
        <time>2011-10-29T09:39:33Z</time>
      </trkpt>
      <trkpt lat="42.01558" lon="9.13576">
        <ele>1929.972412</ele>
        <time>2011-10-29T09:39:40Z</time>
      </trkpt>
      <trkpt lat="42.0156" lon="9.1358">
        <ele>1930.601074</ele>
        <time>2011-10-29T09:39:44Z</time>
      </trkpt>
      <trkpt lat="42.01564" lon="9.13584">
        <ele>1931.395142</ele>
        <time>2011-10-29T09:39:49Z</time>
      </trkpt>
      <trkpt lat="42.01567" lon="9.13587">
        <ele>1932.067261</ele>
        <time>2011-10-29T09:39:53Z</time>
      </trkpt>
      <trkpt lat="42.01569" lon="9.13592">
        <ele>1932.772217</ele>
        <time>2011-10-29T09:39:58Z</time>
      </trkpt>
      <trkpt lat="42.01572" lon="9.13595">
        <ele>1933.297485</ele>
        <time>2011-10-29T09:40:03Z</time>
      </trkpt>
      <trkpt lat="42.01576" lon="9.13599">
        <ele>1933.854126</ele>
        <time>2011-10-29T09:40:21Z</time>
      </trkpt>
      <trkpt lat="42.01579" lon="9.13603">
        <ele>1934.454224</ele>
        <time>2011-10-29T09:40:28Z</time>
      </trkpt>
      <trkpt lat="42.01582" lon="9.13606">
        <ele>1935.068604</ele>
        <time>2011-10-29T09:40:35Z</time>
      </trkpt>
      <trkpt lat="42.01583" lon="9.13607">
        <ele>1935.162109</ele>
        <time>2011-10-29T09:40:36Z</time>
      </trkpt>
      <trkpt lat="42.01588" lon="9.13612">
        <ele>1936.190552</ele>
        <time>2011-10-29T09:40:44Z</time>
      </trkpt>
      <trkpt lat="42.01592" lon="9.13616">
        <ele>1936.893555</ele>
        <time>2011-10-29T09:40:49Z</time>
      </trkpt>
      <trkpt lat="42.01593" lon="9.1362">
        <ele>1937.477417</ele>
        <time>2011-10-29T09:40:53Z</time>
      </trkpt>
      <trkpt lat="42.01595" lon="9.13624">
        <ele>1937.699951</ele>
        <time>2011-10-29T09:40:57Z</time>
      </trkpt>
      <trkpt lat="42.01598" lon="9.13629">
        <ele>1938.027466</ele>
        <time>2011-10-29T09:41:02Z</time>
      </trkpt>
      <trkpt lat="42.016" lon="9.13633">
        <ele>1938.300049</ele>
        <time>2011-10-29T09:41:07Z</time>
      </trkpt>
      <trkpt lat="42.01602" lon="9.13637">
        <ele>1938.602539</ele>
        <time>2011-10-29T09:41:11Z</time>
      </trkpt>
      <trkpt lat="42.01605" lon="9.1364">
        <ele>1938.969971</ele>
        <time>2011-10-29T09:41:15Z</time>
      </trkpt>
      <trkpt lat="42.01608" lon="9.13644">
        <ele>1939.300049</ele>
        <time>2011-10-29T09:41:19Z</time>
      </trkpt>
      <trkpt lat="42.01611" lon="9.13648">
        <ele>1939.567505</ele>
        <time>2011-10-29T09:41:24Z</time>
      </trkpt>
      <trkpt lat="42.01614" lon="9.13651">
        <ele>1939.450073</ele>
        <time>2011-10-29T09:41:28Z</time>
      </trkpt>
      <trkpt lat="42.01617" lon="9.13655">
        <ele>1939.320068</ele>
        <time>2011-10-29T09:41:32Z</time>
      </trkpt>
      <trkpt lat="42.01619" lon="9.13659">
        <ele>1939.19751</ele>
        <time>2011-10-29T09:41:36Z</time>
      </trkpt>
      <trkpt lat="42.0162" lon="9.1366">
        <ele>1939.162476</ele>
        <time>2011-10-29T09:41:37Z</time>
      </trkpt>
      <trkpt lat="42.01625" lon="9.13665">
        <ele>1938.962524</ele>
        <time>2011-10-29T09:41:44Z</time>
      </trkpt>
      <trkpt lat="42.01627" lon="9.1367">
        <ele>1938.842529</ele>
        <time>2011-10-29T09:41:48Z</time>
      </trkpt>
      <trkpt lat="42.0163" lon="9.13674">
        <ele>1938.714966</ele>
        <time>2011-10-29T09:41:52Z</time>
      </trkpt>
      <trkpt lat="42.01631" lon="9.13679">
        <ele>1938.594971</ele>
        <time>2011-10-29T09:41:56Z</time>
      </trkpt>
      <trkpt lat="42.01632" lon="9.13684">
        <ele>1938.487549</ele>
        <time>2011-10-29T09:42:00Z</time>
      </trkpt>
      <trkpt lat="42.01633" lon="9.13689">
        <ele>1938.242188</ele>
        <time>2011-10-29T09:42:09Z</time>
      </trkpt>
      <trkpt lat="42.01632" lon="9.13694">
        <ele>1937.91748</ele>
        <time>2011-10-29T09:42:13Z</time>
      </trkpt>
      <trkpt lat="42.01633" lon="9.137">
        <ele>1937.59729</ele>
        <time>2011-10-29T09:42:17Z</time>
      </trkpt>
      <trkpt lat="42.01635" lon="9.13705">
        <ele>1937.26123</ele>
        <time>2011-10-29T09:42:21Z</time>
      </trkpt>
      <trkpt lat="42.01636" lon="9.13709">
        <ele>1937.024536</ele>
        <time>2011-10-29T09:42:24Z</time>
      </trkpt>
      <trkpt lat="42.01638" lon="9.13713">
        <ele>1936.791748</ele>
        <time>2011-10-29T09:42:27Z</time>
      </trkpt>
      <trkpt lat="42.0164" lon="9.13717">
        <ele>1936.565674</ele>
        <time>2011-10-29T09:42:30Z</time>
      </trkpt>
      <trkpt lat="42.01641" lon="9.13722">
        <ele>1936.314087</ele>
        <time>2011-10-29T09:42:33Z</time>
      </trkpt>
      <trkpt lat="42.01643" lon="9.13726">
        <ele>1936.089355</ele>
        <time>2011-10-29T09:42:36Z</time>
      </trkpt>
      <trkpt lat="42.01645" lon="9.1373">
        <ele>1935.87793</ele>
        <time>2011-10-29T09:42:39Z</time>
      </trkpt>
      <trkpt lat="42.01646" lon="9.13731">
        <ele>1935.833618</ele>
        <time>2011-10-29T09:42:40Z</time>
      </trkpt>
      <trkpt lat="42.0165" lon="9.13739">
        <ele>1935.343018</ele>
        <time>2011-10-29T09:42:47Z</time>
      </trkpt>
      <trkpt lat="42.01653" lon="9.13743">
        <ele>1934.838745</ele>
        <time>2011-10-29T09:42:51Z</time>
      </trkpt>
      <trkpt lat="42.01656" lon="9.13748">
        <ele>1934.396118</ele>
        <time>2011-10-29T09:42:55Z</time>
      </trkpt>
      <trkpt lat="42.01659" lon="9.13752">
        <ele>1934.07666</ele>
        <time>2011-10-29T09:42:59Z</time>
      </trkpt>
      <trkpt lat="42.01661" lon="9.13757">
        <ele>1933.83606</ele>
        <time>2011-10-29T09:43:03Z</time>
      </trkpt>
      <trkpt lat="42.01664" lon="9.13761">
        <ele>1933.693237</ele>
        <time>2011-10-29T09:43:06Z</time>
      </trkpt>
      <trkpt lat="42.01665" lon="9.13765">
        <ele>1933.644409</ele>
        <time>2011-10-29T09:43:09Z</time>
      </trkpt>
      <trkpt lat="42.01667" lon="9.1377">
        <ele>1933.625</ele>
        <time>2011-10-29T09:43:13Z</time>
      </trkpt>
      <trkpt lat="42.01668" lon="9.13776">
        <ele>1933.690063</ele>
        <time>2011-10-29T09:43:18Z</time>
      </trkpt>
      <trkpt lat="42.01669" lon="9.13781">
        <ele>1933.784546</ele>
        <time>2011-10-29T09:43:22Z</time>
      </trkpt>
      <trkpt lat="42.01671" lon="9.13786">
        <ele>1933.908569</ele>
        <time>2011-10-29T09:43:26Z</time>
      </trkpt>
      <trkpt lat="42.01672" lon="9.13792">
        <ele>1934.099365</ele>
        <time>2011-10-29T09:43:30Z</time>
      </trkpt>
      <trkpt lat="42.01673" lon="9.13798">
        <ele>1934.330566</ele>
        <time>2011-10-29T09:43:34Z</time>
      </trkpt>
      <trkpt lat="42.01674" lon="9.13803">
        <ele>1934.613281</ele>
        <time>2011-10-29T09:43:38Z</time>
      </trkpt>
      <trkpt lat="42.01676" lon="9.13809">
        <ele>1934.950317</ele>
        <time>2011-10-29T09:43:42Z</time>
      </trkpt>
      <trkpt lat="42.01676" lon="9.1381">
        <ele>1935.041992</ele>
        <time>2011-10-29T09:43:43Z</time>
      </trkpt>
      <trkpt lat="42.01679" lon="9.13817">
        <ele>1934.677246</ele>
        <time>2011-10-29T09:43:48Z</time>
      </trkpt>
      <trkpt lat="42.01682" lon="9.13821">
        <ele>1934.322998</ele>
        <time>2011-10-29T09:43:52Z</time>
      </trkpt>
      <trkpt lat="42.01684" lon="9.13825">
        <ele>1934.090332</ele>
        <time>2011-10-29T09:43:55Z</time>
      </trkpt>
      <trkpt lat="42.01687" lon="9.13829">
        <ele>1933.718384</ele>
        <time>2011-10-29T09:43:59Z</time>
      </trkpt>
      <trkpt lat="42.01691" lon="9.13831">
        <ele>1933.762085</ele>
        <time>2011-10-29T09:44:02Z</time>
      </trkpt>
      <trkpt lat="42.01694" lon="9.13834">
        <ele>1933.842285</ele>
        <time>2011-10-29T09:44:06Z</time>
      </trkpt>
      <trkpt lat="42.01698" lon="9.13837">
        <ele>1933.925293</ele>
        <time>2011-10-29T09:44:10Z</time>
      </trkpt>
      <trkpt lat="42.01701" lon="9.13839">
        <ele>1934.036865</ele>
        <time>2011-10-29T09:44:13Z</time>
      </trkpt>
      <trkpt lat="42.01705" lon="9.13841">
        <ele>1934.293091</ele>
        <time>2011-10-29T09:44:17Z</time>
      </trkpt>
      <trkpt lat="42.01708" lon="9.13844">
        <ele>1934.429443</ele>
        <time>2011-10-29T09:44:21Z</time>
      </trkpt>
      <trkpt lat="42.01712" lon="9.13846">
        <ele>1934.641602</ele>
        <time>2011-10-29T09:44:25Z</time>
      </trkpt>
      <trkpt lat="42.01715" lon="9.13849">
        <ele>1934.838623</ele>
        <time>2011-10-29T09:44:29Z</time>
      </trkpt>
      <trkpt lat="42.01719" lon="9.13851">
        <ele>1935.08374</ele>
        <time>2011-10-29T09:44:33Z</time>
      </trkpt>
      <trkpt lat="42.01722" lon="9.13854">
        <ele>1935.290039</ele>
        <time>2011-10-29T09:44:38Z</time>
      </trkpt>
      <trkpt lat="42.01726" lon="9.13857">
        <ele>1935.626831</ele>
        <time>2011-10-29T09:44:43Z</time>
      </trkpt>
      <trkpt lat="42.01727" lon="9.13857">
        <ele>1935.720459</ele>
        <time>2011-10-29T09:44:44Z</time>
      </trkpt>
      <trkpt lat="42.01733" lon="9.1386">
        <ele>1936.309814</ele>
        <time>2011-10-29T09:44:51Z</time>
      </trkpt>
      <trkpt lat="42.01737" lon="9.13861">
        <ele>1936.602661</ele>
        <time>2011-10-29T09:44:55Z</time>
      </trkpt>
      <trkpt lat="42.01741" lon="9.13863">
        <ele>1936.877808</ele>
        <time>2011-10-29T09:45:01Z</time>
      </trkpt>
      <trkpt lat="42.01744" lon="9.13868">
        <ele>1937.081543</ele>
        <time>2011-10-29T09:45:07Z</time>
      </trkpt>
      <trkpt lat="42.01748" lon="9.13868">
        <ele>1937.499756</ele>
        <time>2011-10-29T09:45:13Z</time>
      </trkpt>
      <trkpt lat="42.01752" lon="9.13868">
        <ele>1937.923218</ele>
        <time>2011-10-29T09:45:23Z</time>
      </trkpt>
      <trkpt lat="42.01756" lon="9.1387">
        <ele>1938.398071</ele>
        <time>2011-10-29T09:45:29Z</time>
      </trkpt>
      <trkpt lat="42.0176" lon="9.13871">
        <ele>1938.913452</ele>
        <time>2011-10-29T09:45:34Z</time>
      </trkpt>
      <trkpt lat="42.01764" lon="9.13873">
        <ele>1939.447998</ele>
        <time>2011-10-29T09:45:40Z</time>
      </trkpt>
      <trkpt lat="42.01767" lon="9.13875">
        <ele>1940.068848</ele>
        <time>2011-10-29T09:45:44Z</time>
      </trkpt>
      <trkpt lat="42.01768" lon="9.13876">
        <ele>1940.241577</ele>
        <time>2011-10-29T09:45:45Z</time>
      </trkpt>
      <trkpt lat="42.01774" lon="9.13881">
        <ele>1941.560791</ele>
        <time>2011-10-29T09:45:52Z</time>
      </trkpt>
      <trkpt lat="42.01778" lon="9.13883">
        <ele>1941.734009</ele>
        <time>2011-10-29T09:45:56Z</time>
      </trkpt>
      <trkpt lat="42.01782" lon="9.13885">
        <ele>1941.360352</ele>
        <time>2011-10-29T09:46:00Z</time>
      </trkpt>
      <trkpt lat="42.01786" lon="9.13886">
        <ele>1941.091797</ele>
        <time>2011-10-29T09:46:05Z</time>
      </trkpt>
      <trkpt lat="42.0179" lon="9.13887">
        <ele>1940.84082</ele>
        <time>2011-10-29T09:46:10Z</time>
      </trkpt>
      <trkpt lat="42.01794" lon="9.13887">
        <ele>1940.586304</ele>
        <time>2011-10-29T09:46:15Z</time>
      </trkpt>
      <trkpt lat="42.01799" lon="9.13887">
        <ele>1940.348999</ele>
        <time>2011-10-29T09:46:21Z</time>
      </trkpt>
      <trkpt lat="42.01803" lon="9.13888">
        <ele>1940.090088</ele>
        <time>2011-10-29T09:46:25Z</time>
      </trkpt>
      <trkpt lat="42.01807" lon="9.13889">
        <ele>1939.839844</ele>
        <time>2011-10-29T09:46:29Z</time>
      </trkpt>
      <trkpt lat="42.01811" lon="9.13889">
        <ele>1939.639038</ele>
        <time>2011-10-29T09:46:32Z</time>
      </trkpt>
      <trkpt lat="42.01815" lon="9.1389">
        <ele>1939.387695</ele>
        <time>2011-10-29T09:46:36Z</time>
      </trkpt>
      <trkpt lat="42.01819" lon="9.13892">
        <ele>1939.300903</ele>
        <time>2011-10-29T09:46:40Z</time>
      </trkpt>
      <trkpt lat="42.01822" lon="9.13895">
        <ele>1938.974854</ele>
        <time>2011-10-29T09:46:44Z</time>
      </trkpt>
      <trkpt lat="42.01826" lon="9.13898">
        <ele>1938.49353</ele>
        <time>2011-10-29T09:46:50Z</time>
      </trkpt>
      <trkpt lat="42.01827" lon="9.13898">
        <ele>1938.486816</ele>
        <time>2011-10-29T09:46:51Z</time>
      </trkpt>
      <trkpt lat="42.01833" lon="9.13902">
        <ele>1937.675049</ele>
        <time>2011-10-29T09:47:18Z</time>
      </trkpt>
      <trkpt lat="42.01837" lon="9.13902">
        <ele>1937.079956</ele>
        <time>2011-10-29T09:47:22Z</time>
      </trkpt>
      <trkpt lat="42.0184" lon="9.13903">
        <ele>1936.575317</ele>
        <time>2011-10-29T09:47:25Z</time>
      </trkpt>
      <trkpt lat="42.01845" lon="9.13904">
        <ele>1935.964111</ele>
        <time>2011-10-29T09:47:29Z</time>
      </trkpt>
      <trkpt lat="42.01849" lon="9.13905">
        <ele>1935.382935</ele>
        <time>2011-10-29T09:47:33Z</time>
      </trkpt>
      <trkpt lat="42.01853" lon="9.13907">
        <ele>1934.851196</ele>
        <time>2011-10-29T09:47:38Z</time>
      </trkpt>
      <trkpt lat="42.01857" lon="9.13906">
        <ele>1934.075806</ele>
        <time>2011-10-29T09:47:43Z</time>
      </trkpt>
      <trkpt lat="42.01861" lon="9.13907">
        <ele>1933.54248</ele>
        <time>2011-10-29T09:47:49Z</time>
      </trkpt>
      <trkpt lat="42.01865" lon="9.1391">
        <ele>1933.080811</ele>
        <time>2011-10-29T09:47:53Z</time>
      </trkpt>
      <trkpt lat="42.01865" lon="9.1391">
        <ele>1932.98877</ele>
        <time>2011-10-29T09:47:54Z</time>
      </trkpt>
      <trkpt lat="42.01872" lon="9.13916">
        <ele>1931.821411</ele>
        <time>2011-10-29T09:48:04Z</time>
      </trkpt>
      <trkpt lat="42.01874" lon="9.13919">
        <ele>1931.409546</ele>
        <time>2011-10-29T09:48:08Z</time>
      </trkpt>
      <trkpt lat="42.01877" lon="9.13924">
        <ele>1930.970581</ele>
        <time>2011-10-29T09:48:13Z</time>
      </trkpt>
      <trkpt lat="42.01881" lon="9.13924">
        <ele>1930.065552</ele>
        <time>2011-10-29T09:48:20Z</time>
      </trkpt>
      <trkpt lat="42.01885" lon="9.13926">
        <ele>1929.246216</ele>
        <time>2011-10-29T09:48:25Z</time>
      </trkpt>
      <trkpt lat="42.01889" lon="9.13929">
        <ele>1928.444092</ele>
        <time>2011-10-29T09:48:29Z</time>
      </trkpt>
      <trkpt lat="42.01893" lon="9.13929">
        <ele>1927.421387</ele>
        <time>2011-10-29T09:48:34Z</time>
      </trkpt>
      <trkpt lat="42.01897" lon="9.13929">
        <ele>1926.420776</ele>
        <time>2011-10-29T09:48:38Z</time>
      </trkpt>
      <trkpt lat="42.01901" lon="9.13931">
        <ele>1925.634644</ele>
        <time>2011-10-29T09:48:42Z</time>
      </trkpt>
      <trkpt lat="42.01905" lon="9.13932">
        <ele>1924.652344</ele>
        <time>2011-10-29T09:48:46Z</time>
      </trkpt>
      <trkpt lat="42.01909" lon="9.13934">
        <ele>1924.138184</ele>
        <time>2011-10-29T09:48:50Z</time>
      </trkpt>
      <trkpt lat="42.01912" lon="9.13939">
        <ele>1924.026245</ele>
        <time>2011-10-29T09:48:54Z</time>
      </trkpt>
      <trkpt lat="42.01912" lon="9.1394">
        <ele>1923.986572</ele>
        <time>2011-10-29T09:48:55Z</time>
      </trkpt>
      <trkpt lat="42.01916" lon="9.13948">
        <ele>1923.535034</ele>
        <time>2011-10-29T09:49:03Z</time>
      </trkpt>
      <trkpt lat="42.0192" lon="9.1395">
        <ele>1922.924561</ele>
        <time>2011-10-29T09:49:08Z</time>
      </trkpt>
      <trkpt lat="42.01923" lon="9.13953">
        <ele>1922.273071</ele>
        <time>2011-10-29T09:49:13Z</time>
      </trkpt>
      <trkpt lat="42.01927" lon="9.13956">
        <ele>1921.418579</ele>
        <time>2011-10-29T09:49:19Z</time>
      </trkpt>
      <trkpt lat="42.01929" lon="9.13952">
        <ele>1921.248535</ele>
        <time>2011-10-29T09:49:35Z</time>
      </trkpt>
      <trkpt lat="42.01932" lon="9.13947">
        <ele>1921.118408</ele>
        <time>2011-10-29T09:49:40Z</time>
      </trkpt>
      <trkpt lat="42.01934" lon="9.13943">
        <ele>1921.033447</ele>
        <time>2011-10-29T09:49:45Z</time>
      </trkpt>
      <trkpt lat="42.01938" lon="9.13942">
        <ele>1920.734009</ele>
        <time>2011-10-29T09:49:49Z</time>
      </trkpt>
      <trkpt lat="42.01942" lon="9.1394">
        <ele>1920.451294</ele>
        <time>2011-10-29T09:49:54Z</time>
      </trkpt>
      <trkpt lat="42.01945" lon="9.13936">
        <ele>1920.745605</ele>
        <time>2011-10-29T09:50:00Z</time>
      </trkpt>
      <trkpt lat="42.01945" lon="9.13935">
        <ele>1920.831177</ele>
        <time>2011-10-29T09:50:01Z</time>
      </trkpt>
      <trkpt lat="42.0195" lon="9.13926">
        <ele>1921.783081</ele>
        <time>2011-10-29T09:50:10Z</time>
      </trkpt>
      <trkpt lat="42.01953" lon="9.13921">
        <ele>1922.393799</ele>
        <time>2011-10-29T09:50:15Z</time>
      </trkpt>
      <trkpt lat="42.01955" lon="9.13917">
        <ele>1923.300781</ele>
        <time>2011-10-29T09:50:19Z</time>
      </trkpt>
      <trkpt lat="42.01958" lon="9.13914">
        <ele>1924.307983</ele>
        <time>2011-10-29T09:50:24Z</time>
      </trkpt>
      <trkpt lat="42.01961" lon="9.1391">
        <ele>1925.393921</ele>
        <time>2011-10-29T09:50:29Z</time>
      </trkpt>
      <trkpt lat="42.01965" lon="9.13907">
        <ele>1926.595703</ele>
        <time>2011-10-29T09:50:34Z</time>
      </trkpt>
      <trkpt lat="42.01969" lon="9.13906">
        <ele>1927.563232</ele>
        <time>2011-10-29T09:50:39Z</time>
      </trkpt>
      <trkpt lat="42.01973" lon="9.13905">
        <ele>1928.027344</ele>
        <time>2011-10-29T09:50:43Z</time>
      </trkpt>
      <trkpt lat="42.01977" lon="9.13904">
        <ele>1928.079834</ele>
        <time>2011-10-29T09:50:47Z</time>
      </trkpt>
      <trkpt lat="42.0198" lon="9.13902">
        <ele>1927.635742</ele>
        <time>2011-10-29T09:50:51Z</time>
      </trkpt>
      <trkpt lat="42.01984" lon="9.13902">
        <ele>1928.071777</ele>
        <time>2011-10-29T09:50:55Z</time>
      </trkpt>
      <trkpt lat="42.01988" lon="9.13901">
        <ele>1928.209106</ele>
        <time>2011-10-29T09:50:59Z</time>
      </trkpt>
      <trkpt lat="42.01993" lon="9.13901">
        <ele>1928.917725</ele>
        <time>2011-10-29T09:51:04Z</time>
      </trkpt>
      <trkpt lat="42.01993" lon="9.13901">
        <ele>1929.016235</ele>
        <time>2011-10-29T09:51:05Z</time>
      </trkpt>
      <trkpt lat="42.02001" lon="9.13903">
        <ele>1930.443237</ele>
        <time>2011-10-29T09:51:14Z</time>
      </trkpt>
      <trkpt lat="42.02005" lon="9.13903">
        <ele>1930.761719</ele>
        <time>2011-10-29T09:51:24Z</time>
      </trkpt>
      <trkpt lat="42.02009" lon="9.13903">
        <ele>1930.419189</ele>
        <time>2011-10-29T09:51:28Z</time>
      </trkpt>
      <trkpt lat="42.02012" lon="9.13903">
        <ele>1930.42395</ele>
        <time>2011-10-29T09:51:32Z</time>
      </trkpt>
      <trkpt lat="42.02016" lon="9.13901">
        <ele>1929.779907</ele>
        <time>2011-10-29T09:51:37Z</time>
      </trkpt>
      <trkpt lat="42.0202" lon="9.13901">
        <ele>1929.719727</ele>
        <time>2011-10-29T09:51:41Z</time>
      </trkpt>
      <trkpt lat="42.02024" lon="9.13901">
        <ele>1929.995728</ele>
        <time>2011-10-29T09:51:45Z</time>
      </trkpt>
      <trkpt lat="42.02028" lon="9.13901">
        <ele>1930.03186</ele>
        <time>2011-10-29T09:51:50Z</time>
      </trkpt>
      <trkpt lat="42.02032" lon="9.13899">
        <ele>1929.376221</ele>
        <time>2011-10-29T09:51:54Z</time>
      </trkpt>
      <trkpt lat="42.02036" lon="9.13899">
        <ele>1929.453613</ele>
        <time>2011-10-29T09:51:58Z</time>
      </trkpt>
      <trkpt lat="42.0204" lon="9.139">
        <ele>1929.755615</ele>
        <time>2011-10-29T09:52:01Z</time>
      </trkpt>
      <trkpt lat="42.02044" lon="9.139">
        <ele>1929.915405</ele>
        <time>2011-10-29T09:52:04Z</time>
      </trkpt>
      <trkpt lat="42.02048" lon="9.13901">
        <ele>1929.740723</ele>
        <time>2011-10-29T09:52:07Z</time>
      </trkpt>
      <trkpt lat="42.02049" lon="9.13901">
        <ele>1929.694092</ele>
        <time>2011-10-29T09:52:08Z</time>
      </trkpt>
      <trkpt lat="42.02055" lon="9.13901">
        <ele>1929.184937</ele>
        <time>2011-10-29T09:52:13Z</time>
      </trkpt>
      <trkpt lat="42.02059" lon="9.13903">
        <ele>1929.612183</ele>
        <time>2011-10-29T09:52:17Z</time>
      </trkpt>
      <trkpt lat="42.02063" lon="9.13904">
        <ele>1929.932007</ele>
        <time>2011-10-29T09:52:21Z</time>
      </trkpt>
      <trkpt lat="42.02067" lon="9.13907">
        <ele>1930.438599</ele>
        <time>2011-10-29T09:52:25Z</time>
      </trkpt>
      <trkpt lat="42.0207" lon="9.13908">
        <ele>1930.562256</ele>
        <time>2011-10-29T09:52:28Z</time>
      </trkpt>
      <trkpt lat="42.02074" lon="9.13908">
        <ele>1930.375854</ele>
        <time>2011-10-29T09:52:32Z</time>
      </trkpt>
      <trkpt lat="42.02078" lon="9.13909">
        <ele>1930.487549</ele>
        <time>2011-10-29T09:52:36Z</time>
      </trkpt>
      <trkpt lat="42.02082" lon="9.1391">
        <ele>1930.723633</ele>
        <time>2011-10-29T09:52:40Z</time>
      </trkpt>
      <trkpt lat="42.02086" lon="9.13911">
        <ele>1930.650757</ele>
        <time>2011-10-29T09:52:45Z</time>
      </trkpt>
      <trkpt lat="42.0209" lon="9.1391">
        <ele>1929.987305</ele>
        <time>2011-10-29T09:52:49Z</time>
      </trkpt>
      <trkpt lat="42.02094" lon="9.13911">
        <ele>1929.962524</ele>
        <time>2011-10-29T09:52:54Z</time>
      </trkpt>
      <trkpt lat="42.02098" lon="9.13911">
        <ele>1929.657227</ele>
        <time>2011-10-29T09:52:58Z</time>
      </trkpt>
      <trkpt lat="42.02102" lon="9.13912">
        <ele>1929.449341</ele>
        <time>2011-10-29T09:53:02Z</time>
      </trkpt>
      <trkpt lat="42.02106" lon="9.13913">
        <ele>1929.751099</ele>
        <time>2011-10-29T09:53:06Z</time>
      </trkpt>
      <trkpt lat="42.02109" lon="9.13914">
        <ele>1929.580811</ele>
        <time>2011-10-29T09:53:09Z</time>
      </trkpt>
      <trkpt lat="42.0211" lon="9.13914">
        <ele>1929.459106</ele>
        <time>2011-10-29T09:53:10Z</time>
      </trkpt>
      <trkpt lat="42.02117" lon="9.13915">
        <ele>1929.183594</ele>
        <time>2011-10-29T09:53:18Z</time>
      </trkpt>
      <trkpt lat="42.02121" lon="9.13913">
        <ele>1927.860962</ele>
        <time>2011-10-29T09:53:22Z</time>
      </trkpt>
      <trkpt lat="42.02125" lon="9.13912">
        <ele>1927.412476</ele>
        <time>2011-10-29T09:53:25Z</time>
      </trkpt>
      <trkpt lat="42.02129" lon="9.13913">
        <ele>1927.064819</ele>
        <time>2011-10-29T09:53:29Z</time>
      </trkpt>
      <trkpt lat="42.02132" lon="9.13913">
        <ele>1926.929443</ele>
        <time>2011-10-29T09:53:33Z</time>
      </trkpt>
      <trkpt lat="42.02137" lon="9.13914">
        <ele>1927.290283</ele>
        <time>2011-10-29T09:53:37Z</time>
      </trkpt>
      <trkpt lat="42.0214" lon="9.13914">
        <ele>1927.595825</ele>
        <time>2011-10-29T09:53:40Z</time>
      </trkpt>
      <trkpt lat="42.02144" lon="9.13915">
        <ele>1927.993164</ele>
        <time>2011-10-29T09:53:44Z</time>
      </trkpt>
      <trkpt lat="42.02149" lon="9.13916">
        <ele>1928.595459</ele>
        <time>2011-10-29T09:53:48Z</time>
      </trkpt>
      <trkpt lat="42.02153" lon="9.13917">
        <ele>1929.298584</ele>
        <time>2011-10-29T09:53:52Z</time>
      </trkpt>
      <trkpt lat="42.02157" lon="9.13918">
        <ele>1930.085938</ele>
        <time>2011-10-29T09:53:56Z</time>
      </trkpt>
      <trkpt lat="42.02161" lon="9.1392">
        <ele>1930.875244</ele>
        <time>2011-10-29T09:54:00Z</time>
      </trkpt>
      <trkpt lat="42.02165" lon="9.13921">
        <ele>1932.00354</ele>
        <time>2011-10-29T09:54:05Z</time>
      </trkpt>
      <trkpt lat="42.02168" lon="9.13922">
        <ele>1932.445923</ele>
        <time>2011-10-29T09:54:09Z</time>
      </trkpt>
      <trkpt lat="42.02173" lon="9.13922">
        <ele>1932.631958</ele>
        <time>2011-10-29T09:54:13Z</time>
      </trkpt>
      <trkpt lat="42.02174" lon="9.13922">
        <ele>1932.516479</ele>
        <time>2011-10-29T09:54:14Z</time>
      </trkpt>
      <trkpt lat="42.02181" lon="9.13922">
        <ele>1932.651123</ele>
        <time>2011-10-29T09:54:20Z</time>
      </trkpt>
      <trkpt lat="42.02184" lon="9.13922">
        <ele>1932.607056</ele>
        <time>2011-10-29T09:54:23Z</time>
      </trkpt>
      <trkpt lat="42.02188" lon="9.13922">
        <ele>1932.875244</ele>
        <time>2011-10-29T09:54:26Z</time>
      </trkpt>
      <trkpt lat="42.02192" lon="9.13924">
        <ele>1933.630371</ele>
        <time>2011-10-29T09:54:30Z</time>
      </trkpt>
      <trkpt lat="42.02196" lon="9.13923">
        <ele>1932.969727</ele>
        <time>2011-10-29T09:54:35Z</time>
      </trkpt>
      <trkpt lat="42.02199" lon="9.13922">
        <ele>1932.677368</ele>
        <time>2011-10-29T09:54:39Z</time>
      </trkpt>
      <trkpt lat="42.02203" lon="9.13922">
        <ele>1932.632935</ele>
        <time>2011-10-29T09:54:43Z</time>
      </trkpt>
      <trkpt lat="42.02207" lon="9.13921">
        <ele>1931.899536</ele>
        <time>2011-10-29T09:54:47Z</time>
      </trkpt>
      <trkpt lat="42.02211" lon="9.1392">
        <ele>1931.441895</ele>
        <time>2011-10-29T09:54:51Z</time>
      </trkpt>
      <trkpt lat="42.02215" lon="9.1392">
        <ele>1931.499268</ele>
        <time>2011-10-29T09:54:54Z</time>
      </trkpt>
      <trkpt lat="42.02218" lon="9.1392">
        <ele>1931.615112</ele>
        <time>2011-10-29T09:54:57Z</time>
      </trkpt>
      <trkpt lat="42.02222" lon="9.1392">
        <ele>1931.387451</ele>
        <time>2011-10-29T09:55:01Z</time>
      </trkpt>
      <trkpt lat="42.02226" lon="9.13921">
        <ele>1932.248657</ele>
        <time>2011-10-29T09:55:05Z</time>
      </trkpt>
      <trkpt lat="42.0223" lon="9.13921">
        <ele>1932.881104</ele>
        <time>2011-10-29T09:55:09Z</time>
      </trkpt>
      <trkpt lat="42.02233" lon="9.1392">
        <ele>1933.25647</ele>
        <time>2011-10-29T09:55:12Z</time>
      </trkpt>
      <trkpt lat="42.02237" lon="9.1392">
        <ele>1933.559692</ele>
        <time>2011-10-29T09:55:15Z</time>
      </trkpt>
      <trkpt lat="42.02238" lon="9.13919">
        <ele>1933.559692</ele>
        <time>2011-10-29T09:55:16Z</time>
      </trkpt>
      <trkpt lat="42.02244" lon="9.13917">
        <ele>1933.731201</ele>
        <time>2011-10-29T09:55:23Z</time>
      </trkpt>
      <trkpt lat="42.02248" lon="9.13917">
        <ele>1934.584839</ele>
        <time>2011-10-29T09:55:28Z</time>
      </trkpt>
      <trkpt lat="42.02253" lon="9.13916">
        <ele>1934.741699</ele>
        <time>2011-10-29T09:55:32Z</time>
      </trkpt>
      <trkpt lat="42.02257" lon="9.13913">
        <ele>1934.540161</ele>
        <time>2011-10-29T09:55:36Z</time>
      </trkpt>
      <trkpt lat="42.02261" lon="9.13912">
        <ele>1934.806763</ele>
        <time>2011-10-29T09:55:41Z</time>
      </trkpt>
      <trkpt lat="42.02264" lon="9.13909">
        <ele>1934.252808</ele>
        <time>2011-10-29T09:55:48Z</time>
      </trkpt>
      <trkpt lat="42.02267" lon="9.13906">
        <ele>1933.782959</ele>
        <time>2011-10-29T09:55:52Z</time>
      </trkpt>
      <trkpt lat="42.0227" lon="9.13902">
        <ele>1933.28418</ele>
        <time>2011-10-29T09:55:56Z</time>
      </trkpt>
      <trkpt lat="42.02274" lon="9.13899">
        <ele>1933.203613</ele>
        <time>2011-10-29T09:56:01Z</time>
      </trkpt>
      <trkpt lat="42.02277" lon="9.13895">
        <ele>1932.671265</ele>
        <time>2011-10-29T09:56:06Z</time>
      </trkpt>
      <trkpt lat="42.02281" lon="9.13892">
        <ele>1932.765747</ele>
        <time>2011-10-29T09:56:11Z</time>
      </trkpt>
      <trkpt lat="42.02285" lon="9.13889">
        <ele>1932.976685</ele>
        <time>2011-10-29T09:56:16Z</time>
      </trkpt>
      <trkpt lat="42.02286" lon="9.13888">
        <ele>1933.174316</ele>
        <time>2011-10-29T09:56:17Z</time>
      </trkpt>
      <trkpt lat="42.02292" lon="9.13882">
        <ele>1933.281616</ele>
        <time>2011-10-29T09:56:24Z</time>
      </trkpt>
      <trkpt lat="42.02295" lon="9.13879">
        <ele>1933.552246</ele>
        <time>2011-10-29T09:56:28Z</time>
      </trkpt>
      <trkpt lat="42.02299" lon="9.13876">
        <ele>1934.224976</ele>
        <time>2011-10-29T09:56:33Z</time>
      </trkpt>
      <trkpt lat="42.02303" lon="9.13874">
        <ele>1934.806885</ele>
        <time>2011-10-29T09:56:38Z</time>
      </trkpt>
      <trkpt lat="42.02307" lon="9.1387">
        <ele>1935.344604</ele>
        <time>2011-10-29T09:56:43Z</time>
      </trkpt>
      <trkpt lat="42.0231" lon="9.13867">
        <ele>1935.711792</ele>
        <time>2011-10-29T09:56:48Z</time>
      </trkpt>
      <trkpt lat="42.02313" lon="9.13863">
        <ele>1935.938965</ele>
        <time>2011-10-29T09:56:53Z</time>
      </trkpt>
      <trkpt lat="42.02317" lon="9.1386">
        <ele>1936.612183</ele>
        <time>2011-10-29T09:56:57Z</time>
      </trkpt>
      <trkpt lat="42.0232" lon="9.13857">
        <ele>1936.85144</ele>
        <time>2011-10-29T09:57:01Z</time>
      </trkpt>
      <trkpt lat="42.02323" lon="9.13854">
        <ele>1936.696899</ele>
        <time>2011-10-29T09:57:04Z</time>
      </trkpt>
      <trkpt lat="42.02325" lon="9.1385">
        <ele>1936.377319</ele>
        <time>2011-10-29T09:57:07Z</time>
      </trkpt>
      <trkpt lat="42.02328" lon="9.13848">
        <ele>1936.502686</ele>
        <time>2011-10-29T09:57:10Z</time>
      </trkpt>
      <trkpt lat="42.02331" lon="9.13845">
        <ele>1936.49585</ele>
        <time>2011-10-29T09:57:13Z</time>
      </trkpt>
      <trkpt lat="42.02333" lon="9.13842">
        <ele>1936.428345</ele>
        <time>2011-10-29T09:57:16Z</time>
      </trkpt>
      <trkpt lat="42.02335" lon="9.13838">
        <ele>1936.011841</ele>
        <time>2011-10-29T09:57:19Z</time>
      </trkpt>
      <trkpt lat="42.02336" lon="9.13836">
        <ele>1935.765991</ele>
        <time>2011-10-29T09:57:20Z</time>
      </trkpt>
      <trkpt lat="42.02341" lon="9.1383">
        <ele>1935.812622</ele>
        <time>2011-10-29T09:57:27Z</time>
      </trkpt>
      <trkpt lat="42.02344" lon="9.13825">
        <ele>1935.465088</ele>
        <time>2011-10-29T09:57:32Z</time>
      </trkpt>
      <trkpt lat="42.02347" lon="9.13821">
        <ele>1934.987793</ele>
        <time>2011-10-29T09:57:36Z</time>
      </trkpt>
      <trkpt lat="42.02349" lon="9.13818">
        <ele>1934.801147</ele>
        <time>2011-10-29T09:57:39Z</time>
      </trkpt>
      <trkpt lat="42.02353" lon="9.13814">
        <ele>1934.84436</ele>
        <time>2011-10-29T09:57:43Z</time>
      </trkpt>
      <trkpt lat="42.02357" lon="9.13814">
        <ele>1936.014648</ele>
        <time>2011-10-29T09:57:50Z</time>
      </trkpt>
      <trkpt lat="42.0236" lon="9.13811">
        <ele>1936.035645</ele>
        <time>2011-10-29T09:57:55Z</time>
      </trkpt>
      <trkpt lat="42.02364" lon="9.13809">
        <ele>1936.740845</ele>
        <time>2011-10-29T09:58:00Z</time>
      </trkpt>
      <trkpt lat="42.02367" lon="9.13808">
        <ele>1937.296631</ele>
        <time>2011-10-29T09:58:04Z</time>
      </trkpt>
      <trkpt lat="42.02371" lon="9.13809">
        <ele>1938.191284</ele>
        <time>2011-10-29T09:58:09Z</time>
      </trkpt>
      <trkpt lat="42.02375" lon="9.1381">
        <ele>1938.92749</ele>
        <time>2011-10-29T09:58:14Z</time>
      </trkpt>
      <trkpt lat="42.02379" lon="9.1381">
        <ele>1939.644409</ele>
        <time>2011-10-29T09:58:19Z</time>
      </trkpt>
      <trkpt lat="42.02384" lon="9.13808">
        <ele>1939.92688</ele>
        <time>2011-10-29T09:58:23Z</time>
      </trkpt>
      <trkpt lat="42.02385" lon="9.13808">
        <ele>1939.973145</ele>
        <time>2011-10-29T09:58:24Z</time>
      </trkpt>
      <trkpt lat="42.02391" lon="9.13807">
        <ele>1940.729492</ele>
        <time>2011-10-29T09:58:30Z</time>
      </trkpt>
      <trkpt lat="42.02395" lon="9.13806">
        <ele>1940.97168</ele>
        <time>2011-10-29T09:58:34Z</time>
      </trkpt>
      <trkpt lat="42.02399" lon="9.13805">
        <ele>1941.514893</ele>
        <time>2011-10-29T09:58:38Z</time>
      </trkpt>
      <trkpt lat="42.02402" lon="9.13805">
        <ele>1941.92749</ele>
        <time>2011-10-29T09:58:41Z</time>
      </trkpt>
      <trkpt lat="42.02406" lon="9.13805">
        <ele>1942.378296</ele>
        <time>2011-10-29T09:58:44Z</time>
      </trkpt>
      <trkpt lat="42.0241" lon="9.13804">
        <ele>1942.661743</ele>
        <time>2011-10-29T09:58:48Z</time>
      </trkpt>
      <trkpt lat="42.02414" lon="9.13802">
        <ele>1942.562378</ele>
        <time>2011-10-29T09:58:52Z</time>
      </trkpt>
      <trkpt lat="42.02418" lon="9.138">
        <ele>1942.583984</ele>
        <time>2011-10-29T09:58:56Z</time>
      </trkpt>
      <trkpt lat="42.02421" lon="9.13798">
        <ele>1942.406128</ele>
        <time>2011-10-29T09:59:00Z</time>
      </trkpt>
      <trkpt lat="42.02425" lon="9.13796">
        <ele>1942.296021</ele>
        <time>2011-10-29T09:59:06Z</time>
      </trkpt>
      <trkpt lat="42.02428" lon="9.13793">
        <ele>1942.168701</ele>
        <time>2011-10-29T09:59:12Z</time>
      </trkpt>
      <trkpt lat="42.02432" lon="9.1379">
        <ele>1941.811035</ele>
        <time>2011-10-29T09:59:17Z</time>
      </trkpt>
      <trkpt lat="42.02436" lon="9.13789">
        <ele>1942.211792</ele>
        <time>2011-10-29T09:59:22Z</time>
      </trkpt>
      <trkpt lat="42.02439" lon="9.13787">
        <ele>1942.270508</ele>
        <time>2011-10-29T09:59:27Z</time>
      </trkpt>
      <trkpt lat="42.0244" lon="9.13787">
        <ele>1942.371338</ele>
        <time>2011-10-29T09:59:28Z</time>
      </trkpt>
      <trkpt lat="42.02447" lon="9.13785">
        <ele>1943.182617</ele>
        <time>2011-10-29T09:59:41Z</time>
      </trkpt>
      <trkpt lat="42.02451" lon="9.13782">
        <ele>1942.914795</ele>
        <time>2011-10-29T09:59:45Z</time>
      </trkpt>
      <trkpt lat="42.02455" lon="9.1378">
        <ele>1943.038452</ele>
        <time>2011-10-29T09:59:50Z</time>
      </trkpt>
      <trkpt lat="42.02459" lon="9.1378">
        <ele>1943.436279</ele>
        <time>2011-10-29T09:59:55Z</time>
      </trkpt>
      <trkpt lat="42.02463" lon="9.13779">
        <ele>1943.28894</ele>
        <time>2011-10-29T09:59:59Z</time>
      </trkpt>
      <trkpt lat="42.02467" lon="9.1378">
        <ele>1943.622681</ele>
        <time>2011-10-29T10:00:04Z</time>
      </trkpt>
      <trkpt lat="42.02471" lon="9.13781">
        <ele>1943.875732</ele>
        <time>2011-10-29T10:00:09Z</time>
      </trkpt>
      <trkpt lat="42.02475" lon="9.13783">
        <ele>1945.045166</ele>
        <time>2011-10-29T10:00:15Z</time>
      </trkpt>
      <trkpt lat="42.02479" lon="9.13783">
        <ele>1945.035889</ele>
        <time>2011-10-29T10:00:19Z</time>
      </trkpt>
      <trkpt lat="42.02483" lon="9.13783">
        <ele>1945.306519</ele>
        <time>2011-10-29T10:00:23Z</time>
      </trkpt>
      <trkpt lat="42.02488" lon="9.13785">
        <ele>1945.958984</ele>
        <time>2011-10-29T10:00:28Z</time>
      </trkpt>
      <trkpt lat="42.02488" lon="9.13785">
        <ele>1946.011353</ele>
        <time>2011-10-29T10:00:29Z</time>
      </trkpt>
      <trkpt lat="42.02496" lon="9.13786">
        <ele>1946.65271</ele>
        <time>2011-10-29T10:00:42Z</time>
      </trkpt>
      <trkpt lat="42.025" lon="9.13788">
        <ele>1947.150757</ele>
        <time>2011-10-29T10:00:47Z</time>
      </trkpt>
      <trkpt lat="42.02503" lon="9.13788">
        <ele>1947.180664</ele>
        <time>2011-10-29T10:00:53Z</time>
      </trkpt>
      <trkpt lat="42.02508" lon="9.13788">
        <ele>1946.999268</ele>
        <time>2011-10-29T10:00:58Z</time>
      </trkpt>
      <trkpt lat="42.02512" lon="9.13791">
        <ele>1947.149536</ele>
        <time>2011-10-29T10:01:03Z</time>
      </trkpt>
      <trkpt lat="42.02515" lon="9.13793">
        <ele>1947.375977</ele>
        <time>2011-10-29T10:01:08Z</time>
      </trkpt>
      <trkpt lat="42.02519" lon="9.13796">
        <ele>1947.797485</ele>
        <time>2011-10-29T10:01:13Z</time>
      </trkpt>
      <trkpt lat="42.02522" lon="9.13798">
        <ele>1948.066772</ele>
        <time>2011-10-29T10:01:17Z</time>
      </trkpt>
      <trkpt lat="42.02526" lon="9.13801">
        <ele>1948.378174</ele>
        <time>2011-10-29T10:01:21Z</time>
      </trkpt>
      <trkpt lat="42.0253" lon="9.13802">
        <ele>1948.530762</ele>
        <time>2011-10-29T10:01:25Z</time>
      </trkpt>
      <trkpt lat="42.02534" lon="9.13803">
        <ele>1948.457397</ele>
        <time>2011-10-29T10:01:29Z</time>
      </trkpt>
      <trkpt lat="42.02535" lon="9.13803">
        <ele>1948.39624</ele>
        <time>2011-10-29T10:01:30Z</time>
      </trkpt>
      <trkpt lat="42.02542" lon="9.13804">
        <ele>1948.285278</ele>
        <time>2011-10-29T10:01:38Z</time>
      </trkpt>
      <trkpt lat="42.02546" lon="9.13805">
        <ele>1948.456177</ele>
        <time>2011-10-29T10:01:42Z</time>
      </trkpt>
      <trkpt lat="42.0255" lon="9.13806">
        <ele>1948.683105</ele>
        <time>2011-10-29T10:01:53Z</time>
      </trkpt>
      <trkpt lat="42.02554" lon="9.13808">
        <ele>1949.016113</ele>
        <time>2011-10-29T10:02:11Z</time>
      </trkpt>
      <trkpt lat="42.02557" lon="9.13809">
        <ele>1949.345215</ele>
        <time>2011-10-29T10:02:15Z</time>
      </trkpt>
      <trkpt lat="42.02561" lon="9.13809">
        <ele>1949.456055</ele>
        <time>2011-10-29T10:02:19Z</time>
      </trkpt>
      <trkpt lat="42.02565" lon="9.13809">
        <ele>1949.300049</ele>
        <time>2011-10-29T10:02:23Z</time>
      </trkpt>
      <trkpt lat="42.0257" lon="9.13808">
        <ele>1949.143799</ele>
        <time>2011-10-29T10:02:27Z</time>
      </trkpt>
      <trkpt lat="42.02574" lon="9.13807">
        <ele>1948.831177</ele>
        <time>2011-10-29T10:02:31Z</time>
      </trkpt>
      <trkpt lat="42.02575" lon="9.13808">
        <ele>1948.939575</ele>
        <time>2011-10-29T10:02:32Z</time>
      </trkpt>
      <trkpt lat="42.02582" lon="9.13808">
        <ele>1948.963013</ele>
        <time>2011-10-29T10:02:41Z</time>
      </trkpt>
      <trkpt lat="42.02585" lon="9.1381">
        <ele>1949.614868</ele>
        <time>2011-10-29T10:02:46Z</time>
      </trkpt>
      <trkpt lat="42.02589" lon="9.13811">
        <ele>1949.762817</ele>
        <time>2011-10-29T10:02:50Z</time>
      </trkpt>
      <trkpt lat="42.02593" lon="9.13811">
        <ele>1949.786011</ele>
        <time>2011-10-29T10:02:55Z</time>
      </trkpt>
      <trkpt lat="42.02597" lon="9.1381">
        <ele>1949.848877</ele>
        <time>2011-10-29T10:03:00Z</time>
      </trkpt>
      <trkpt lat="42.026" lon="9.13808">
        <ele>1949.47998</ele>
        <time>2011-10-29T10:03:04Z</time>
      </trkpt>
      <trkpt lat="42.02604" lon="9.13807">
        <ele>1949.420044</ele>
        <time>2011-10-29T10:03:07Z</time>
      </trkpt>
      <trkpt lat="42.02608" lon="9.13807">
        <ele>1949.4646</ele>
        <time>2011-10-29T10:03:10Z</time>
      </trkpt>
      <trkpt lat="42.02612" lon="9.13806">
        <ele>1949.388916</ele>
        <time>2011-10-29T10:03:13Z</time>
      </trkpt>
      <trkpt lat="42.02615" lon="9.13804">
        <ele>1949.232544</ele>
        <time>2011-10-29T10:03:16Z</time>
      </trkpt>
      <trkpt lat="42.02619" lon="9.13803">
        <ele>1949.093628</ele>
        <time>2011-10-29T10:03:19Z</time>
      </trkpt>
      <trkpt lat="42.02623" lon="9.13801">
        <ele>1949.027588</ele>
        <time>2011-10-29T10:03:23Z</time>
      </trkpt>
      <trkpt lat="42.02627" lon="9.138">
        <ele>1948.947021</ele>
        <time>2011-10-29T10:03:26Z</time>
      </trkpt>
      <trkpt lat="42.0263" lon="9.13799">
        <ele>1948.536865</ele>
        <time>2011-10-29T10:03:29Z</time>
      </trkpt>
      <trkpt lat="42.02634" lon="9.13798">
        <ele>1948.257202</ele>
        <time>2011-10-29T10:03:33Z</time>
      </trkpt>
      <trkpt lat="42.02635" lon="9.13798">
        <ele>1948.33252</ele>
        <time>2011-10-29T10:03:34Z</time>
      </trkpt>
      <trkpt lat="42.02642" lon="9.13796">
        <ele>1947.933228</ele>
        <time>2011-10-29T10:03:41Z</time>
      </trkpt>
      <trkpt lat="42.02646" lon="9.13794">
        <ele>1947.948486</ele>
        <time>2011-10-29T10:03:45Z</time>
      </trkpt>
      <trkpt lat="42.0265" lon="9.13794">
        <ele>1948.27356</ele>
        <time>2011-10-29T10:03:48Z</time>
      </trkpt>
      <trkpt lat="42.02654" lon="9.13793">
        <ele>1948.328735</ele>
        <time>2011-10-29T10:03:51Z</time>
      </trkpt>
      <trkpt lat="42.02657" lon="9.13792">
        <ele>1948.475586</ele>
        <time>2011-10-29T10:03:54Z</time>
      </trkpt>
      <trkpt lat="42.02661" lon="9.13792">
        <ele>1948.962158</ele>
        <time>2011-10-29T10:03:59Z</time>
      </trkpt>
      <trkpt lat="42.02665" lon="9.1379">
        <ele>1948.669434</ele>
        <time>2011-10-29T10:04:05Z</time>
      </trkpt>
      <trkpt lat="42.02669" lon="9.13789">
        <ele>1948.821777</ele>
        <time>2011-10-29T10:04:10Z</time>
      </trkpt>
      <trkpt lat="42.02673" lon="9.13787">
        <ele>1948.534912</ele>
        <time>2011-10-29T10:04:14Z</time>
      </trkpt>
      <trkpt lat="42.02676" lon="9.13784">
        <ele>1947.80188</ele>
        <time>2011-10-29T10:04:18Z</time>
      </trkpt>
      <trkpt lat="42.02679" lon="9.13781">
        <ele>1946.91687</ele>
        <time>2011-10-29T10:04:22Z</time>
      </trkpt>
      <trkpt lat="42.02683" lon="9.13779">
        <ele>1946.719971</ele>
        <time>2011-10-29T10:04:28Z</time>
      </trkpt>
      <trkpt lat="42.02687" lon="9.13778">
        <ele>1945.944458</ele>
        <time>2011-10-29T10:04:33Z</time>
      </trkpt>
      <trkpt lat="42.0269" lon="9.13775">
        <ele>1945.070801</ele>
        <time>2011-10-29T10:04:38Z</time>
      </trkpt>
      <trkpt lat="42.02691" lon="9.13774">
        <ele>1944.731201</ele>
        <time>2011-10-29T10:04:39Z</time>
      </trkpt>
      <trkpt lat="42.02697" lon="9.13773">
        <ele>1944.328003</ele>
        <time>2011-10-29T10:04:47Z</time>
      </trkpt>
      <trkpt lat="42.02701" lon="9.13772">
        <ele>1944.006226</ele>
        <time>2011-10-29T10:04:52Z</time>
      </trkpt>
      <trkpt lat="42.02705" lon="9.13771">
        <ele>1943.862549</ele>
        <time>2011-10-29T10:04:56Z</time>
      </trkpt>
      <trkpt lat="42.02709" lon="9.1377">
        <ele>1943.9375</ele>
        <time>2011-10-29T10:05:00Z</time>
      </trkpt>
      <trkpt lat="42.02713" lon="9.13769">
        <ele>1943.906494</ele>
        <time>2011-10-29T10:05:06Z</time>
      </trkpt>
      <trkpt lat="42.02717" lon="9.13768">
        <ele>1944.075806</ele>
        <time>2011-10-29T10:05:21Z</time>
      </trkpt>
      <trkpt lat="42.02722" lon="9.13768">
        <ele>1944.436279</ele>
        <time>2011-10-29T10:05:27Z</time>
      </trkpt>
      <trkpt lat="42.02726" lon="9.13766">
        <ele>1944.622314</ele>
        <time>2011-10-29T10:05:36Z</time>
      </trkpt>
      <trkpt lat="42.0273" lon="9.13763">
        <ele>1944.643433</ele>
        <time>2011-10-29T10:05:43Z</time>
      </trkpt>
      <trkpt lat="42.0273" lon="9.13763">
        <ele>1944.596802</ele>
        <time>2011-10-29T10:05:44Z</time>
      </trkpt>
      <trkpt lat="42.02738" lon="9.1376">
        <ele>1944.067505</ele>
        <time>2011-10-29T10:05:55Z</time>
      </trkpt>
      <trkpt lat="42.02742" lon="9.13759">
        <ele>1943.925537</ele>
        <time>2011-10-29T10:06:00Z</time>
      </trkpt>
      <trkpt lat="42.02746" lon="9.13758">
        <ele>1943.868652</ele>
        <time>2011-10-29T10:06:11Z</time>
      </trkpt>
      <trkpt lat="42.0275" lon="9.13761">
        <ele>1943.619263</ele>
        <time>2011-10-29T10:06:19Z</time>
      </trkpt>
      <trkpt lat="42.02753" lon="9.13765">
        <ele>1943.171143</ele>
        <time>2011-10-29T10:06:44Z</time>
      </trkpt>
      <trkpt lat="42.02753" lon="9.13765">
        <ele>1943.157593</ele>
        <time>2011-10-29T10:06:45Z</time>
      </trkpt>
      <trkpt lat="42.02761" lon="9.13765">
        <ele>1942.852417</ele>
        <time>2011-10-29T10:11:02Z</time>
      </trkpt>
      <trkpt lat="42.02761" lon="9.13765">
        <ele>1942.772095</ele>
        <time>2011-10-29T10:11:03Z</time>
      </trkpt>
      <trkpt lat="42.02764" lon="9.13775">
        <ele>1940.960205</ele>
        <time>2011-10-29T10:11:16Z</time>
      </trkpt>
      <trkpt lat="42.02765" lon="9.13781">
        <ele>1939.907227</ele>
        <time>2011-10-29T10:11:24Z</time>
      </trkpt>
      <trkpt lat="42.02764" lon="9.13787">
        <ele>1939.017334</ele>
        <time>2011-10-29T10:11:30Z</time>
      </trkpt>
      <trkpt lat="42.02763" lon="9.13793">
        <ele>1938.062378</ele>
        <time>2011-10-29T10:11:36Z</time>
      </trkpt>
      <trkpt lat="42.02762" lon="9.13798">
        <ele>1937.575317</ele>
        <time>2011-10-29T10:11:41Z</time>
      </trkpt>
      <trkpt lat="42.0276" lon="9.13803">
        <ele>1937.054077</ele>
        <time>2011-10-29T10:11:46Z</time>
      </trkpt>
      <trkpt lat="42.02765" lon="9.13804">
        <ele>1935.809082</ele>
        <time>2011-10-29T10:11:56Z</time>
      </trkpt>
      <trkpt lat="42.02769" lon="9.13804">
        <ele>1934.611816</ele>
        <time>2011-10-29T10:12:02Z</time>
      </trkpt>
      <trkpt lat="42.02773" lon="9.13803">
        <ele>1933.749023</ele>
        <time>2011-10-29T10:12:07Z</time>
      </trkpt>
      <trkpt lat="42.02774" lon="9.13803">
        <ele>1933.604736</ele>
        <time>2011-10-29T10:12:08Z</time>
      </trkpt>
      <trkpt lat="42.02781" lon="9.138">
        <ele>1933.151001</ele>
        <time>2011-10-29T10:12:22Z</time>
      </trkpt>
      <trkpt lat="42.02785" lon="9.13801">
        <ele>1932.029785</ele>
        <time>2011-10-29T10:12:28Z</time>
      </trkpt>
      <trkpt lat="42.02788" lon="9.13798">
        <ele>1932.094849</ele>
        <time>2011-10-29T10:12:34Z</time>
      </trkpt>
      <trkpt lat="42.02792" lon="9.13796">
        <ele>1932.037476</ele>
        <time>2011-10-29T10:12:41Z</time>
      </trkpt>
      <trkpt lat="42.02797" lon="9.13796">
        <ele>1931.414673</ele>
        <time>2011-10-29T10:12:48Z</time>
      </trkpt>
      <trkpt lat="42.02801" lon="9.13796">
        <ele>1930.647095</ele>
        <time>2011-10-29T10:12:54Z</time>
      </trkpt>
      <trkpt lat="42.02805" lon="9.13797">
        <ele>1929.59729</ele>
        <time>2011-10-29T10:13:00Z</time>
      </trkpt>
      <trkpt lat="42.02809" lon="9.13797">
        <ele>1929.089966</ele>
        <time>2011-10-29T10:13:05Z</time>
      </trkpt>
      <trkpt lat="42.02813" lon="9.13797">
        <ele>1928.308472</ele>
        <time>2011-10-29T10:13:09Z</time>
      </trkpt>
      <trkpt lat="42.02814" lon="9.13798">
        <ele>1928.098145</ele>
        <time>2011-10-29T10:13:10Z</time>
      </trkpt>
      <trkpt lat="42.0282" lon="9.13801">
        <ele>1926.036987</ele>
        <time>2011-10-29T10:13:21Z</time>
      </trkpt>
      <trkpt lat="42.02825" lon="9.13801">
        <ele>1925.507202</ele>
        <time>2011-10-29T10:13:39Z</time>
      </trkpt>
      <trkpt lat="42.02829" lon="9.138">
        <ele>1925.221802</ele>
        <time>2011-10-29T10:13:44Z</time>
      </trkpt>
      <trkpt lat="42.02832" lon="9.13801">
        <ele>1924.497925</ele>
        <time>2011-10-29T10:13:49Z</time>
      </trkpt>
      <trkpt lat="42.02837" lon="9.138">
        <ele>1924.471558</ele>
        <time>2011-10-29T10:13:55Z</time>
      </trkpt>
      <trkpt lat="42.02841" lon="9.13802">
        <ele>1923.166992</ele>
        <time>2011-10-29T10:14:01Z</time>
      </trkpt>
      <trkpt lat="42.02844" lon="9.13803">
        <ele>1922.201904</ele>
        <time>2011-10-29T10:14:06Z</time>
      </trkpt>
      <trkpt lat="42.02848" lon="9.13804">
        <ele>1921.388794</ele>
        <time>2011-10-29T10:14:11Z</time>
      </trkpt>
      <trkpt lat="42.02849" lon="9.13804">
        <ele>1921.426758</ele>
        <time>2011-10-29T10:14:12Z</time>
      </trkpt>
      <trkpt lat="42.02855" lon="9.13808">
        <ele>1918.863159</ele>
        <time>2011-10-29T10:14:24Z</time>
      </trkpt>
      <trkpt lat="42.02859" lon="9.1381">
        <ele>1917.782227</ele>
        <time>2011-10-29T10:14:32Z</time>
      </trkpt>
      <trkpt lat="42.02862" lon="9.13813">
        <ele>1916.094482</ele>
        <time>2011-10-29T10:14:42Z</time>
      </trkpt>
      <trkpt lat="42.02866" lon="9.13816">
        <ele>1914.771362</ele>
        <time>2011-10-29T10:14:48Z</time>
      </trkpt>
      <trkpt lat="42.0287" lon="9.13818">
        <ele>1913.535034</ele>
        <time>2011-10-29T10:14:54Z</time>
      </trkpt>
      <trkpt lat="42.02873" lon="9.1382">
        <ele>1912.126587</ele>
        <time>2011-10-29T10:14:59Z</time>
      </trkpt>
      <trkpt lat="42.02876" lon="9.13823">
        <ele>1910.567993</ele>
        <time>2011-10-29T10:15:04Z</time>
      </trkpt>
      <trkpt lat="42.02881" lon="9.13824">
        <ele>1909.433472</ele>
        <time>2011-10-29T10:15:11Z</time>
      </trkpt>
      <trkpt lat="42.02883" lon="9.13829">
        <ele>1907.316772</ele>
        <time>2011-10-29T10:15:18Z</time>
      </trkpt>
      <trkpt lat="42.02884" lon="9.1383">
        <ele>1907.001831</ele>
        <time>2011-10-29T10:15:19Z</time>
      </trkpt>
      <trkpt lat="42.02891" lon="9.13833">
        <ele>1904.994873</ele>
        <time>2011-10-29T10:15:29Z</time>
      </trkpt>
      <trkpt lat="42.02895" lon="9.13835">
        <ele>1903.653687</ele>
        <time>2011-10-29T10:15:37Z</time>
      </trkpt>
      <trkpt lat="42.02899" lon="9.13837">
        <ele>1902.630493</ele>
        <time>2011-10-29T10:15:42Z</time>
      </trkpt>
      <trkpt lat="42.02903" lon="9.13838">
        <ele>1901.801147</ele>
        <time>2011-10-29T10:15:46Z</time>
      </trkpt>
      <trkpt lat="42.02907" lon="9.13838">
        <ele>1900.824097</ele>
        <time>2011-10-29T10:15:50Z</time>
      </trkpt>
      <trkpt lat="42.02911" lon="9.13839">
        <ele>1899.323975</ele>
        <time>2011-10-29T10:15:55Z</time>
      </trkpt>
      <trkpt lat="42.02911" lon="9.13844">
        <ele>1897.339722</ele>
        <time>2011-10-29T10:16:03Z</time>
      </trkpt>
      <trkpt lat="42.02915" lon="9.13846">
        <ele>1895.611816</ele>
        <time>2011-10-29T10:16:09Z</time>
      </trkpt>
      <trkpt lat="42.02919" lon="9.13846">
        <ele>1894.359009</ele>
        <time>2011-10-29T10:16:14Z</time>
      </trkpt>
      <trkpt lat="42.02923" lon="9.13845">
        <ele>1893.750366</ele>
        <time>2011-10-29T10:16:24Z</time>
      </trkpt>
      <trkpt lat="42.02924" lon="9.13845">
        <ele>1893.397095</ele>
        <time>2011-10-29T10:16:25Z</time>
      </trkpt>
      <trkpt lat="42.0293" lon="9.13846">
        <ele>1890.908691</ele>
        <time>2011-10-29T10:16:34Z</time>
      </trkpt>
      <trkpt lat="42.02934" lon="9.13848">
        <ele>1889.238403</ele>
        <time>2011-10-29T10:16:41Z</time>
      </trkpt>
      <trkpt lat="42.02939" lon="9.13849">
        <ele>1887.457764</ele>
        <time>2011-10-29T10:16:49Z</time>
      </trkpt>
      <trkpt lat="42.02943" lon="9.13851">
        <ele>1885.628784</ele>
        <time>2011-10-29T10:16:56Z</time>
      </trkpt>
      <trkpt lat="42.02947" lon="9.13851">
        <ele>1884.251343</ele>
        <time>2011-10-29T10:17:02Z</time>
      </trkpt>
      <trkpt lat="42.02951" lon="9.13851">
        <ele>1883.099976</ele>
        <time>2011-10-29T10:17:09Z</time>
      </trkpt>
      <trkpt lat="42.02955" lon="9.13851">
        <ele>1881.645142</ele>
        <time>2011-10-29T10:17:15Z</time>
      </trkpt>
      <trkpt lat="42.0296" lon="9.13851">
        <ele>1880.548462</ele>
        <time>2011-10-29T10:17:22Z</time>
      </trkpt>
      <trkpt lat="42.02964" lon="9.13853">
        <ele>1878.773315</ele>
        <time>2011-10-29T10:17:28Z</time>
      </trkpt>
      <trkpt lat="42.02964" lon="9.13853">
        <ele>1878.505127</ele>
        <time>2011-10-29T10:17:29Z</time>
      </trkpt>
      <trkpt lat="42.02972" lon="9.1385">
        <ele>1877.810059</ele>
        <time>2011-10-29T10:17:38Z</time>
      </trkpt>
      <trkpt lat="42.02976" lon="9.13847">
        <ele>1877.656494</ele>
        <time>2011-10-29T10:17:43Z</time>
      </trkpt>
      <trkpt lat="42.0298" lon="9.13845">
        <ele>1877.342651</ele>
        <time>2011-10-29T10:17:48Z</time>
      </trkpt>
      <trkpt lat="42.02983" lon="9.13843">
        <ele>1876.913208</ele>
        <time>2011-10-29T10:17:52Z</time>
      </trkpt>
      <trkpt lat="42.02987" lon="9.13842">
        <ele>1876.390381</ele>
        <time>2011-10-29T10:17:56Z</time>
      </trkpt>
      <trkpt lat="42.02991" lon="9.13842">
        <ele>1875.732788</ele>
        <time>2011-10-29T10:18:01Z</time>
      </trkpt>
      <trkpt lat="42.02995" lon="9.13841">
        <ele>1874.975586</ele>
        <time>2011-10-29T10:18:06Z</time>
      </trkpt>
      <trkpt lat="42.02999" lon="9.13842">
        <ele>1874.241211</ele>
        <time>2011-10-29T10:18:10Z</time>
      </trkpt>
      <trkpt lat="42.03003" lon="9.13841">
        <ele>1873.944336</ele>
        <time>2011-10-29T10:18:15Z</time>
      </trkpt>
      <trkpt lat="42.03007" lon="9.13842">
        <ele>1872.957397</ele>
        <time>2011-10-29T10:18:19Z</time>
      </trkpt>
      <trkpt lat="42.03011" lon="9.13842">
        <ele>1872.475708</ele>
        <time>2011-10-29T10:18:23Z</time>
      </trkpt>
      <trkpt lat="42.03015" lon="9.13844">
        <ele>1871.053833</ele>
        <time>2011-10-29T10:18:27Z</time>
      </trkpt>
      <trkpt lat="42.03019" lon="9.13845">
        <ele>1870.254517</ele>
        <time>2011-10-29T10:18:31Z</time>
      </trkpt>
      <trkpt lat="42.03019" lon="9.13845">
        <ele>1870.182007</ele>
        <time>2011-10-29T10:18:32Z</time>
      </trkpt>
      <trkpt lat="42.03027" lon="9.13846">
        <ele>1869.019775</ele>
        <time>2011-10-29T10:18:40Z</time>
      </trkpt>
      <trkpt lat="42.03031" lon="9.13847">
        <ele>1868.020996</ele>
        <time>2011-10-29T10:18:45Z</time>
      </trkpt>
      <trkpt lat="42.03035" lon="9.13848">
        <ele>1866.680054</ele>
        <time>2011-10-29T10:18:50Z</time>
      </trkpt>
      <trkpt lat="42.03039" lon="9.13849">
        <ele>1866.099976</ele>
        <time>2011-10-29T10:18:54Z</time>
      </trkpt>
      <trkpt lat="42.03042" lon="9.13847">
        <ele>1865.783569</ele>
        <time>2011-10-29T10:18:58Z</time>
      </trkpt>
      <trkpt lat="42.03047" lon="9.13846">
        <ele>1865.513794</ele>
        <time>2011-10-29T10:19:02Z</time>
      </trkpt>
      <trkpt lat="42.03049" lon="9.13842">
        <ele>1866.500366</ele>
        <time>2011-10-29T10:19:07Z</time>
      </trkpt>
      <trkpt lat="42.03053" lon="9.13839">
        <ele>1867.016235</ele>
        <time>2011-10-29T10:19:12Z</time>
      </trkpt>
      <trkpt lat="42.03056" lon="9.13836">
        <ele>1867.347656</ele>
        <time>2011-10-29T10:19:17Z</time>
      </trkpt>
      <trkpt lat="42.0306" lon="9.13834">
        <ele>1867.305176</ele>
        <time>2011-10-29T10:19:23Z</time>
      </trkpt>
      <trkpt lat="42.03064" lon="9.13834">
        <ele>1866.572998</ele>
        <time>2011-10-29T10:19:29Z</time>
      </trkpt>
      <trkpt lat="42.03068" lon="9.13832">
        <ele>1866.356445</ele>
        <time>2011-10-29T10:19:35Z</time>
      </trkpt>
      <trkpt lat="42.03069" lon="9.13831">
        <ele>1866.540527</ele>
        <time>2011-10-29T10:19:36Z</time>
      </trkpt>
      <trkpt lat="42.03075" lon="9.13827">
        <ele>1866.489746</ele>
        <time>2011-10-29T10:19:46Z</time>
      </trkpt>
      <trkpt lat="42.03078" lon="9.13825">
        <ele>1866.239746</ele>
        <time>2011-10-29T10:19:50Z</time>
      </trkpt>
      <trkpt lat="42.03082" lon="9.13825">
        <ele>1865.5271</ele>
        <time>2011-10-29T10:19:57Z</time>
      </trkpt>
      <trkpt lat="42.03086" lon="9.13825">
        <ele>1864.517334</ele>
        <time>2011-10-29T10:20:03Z</time>
      </trkpt>
      <trkpt lat="42.0309" lon="9.13824">
        <ele>1864.820923</ele>
        <time>2011-10-29T10:20:08Z</time>
      </trkpt>
      <trkpt lat="42.03094" lon="9.13825">
        <ele>1864.151855</ele>
        <time>2011-10-29T10:20:14Z</time>
      </trkpt>
      <trkpt lat="42.03098" lon="9.13828">
        <ele>1863.196777</ele>
        <time>2011-10-29T10:20:20Z</time>
      </trkpt>
      <trkpt lat="42.03102" lon="9.1383">
        <ele>1862.068726</ele>
        <time>2011-10-29T10:20:25Z</time>
      </trkpt>
      <trkpt lat="42.03106" lon="9.1383">
        <ele>1861.968872</ele>
        <time>2011-10-29T10:20:31Z</time>
      </trkpt>
      <trkpt lat="42.03109" lon="9.13831">
        <ele>1861.437988</ele>
        <time>2011-10-29T10:20:37Z</time>
      </trkpt>
      <trkpt lat="42.0311" lon="9.13831">
        <ele>1861.4823</ele>
        <time>2011-10-29T10:20:38Z</time>
      </trkpt>
      <trkpt lat="42.03117" lon="9.13832">
        <ele>1860.933105</ele>
        <time>2011-10-29T10:20:47Z</time>
      </trkpt>
      <trkpt lat="42.03121" lon="9.13834">
        <ele>1859.872559</ele>
        <time>2011-10-29T10:20:51Z</time>
      </trkpt>
      <trkpt lat="42.03124" lon="9.13837">
        <ele>1858.431152</ele>
        <time>2011-10-29T10:20:56Z</time>
      </trkpt>
      <trkpt lat="42.03127" lon="9.1384">
        <ele>1857.223755</ele>
        <time>2011-10-29T10:21:00Z</time>
      </trkpt>
      <trkpt lat="42.0313" lon="9.13843">
        <ele>1855.739258</ele>
        <time>2011-10-29T10:21:05Z</time>
      </trkpt>
      <trkpt lat="42.03133" lon="9.13848">
        <ele>1854.143066</ele>
        <time>2011-10-29T10:21:10Z</time>
      </trkpt>
      <trkpt lat="42.03135" lon="9.13853">
        <ele>1852.511597</ele>
        <time>2011-10-29T10:21:15Z</time>
      </trkpt>
      <trkpt lat="42.03139" lon="9.13855">
        <ele>1851.958496</ele>
        <time>2011-10-29T10:21:20Z</time>
      </trkpt>
      <trkpt lat="42.03143" lon="9.13857">
        <ele>1851.853638</ele>
        <time>2011-10-29T10:21:25Z</time>
      </trkpt>
      <trkpt lat="42.03144" lon="9.13861">
        <ele>1850.544067</ele>
        <time>2011-10-29T10:21:30Z</time>
      </trkpt>
      <trkpt lat="42.03148" lon="9.13865">
        <ele>1849.759277</ele>
        <time>2011-10-29T10:21:35Z</time>
      </trkpt>
      <trkpt lat="42.03151" lon="9.13869">
        <ele>1848.980225</ele>
        <time>2011-10-29T10:21:40Z</time>
      </trkpt>
      <trkpt lat="42.03152" lon="9.1387">
        <ele>1848.930664</ele>
        <time>2011-10-29T10:21:41Z</time>
      </trkpt>
      <trkpt lat="42.03155" lon="9.13878">
        <ele>1846.864136</ele>
        <time>2011-10-29T10:21:49Z</time>
      </trkpt>
      <trkpt lat="42.03159" lon="9.13882">
        <ele>1846.348633</ele>
        <time>2011-10-29T10:21:53Z</time>
      </trkpt>
      <trkpt lat="42.03161" lon="9.13885">
        <ele>1845.722656</ele>
        <time>2011-10-29T10:21:56Z</time>
      </trkpt>
      <trkpt lat="42.03164" lon="9.1389">
        <ele>1844.954224</ele>
        <time>2011-10-29T10:22:00Z</time>
      </trkpt>
      <trkpt lat="42.03167" lon="9.13893">
        <ele>1844.363037</ele>
        <time>2011-10-29T10:22:03Z</time>
      </trkpt>
      <trkpt lat="42.03169" lon="9.13897">
        <ele>1843.586792</ele>
        <time>2011-10-29T10:22:06Z</time>
      </trkpt>
      <trkpt lat="42.0317" lon="9.13901">
        <ele>1842.616943</ele>
        <time>2011-10-29T10:22:09Z</time>
      </trkpt>
      <trkpt lat="42.03172" lon="9.13905">
        <ele>1841.484619</ele>
        <time>2011-10-29T10:22:12Z</time>
      </trkpt>
      <trkpt lat="42.03175" lon="9.13908">
        <ele>1840.804077</ele>
        <time>2011-10-29T10:22:15Z</time>
      </trkpt>
      <trkpt lat="42.03178" lon="9.13911">
        <ele>1839.917114</ele>
        <time>2011-10-29T10:22:28Z</time>
      </trkpt>
      <trkpt lat="42.03181" lon="9.13915">
        <ele>1838.92334</ele>
        <time>2011-10-29T10:22:34Z</time>
      </trkpt>
      <trkpt lat="42.03184" lon="9.13919">
        <ele>1838.061157</ele>
        <time>2011-10-29T10:22:38Z</time>
      </trkpt>
      <trkpt lat="42.03188" lon="9.13922">
        <ele>1837.618408</ele>
        <time>2011-10-29T10:22:42Z</time>
      </trkpt>
      <trkpt lat="42.03189" lon="9.13923">
        <ele>1837.412231</ele>
        <time>2011-10-29T10:22:43Z</time>
      </trkpt>
      <trkpt lat="42.03193" lon="9.13929">
        <ele>1835.999878</ele>
        <time>2011-10-29T10:22:51Z</time>
      </trkpt>
      <trkpt lat="42.03197" lon="9.13932">
        <ele>1835.43689</ele>
        <time>2011-10-29T10:22:55Z</time>
      </trkpt>
      <trkpt lat="42.032" lon="9.13933">
        <ele>1835.469238</ele>
        <time>2011-10-29T10:23:01Z</time>
      </trkpt>
      <trkpt lat="42.03204" lon="9.13936">
        <ele>1834.924316</ele>
        <time>2011-10-29T10:23:06Z</time>
      </trkpt>
      <trkpt lat="42.03208" lon="9.13938">
        <ele>1834.792236</ele>
        <time>2011-10-29T10:23:10Z</time>
      </trkpt>
      <trkpt lat="42.03212" lon="9.13939">
        <ele>1834.683716</ele>
        <time>2011-10-29T10:23:14Z</time>
      </trkpt>
      <trkpt lat="42.03215" lon="9.13939">
        <ele>1834.430786</ele>
        <time>2011-10-29T10:23:18Z</time>
      </trkpt>
      <trkpt lat="42.03219" lon="9.13939">
        <ele>1833.900146</ele>
        <time>2011-10-29T10:23:24Z</time>
      </trkpt>
      <trkpt lat="42.03223" lon="9.13942">
        <ele>1832.868042</ele>
        <time>2011-10-29T10:23:28Z</time>
      </trkpt>
      <trkpt lat="42.03227" lon="9.13943">
        <ele>1832.043579</ele>
        <time>2011-10-29T10:23:33Z</time>
      </trkpt>
      <trkpt lat="42.0323" lon="9.13943">
        <ele>1831.645386</ele>
        <time>2011-10-29T10:23:37Z</time>
      </trkpt>
      <trkpt lat="42.03233" lon="9.1394">
        <ele>1831.740479</ele>
        <time>2011-10-29T10:23:41Z</time>
      </trkpt>
      <trkpt lat="42.03237" lon="9.13939">
        <ele>1831.371582</ele>
        <time>2011-10-29T10:23:46Z</time>
      </trkpt>
      <trkpt lat="42.03238" lon="9.13939">
        <ele>1831.194824</ele>
        <time>2011-10-29T10:23:47Z</time>
      </trkpt>
      <trkpt lat="42.03246" lon="9.13941">
        <ele>1829.873657</ele>
        <time>2011-10-29T10:23:56Z</time>
      </trkpt>
      <trkpt lat="42.03249" lon="9.1394">
        <ele>1829.394409</ele>
        <time>2011-10-29T10:24:00Z</time>
      </trkpt>
      <trkpt lat="42.03253" lon="9.13937">
        <ele>1829.46521</ele>
        <time>2011-10-29T10:24:04Z</time>
      </trkpt>
      <trkpt lat="42.03256" lon="9.13938">
        <ele>1828.80188</ele>
        <time>2011-10-29T10:24:08Z</time>
      </trkpt>
      <trkpt lat="42.0326" lon="9.13935">
        <ele>1828.65686</ele>
        <time>2011-10-29T10:24:13Z</time>
      </trkpt>
      <trkpt lat="42.03264" lon="9.13934">
        <ele>1827.917969</ele>
        <time>2011-10-29T10:24:19Z</time>
      </trkpt>
      <trkpt lat="42.03268" lon="9.13935">
        <ele>1827.162476</ele>
        <time>2011-10-29T10:24:25Z</time>
      </trkpt>
      <trkpt lat="42.03272" lon="9.13934">
        <ele>1826.480225</ele>
        <time>2011-10-29T10:24:30Z</time>
      </trkpt>
      <trkpt lat="42.03276" lon="9.13932">
        <ele>1826.013306</ele>
        <time>2011-10-29T10:24:35Z</time>
      </trkpt>
      <trkpt lat="42.0328" lon="9.13932">
        <ele>1825.240356</ele>
        <time>2011-10-29T10:24:40Z</time>
      </trkpt>
      <trkpt lat="42.03283" lon="9.13927">
        <ele>1825.200806</ele>
        <time>2011-10-29T10:24:44Z</time>
      </trkpt>
      <trkpt lat="42.03286" lon="9.13925">
        <ele>1824.76416</ele>
        <time>2011-10-29T10:24:48Z</time>
      </trkpt>
      <trkpt lat="42.03287" lon="9.13924">
        <ele>1824.693115</ele>
        <time>2011-10-29T10:24:49Z</time>
      </trkpt>
      <trkpt lat="42.03294" lon="9.13921">
        <ele>1823.734375</ele>
        <time>2011-10-29T10:24:56Z</time>
      </trkpt>
      <trkpt lat="42.03297" lon="9.13918">
        <ele>1823.371704</ele>
        <time>2011-10-29T10:25:00Z</time>
      </trkpt>
      <trkpt lat="42.03301" lon="9.13916">
        <ele>1822.751221</ele>
        <time>2011-10-29T10:25:04Z</time>
      </trkpt>
      <trkpt lat="42.03305" lon="9.13914">
        <ele>1822.133301</ele>
        <time>2011-10-29T10:25:08Z</time>
      </trkpt>
      <trkpt lat="42.03308" lon="9.13911">
        <ele>1821.741577</ele>
        <time>2011-10-29T10:25:11Z</time>
      </trkpt>
      <trkpt lat="42.03311" lon="9.13907">
        <ele>1821.36499</ele>
        <time>2011-10-29T10:25:15Z</time>
      </trkpt>
      <trkpt lat="42.03315" lon="9.13905">
        <ele>1820.738159</ele>
        <time>2011-10-29T10:25:20Z</time>
      </trkpt>
      <trkpt lat="42.03319" lon="9.13905">
        <ele>1819.751221</ele>
        <time>2011-10-29T10:25:27Z</time>
      </trkpt>
      <trkpt lat="42.03323" lon="9.13906">
        <ele>1818.917969</ele>
        <time>2011-10-29T10:25:31Z</time>
      </trkpt>
      <trkpt lat="42.03327" lon="9.13908">
        <ele>1817.833984</ele>
        <time>2011-10-29T10:25:35Z</time>
      </trkpt>
      <trkpt lat="42.03331" lon="9.13909">
        <ele>1816.786621</ele>
        <time>2011-10-29T10:25:39Z</time>
      </trkpt>
      <trkpt lat="42.03335" lon="9.13909">
        <ele>1815.926025</ele>
        <time>2011-10-29T10:25:42Z</time>
      </trkpt>
      <trkpt lat="42.03339" lon="9.13909">
        <ele>1815.030151</ele>
        <time>2011-10-29T10:25:46Z</time>
      </trkpt>
      <trkpt lat="42.03342" lon="9.13909">
        <ele>1814.265991</ele>
        <time>2011-10-29T10:25:49Z</time>
      </trkpt>
      <trkpt lat="42.03343" lon="9.13909">
        <ele>1814.03479</ele>
        <time>2011-10-29T10:25:50Z</time>
      </trkpt>
      <trkpt lat="42.0335" lon="9.13908">
        <ele>1812.673096</ele>
        <time>2011-10-29T10:25:56Z</time>
      </trkpt>
      <trkpt lat="42.03354" lon="9.13908">
        <ele>1811.538696</ele>
        <time>2011-10-29T10:26:00Z</time>
      </trkpt>
      <trkpt lat="42.03358" lon="9.13909">
        <ele>1810.311646</ele>
        <time>2011-10-29T10:26:12Z</time>
      </trkpt>
      <trkpt lat="42.03362" lon="9.13907">
        <ele>1809.456665</ele>
        <time>2011-10-29T10:26:17Z</time>
      </trkpt>
      <trkpt lat="42.03366" lon="9.13907">
        <ele>1808.510864</ele>
        <time>2011-10-29T10:26:21Z</time>
      </trkpt>
      <trkpt lat="42.0337" lon="9.13907">
        <ele>1807.34314</ele>
        <time>2011-10-29T10:26:25Z</time>
      </trkpt>
      <trkpt lat="42.03375" lon="9.13907">
        <ele>1806.177368</ele>
        <time>2011-10-29T10:26:29Z</time>
      </trkpt>
      <trkpt lat="42.03378" lon="9.13905">
        <ele>1805.438599</ele>
        <time>2011-10-29T10:27:19Z</time>
      </trkpt>
      <trkpt lat="42.03379" lon="9.13905">
        <ele>1805.268433</ele>
        <time>2011-10-29T10:27:20Z</time>
      </trkpt>
      <trkpt lat="42.03386" lon="9.13901">
        <ele>1803.942017</ele>
        <time>2011-10-29T10:27:29Z</time>
      </trkpt>
      <trkpt lat="42.0339" lon="9.139">
        <ele>1803.143799</ele>
        <time>2011-10-29T10:27:33Z</time>
      </trkpt>
      <trkpt lat="42.03394" lon="9.13901">
        <ele>1801.941895</ele>
        <time>2011-10-29T10:27:39Z</time>
      </trkpt>
      <trkpt lat="42.03398" lon="9.13905">
        <ele>1800.292725</ele>
        <time>2011-10-29T10:27:45Z</time>
      </trkpt>
      <trkpt lat="42.03399" lon="9.13909">
        <ele>1798.931519</ele>
        <time>2011-10-29T10:27:50Z</time>
      </trkpt>
      <trkpt lat="42.03402" lon="9.13915">
        <ele>1797.44104</ele>
        <time>2011-10-29T10:27:55Z</time>
      </trkpt>
      <trkpt lat="42.03404" lon="9.13919">
        <ele>1795.804077</ele>
        <time>2011-10-29T10:28:01Z</time>
      </trkpt>
      <trkpt lat="42.03409" lon="9.13919">
        <ele>1794.481567</ele>
        <time>2011-10-29T10:28:06Z</time>
      </trkpt>
      <trkpt lat="42.03413" lon="9.13919">
        <ele>1793.118408</ele>
        <time>2011-10-29T10:28:10Z</time>
      </trkpt>
      <trkpt lat="42.03417" lon="9.1392">
        <ele>1791.604858</ele>
        <time>2011-10-29T10:28:14Z</time>
      </trkpt>
      <trkpt lat="42.03421" lon="9.13921">
        <ele>1789.958984</ele>
        <time>2011-10-29T10:28:19Z</time>
      </trkpt>
      <trkpt lat="42.03425" lon="9.13924">
        <ele>1788.359863</ele>
        <time>2011-10-29T10:28:24Z</time>
      </trkpt>
      <trkpt lat="42.03426" lon="9.13923">
        <ele>1788.202515</ele>
        <time>2011-10-29T10:28:25Z</time>
      </trkpt>
      <trkpt lat="42.03432" lon="9.13925">
        <ele>1785.655151</ele>
        <time>2011-10-29T10:28:35Z</time>
      </trkpt>
      <trkpt lat="42.03435" lon="9.13931">
        <ele>1784.141357</ele>
        <time>2011-10-29T10:28:42Z</time>
      </trkpt>
      <trkpt lat="42.03439" lon="9.13929">
        <ele>1783.007935</ele>
        <time>2011-10-29T10:28:48Z</time>
      </trkpt>
      <trkpt lat="42.03443" lon="9.13926">
        <ele>1782.956665</ele>
        <time>2011-10-29T10:28:55Z</time>
      </trkpt>
      <trkpt lat="42.03446" lon="9.13923">
        <ele>1782.967529</ele>
        <time>2011-10-29T10:29:00Z</time>
      </trkpt>
      <trkpt lat="42.03449" lon="9.1392">
        <ele>1782.820068</ele>
        <time>2011-10-29T10:29:05Z</time>
      </trkpt>
      <trkpt lat="42.03453" lon="9.13917">
        <ele>1782.659058</ele>
        <time>2011-10-29T10:29:09Z</time>
      </trkpt>
      <trkpt lat="42.03457" lon="9.13915">
        <ele>1782.336548</ele>
        <time>2011-10-29T10:29:13Z</time>
      </trkpt>
      <trkpt lat="42.03461" lon="9.13913">
        <ele>1781.994995</ele>
        <time>2011-10-29T10:29:17Z</time>
      </trkpt>
      <trkpt lat="42.03463" lon="9.1391">
        <ele>1781.819946</ele>
        <time>2011-10-29T10:29:20Z</time>
      </trkpt>
      <trkpt lat="42.03466" lon="9.13908">
        <ele>1781.620972</ele>
        <time>2011-10-29T10:29:23Z</time>
      </trkpt>
      <trkpt lat="42.0347" lon="9.13905">
        <ele>1781.292114</ele>
        <time>2011-10-29T10:29:27Z</time>
      </trkpt>
      <trkpt lat="42.03471" lon="9.13905">
        <ele>1781.164063</ele>
        <time>2011-10-29T10:29:28Z</time>
      </trkpt>
      <trkpt lat="42.03478" lon="9.13903">
        <ele>1780.105713</ele>
        <time>2011-10-29T10:29:35Z</time>
      </trkpt>
      <trkpt lat="42.03482" lon="9.139">
        <ele>1779.575317</ele>
        <time>2011-10-29T10:29:39Z</time>
      </trkpt>
      <trkpt lat="42.03487" lon="9.13899">
        <ele>1779.059448</ele>
        <time>2011-10-29T10:29:44Z</time>
      </trkpt>
      <trkpt lat="42.0349" lon="9.13899">
        <ele>1779.015381</ele>
        <time>2011-10-29T10:30:08Z</time>
      </trkpt>
      <trkpt lat="42.03494" lon="9.13898">
        <ele>1779.012085</ele>
        <time>2011-10-29T10:30:12Z</time>
      </trkpt>
      <trkpt lat="42.03498" lon="9.13897">
        <ele>1778.985229</ele>
        <time>2011-10-29T10:30:16Z</time>
      </trkpt>
      <trkpt lat="42.03502" lon="9.13897">
        <ele>1778.900146</ele>
        <time>2011-10-29T10:30:20Z</time>
      </trkpt>
      <trkpt lat="42.03505" lon="9.13897">
        <ele>1778.831543</ele>
        <time>2011-10-29T10:30:24Z</time>
      </trkpt>
      <trkpt lat="42.0351" lon="9.13897">
        <ele>1778.720459</ele>
        <time>2011-10-29T10:31:12Z</time>
      </trkpt>
      <trkpt lat="42.03511" lon="9.13897">
        <ele>1778.716675</ele>
        <time>2011-10-29T10:31:13Z</time>
      </trkpt>
      <trkpt lat="42.03516" lon="9.13891">
        <ele>1778.840088</ele>
        <time>2011-10-29T10:31:35Z</time>
      </trkpt>
      <trkpt lat="42.0352" lon="9.13895">
        <ele>1778.626831</ele>
        <time>2011-10-29T10:32:31Z</time>
      </trkpt>
      <trkpt lat="42.0352" lon="9.13895">
        <ele>1778.621216</ele>
        <time>2011-10-29T10:32:32Z</time>
      </trkpt>
      <trkpt lat="42.03527" lon="9.13895">
        <ele>1778.451172</ele>
        <time>2011-10-29T10:35:42Z</time>
      </trkpt>
      <trkpt lat="42.03527" lon="9.13895">
        <ele>1778.442383</ele>
        <time>2011-10-29T10:35:43Z</time>
      </trkpt>
      <trkpt lat="42.03522" lon="9.13902">
        <ele>1778.310791</ele>
        <time>2011-10-29T10:36:21Z</time>
      </trkpt>
      <trkpt lat="42.03519" lon="9.13902">
        <ele>1778.353027</ele>
        <time>2011-10-29T10:36:23Z</time>
      </trkpt>
      <trkpt lat="42.03515" lon="9.13903">
        <ele>1778.391113</ele>
        <time>2011-10-29T10:36:26Z</time>
      </trkpt>
      <trkpt lat="42.03514" lon="9.13898">
        <ele>1778.633423</ele>
        <time>2011-10-29T10:36:42Z</time>
      </trkpt>
      <trkpt lat="42.03517" lon="9.13902">
        <ele>1778.407104</ele>
        <time>2011-10-29T10:38:11Z</time>
      </trkpt>
      <trkpt lat="42.03517" lon="9.13902">
        <ele>1778.39563</ele>
        <time>2011-10-29T10:38:12Z</time>
      </trkpt>
      <trkpt lat="42.03511" lon="9.13907">
        <ele>1778.423218</ele>
        <time>2011-10-29T10:38:38Z</time>
      </trkpt>
      <trkpt lat="42.03507" lon="9.13908">
        <ele>1778.464478</ele>
        <time>2011-10-29T10:38:41Z</time>
      </trkpt>
      <trkpt lat="42.03504" lon="9.1391">
        <ele>1778.472168</ele>
        <time>2011-10-29T10:38:44Z</time>
      </trkpt>
      <trkpt lat="42.03501" lon="9.13912">
        <ele>1778.446411</ele>
        <time>2011-10-29T10:38:48Z</time>
      </trkpt>
      <trkpt lat="42.03497" lon="9.13916">
        <ele>1778.345337</ele>
        <time>2011-10-29T10:38:53Z</time>
      </trkpt>
      <trkpt lat="42.03494" lon="9.1392">
        <ele>1778.213745</ele>
        <time>2011-10-29T10:38:59Z</time>
      </trkpt>
      <trkpt lat="42.03492" lon="9.13925">
        <ele>1778.009888</ele>
        <time>2011-10-29T10:39:04Z</time>
      </trkpt>
      <trkpt lat="42.0349" lon="9.1393">
        <ele>1777.772217</ele>
        <time>2011-10-29T10:39:12Z</time>
      </trkpt>
      <trkpt lat="42.03489" lon="9.1393">
        <ele>1777.738525</ele>
        <time>2011-10-29T10:39:13Z</time>
      </trkpt>
      <trkpt lat="42.03494" lon="9.13922">
        <ele>1778.139282</ele>
        <time>2011-10-29T10:39:35Z</time>
      </trkpt>
      <trkpt lat="42.03498" lon="9.1392">
        <ele>1778.259888</ele>
        <time>2011-10-29T10:39:38Z</time>
      </trkpt>
      <trkpt lat="42.03502" lon="9.13917">
        <ele>1778.356567</ele>
        <time>2011-10-29T10:39:41Z</time>
      </trkpt>
      <trkpt lat="42.03506" lon="9.13918">
        <ele>1778.37085</ele>
        <time>2011-10-29T10:40:27Z</time>
      </trkpt>
      <trkpt lat="42.03506" lon="9.13918">
        <ele>1778.371216</ele>
        <time>2011-10-29T10:40:28Z</time>
      </trkpt>
      <trkpt lat="42.03512" lon="9.13915">
        <ele>1778.39978</ele>
        <time>2011-10-29T10:40:58Z</time>
      </trkpt>
      <trkpt lat="42.03513" lon="9.1391">
        <ele>1778.39209</ele>
        <time>2011-10-29T10:41:06Z</time>
      </trkpt>
      <trkpt lat="42.03514" lon="9.13905">
        <ele>1778.351929</ele>
        <time>2011-10-29T10:41:15Z</time>
      </trkpt>
      <trkpt lat="42.03514" lon="9.13899">
        <ele>1778.585571</ele>
        <time>2011-10-29T10:41:32Z</time>
      </trkpt>
      <trkpt lat="42.03514" lon="9.13899">
        <ele>1778.597412</ele>
        <time>2011-10-29T10:41:33Z</time>
      </trkpt>
      <trkpt lat="42.03509" lon="9.13888">
        <ele>1779.112427</ele>
        <time>2011-10-29T10:42:14Z</time>
      </trkpt>
      <trkpt lat="42.03509" lon="9.13891">
        <ele>1778.988403</ele>
        <time>2011-10-29T10:44:39Z</time>
      </trkpt>
      <trkpt lat="42.03519" lon="9.13892">
        <ele>1778.758057</ele>
        <time>2011-10-29T11:08:55Z</time>
      </trkpt>
      <trkpt lat="42.0352" lon="9.13886">
        <ele>1778.969482</ele>
        <time>2011-10-29T11:09:22Z</time>
      </trkpt>
      <trkpt lat="42.03521" lon="9.13881">
        <ele>1779.11084</ele>
        <time>2011-10-29T11:09:27Z</time>
      </trkpt>
      <trkpt lat="42.03524" lon="9.13877">
        <ele>1779.215454</ele>
        <time>2011-10-29T11:09:33Z</time>
      </trkpt>
      <trkpt lat="42.03526" lon="9.13872">
        <ele>1779.335938</ele>
        <time>2011-10-29T11:09:40Z</time>
      </trkpt>
      <trkpt lat="42.03528" lon="9.13867">
        <ele>1779.431763</ele>
        <time>2011-10-29T11:09:45Z</time>
      </trkpt>
      <trkpt lat="42.03529" lon="9.13861">
        <ele>1779.631348</ele>
        <time>2011-10-29T11:10:00Z</time>
      </trkpt>
      <trkpt lat="42.03529" lon="9.1386">
        <ele>1779.667114</ele>
        <time>2011-10-29T11:10:01Z</time>
      </trkpt>
      <trkpt lat="42.03531" lon="9.1385">
        <ele>1779.975098</ele>
        <time>2011-10-29T11:10:09Z</time>
      </trkpt>
      <trkpt lat="42.03532" lon="9.13846">
        <ele>1780.092651</ele>
        <time>2011-10-29T11:10:13Z</time>
      </trkpt>
      <trkpt lat="42.03534" lon="9.13841">
        <ele>1780.259399</ele>
        <time>2011-10-29T11:10:17Z</time>
      </trkpt>
      <trkpt lat="42.03536" lon="9.13836">
        <ele>1780.582642</ele>
        <time>2011-10-29T11:10:22Z</time>
      </trkpt>
      <trkpt lat="42.03538" lon="9.13832">
        <ele>1780.856812</ele>
        <time>2011-10-29T11:10:26Z</time>
      </trkpt>
      <trkpt lat="42.03537" lon="9.13826">
        <ele>1781.106934</ele>
        <time>2011-10-29T11:10:31Z</time>
      </trkpt>
      <trkpt lat="42.03537" lon="9.13821">
        <ele>1781.312256</ele>
        <time>2011-10-29T11:10:35Z</time>
      </trkpt>
      <trkpt lat="42.03539" lon="9.13816">
        <ele>1781.60498</ele>
        <time>2011-10-29T11:10:40Z</time>
      </trkpt>
      <trkpt lat="42.03542" lon="9.13813">
        <ele>1781.848267</ele>
        <time>2011-10-29T11:10:45Z</time>
      </trkpt>
      <trkpt lat="42.03546" lon="9.13811">
        <ele>1782.063843</ele>
        <time>2011-10-29T11:10:58Z</time>
      </trkpt>
      <trkpt lat="42.03549" lon="9.13806">
        <ele>1782.307861</ele>
        <time>2011-10-29T11:11:04Z</time>
      </trkpt>
      <trkpt lat="42.03549" lon="9.13805">
        <ele>1782.357422</ele>
        <time>2011-10-29T11:11:05Z</time>
      </trkpt>
      <trkpt lat="42.03554" lon="9.13798">
        <ele>1782.676636</ele>
        <time>2011-10-29T11:11:12Z</time>
      </trkpt>
      <trkpt lat="42.03556" lon="9.13794">
        <ele>1782.846436</ele>
        <time>2011-10-29T11:11:16Z</time>
      </trkpt>
      <trkpt lat="42.03559" lon="9.13789">
        <ele>1782.97998</ele>
        <time>2011-10-29T11:11:20Z</time>
      </trkpt>
      <trkpt lat="42.03561" lon="9.13786">
        <ele>1783.187134</ele>
        <time>2011-10-29T11:11:23Z</time>
      </trkpt>
      <trkpt lat="42.03564" lon="9.13783">
        <ele>1783.375122</ele>
        <time>2011-10-29T11:11:27Z</time>
      </trkpt>
      <trkpt lat="42.03568" lon="9.13783">
        <ele>1783.349609</ele>
        <time>2011-10-29T11:11:31Z</time>
      </trkpt>
      <trkpt lat="42.03571" lon="9.13783">
        <ele>1783.364746</ele>
        <time>2011-10-29T11:11:34Z</time>
      </trkpt>
      <trkpt lat="42.03575" lon="9.13782">
        <ele>1783.383301</ele>
        <time>2011-10-29T11:11:38Z</time>
      </trkpt>
      <trkpt lat="42.03579" lon="9.1378">
        <ele>1783.424194</ele>
        <time>2011-10-29T11:11:42Z</time>
      </trkpt>
      <trkpt lat="42.03583" lon="9.13778">
        <ele>1783.462769</ele>
        <time>2011-10-29T11:11:46Z</time>
      </trkpt>
      <trkpt lat="42.03586" lon="9.13776">
        <ele>1783.662354</ele>
        <time>2011-10-29T11:11:50Z</time>
      </trkpt>
      <trkpt lat="42.0359" lon="9.13774">
        <ele>1783.881104</ele>
        <time>2011-10-29T11:11:53Z</time>
      </trkpt>
      <trkpt lat="42.03593" lon="9.13772">
        <ele>1784.088989</ele>
        <time>2011-10-29T11:11:56Z</time>
      </trkpt>
      <trkpt lat="42.03597" lon="9.13771">
        <ele>1784.300293</ele>
        <time>2011-10-29T11:11:59Z</time>
      </trkpt>
      <trkpt lat="42.03601" lon="9.13768">
        <ele>1784.47937</ele>
        <time>2011-10-29T11:12:02Z</time>
      </trkpt>
      <trkpt lat="42.03604" lon="9.13767">
        <ele>1784.631836</ele>
        <time>2011-10-29T11:12:05Z</time>
      </trkpt>
      <trkpt lat="42.03607" lon="9.13765">
        <ele>1784.762939</ele>
        <time>2011-10-29T11:12:08Z</time>
      </trkpt>
      <trkpt lat="42.03608" lon="9.13764">
        <ele>1784.804443</ele>
        <time>2011-10-29T11:12:09Z</time>
      </trkpt>
      <trkpt lat="42.03613" lon="9.13756">
        <ele>1784.943481</ele>
        <time>2011-10-29T11:12:15Z</time>
      </trkpt>
      <trkpt lat="42.03616" lon="9.13754">
        <ele>1785.022339</ele>
        <time>2011-10-29T11:12:20Z</time>
      </trkpt>
      <trkpt lat="42.0362" lon="9.13753">
        <ele>1785.097778</ele>
        <time>2011-10-29T11:12:24Z</time>
      </trkpt>
      <trkpt lat="42.03624" lon="9.13756">
        <ele>1785.196777</ele>
        <time>2011-10-29T11:12:28Z</time>
      </trkpt>
      <trkpt lat="42.03628" lon="9.13756">
        <ele>1785.286255</ele>
        <time>2011-10-29T11:12:32Z</time>
      </trkpt>
      <trkpt lat="42.03633" lon="9.13757">
        <ele>1785.546753</ele>
        <time>2011-10-29T11:12:36Z</time>
      </trkpt>
      <trkpt lat="42.03636" lon="9.13756">
        <ele>1785.810425</ele>
        <time>2011-10-29T11:12:39Z</time>
      </trkpt>
      <trkpt lat="42.03641" lon="9.13755">
        <ele>1786.116577</ele>
        <time>2011-10-29T11:12:43Z</time>
      </trkpt>
      <trkpt lat="42.03645" lon="9.13754">
        <ele>1786.41748</ele>
        <time>2011-10-29T11:12:47Z</time>
      </trkpt>
      <trkpt lat="42.03649" lon="9.13751">
        <ele>1786.580933</ele>
        <time>2011-10-29T11:12:51Z</time>
      </trkpt>
      <trkpt lat="42.03651" lon="9.13747">
        <ele>1786.630981</ele>
        <time>2011-10-29T11:12:54Z</time>
      </trkpt>
      <trkpt lat="42.03654" lon="9.13743">
        <ele>1786.643433</ele>
        <time>2011-10-29T11:12:58Z</time>
      </trkpt>
      <trkpt lat="42.03656" lon="9.13738">
        <ele>1786.696289</ele>
        <time>2011-10-29T11:13:03Z</time>
      </trkpt>
      <trkpt lat="42.03659" lon="9.13734">
        <ele>1786.852539</ele>
        <time>2011-10-29T11:13:07Z</time>
      </trkpt>
      <trkpt lat="42.03661" lon="9.1373">
        <ele>1787.014893</ele>
        <time>2011-10-29T11:13:11Z</time>
      </trkpt>
      <trkpt lat="42.03662" lon="9.13729">
        <ele>1787.063232</ele>
        <time>2011-10-29T11:13:12Z</time>
      </trkpt>
      <trkpt lat="42.03669" lon="9.13727">
        <ele>1787.516113</ele>
        <time>2011-10-29T11:13:19Z</time>
      </trkpt>
      <trkpt lat="42.03672" lon="9.13724">
        <ele>1787.701294</ele>
        <time>2011-10-29T11:13:22Z</time>
      </trkpt>
      <trkpt lat="42.03675" lon="9.13721">
        <ele>1787.866699</ele>
        <time>2011-10-29T11:13:25Z</time>
      </trkpt>
      <trkpt lat="42.03677" lon="9.13718">
        <ele>1787.973999</ele>
        <time>2011-10-29T11:13:28Z</time>
      </trkpt>
      <trkpt lat="42.03679" lon="9.13714">
        <ele>1788.123779</ele>
        <time>2011-10-29T11:13:31Z</time>
      </trkpt>
      <trkpt lat="42.03682" lon="9.13711">
        <ele>1788.331055</ele>
        <time>2011-10-29T11:13:34Z</time>
      </trkpt>
      <trkpt lat="42.03685" lon="9.13709">
        <ele>1788.55896</ele>
        <time>2011-10-29T11:13:37Z</time>
      </trkpt>
      <trkpt lat="42.03689" lon="9.13707">
        <ele>1788.807495</ele>
        <time>2011-10-29T11:13:40Z</time>
      </trkpt>
      <trkpt lat="42.03692" lon="9.13705">
        <ele>1789.025513</ele>
        <time>2011-10-29T11:13:43Z</time>
      </trkpt>
      <trkpt lat="42.03695" lon="9.13703">
        <ele>1789.228394</ele>
        <time>2011-10-29T11:13:46Z</time>
      </trkpt>
      <trkpt lat="42.03698" lon="9.13701">
        <ele>1789.450317</ele>
        <time>2011-10-29T11:13:49Z</time>
      </trkpt>
      <trkpt lat="42.03702" lon="9.13699">
        <ele>1789.675415</ele>
        <time>2011-10-29T11:13:52Z</time>
      </trkpt>
      <trkpt lat="42.03705" lon="9.13696">
        <ele>1789.855225</ele>
        <time>2011-10-29T11:13:55Z</time>
      </trkpt>
      <trkpt lat="42.03708" lon="9.13693">
        <ele>1790.023682</ele>
        <time>2011-10-29T11:13:58Z</time>
      </trkpt>
      <trkpt lat="42.03711" lon="9.1369">
        <ele>1790.156006</ele>
        <time>2011-10-29T11:14:01Z</time>
      </trkpt>
      <trkpt lat="42.03714" lon="9.13687">
        <ele>1790.285767</ele>
        <time>2011-10-29T11:14:04Z</time>
      </trkpt>
      <trkpt lat="42.03716" lon="9.13683">
        <ele>1790.461182</ele>
        <time>2011-10-29T11:14:07Z</time>
      </trkpt>
      <trkpt lat="42.03719" lon="9.1368">
        <ele>1790.603027</ele>
        <time>2011-10-29T11:14:10Z</time>
      </trkpt>
      <trkpt lat="42.03722" lon="9.13676">
        <ele>1790.802979</ele>
        <time>2011-10-29T11:14:14Z</time>
      </trkpt>
      <trkpt lat="42.03723" lon="9.13674">
        <ele>1790.853271</ele>
        <time>2011-10-29T11:14:15Z</time>
      </trkpt>
      <trkpt lat="42.03728" lon="9.13668">
        <ele>1791.134277</ele>
        <time>2011-10-29T11:14:21Z</time>
      </trkpt>
      <trkpt lat="42.0373" lon="9.13664">
        <ele>1791.241943</ele>
        <time>2011-10-29T11:14:24Z</time>
      </trkpt>
      <trkpt lat="42.03732" lon="9.13659">
        <ele>1791.328247</ele>
        <time>2011-10-29T11:14:28Z</time>
      </trkpt>
      <trkpt lat="42.03731" lon="9.13653">
        <ele>1791.26123</ele>
        <time>2011-10-29T11:14:33Z</time>
      </trkpt>
      <trkpt lat="42.03731" lon="9.13648">
        <ele>1791.186768</ele>
        <time>2011-10-29T11:14:37Z</time>
      </trkpt>
      <trkpt lat="42.03731" lon="9.13643">
        <ele>1791.163696</ele>
        <time>2011-10-29T11:14:40Z</time>
      </trkpt>
      <trkpt lat="42.03732" lon="9.13638">
        <ele>1791.196411</ele>
        <time>2011-10-29T11:14:43Z</time>
      </trkpt>
      <trkpt lat="42.03734" lon="9.13634">
        <ele>1791.305176</ele>
        <time>2011-10-29T11:14:47Z</time>
      </trkpt>
      <trkpt lat="42.03737" lon="9.1363">
        <ele>1791.399902</ele>
        <time>2011-10-29T11:15:06Z</time>
      </trkpt>
      <trkpt lat="42.03737" lon="9.13624">
        <ele>1791.438721</ele>
        <time>2011-10-29T11:15:12Z</time>
      </trkpt>
      <trkpt lat="42.03737" lon="9.13618">
        <ele>1791.49585</ele>
        <time>2011-10-29T11:15:21Z</time>
      </trkpt>
      <trkpt lat="42.03737" lon="9.13617">
        <ele>1791.523315</ele>
        <time>2011-10-29T11:15:22Z</time>
      </trkpt>
      <trkpt lat="42.0374" lon="9.13609">
        <ele>1791.696045</ele>
        <time>2011-10-29T11:15:27Z</time>
      </trkpt>
      <trkpt lat="42.03741" lon="9.13604">
        <ele>1791.809814</ele>
        <time>2011-10-29T11:15:30Z</time>
      </trkpt>
      <trkpt lat="42.03741" lon="9.13599">
        <ele>1791.842896</ele>
        <time>2011-10-29T11:15:33Z</time>
      </trkpt>
      <trkpt lat="42.03741" lon="9.13595">
        <ele>1791.889282</ele>
        <time>2011-10-29T11:15:36Z</time>
      </trkpt>
      <trkpt lat="42.03742" lon="9.1359">
        <ele>1791.967896</ele>
        <time>2011-10-29T11:15:39Z</time>
      </trkpt>
      <trkpt lat="42.03743" lon="9.13585">
        <ele>1792.074707</ele>
        <time>2011-10-29T11:15:43Z</time>
      </trkpt>
      <trkpt lat="42.03744" lon="9.1358">
        <ele>1792.139648</ele>
        <time>2011-10-29T11:15:46Z</time>
      </trkpt>
      <trkpt lat="42.03744" lon="9.13576">
        <ele>1792.200928</ele>
        <time>2011-10-29T11:15:49Z</time>
      </trkpt>
      <trkpt lat="42.03745" lon="9.1357">
        <ele>1792.275757</ele>
        <time>2011-10-29T11:15:53Z</time>
      </trkpt>
      <trkpt lat="42.03746" lon="9.13564">
        <ele>1792.411377</ele>
        <time>2011-10-29T11:15:57Z</time>
      </trkpt>
      <trkpt lat="42.03745" lon="9.1356">
        <ele>1792.492554</ele>
        <time>2011-10-29T11:16:03Z</time>
      </trkpt>
      <trkpt lat="42.03744" lon="9.13554">
        <ele>1792.598511</ele>
        <time>2011-10-29T11:16:07Z</time>
      </trkpt>
      <trkpt lat="42.03743" lon="9.13549">
        <ele>1792.714722</ele>
        <time>2011-10-29T11:16:11Z</time>
      </trkpt>
      <trkpt lat="42.03741" lon="9.13544">
        <ele>1792.841431</ele>
        <time>2011-10-29T11:16:15Z</time>
      </trkpt>
      <trkpt lat="42.0374" lon="9.13538">
        <ele>1792.987061</ele>
        <time>2011-10-29T11:16:19Z</time>
      </trkpt>
      <trkpt lat="42.0374" lon="9.13533">
        <ele>1793.132813</ele>
        <time>2011-10-29T11:16:23Z</time>
      </trkpt>
      <trkpt lat="42.0374" lon="9.13532">
        <ele>1793.163696</ele>
        <time>2011-10-29T11:16:24Z</time>
      </trkpt>
      <trkpt lat="42.03741" lon="9.13522">
        <ele>1793.459839</ele>
        <time>2011-10-29T11:16:32Z</time>
      </trkpt>
      <trkpt lat="42.03743" lon="9.13517">
        <ele>1793.586182</ele>
        <time>2011-10-29T11:16:36Z</time>
      </trkpt>
      <trkpt lat="42.03745" lon="9.13512">
        <ele>1793.689453</ele>
        <time>2011-10-29T11:16:40Z</time>
      </trkpt>
      <trkpt lat="42.03746" lon="9.13507">
        <ele>1793.869873</ele>
        <time>2011-10-29T11:16:44Z</time>
      </trkpt>
      <trkpt lat="42.03747" lon="9.13501">
        <ele>1794.201782</ele>
        <time>2011-10-29T11:16:48Z</time>
      </trkpt>
      <trkpt lat="42.03748" lon="9.13496">
        <ele>1794.495117</ele>
        <time>2011-10-29T11:16:52Z</time>
      </trkpt>
      <trkpt lat="42.03747" lon="9.13491">
        <ele>1794.7948</ele>
        <time>2011-10-29T11:16:56Z</time>
      </trkpt>
      <trkpt lat="42.03747" lon="9.13485">
        <ele>1795.140381</ele>
        <time>2011-10-29T11:17:01Z</time>
      </trkpt>
      <trkpt lat="42.03748" lon="9.13479">
        <ele>1795.439331</ele>
        <time>2011-10-29T11:17:06Z</time>
      </trkpt>
      <trkpt lat="42.03752" lon="9.13478">
        <ele>1795.572876</ele>
        <time>2011-10-29T11:17:12Z</time>
      </trkpt>
      <trkpt lat="42.03756" lon="9.13477">
        <ele>1795.643066</ele>
        <time>2011-10-29T11:17:18Z</time>
      </trkpt>
      <trkpt lat="42.0376" lon="9.13474">
        <ele>1795.847412</ele>
        <time>2011-10-29T11:17:28Z</time>
      </trkpt>
      <trkpt lat="42.03761" lon="9.13474">
        <ele>1795.901001</ele>
        <time>2011-10-29T11:17:29Z</time>
      </trkpt>
      <trkpt lat="42.03765" lon="9.13466">
        <ele>1796.4823</ele>
        <time>2011-10-29T11:17:38Z</time>
      </trkpt>
      <trkpt lat="42.03769" lon="9.13463">
        <ele>1796.786621</ele>
        <time>2011-10-29T11:17:44Z</time>
      </trkpt>
      <trkpt lat="42.03772" lon="9.13464">
        <ele>1796.790527</ele>
        <time>2011-10-29T11:17:47Z</time>
      </trkpt>
      <trkpt lat="42.03775" lon="9.13465">
        <ele>1796.771851</ele>
        <time>2011-10-29T11:17:50Z</time>
      </trkpt>
      <trkpt lat="42.03779" lon="9.13464">
        <ele>1796.927979</ele>
        <time>2011-10-29T11:17:56Z</time>
      </trkpt>
      <trkpt lat="42.03783" lon="9.13461">
        <ele>1797.239502</ele>
        <time>2011-10-29T11:18:03Z</time>
      </trkpt>
      <trkpt lat="42.03787" lon="9.13458">
        <ele>1797.590698</ele>
        <time>2011-10-29T11:18:09Z</time>
      </trkpt>
      <trkpt lat="42.03789" lon="9.13454">
        <ele>1798.019287</ele>
        <time>2011-10-29T11:18:14Z</time>
      </trkpt>
      <trkpt lat="42.03791" lon="9.13449">
        <ele>1798.336304</ele>
        <time>2011-10-29T11:18:18Z</time>
      </trkpt>
      <trkpt lat="42.03794" lon="9.13444">
        <ele>1798.646851</ele>
        <time>2011-10-29T11:18:23Z</time>
      </trkpt>
      <trkpt lat="42.03796" lon="9.1344">
        <ele>1798.862427</ele>
        <time>2011-10-29T11:18:30Z</time>
      </trkpt>
      <trkpt lat="42.03797" lon="9.1344">
        <ele>1798.868164</ele>
        <time>2011-10-29T11:18:31Z</time>
      </trkpt>
      <trkpt lat="42.03789" lon="9.13435">
        <ele>1799.164917</ele>
        <time>2011-10-29T11:19:17Z</time>
      </trkpt>
      <trkpt lat="42.03786" lon="9.13431">
        <ele>1799.430054</ele>
        <time>2011-10-29T11:19:33Z</time>
      </trkpt>
      <trkpt lat="42.03786" lon="9.13431">
        <ele>1799.443604</ele>
        <time>2011-10-29T11:19:34Z</time>
      </trkpt>
      <trkpt lat="42.03782" lon="9.13421">
        <ele>1800.010254</ele>
        <time>2011-10-29T11:19:54Z</time>
      </trkpt>
      <trkpt lat="42.03785" lon="9.13418">
        <ele>1800.286133</ele>
        <time>2011-10-29T11:20:02Z</time>
      </trkpt>
      <trkpt lat="42.03788" lon="9.13413">
        <ele>1800.554932</ele>
        <time>2011-10-29T11:20:09Z</time>
      </trkpt>
      <trkpt lat="42.03792" lon="9.13411">
        <ele>1800.528809</ele>
        <time>2011-10-29T11:20:27Z</time>
      </trkpt>
      <trkpt lat="42.03796" lon="9.13409">
        <ele>1800.455444</ele>
        <time>2011-10-29T11:20:48Z</time>
      </trkpt>
      <trkpt lat="42.03796" lon="9.13408">
        <ele>1800.471313</ele>
        <time>2011-10-29T11:20:49Z</time>
      </trkpt>
      <trkpt lat="42.03801" lon="9.134">
        <ele>1800.635254</ele>
        <time>2011-10-29T11:21:08Z</time>
      </trkpt>
      <trkpt lat="42.03802" lon="9.13395">
        <ele>1800.736694</ele>
        <time>2011-10-29T11:21:13Z</time>
      </trkpt>
      <trkpt lat="42.03803" lon="9.1339">
        <ele>1800.624756</ele>
        <time>2011-10-29T11:21:18Z</time>
      </trkpt>
      <trkpt lat="42.03804" lon="9.13384">
        <ele>1800.440552</ele>
        <time>2011-10-29T11:21:23Z</time>
      </trkpt>
      <trkpt lat="42.03805" lon="9.13378">
        <ele>1800.267456</ele>
        <time>2011-10-29T11:21:28Z</time>
      </trkpt>
      <trkpt lat="42.03806" lon="9.13374">
        <ele>1800.1427</ele>
        <time>2011-10-29T11:21:31Z</time>
      </trkpt>
      <trkpt lat="42.03805" lon="9.13369">
        <ele>1800.134155</ele>
        <time>2011-10-29T11:21:36Z</time>
      </trkpt>
      <trkpt lat="42.03803" lon="9.13364">
        <ele>1800.141479</ele>
        <time>2011-10-29T11:21:41Z</time>
      </trkpt>
      <trkpt lat="42.03803" lon="9.13359">
        <ele>1800.087646</ele>
        <time>2011-10-29T11:21:44Z</time>
      </trkpt>
      <trkpt lat="42.03802" lon="9.13355">
        <ele>1800.027954</ele>
        <time>2011-10-29T11:21:47Z</time>
      </trkpt>
      <trkpt lat="42.03801" lon="9.13349">
        <ele>1799.941406</ele>
        <time>2011-10-29T11:21:51Z</time>
      </trkpt>
      <trkpt lat="42.03801" lon="9.13348">
        <ele>1799.932739</ele>
        <time>2011-10-29T11:21:52Z</time>
      </trkpt>
      <trkpt lat="42.03802" lon="9.13338">
        <ele>1799.669189</ele>
        <time>2011-10-29T11:21:59Z</time>
      </trkpt>
      <trkpt lat="42.03803" lon="9.13332">
        <ele>1799.494995</ele>
        <time>2011-10-29T11:22:03Z</time>
      </trkpt>
      <trkpt lat="42.03803" lon="9.13327">
        <ele>1799.325073</ele>
        <time>2011-10-29T11:22:06Z</time>
      </trkpt>
      <trkpt lat="42.03804" lon="9.13323">
        <ele>1799.155029</ele>
        <time>2011-10-29T11:22:09Z</time>
      </trkpt>
      <trkpt lat="42.03805" lon="9.13318">
        <ele>1798.969971</ele>
        <time>2011-10-29T11:22:14Z</time>
      </trkpt>
      <trkpt lat="42.03805" lon="9.13312">
        <ele>1798.780029</ele>
        <time>2011-10-29T11:22:19Z</time>
      </trkpt>
      <trkpt lat="42.03805" lon="9.13307">
        <ele>1798.63501</ele>
        <time>2011-10-29T11:22:24Z</time>
      </trkpt>
      <trkpt lat="42.03806" lon="9.13302">
        <ele>1798.434937</ele>
        <time>2011-10-29T11:22:27Z</time>
      </trkpt>
      <trkpt lat="42.03808" lon="9.13297">
        <ele>1798.175049</ele>
        <time>2011-10-29T11:22:31Z</time>
      </trkpt>
      <trkpt lat="42.03808" lon="9.13291">
        <ele>1797.98999</ele>
        <time>2011-10-29T11:22:35Z</time>
      </trkpt>
      <trkpt lat="42.03809" lon="9.13286">
        <ele>1797.815063</ele>
        <time>2011-10-29T11:22:38Z</time>
      </trkpt>
      <trkpt lat="42.03812" lon="9.13283">
        <ele>1797.584961</ele>
        <time>2011-10-29T11:22:41Z</time>
      </trkpt>
      <trkpt lat="42.03815" lon="9.13281">
        <ele>1797.36499</ele>
        <time>2011-10-29T11:22:44Z</time>
      </trkpt>
      <trkpt lat="42.03819" lon="9.1328">
        <ele>1797.13501</ele>
        <time>2011-10-29T11:22:47Z</time>
      </trkpt>
      <trkpt lat="42.03823" lon="9.13279">
        <ele>1796.910034</ele>
        <time>2011-10-29T11:22:50Z</time>
      </trkpt>
      <trkpt lat="42.03826" lon="9.13277">
        <ele>1796.680054</ele>
        <time>2011-10-29T11:22:53Z</time>
      </trkpt>
      <trkpt lat="42.03828" lon="9.13276">
        <ele>1796.599976</ele>
        <time>2011-10-29T11:22:54Z</time>
      </trkpt>
      <trkpt lat="42.03833" lon="9.13276">
        <ele>1796.337646</ele>
        <time>2011-10-29T11:22:59Z</time>
      </trkpt>
      <trkpt lat="42.03837" lon="9.13277">
        <ele>1796.152588</ele>
        <time>2011-10-29T11:23:02Z</time>
      </trkpt>
      <trkpt lat="42.03841" lon="9.13275">
        <ele>1795.920654</ele>
        <time>2011-10-29T11:23:05Z</time>
      </trkpt>
      <trkpt lat="42.03845" lon="9.13276">
        <ele>1795.827515</ele>
        <time>2011-10-29T11:23:08Z</time>
      </trkpt>
      <trkpt lat="42.03849" lon="9.13278">
        <ele>1795.790039</ele>
        <time>2011-10-29T11:23:11Z</time>
      </trkpt>
      <trkpt lat="42.03852" lon="9.13279">
        <ele>1795.767456</ele>
        <time>2011-10-29T11:23:13Z</time>
      </trkpt>
      <trkpt lat="42.03856" lon="9.13281">
        <ele>1795.734985</ele>
        <time>2011-10-29T11:23:16Z</time>
      </trkpt>
      <trkpt lat="42.03859" lon="9.13284">
        <ele>1795.709961</ele>
        <time>2011-10-29T11:23:19Z</time>
      </trkpt>
      <trkpt lat="42.03863" lon="9.13286">
        <ele>1795.704956</ele>
        <time>2011-10-29T11:23:22Z</time>
      </trkpt>
      <trkpt lat="42.03866" lon="9.13288">
        <ele>1795.685059</ele>
        <time>2011-10-29T11:23:24Z</time>
      </trkpt>
      <trkpt lat="42.03869" lon="9.1329">
        <ele>1795.665039</ele>
        <time>2011-10-29T11:23:26Z</time>
      </trkpt>
      <trkpt lat="42.03872" lon="9.13292">
        <ele>1795.642456</ele>
        <time>2011-10-29T11:23:28Z</time>
      </trkpt>
      <trkpt lat="42.03876" lon="9.13294">
        <ele>1795.607544</ele>
        <time>2011-10-29T11:23:31Z</time>
      </trkpt>
      <trkpt lat="42.0388" lon="9.13296">
        <ele>1795.5625</ele>
        <time>2011-10-29T11:23:34Z</time>
      </trkpt>
      <trkpt lat="42.03883" lon="9.13297">
        <ele>1795.537476</ele>
        <time>2011-10-29T11:23:36Z</time>
      </trkpt>
      <trkpt lat="42.03885" lon="9.13298">
        <ele>1795.523071</ele>
        <time>2011-10-29T11:23:38Z</time>
      </trkpt>
      <trkpt lat="42.0389" lon="9.133">
        <ele>1795.620361</ele>
        <time>2011-10-29T11:23:41Z</time>
      </trkpt>
      <trkpt lat="42.03893" lon="9.13299">
        <ele>1795.65979</ele>
        <time>2011-10-29T11:23:44Z</time>
      </trkpt>
      <trkpt lat="42.03897" lon="9.13299">
        <ele>1795.692749</ele>
        <time>2011-10-29T11:23:47Z</time>
      </trkpt>
      <trkpt lat="42.03901" lon="9.13299">
        <ele>1795.765259</ele>
        <time>2011-10-29T11:23:50Z</time>
      </trkpt>
      <trkpt lat="42.03905" lon="9.133">
        <ele>1795.846924</ele>
        <time>2011-10-29T11:23:53Z</time>
      </trkpt>
      <trkpt lat="42.03907" lon="9.133">
        <ele>1795.869385</ele>
        <time>2011-10-29T11:23:54Z</time>
      </trkpt>
      <trkpt lat="42.03913" lon="9.133">
        <ele>1795.950439</ele>
        <time>2011-10-29T11:24:00Z</time>
      </trkpt>
      <trkpt lat="42.03917" lon="9.13299">
        <ele>1795.985596</ele>
        <time>2011-10-29T11:24:04Z</time>
      </trkpt>
      <trkpt lat="42.03921" lon="9.13298">
        <ele>1796.025024</ele>
        <time>2011-10-29T11:24:08Z</time>
      </trkpt>
      <trkpt lat="42.03924" lon="9.13296">
        <ele>1796.043701</ele>
        <time>2011-10-29T11:24:12Z</time>
      </trkpt>
      <trkpt lat="42.03928" lon="9.13297">
        <ele>1796.119141</ele>
        <time>2011-10-29T11:24:16Z</time>
      </trkpt>
      <trkpt lat="42.03931" lon="9.13299">
        <ele>1796.327515</ele>
        <time>2011-10-29T11:24:20Z</time>
      </trkpt>
      <trkpt lat="42.03934" lon="9.13304">
        <ele>1796.680054</ele>
        <time>2011-10-29T11:24:29Z</time>
      </trkpt>
      <trkpt lat="42.03935" lon="9.13309">
        <ele>1796.88501</ele>
        <time>2011-10-29T11:24:35Z</time>
      </trkpt>
      <trkpt lat="42.03938" lon="9.13314">
        <ele>1797.232544</ele>
        <time>2011-10-29T11:24:39Z</time>
      </trkpt>
      <trkpt lat="42.0394" lon="9.13318">
        <ele>1797.48999</ele>
        <time>2011-10-29T11:24:42Z</time>
      </trkpt>
      <trkpt lat="42.03942" lon="9.13322">
        <ele>1797.765015</ele>
        <time>2011-10-29T11:24:45Z</time>
      </trkpt>
      <trkpt lat="42.03945" lon="9.13326">
        <ele>1798.077515</ele>
        <time>2011-10-29T11:24:48Z</time>
      </trkpt>
      <trkpt lat="42.03948" lon="9.13329">
        <ele>1798.449951</ele>
        <time>2011-10-29T11:24:52Z</time>
      </trkpt>
      <trkpt lat="42.03951" lon="9.13332">
        <ele>1798.8125</ele>
        <time>2011-10-29T11:24:57Z</time>
      </trkpt>
      <trkpt lat="42.03952" lon="9.13333">
        <ele>1798.880005</ele>
        <time>2011-10-29T11:24:58Z</time>
      </trkpt>
      <trkpt lat="42.03958" lon="9.13339">
        <ele>1799.494995</ele>
        <time>2011-10-29T11:25:05Z</time>
      </trkpt>
      <trkpt lat="42.0396" lon="9.13342">
        <ele>1799.819946</ele>
        <time>2011-10-29T11:25:09Z</time>
      </trkpt>
      <trkpt lat="42.03963" lon="9.13347">
        <ele>1800.142456</ele>
        <time>2011-10-29T11:25:13Z</time>
      </trkpt>
      <trkpt lat="42.03966" lon="9.13351">
        <ele>1800.459961</ele>
        <time>2011-10-29T11:25:17Z</time>
      </trkpt>
      <trkpt lat="42.03968" lon="9.13355">
        <ele>1800.994629</ele>
        <time>2011-10-29T11:25:22Z</time>
      </trkpt>
      <trkpt lat="42.03972" lon="9.13357">
        <ele>1802.168335</ele>
        <time>2011-10-29T11:25:28Z</time>
      </trkpt>
      <trkpt lat="42.03977" lon="9.13357">
        <ele>1803.981201</ele>
        <time>2011-10-29T11:25:39Z</time>
      </trkpt>
      <trkpt lat="42.03979" lon="9.13362">
        <ele>1805.907837</ele>
        <time>2011-10-29T11:25:55Z</time>
      </trkpt>
      <trkpt lat="42.03982" lon="9.13367">
        <ele>1807.564575</ele>
        <time>2011-10-29T11:26:07Z</time>
      </trkpt>
      <trkpt lat="42.03982" lon="9.13367">
        <ele>1807.937866</ele>
        <time>2011-10-29T11:26:08Z</time>
      </trkpt>
      <trkpt lat="42.03985" lon="9.13376">
        <ele>1810.213745</ele>
        <time>2011-10-29T11:26:20Z</time>
      </trkpt>
      <trkpt lat="42.03987" lon="9.13382">
        <ele>1811.419189</ele>
        <time>2011-10-29T11:26:27Z</time>
      </trkpt>
      <trkpt lat="42.03985" lon="9.13387">
        <ele>1811.437012</ele>
        <time>2011-10-29T11:26:32Z</time>
      </trkpt>
      <trkpt lat="42.03985" lon="9.13392">
        <ele>1812.06897</ele>
        <time>2011-10-29T11:26:38Z</time>
      </trkpt>
      <trkpt lat="42.03987" lon="9.13397">
        <ele>1813.255981</ele>
        <time>2011-10-29T11:26:45Z</time>
      </trkpt>
      <trkpt lat="42.0399" lon="9.13402">
        <ele>1814.625488</ele>
        <time>2011-10-29T11:26:53Z</time>
      </trkpt>
      <trkpt lat="42.03992" lon="9.13407">
        <ele>1815.797974</ele>
        <time>2011-10-29T11:27:01Z</time>
      </trkpt>
      <trkpt lat="42.03995" lon="9.13412">
        <ele>1817.132446</ele>
        <time>2011-10-29T11:27:08Z</time>
      </trkpt>
      <trkpt lat="42.03998" lon="9.13415">
        <ele>1818.576782</ele>
        <time>2011-10-29T11:27:15Z</time>
      </trkpt>
      <trkpt lat="42.03999" lon="9.13414">
        <ele>1818.703979</ele>
        <time>2011-10-29T11:27:16Z</time>
      </trkpt>
      <trkpt lat="42.04006" lon="9.13413">
        <ele>1820.798706</ele>
        <time>2011-10-29T11:27:29Z</time>
      </trkpt>
      <trkpt lat="42.0401" lon="9.13412">
        <ele>1822.135132</ele>
        <time>2011-10-29T11:27:41Z</time>
      </trkpt>
      <trkpt lat="42.04013" lon="9.13409">
        <ele>1823.120728</ele>
        <time>2011-10-29T11:27:51Z</time>
      </trkpt>
      <trkpt lat="42.04016" lon="9.13405">
        <ele>1823.801514</ele>
        <time>2011-10-29T11:28:00Z</time>
      </trkpt>
      <trkpt lat="42.04019" lon="9.13401">
        <ele>1824.674194</ele>
        <time>2011-10-29T11:28:10Z</time>
      </trkpt>
      <trkpt lat="42.0402" lon="9.13396">
        <ele>1824.832275</ele>
        <time>2011-10-29T11:28:16Z</time>
      </trkpt>
      <trkpt lat="42.04021" lon="9.13395">
        <ele>1824.836548</ele>
        <time>2011-10-29T11:28:17Z</time>
      </trkpt>
      <trkpt lat="42.04027" lon="9.13391">
        <ele>1826.577881</ele>
        <time>2011-10-29T11:28:28Z</time>
      </trkpt>
      <trkpt lat="42.04031" lon="9.1339">
        <ele>1827.663696</ele>
        <time>2011-10-29T11:28:34Z</time>
      </trkpt>
      <trkpt lat="42.04035" lon="9.1339">
        <ele>1828.769897</ele>
        <time>2011-10-29T11:28:41Z</time>
      </trkpt>
      <trkpt lat="42.04039" lon="9.13387">
        <ele>1829.549072</ele>
        <time>2011-10-29T11:28:48Z</time>
      </trkpt>
      <trkpt lat="42.04041" lon="9.13382">
        <ele>1829.649414</ele>
        <time>2011-10-29T11:29:06Z</time>
      </trkpt>
      <trkpt lat="42.04044" lon="9.13377">
        <ele>1830.031616</ele>
        <time>2011-10-29T11:29:12Z</time>
      </trkpt>
      <trkpt lat="42.04046" lon="9.13373">
        <ele>1829.991089</ele>
        <time>2011-10-29T11:29:17Z</time>
      </trkpt>
      <trkpt lat="42.04049" lon="9.13369">
        <ele>1830.25708</ele>
        <time>2011-10-29T11:29:22Z</time>
      </trkpt>
      <trkpt lat="42.0405" lon="9.13368">
        <ele>1830.349731</ele>
        <time>2011-10-29T11:29:23Z</time>
      </trkpt>
      <trkpt lat="42.04056" lon="9.13363">
        <ele>1831.013184</ele>
        <time>2011-10-29T11:29:31Z</time>
      </trkpt>
      <trkpt lat="42.04059" lon="9.13359">
        <ele>1831.258423</ele>
        <time>2011-10-29T11:29:36Z</time>
      </trkpt>
      <trkpt lat="42.04062" lon="9.13355">
        <ele>1831.360718</ele>
        <time>2011-10-29T11:29:41Z</time>
      </trkpt>
      <trkpt lat="42.04065" lon="9.13351">
        <ele>1831.374634</ele>
        <time>2011-10-29T11:29:46Z</time>
      </trkpt>
      <trkpt lat="42.04067" lon="9.13346">
        <ele>1831.270508</ele>
        <time>2011-10-29T11:29:50Z</time>
      </trkpt>
      <trkpt lat="42.0407" lon="9.13342">
        <ele>1831.195923</ele>
        <time>2011-10-29T11:29:55Z</time>
      </trkpt>
      <trkpt lat="42.04073" lon="9.13337">
        <ele>1831.187866</ele>
        <time>2011-10-29T11:30:00Z</time>
      </trkpt>
      <trkpt lat="42.04075" lon="9.13333">
        <ele>1831.121948</ele>
        <time>2011-10-29T11:30:05Z</time>
      </trkpt>
      <trkpt lat="42.04079" lon="9.13329">
        <ele>1831.21582</ele>
        <time>2011-10-29T11:30:10Z</time>
      </trkpt>
      <trkpt lat="42.04082" lon="9.13326">
        <ele>1831.35376</ele>
        <time>2011-10-29T11:30:15Z</time>
      </trkpt>
      <trkpt lat="42.04085" lon="9.13322">
        <ele>1831.338013</ele>
        <time>2011-10-29T11:30:20Z</time>
      </trkpt>
      <trkpt lat="42.04088" lon="9.13318">
        <ele>1831.396118</ele>
        <time>2011-10-29T11:30:24Z</time>
      </trkpt>
      <trkpt lat="42.04089" lon="9.13317">
        <ele>1831.391724</ele>
        <time>2011-10-29T11:30:25Z</time>
      </trkpt>
      <trkpt lat="42.04094" lon="9.13312">
        <ele>1831.561768</ele>
        <time>2011-10-29T11:30:32Z</time>
      </trkpt>
      <trkpt lat="42.04099" lon="9.13312">
        <ele>1832.023926</ele>
        <time>2011-10-29T11:30:36Z</time>
      </trkpt>
      <trkpt lat="42.04102" lon="9.13308">
        <ele>1832.003906</ele>
        <time>2011-10-29T11:30:41Z</time>
      </trkpt>
      <trkpt lat="42.04105" lon="9.13306">
        <ele>1832.557495</ele>
        <time>2011-10-29T11:30:45Z</time>
      </trkpt>
      <trkpt lat="42.04108" lon="9.13302">
        <ele>1833.074097</ele>
        <time>2011-10-29T11:30:50Z</time>
      </trkpt>
      <trkpt lat="42.04112" lon="9.133">
        <ele>1833.562622</ele>
        <time>2011-10-29T11:30:54Z</time>
      </trkpt>
      <trkpt lat="42.04115" lon="9.13297">
        <ele>1833.964478</ele>
        <time>2011-10-29T11:30:58Z</time>
      </trkpt>
      <trkpt lat="42.04118" lon="9.13294">
        <ele>1834.360474</ele>
        <time>2011-10-29T11:31:02Z</time>
      </trkpt>
      <trkpt lat="42.04122" lon="9.13291">
        <ele>1834.734375</ele>
        <time>2011-10-29T11:31:06Z</time>
      </trkpt>
      <trkpt lat="42.04125" lon="9.13288">
        <ele>1835.050415</ele>
        <time>2011-10-29T11:31:11Z</time>
      </trkpt>
      <trkpt lat="42.04127" lon="9.13283">
        <ele>1835.223633</ele>
        <time>2011-10-29T11:31:17Z</time>
      </trkpt>
      <trkpt lat="42.0413" lon="9.1328">
        <ele>1835.451782</ele>
        <time>2011-10-29T11:31:21Z</time>
      </trkpt>
      <trkpt lat="42.04134" lon="9.1328">
        <ele>1835.754395</ele>
        <time>2011-10-29T11:31:26Z</time>
      </trkpt>
      <trkpt lat="42.04135" lon="9.1328">
        <ele>1835.837158</ele>
        <time>2011-10-29T11:31:27Z</time>
      </trkpt>
      <trkpt lat="42.04142" lon="9.1328">
        <ele>1836.322632</ele>
        <time>2011-10-29T11:31:33Z</time>
      </trkpt>
      <trkpt lat="42.04145" lon="9.13278">
        <ele>1836.515991</ele>
        <time>2011-10-29T11:31:40Z</time>
      </trkpt>
      <trkpt lat="42.04148" lon="9.13274">
        <ele>1836.546387</ele>
        <time>2011-10-29T11:31:46Z</time>
      </trkpt>
      <trkpt lat="42.04151" lon="9.1327">
        <ele>1836.51001</ele>
        <time>2011-10-29T11:31:52Z</time>
      </trkpt>
      <trkpt lat="42.04154" lon="9.13268">
        <ele>1836.592163</ele>
        <time>2011-10-29T11:31:56Z</time>
      </trkpt>
      <trkpt lat="42.04157" lon="9.13265">
        <ele>1836.574463</ele>
        <time>2011-10-29T11:32:00Z</time>
      </trkpt>
      <trkpt lat="42.0416" lon="9.1326">
        <ele>1836.681763</ele>
        <time>2011-10-29T11:32:04Z</time>
      </trkpt>
      <trkpt lat="42.04163" lon="9.13257">
        <ele>1836.898682</ele>
        <time>2011-10-29T11:32:08Z</time>
      </trkpt>
      <trkpt lat="42.04166" lon="9.13253">
        <ele>1837.087158</ele>
        <time>2011-10-29T11:32:12Z</time>
      </trkpt>
      <trkpt lat="42.04169" lon="9.1325">
        <ele>1837.285034</ele>
        <time>2011-10-29T11:32:15Z</time>
      </trkpt>
      <trkpt lat="42.04172" lon="9.13247">
        <ele>1837.647461</ele>
        <time>2011-10-29T11:32:19Z</time>
      </trkpt>
      <trkpt lat="42.04175" lon="9.13243">
        <ele>1837.854614</ele>
        <time>2011-10-29T11:32:23Z</time>
      </trkpt>
      <trkpt lat="42.04178" lon="9.13239">
        <ele>1838.008911</ele>
        <time>2011-10-29T11:32:28Z</time>
      </trkpt>
      <trkpt lat="42.04179" lon="9.13238">
        <ele>1838.107056</ele>
        <time>2011-10-29T11:32:29Z</time>
      </trkpt>
      <trkpt lat="42.04185" lon="9.13235">
        <ele>1838.643799</ele>
        <time>2011-10-29T11:32:35Z</time>
      </trkpt>
      <trkpt lat="42.04187" lon="9.1323">
        <ele>1838.700806</ele>
        <time>2011-10-29T11:32:40Z</time>
      </trkpt>
      <trkpt lat="42.04191" lon="9.13228">
        <ele>1839.037109</ele>
        <time>2011-10-29T11:32:45Z</time>
      </trkpt>
      <trkpt lat="42.04195" lon="9.13228">
        <ele>1839.411743</ele>
        <time>2011-10-29T11:32:49Z</time>
      </trkpt>
      <trkpt lat="42.04197" lon="9.13223">
        <ele>1839.442627</ele>
        <time>2011-10-29T11:32:53Z</time>
      </trkpt>
      <trkpt lat="42.04201" lon="9.1322">
        <ele>1839.584717</ele>
        <time>2011-10-29T11:32:57Z</time>
      </trkpt>
      <trkpt lat="42.04202" lon="9.13215">
        <ele>1839.50061</ele>
        <time>2011-10-29T11:33:01Z</time>
      </trkpt>
      <trkpt lat="42.04202" lon="9.1321">
        <ele>1839.234375</ele>
        <time>2011-10-29T11:33:05Z</time>
      </trkpt>
      <trkpt lat="42.04202" lon="9.13204">
        <ele>1838.904297</ele>
        <time>2011-10-29T11:33:10Z</time>
      </trkpt>
      <trkpt lat="42.04203" lon="9.13199">
        <ele>1838.734985</ele>
        <time>2011-10-29T11:33:17Z</time>
      </trkpt>
      <trkpt lat="42.04205" lon="9.13193">
        <ele>1839.285034</ele>
        <time>2011-10-29T11:33:21Z</time>
      </trkpt>
      <trkpt lat="42.04207" lon="9.13189">
        <ele>1839.827515</ele>
        <time>2011-10-29T11:33:25Z</time>
      </trkpt>
      <trkpt lat="42.04209" lon="9.13185">
        <ele>1840.866821</ele>
        <time>2011-10-29T11:33:30Z</time>
      </trkpt>
      <trkpt lat="42.0421" lon="9.13184">
        <ele>1841.021362</ele>
        <time>2011-10-29T11:33:31Z</time>
      </trkpt>
      <trkpt lat="42.04211" lon="9.13174">
        <ele>1842.085693</ele>
        <time>2011-10-29T11:33:40Z</time>
      </trkpt>
      <trkpt lat="42.0421" lon="9.13169">
        <ele>1842.090454</ele>
        <time>2011-10-29T11:33:46Z</time>
      </trkpt>
      <trkpt lat="42.0421" lon="9.13163">
        <ele>1842.526367</ele>
        <time>2011-10-29T11:33:52Z</time>
      </trkpt>
      <trkpt lat="42.04212" lon="9.13157">
        <ele>1843.278809</ele>
        <time>2011-10-29T11:33:58Z</time>
      </trkpt>
      <trkpt lat="42.04213" lon="9.13152">
        <ele>1844.082153</ele>
        <time>2011-10-29T11:34:03Z</time>
      </trkpt>
      <trkpt lat="42.04213" lon="9.13146">
        <ele>1844.586548</ele>
        <time>2011-10-29T11:34:08Z</time>
      </trkpt>
      <trkpt lat="42.04215" lon="9.13142">
        <ele>1845.456543</ele>
        <time>2011-10-29T11:34:12Z</time>
      </trkpt>
      <trkpt lat="42.04218" lon="9.13138">
        <ele>1846.704712</ele>
        <time>2011-10-29T11:34:17Z</time>
      </trkpt>
      <trkpt lat="42.0422" lon="9.13133">
        <ele>1847.862183</ele>
        <time>2011-10-29T11:34:22Z</time>
      </trkpt>
      <trkpt lat="42.04222" lon="9.13129">
        <ele>1849.212769</ele>
        <time>2011-10-29T11:34:27Z</time>
      </trkpt>
      <trkpt lat="42.04225" lon="9.13125">
        <ele>1850.59436</ele>
        <time>2011-10-29T11:34:32Z</time>
      </trkpt>
      <trkpt lat="42.04226" lon="9.13125">
        <ele>1850.980713</ele>
        <time>2011-10-29T11:34:33Z</time>
      </trkpt>
      <trkpt lat="42.04233" lon="9.13122">
        <ele>1853.366333</ele>
        <time>2011-10-29T11:34:47Z</time>
      </trkpt>
      <trkpt lat="42.04237" lon="9.13119">
        <ele>1854.939941</ele>
        <time>2011-10-29T11:35:35Z</time>
      </trkpt>
      <trkpt lat="42.04237" lon="9.13119">
        <ele>1854.926514</ele>
        <time>2011-10-29T11:35:36Z</time>
      </trkpt>
      <trkpt lat="42.04242" lon="9.13119">
        <ele>1856.452637</ele>
        <time>2011-10-29T11:38:54Z</time>
      </trkpt>
      <trkpt lat="42.04247" lon="9.13111">
        <ele>1858.827026</ele>
        <time>2011-10-29T11:39:11Z</time>
      </trkpt>
      <trkpt lat="42.0425" lon="9.13107">
        <ele>1860.161255</ele>
        <time>2011-10-29T11:39:21Z</time>
      </trkpt>
      <trkpt lat="42.04252" lon="9.13102">
        <ele>1861.248657</ele>
        <time>2011-10-29T11:39:30Z</time>
      </trkpt>
      <trkpt lat="42.04254" lon="9.13097">
        <ele>1862.283081</ele>
        <time>2011-10-29T11:39:37Z</time>
      </trkpt>
      <trkpt lat="42.04255" lon="9.13092">
        <ele>1863.201172</ele>
        <time>2011-10-29T11:39:44Z</time>
      </trkpt>
      <trkpt lat="42.04257" lon="9.13086">
        <ele>1864.272217</ele>
        <time>2011-10-29T11:39:53Z</time>
      </trkpt>
      <trkpt lat="42.04261" lon="9.13084">
        <ele>1865.81543</ele>
        <time>2011-10-29T11:40:07Z</time>
      </trkpt>
      <trkpt lat="42.04261" lon="9.13083">
        <ele>1866.082153</ele>
        <time>2011-10-29T11:40:08Z</time>
      </trkpt>
      <trkpt lat="42.04266" lon="9.13076">
        <ele>1868.606323</ele>
        <time>2011-10-29T11:40:25Z</time>
      </trkpt>
      <trkpt lat="42.0427" lon="9.13073">
        <ele>1870.246704</ele>
        <time>2011-10-29T11:40:39Z</time>
      </trkpt>
      <trkpt lat="42.04273" lon="9.13068">
        <ele>1871.341309</ele>
        <time>2011-10-29T11:40:49Z</time>
      </trkpt>
      <trkpt lat="42.04274" lon="9.13063">
        <ele>1871.995605</ele>
        <time>2011-10-29T11:40:57Z</time>
      </trkpt>
      <trkpt lat="42.04277" lon="9.13058">
        <ele>1872.850098</ele>
        <time>2011-10-29T11:41:03Z</time>
      </trkpt>
      <trkpt lat="42.04277" lon="9.13053">
        <ele>1873.149414</ele>
        <time>2011-10-29T11:41:11Z</time>
      </trkpt>
      <trkpt lat="42.04277" lon="9.13052">
        <ele>1873.163696</ele>
        <time>2011-10-29T11:41:12Z</time>
      </trkpt>
      <trkpt lat="42.04282" lon="9.13044">
        <ele>1874.639038</ele>
        <time>2011-10-29T11:41:25Z</time>
      </trkpt>
      <trkpt lat="42.04285" lon="9.13041">
        <ele>1875.569702</ele>
        <time>2011-10-29T11:41:31Z</time>
      </trkpt>
      <trkpt lat="42.04288" lon="9.13037">
        <ele>1876.479004</ele>
        <time>2011-10-29T11:41:37Z</time>
      </trkpt>
      <trkpt lat="42.04289" lon="9.13032">
        <ele>1876.883179</ele>
        <time>2011-10-29T11:41:42Z</time>
      </trkpt>
      <trkpt lat="42.0429" lon="9.13027">
        <ele>1877.056885</ele>
        <time>2011-10-29T11:41:47Z</time>
      </trkpt>
      <trkpt lat="42.04293" lon="9.13023">
        <ele>1878.150513</ele>
        <time>2011-10-29T11:41:53Z</time>
      </trkpt>
      <trkpt lat="42.04296" lon="9.1302">
        <ele>1879.120972</ele>
        <time>2011-10-29T11:41:59Z</time>
      </trkpt>
      <trkpt lat="42.04299" lon="9.13015">
        <ele>1879.934204</ele>
        <time>2011-10-29T11:42:05Z</time>
      </trkpt>
      <trkpt lat="42.04301" lon="9.13011">
        <ele>1880.767822</ele>
        <time>2011-10-29T11:42:10Z</time>
      </trkpt>
      <trkpt lat="42.04304" lon="9.13008">
        <ele>1881.621826</ele>
        <time>2011-10-29T11:42:15Z</time>
      </trkpt>
      <trkpt lat="42.04305" lon="9.13007">
        <ele>1881.748779</ele>
        <time>2011-10-29T11:42:16Z</time>
      </trkpt>
      <trkpt lat="42.04307" lon="9.12997">
        <ele>1882.527954</ele>
        <time>2011-10-29T11:42:25Z</time>
      </trkpt>
      <trkpt lat="42.04308" lon="9.12993">
        <ele>1882.783325</ele>
        <time>2011-10-29T11:42:29Z</time>
      </trkpt>
      <trkpt lat="42.0431" lon="9.12987">
        <ele>1883.291504</ele>
        <time>2011-10-29T11:42:34Z</time>
      </trkpt>
      <trkpt lat="42.04311" lon="9.12983">
        <ele>1883.875732</ele>
        <time>2011-10-29T11:42:38Z</time>
      </trkpt>
      <trkpt lat="42.04312" lon="9.12977">
        <ele>1884.012817</ele>
        <time>2011-10-29T11:42:42Z</time>
      </trkpt>
      <trkpt lat="42.04313" lon="9.12972">
        <ele>1884.613525</ele>
        <time>2011-10-29T11:42:46Z</time>
      </trkpt>
      <trkpt lat="42.04314" lon="9.12966">
        <ele>1884.927979</ele>
        <time>2011-10-29T11:42:50Z</time>
      </trkpt>
      <trkpt lat="42.04315" lon="9.12961">
        <ele>1885.556641</ele>
        <time>2011-10-29T11:42:55Z</time>
      </trkpt>
      <trkpt lat="42.04314" lon="9.12955">
        <ele>1885.659546</ele>
        <time>2011-10-29T11:43:00Z</time>
      </trkpt>
      <trkpt lat="42.04314" lon="9.12949">
        <ele>1885.904053</ele>
        <time>2011-10-29T11:43:07Z</time>
      </trkpt>
      <trkpt lat="42.04314" lon="9.12944">
        <ele>1886.025635</ele>
        <time>2011-10-29T11:43:12Z</time>
      </trkpt>
      <trkpt lat="42.04313" lon="9.12939">
        <ele>1886.079956</ele>
        <time>2011-10-29T11:43:16Z</time>
      </trkpt>
      <trkpt lat="42.04313" lon="9.12938">
        <ele>1886.128784</ele>
        <time>2011-10-29T11:43:17Z</time>
      </trkpt>
      <trkpt lat="42.04317" lon="9.12929">
        <ele>1887.462524</ele>
        <time>2011-10-29T11:43:27Z</time>
      </trkpt>
      <trkpt lat="42.04318" lon="9.12924">
        <ele>1888.071899</ele>
        <time>2011-10-29T11:43:33Z</time>
      </trkpt>
      <trkpt lat="42.0432" lon="9.12919">
        <ele>1888.619141</ele>
        <time>2011-10-29T11:43:38Z</time>
      </trkpt>
      <trkpt lat="42.0432" lon="9.12914">
        <ele>1888.92981</ele>
        <time>2011-10-29T11:43:43Z</time>
      </trkpt>
      <trkpt lat="42.04323" lon="9.12909">
        <ele>1889.879517</ele>
        <time>2011-10-29T11:43:49Z</time>
      </trkpt>
      <trkpt lat="42.04326" lon="9.12906">
        <ele>1891.037842</ele>
        <time>2011-10-29T11:43:54Z</time>
      </trkpt>
      <trkpt lat="42.0433" lon="9.12903">
        <ele>1892.19873</ele>
        <time>2011-10-29T11:43:59Z</time>
      </trkpt>
      <trkpt lat="42.04334" lon="9.12901">
        <ele>1893.293579</ele>
        <time>2011-10-29T11:44:04Z</time>
      </trkpt>
      <trkpt lat="42.04338" lon="9.12899">
        <ele>1894.241821</ele>
        <time>2011-10-29T11:44:08Z</time>
      </trkpt>
      <trkpt lat="42.04341" lon="9.12897">
        <ele>1895.101807</ele>
        <time>2011-10-29T11:44:12Z</time>
      </trkpt>
      <trkpt lat="42.04344" lon="9.12895">
        <ele>1895.918213</ele>
        <time>2011-10-29T11:44:16Z</time>
      </trkpt>
      <trkpt lat="42.04348" lon="9.12892">
        <ele>1896.703979</ele>
        <time>2011-10-29T11:44:20Z</time>
      </trkpt>
      <trkpt lat="42.04349" lon="9.12892">
        <ele>1896.876953</ele>
        <time>2011-10-29T11:44:21Z</time>
      </trkpt>
      <trkpt lat="42.04355" lon="9.12887">
        <ele>1898.309814</ele>
        <time>2011-10-29T11:44:30Z</time>
      </trkpt>
      <trkpt lat="42.04359" lon="9.12884">
        <ele>1899.018311</ele>
        <time>2011-10-29T11:44:35Z</time>
      </trkpt>
      <trkpt lat="42.04361" lon="9.12881">
        <ele>1899.620117</ele>
        <time>2011-10-29T11:44:40Z</time>
      </trkpt>
      <trkpt lat="42.04365" lon="9.12878">
        <ele>1900.464844</ele>
        <time>2011-10-29T11:44:45Z</time>
      </trkpt>
      <trkpt lat="42.04368" lon="9.12875">
        <ele>1901.461792</ele>
        <time>2011-10-29T11:44:50Z</time>
      </trkpt>
      <trkpt lat="42.04371" lon="9.12871">
        <ele>1902.310181</ele>
        <time>2011-10-29T11:44:56Z</time>
      </trkpt>
      <trkpt lat="42.04374" lon="9.12868">
        <ele>1903.094482</ele>
        <time>2011-10-29T11:45:01Z</time>
      </trkpt>
      <trkpt lat="42.04376" lon="9.12863">
        <ele>1903.878418</ele>
        <time>2011-10-29T11:45:06Z</time>
      </trkpt>
      <trkpt lat="42.04378" lon="9.12859">
        <ele>1904.570801</ele>
        <time>2011-10-29T11:45:11Z</time>
      </trkpt>
      <trkpt lat="42.04381" lon="9.12855">
        <ele>1905.528809</ele>
        <time>2011-10-29T11:45:15Z</time>
      </trkpt>
      <trkpt lat="42.04385" lon="9.12851">
        <ele>1906.630005</ele>
        <time>2011-10-29T11:45:20Z</time>
      </trkpt>
      <trkpt lat="42.04388" lon="9.1285">
        <ele>1907.617188</ele>
        <time>2011-10-29T11:45:24Z</time>
      </trkpt>
      <trkpt lat="42.04389" lon="9.12849">
        <ele>1907.836914</ele>
        <time>2011-10-29T11:45:25Z</time>
      </trkpt>
      <trkpt lat="42.04395" lon="9.12845">
        <ele>1909.590942</ele>
        <time>2011-10-29T11:45:33Z</time>
      </trkpt>
      <trkpt lat="42.04399" lon="9.12843">
        <ele>1910.587158</ele>
        <time>2011-10-29T11:45:38Z</time>
      </trkpt>
      <trkpt lat="42.04403" lon="9.12842">
        <ele>1911.480103</ele>
        <time>2011-10-29T11:45:43Z</time>
      </trkpt>
      <trkpt lat="42.04407" lon="9.12841">
        <ele>1912.411255</ele>
        <time>2011-10-29T11:45:48Z</time>
      </trkpt>
      <trkpt lat="42.04411" lon="9.12838">
        <ele>1913.46582</ele>
        <time>2011-10-29T11:45:54Z</time>
      </trkpt>
      <trkpt lat="42.04414" lon="9.12835">
        <ele>1914.425659</ele>
        <time>2011-10-29T11:45:59Z</time>
      </trkpt>
      <trkpt lat="42.04416" lon="9.12831">
        <ele>1915.192627</ele>
        <time>2011-10-29T11:46:04Z</time>
      </trkpt>
      <trkpt lat="42.04417" lon="9.12825">
        <ele>1915.828003</ele>
        <time>2011-10-29T11:46:10Z</time>
      </trkpt>
      <trkpt lat="42.0442" lon="9.12821">
        <ele>1916.707275</ele>
        <time>2011-10-29T11:46:16Z</time>
      </trkpt>
      <trkpt lat="42.04422" lon="9.12816">
        <ele>1917.282837</ele>
        <time>2011-10-29T11:46:21Z</time>
      </trkpt>
      <trkpt lat="42.04423" lon="9.1281">
        <ele>1917.64209</ele>
        <time>2011-10-29T11:46:27Z</time>
      </trkpt>
      <trkpt lat="42.04422" lon="9.12809">
        <ele>1917.59375</ele>
        <time>2011-10-29T11:46:28Z</time>
      </trkpt>
      <trkpt lat="42.04425" lon="9.128">
        <ele>1918.587158</ele>
        <time>2011-10-29T11:46:37Z</time>
      </trkpt>
      <trkpt lat="42.04429" lon="9.12797">
        <ele>1919.729248</ele>
        <time>2011-10-29T11:46:42Z</time>
      </trkpt>
      <trkpt lat="42.04432" lon="9.12792">
        <ele>1920.692993</ele>
        <time>2011-10-29T11:46:48Z</time>
      </trkpt>
      <trkpt lat="42.04435" lon="9.12788">
        <ele>1921.626099</ele>
        <time>2011-10-29T11:46:53Z</time>
      </trkpt>
      <trkpt lat="42.04438" lon="9.12785">
        <ele>1922.543945</ele>
        <time>2011-10-29T11:46:59Z</time>
      </trkpt>
      <trkpt lat="42.04442" lon="9.12785">
        <ele>1923.362915</ele>
        <time>2011-10-29T11:47:03Z</time>
      </trkpt>
      <trkpt lat="42.04446" lon="9.12784">
        <ele>1924.335205</ele>
        <time>2011-10-29T11:47:08Z</time>
      </trkpt>
      <trkpt lat="42.0445" lon="9.12784">
        <ele>1925.274658</ele>
        <time>2011-10-29T11:47:13Z</time>
      </trkpt>
      <trkpt lat="42.04454" lon="9.12787">
        <ele>1926.031372</ele>
        <time>2011-10-29T11:47:19Z</time>
      </trkpt>
      <trkpt lat="42.04458" lon="9.12789">
        <ele>1926.974976</ele>
        <time>2011-10-29T11:47:25Z</time>
      </trkpt>
      <trkpt lat="42.04462" lon="9.12788">
        <ele>1928.118286</ele>
        <time>2011-10-29T11:47:30Z</time>
      </trkpt>
      <trkpt lat="42.04463" lon="9.12787">
        <ele>1928.371704</ele>
        <time>2011-10-29T11:47:31Z</time>
      </trkpt>
      <trkpt lat="42.04469" lon="9.12784">
        <ele>1930.002441</ele>
        <time>2011-10-29T11:47:40Z</time>
      </trkpt>
      <trkpt lat="42.04472" lon="9.12781">
        <ele>1930.809937</ele>
        <time>2011-10-29T11:47:45Z</time>
      </trkpt>
      <trkpt lat="42.04476" lon="9.12779">
        <ele>1931.628296</ele>
        <time>2011-10-29T11:47:50Z</time>
      </trkpt>
      <trkpt lat="42.04477" lon="9.12774">
        <ele>1931.75061</ele>
        <time>2011-10-29T11:47:55Z</time>
      </trkpt>
      <trkpt lat="42.0448" lon="9.12769">
        <ele>1932.286377</ele>
        <time>2011-10-29T11:48:01Z</time>
      </trkpt>
      <trkpt lat="42.04482" lon="9.12764">
        <ele>1932.628174</ele>
        <time>2011-10-29T11:48:07Z</time>
      </trkpt>
      <trkpt lat="42.04484" lon="9.1276">
        <ele>1932.864258</ele>
        <time>2011-10-29T11:48:13Z</time>
      </trkpt>
      <trkpt lat="42.04485" lon="9.12755">
        <ele>1932.678955</ele>
        <time>2011-10-29T11:48:18Z</time>
      </trkpt>
      <trkpt lat="42.04486" lon="9.12749">
        <ele>1932.672607</ele>
        <time>2011-10-29T11:48:24Z</time>
      </trkpt>
      <trkpt lat="42.04487" lon="9.12744">
        <ele>1933.30188</ele>
        <time>2011-10-29T11:48:29Z</time>
      </trkpt>
      <trkpt lat="42.04489" lon="9.1274">
        <ele>1934.06311</ele>
        <time>2011-10-29T11:48:34Z</time>
      </trkpt>
      <trkpt lat="42.0449" lon="9.12739">
        <ele>1934.258423</ele>
        <time>2011-10-29T11:48:35Z</time>
      </trkpt>
      <trkpt lat="42.04491" lon="9.12729">
        <ele>1935.265625</ele>
        <time>2011-10-29T11:48:43Z</time>
      </trkpt>
      <trkpt lat="42.04492" lon="9.12724">
        <ele>1935.943481</ele>
        <time>2011-10-29T11:48:49Z</time>
      </trkpt>
      <trkpt lat="42.04495" lon="9.12719">
        <ele>1936.643799</ele>
        <time>2011-10-29T11:48:54Z</time>
      </trkpt>
      <trkpt lat="42.04496" lon="9.12713">
        <ele>1937.236328</ele>
        <time>2011-10-29T11:48:59Z</time>
      </trkpt>
      <trkpt lat="42.04497" lon="9.12709">
        <ele>1937.794067</ele>
        <time>2011-10-29T11:49:04Z</time>
      </trkpt>
      <trkpt lat="42.04501" lon="9.12707">
        <ele>1938.310425</ele>
        <time>2011-10-29T11:49:10Z</time>
      </trkpt>
      <trkpt lat="42.04505" lon="9.12707">
        <ele>1938.847656</ele>
        <time>2011-10-29T11:49:15Z</time>
      </trkpt>
      <trkpt lat="42.04509" lon="9.12705">
        <ele>1939.36438</ele>
        <time>2011-10-29T11:49:19Z</time>
      </trkpt>
      <trkpt lat="42.04512" lon="9.12703">
        <ele>1940.05603</ele>
        <time>2011-10-29T11:49:23Z</time>
      </trkpt>
      <trkpt lat="42.04516" lon="9.12701">
        <ele>1940.743408</ele>
        <time>2011-10-29T11:49:28Z</time>
      </trkpt>
      <trkpt lat="42.0452" lon="9.127">
        <ele>1941.481201</ele>
        <time>2011-10-29T11:49:33Z</time>
      </trkpt>
      <trkpt lat="42.04523" lon="9.127">
        <ele>1942.13855</ele>
        <time>2011-10-29T11:49:38Z</time>
      </trkpt>
      <trkpt lat="42.04524" lon="9.12701">
        <ele>1942.306641</ele>
        <time>2011-10-29T11:49:39Z</time>
      </trkpt>
      <trkpt lat="42.04531" lon="9.12701">
        <ele>1943.46106</ele>
        <time>2011-10-29T11:49:48Z</time>
      </trkpt>
      <trkpt lat="42.04535" lon="9.127">
        <ele>1944.106812</ele>
        <time>2011-10-29T11:49:53Z</time>
      </trkpt>
      <trkpt lat="42.04539" lon="9.127">
        <ele>1944.770508</ele>
        <time>2011-10-29T11:49:57Z</time>
      </trkpt>
      <trkpt lat="42.04542" lon="9.12699">
        <ele>1945.277222</ele>
        <time>2011-10-29T11:50:01Z</time>
      </trkpt>
      <trkpt lat="42.04545" lon="9.12696">
        <ele>1945.649292</ele>
        <time>2011-10-29T11:50:05Z</time>
      </trkpt>
      <trkpt lat="42.04549" lon="9.12692">
        <ele>1946.405518</ele>
        <time>2011-10-29T11:50:09Z</time>
      </trkpt>
      <trkpt lat="42.04551" lon="9.12687">
        <ele>1947.180664</ele>
        <time>2011-10-29T11:50:13Z</time>
      </trkpt>
      <trkpt lat="42.04553" lon="9.12685">
        <ele>1947.770996</ele>
        <time>2011-10-29T11:50:16Z</time>
      </trkpt>
      <trkpt lat="42.04556" lon="9.12682">
        <ele>1948.259644</ele>
        <time>2011-10-29T11:50:19Z</time>
      </trkpt>
      <trkpt lat="42.04559" lon="9.12679">
        <ele>1948.619141</ele>
        <time>2011-10-29T11:50:22Z</time>
      </trkpt>
      <trkpt lat="42.04563" lon="9.12677">
        <ele>1948.94751</ele>
        <time>2011-10-29T11:50:26Z</time>
      </trkpt>
      <trkpt lat="42.04566" lon="9.12674">
        <ele>1949.215088</ele>
        <time>2011-10-29T11:50:30Z</time>
      </trkpt>
      <trkpt lat="42.04569" lon="9.12671">
        <ele>1949.379272</ele>
        <time>2011-10-29T11:50:33Z</time>
      </trkpt>
      <trkpt lat="42.04571" lon="9.12668">
        <ele>1949.5</ele>
        <time>2011-10-29T11:50:36Z</time>
      </trkpt>
      <trkpt lat="42.04574" lon="9.12663">
        <ele>1949.579468</ele>
        <time>2011-10-29T11:50:40Z</time>
      </trkpt>
      <trkpt lat="42.04575" lon="9.12663">
        <ele>1949.576294</ele>
        <time>2011-10-29T11:50:41Z</time>
      </trkpt>
      <trkpt lat="42.0458" lon="9.12656">
        <ele>1949.440186</ele>
        <time>2011-10-29T11:50:48Z</time>
      </trkpt>
      <trkpt lat="42.04584" lon="9.12652">
        <ele>1949.236328</ele>
        <time>2011-10-29T11:50:52Z</time>
      </trkpt>
      <trkpt lat="42.04587" lon="9.12649">
        <ele>1948.980713</ele>
        <time>2011-10-29T11:50:55Z</time>
      </trkpt>
      <trkpt lat="42.04589" lon="9.12646">
        <ele>1948.675781</ele>
        <time>2011-10-29T11:50:58Z</time>
      </trkpt>
      <trkpt lat="42.04592" lon="9.12642">
        <ele>1948.237793</ele>
        <time>2011-10-29T11:51:02Z</time>
      </trkpt>
      <trkpt lat="42.04595" lon="9.12639">
        <ele>1947.964844</ele>
        <time>2011-10-29T11:51:05Z</time>
      </trkpt>
      <trkpt lat="42.04598" lon="9.12636">
        <ele>1947.729004</ele>
        <time>2011-10-29T11:51:08Z</time>
      </trkpt>
      <trkpt lat="42.046" lon="9.12633">
        <ele>1947.480957</ele>
        <time>2011-10-29T11:51:11Z</time>
      </trkpt>
      <trkpt lat="42.04602" lon="9.12629">
        <ele>1947.363647</ele>
        <time>2011-10-29T11:51:15Z</time>
      </trkpt>
      <trkpt lat="42.04605" lon="9.12624">
        <ele>1947.050293</ele>
        <time>2011-10-29T11:51:19Z</time>
      </trkpt>
      <trkpt lat="42.04609" lon="9.12622">
        <ele>1946.547729</ele>
        <time>2011-10-29T11:51:22Z</time>
      </trkpt>
      <trkpt lat="42.04612" lon="9.12617">
        <ele>1946.023071</ele>
        <time>2011-10-29T11:51:26Z</time>
      </trkpt>
      <trkpt lat="42.04614" lon="9.12614">
        <ele>1945.566528</ele>
        <time>2011-10-29T11:51:29Z</time>
      </trkpt>
      <trkpt lat="42.04617" lon="9.1261">
        <ele>1945.017822</ele>
        <time>2011-10-29T11:51:33Z</time>
      </trkpt>
      <trkpt lat="42.04619" lon="9.12607">
        <ele>1944.488525</ele>
        <time>2011-10-29T11:51:36Z</time>
      </trkpt>
      <trkpt lat="42.04622" lon="9.12603">
        <ele>1943.902954</ele>
        <time>2011-10-29T11:51:39Z</time>
      </trkpt>
      <trkpt lat="42.04623" lon="9.12599">
        <ele>1943.459229</ele>
        <time>2011-10-29T11:51:42Z</time>
      </trkpt>
      <trkpt lat="42.04623" lon="9.12598">
        <ele>1943.355713</ele>
        <time>2011-10-29T11:51:43Z</time>
      </trkpt>
      <trkpt lat="42.04626" lon="9.12589">
        <ele>1942.525024</ele>
        <time>2011-10-29T11:51:50Z</time>
      </trkpt>
      <trkpt lat="42.04626" lon="9.12583">
        <ele>1942.348999</ele>
        <time>2011-10-29T11:51:55Z</time>
      </trkpt>
      <trkpt lat="42.04629" lon="9.12579">
        <ele>1941.770752</ele>
        <time>2011-10-29T11:52:02Z</time>
      </trkpt>
      <trkpt lat="42.04632" lon="9.12575">
        <ele>1941.157471</ele>
        <time>2011-10-29T11:52:08Z</time>
      </trkpt>
      <trkpt lat="42.04636" lon="9.12571">
        <ele>1940.334595</ele>
        <time>2011-10-29T11:52:14Z</time>
      </trkpt>
      <trkpt lat="42.04639" lon="9.12568">
        <ele>1939.346313</ele>
        <time>2011-10-29T11:52:21Z</time>
      </trkpt>
      <trkpt lat="42.04643" lon="9.12566">
        <ele>1938.157227</ele>
        <time>2011-10-29T11:52:28Z</time>
      </trkpt>
      <trkpt lat="42.04646" lon="9.12562">
        <ele>1937.268921</ele>
        <time>2011-10-29T11:52:35Z</time>
      </trkpt>
      <trkpt lat="42.0465" lon="9.12562">
        <ele>1935.749878</ele>
        <time>2011-10-29T11:52:41Z</time>
      </trkpt>
      <trkpt lat="42.04654" lon="9.12559">
        <ele>1934.331299</ele>
        <time>2011-10-29T11:52:48Z</time>
      </trkpt>
      <trkpt lat="42.04654" lon="9.12559">
        <ele>1934.140869</ele>
        <time>2011-10-29T11:52:49Z</time>
      </trkpt>
      <trkpt lat="42.04658" lon="9.12551">
        <ele>1932.5</ele>
        <time>2011-10-29T11:52:58Z</time>
      </trkpt>
      <trkpt lat="42.0466" lon="9.12546">
        <ele>1931.442871</ele>
        <time>2011-10-29T11:53:04Z</time>
      </trkpt>
      <trkpt lat="42.04663" lon="9.12543">
        <ele>1930.10083</ele>
        <time>2011-10-29T11:53:08Z</time>
      </trkpt>
      <trkpt lat="42.04667" lon="9.1254">
        <ele>1928.25354</ele>
        <time>2011-10-29T11:53:12Z</time>
      </trkpt>
      <trkpt lat="42.04671" lon="9.12538">
        <ele>1926.402466</ele>
        <time>2011-10-29T11:53:15Z</time>
      </trkpt>
      <trkpt lat="42.04674" lon="9.12535">
        <ele>1924.598267</ele>
        <time>2011-10-29T11:53:19Z</time>
      </trkpt>
      <trkpt lat="42.04677" lon="9.1253">
        <ele>1923.004395</ele>
        <time>2011-10-29T11:53:23Z</time>
      </trkpt>
      <trkpt lat="42.04679" lon="9.12525">
        <ele>1921.903931</ele>
        <time>2011-10-29T11:53:27Z</time>
      </trkpt>
      <trkpt lat="42.04682" lon="9.12521">
        <ele>1920.769165</ele>
        <time>2011-10-29T11:53:38Z</time>
      </trkpt>
      <trkpt lat="42.04684" lon="9.12515">
        <ele>1920.055664</ele>
        <time>2011-10-29T11:54:21Z</time>
      </trkpt>
      <trkpt lat="42.04684" lon="9.12516">
        <ele>1919.607666</ele>
        <time>2011-10-29T11:54:22Z</time>
      </trkpt>
      <trkpt lat="42.0469" lon="9.12511">
        <ele>1917.159424</ele>
        <time>2011-10-29T11:54:32Z</time>
      </trkpt>
      <trkpt lat="42.04691" lon="9.12505">
        <ele>1917.12146</ele>
        <time>2011-10-29T11:54:37Z</time>
      </trkpt>
      <trkpt lat="42.04693" lon="9.125">
        <ele>1916.213745</ele>
        <time>2011-10-29T11:54:50Z</time>
      </trkpt>
      <trkpt lat="42.04696" lon="9.12496">
        <ele>1915.095215</ele>
        <time>2011-10-29T11:54:57Z</time>
      </trkpt>
      <trkpt lat="42.047" lon="9.12496">
        <ele>1913.121338</ele>
        <time>2011-10-29T11:55:03Z</time>
      </trkpt>
      <trkpt lat="42.04704" lon="9.12494">
        <ele>1911.314453</ele>
        <time>2011-10-29T11:55:12Z</time>
      </trkpt>
      <trkpt lat="42.04708" lon="9.12493">
        <ele>1909.046265</ele>
        <time>2011-10-29T11:55:19Z</time>
      </trkpt>
      <trkpt lat="42.04711" lon="9.12489">
        <ele>1907.858765</ele>
        <time>2011-10-29T11:55:28Z</time>
      </trkpt>
      <trkpt lat="42.04711" lon="9.12488">
        <ele>1907.661621</ele>
        <time>2011-10-29T11:55:29Z</time>
      </trkpt>
      <trkpt lat="42.04713" lon="9.12478">
        <ele>1907.063965</ele>
        <time>2011-10-29T11:55:42Z</time>
      </trkpt>
      <trkpt lat="42.0471" lon="9.12474">
        <ele>1908.65271</ele>
        <time>2011-10-29T11:55:51Z</time>
      </trkpt>
      <trkpt lat="42.04708" lon="9.1247">
        <ele>1909.723511</ele>
        <time>2011-10-29T11:55:56Z</time>
      </trkpt>
      <trkpt lat="42.04704" lon="9.12468">
        <ele>1911.928101</ele>
        <time>2011-10-29T11:56:02Z</time>
      </trkpt>
      <trkpt lat="42.04701" lon="9.12463">
        <ele>1912.103394</ele>
        <time>2011-10-29T11:56:07Z</time>
      </trkpt>
      <trkpt lat="42.04698" lon="9.1246">
        <ele>1912.787109</ele>
        <time>2011-10-29T11:56:12Z</time>
      </trkpt>
      <trkpt lat="42.04694" lon="9.12458">
        <ele>1913.577026</ele>
        <time>2011-10-29T11:56:17Z</time>
      </trkpt>
      <trkpt lat="42.04691" lon="9.12454">
        <ele>1914.078857</ele>
        <time>2011-10-29T11:56:24Z</time>
      </trkpt>
      <trkpt lat="42.04688" lon="9.12451">
        <ele>1914.313232</ele>
        <time>2011-10-29T11:56:30Z</time>
      </trkpt>
      <trkpt lat="42.04687" lon="9.12451">
        <ele>1914.619263</ele>
        <time>2011-10-29T11:56:31Z</time>
      </trkpt>
      <trkpt lat="42.04686" lon="9.12443">
        <ele>1912.406616</ele>
        <time>2011-10-29T11:56:53Z</time>
      </trkpt>
      <trkpt lat="42.04685" lon="9.12438">
        <ele>1911.207031</ele>
        <time>2011-10-29T11:57:00Z</time>
      </trkpt>
      <trkpt lat="42.04684" lon="9.12434">
        <ele>1910.651123</ele>
        <time>2011-10-29T11:57:05Z</time>
      </trkpt>
      <trkpt lat="42.04683" lon="9.1243">
        <ele>1909.80542</ele>
        <time>2011-10-29T11:57:08Z</time>
      </trkpt>
      <trkpt lat="42.04684" lon="9.12424">
        <ele>1907.407471</ele>
        <time>2011-10-29T11:57:12Z</time>
      </trkpt>
      <trkpt lat="42.04682" lon="9.1242">
        <ele>1906.974121</ele>
        <time>2011-10-29T11:57:19Z</time>
      </trkpt>
      <trkpt lat="42.04678" lon="9.12417">
        <ele>1907.074219</ele>
        <time>2011-10-29T11:57:23Z</time>
      </trkpt>
      <trkpt lat="42.04675" lon="9.12413">
        <ele>1907.01355</ele>
        <time>2011-10-29T11:57:30Z</time>
      </trkpt>
      <trkpt lat="42.04671" lon="9.12412">
        <ele>1907.9823</ele>
        <time>2011-10-29T11:57:36Z</time>
      </trkpt>
      <trkpt lat="42.04671" lon="9.12411">
        <ele>1908.005859</ele>
        <time>2011-10-29T11:57:37Z</time>
      </trkpt>
      <trkpt lat="42.04665" lon="9.12405">
        <ele>1907.561035</ele>
        <time>2011-10-29T11:57:49Z</time>
      </trkpt>
      <trkpt lat="42.04662" lon="9.12402">
        <ele>1906.603271</ele>
        <time>2011-10-29T11:57:58Z</time>
      </trkpt>
      <trkpt lat="42.04659" lon="9.12397">
        <ele>1905.012573</ele>
        <time>2011-10-29T11:58:04Z</time>
      </trkpt>
      <trkpt lat="42.04657" lon="9.12392">
        <ele>1903.000488</ele>
        <time>2011-10-29T11:58:09Z</time>
      </trkpt>
      <trkpt lat="42.04654" lon="9.12388">
        <ele>1901.254761</ele>
        <time>2011-10-29T11:58:27Z</time>
      </trkpt>
      <trkpt lat="42.04658" lon="9.12388">
        <ele>1899.737549</ele>
        <time>2011-10-29T11:59:37Z</time>
      </trkpt>
      <trkpt lat="42.04659" lon="9.12389">
        <ele>1900.230347</ele>
        <time>2011-10-29T11:59:38Z</time>
      </trkpt>
      <trkpt lat="42.04651" lon="9.12384">
        <ele>1900.022095</ele>
        <time>2011-10-29T11:59:59Z</time>
      </trkpt>
      <trkpt lat="42.04647" lon="9.12382">
        <ele>1900.271606</ele>
        <time>2011-10-29T12:00:05Z</time>
      </trkpt>
      <trkpt lat="42.04644" lon="9.1238">
        <ele>1899.571289</ele>
        <time>2011-10-29T12:00:13Z</time>
      </trkpt>
      <trkpt lat="42.04641" lon="9.12375">
        <ele>1897.739868</ele>
        <time>2011-10-29T12:00:20Z</time>
      </trkpt>
      <trkpt lat="42.04639" lon="9.12371">
        <ele>1895.595093</ele>
        <time>2011-10-29T12:00:24Z</time>
      </trkpt>
      <trkpt lat="42.04636" lon="9.12366">
        <ele>1893.245239</ele>
        <time>2011-10-29T12:00:29Z</time>
      </trkpt>
      <trkpt lat="42.04633" lon="9.12363">
        <ele>1891.89917</ele>
        <time>2011-10-29T12:00:35Z</time>
      </trkpt>
      <trkpt lat="42.04629" lon="9.1236">
        <ele>1890.717163</ele>
        <time>2011-10-29T12:00:40Z</time>
      </trkpt>
      <trkpt lat="42.04628" lon="9.12359">
        <ele>1890.672363</ele>
        <time>2011-10-29T12:00:41Z</time>
      </trkpt>
      <trkpt lat="42.04622" lon="9.12357">
        <ele>1890.483521</ele>
        <time>2011-10-29T12:01:11Z</time>
      </trkpt>
      <trkpt lat="42.04617" lon="9.12358">
        <ele>1891.917725</ele>
        <time>2011-10-29T12:01:19Z</time>
      </trkpt>
      <trkpt lat="42.04617" lon="9.12352">
        <ele>1887.55603</ele>
        <time>2011-10-29T12:01:33Z</time>
      </trkpt>
      <trkpt lat="42.04613" lon="9.12353">
        <ele>1888.802368</ele>
        <time>2011-10-29T12:01:43Z</time>
      </trkpt>
      <trkpt lat="42.04612" lon="9.12353">
        <ele>1888.927979</ele>
        <time>2011-10-29T12:01:44Z</time>
      </trkpt>
      <trkpt lat="42.04605" lon="9.12352">
        <ele>1889.5802</ele>
        <time>2011-10-29T12:02:06Z</time>
      </trkpt>
      <trkpt lat="42.04604" lon="9.12346">
        <ele>1885.290405</ele>
        <time>2011-10-29T12:02:20Z</time>
      </trkpt>
      <trkpt lat="42.04608" lon="9.12344">
        <ele>1883.171753</ele>
        <time>2011-10-29T12:02:28Z</time>
      </trkpt>
      <trkpt lat="42.04611" lon="9.12342">
        <ele>1880.617065</ele>
        <time>2011-10-29T12:02:37Z</time>
      </trkpt>
      <trkpt lat="42.04615" lon="9.12344">
        <ele>1881.662476</ele>
        <time>2011-10-29T12:02:42Z</time>
      </trkpt>
      <trkpt lat="42.04619" lon="9.12341">
        <ele>1879.155029</ele>
        <time>2011-10-29T12:02:50Z</time>
      </trkpt>
      <trkpt lat="42.04619" lon="9.1234">
        <ele>1878.537598</ele>
        <time>2011-10-29T12:02:51Z</time>
      </trkpt>
      <trkpt lat="42.04622" lon="9.1233">
        <ele>1872.725586</ele>
        <time>2011-10-29T12:03:13Z</time>
      </trkpt>
      <trkpt lat="42.04624" lon="9.12325">
        <ele>1869.672241</ele>
        <time>2011-10-29T12:03:20Z</time>
      </trkpt>
      <trkpt lat="42.04622" lon="9.1232">
        <ele>1866.840698</ele>
        <time>2011-10-29T12:03:32Z</time>
      </trkpt>
      <trkpt lat="42.04623" lon="9.12314">
        <ele>1863.520874</ele>
        <time>2011-10-29T12:03:41Z</time>
      </trkpt>
      <trkpt lat="42.04625" lon="9.12309">
        <ele>1860.456909</ele>
        <time>2011-10-29T12:03:48Z</time>
      </trkpt>
      <trkpt lat="42.04621" lon="9.12305">
        <ele>1858.582031</ele>
        <time>2011-10-29T12:03:59Z</time>
      </trkpt>
      <trkpt lat="42.04621" lon="9.12305">
        <ele>1858.291504</ele>
        <time>2011-10-29T12:04:00Z</time>
      </trkpt>
      <trkpt lat="42.04617" lon="9.12296">
        <ele>1853.606323</ele>
        <time>2011-10-29T12:04:23Z</time>
      </trkpt>
      <trkpt lat="42.04618" lon="9.12291">
        <ele>1850.754761</ele>
        <time>2011-10-29T12:04:28Z</time>
      </trkpt>
      <trkpt lat="42.04619" lon="9.12286">
        <ele>1847.698364</ele>
        <time>2011-10-29T12:04:33Z</time>
      </trkpt>
      <trkpt lat="42.04616" lon="9.12282">
        <ele>1845.03186</ele>
        <time>2011-10-29T12:04:41Z</time>
      </trkpt>
      <trkpt lat="42.04616" lon="9.12276">
        <ele>1843.610107</ele>
        <time>2011-10-29T12:04:48Z</time>
      </trkpt>
      <trkpt lat="42.04614" lon="9.12272">
        <ele>1842.879028</ele>
        <time>2011-10-29T12:04:54Z</time>
      </trkpt>
      <trkpt lat="42.04612" lon="9.12267">
        <ele>1842.145752</ele>
        <time>2011-10-29T12:04:59Z</time>
      </trkpt>
      <trkpt lat="42.04614" lon="9.12263">
        <ele>1841.737793</ele>
        <time>2011-10-29T12:05:04Z</time>
      </trkpt>
      <trkpt lat="42.04614" lon="9.12262">
        <ele>1841.72168</ele>
        <time>2011-10-29T12:05:05Z</time>
      </trkpt>
      <trkpt lat="42.04619" lon="9.12256">
        <ele>1841.375</ele>
        <time>2011-10-29T12:05:12Z</time>
      </trkpt>
      <trkpt lat="42.04621" lon="9.12252">
        <ele>1841.06189</ele>
        <time>2011-10-29T12:05:16Z</time>
      </trkpt>
      <trkpt lat="42.04623" lon="9.12247">
        <ele>1840.579834</ele>
        <time>2011-10-29T12:05:21Z</time>
      </trkpt>
      <trkpt lat="42.04622" lon="9.12242">
        <ele>1839.787354</ele>
        <time>2011-10-29T12:05:27Z</time>
      </trkpt>
      <trkpt lat="42.04625" lon="9.12238">
        <ele>1839.600098</ele>
        <time>2011-10-29T12:05:34Z</time>
      </trkpt>
      <trkpt lat="42.04629" lon="9.12236">
        <ele>1839.641235</ele>
        <time>2011-10-29T12:05:39Z</time>
      </trkpt>
      <trkpt lat="42.04632" lon="9.12232">
        <ele>1838.712646</ele>
        <time>2011-10-29T12:05:45Z</time>
      </trkpt>
      <trkpt lat="42.04635" lon="9.12229">
        <ele>1837.75647</ele>
        <time>2011-10-29T12:05:52Z</time>
      </trkpt>
      <trkpt lat="42.04639" lon="9.12227">
        <ele>1836.815918</ele>
        <time>2011-10-29T12:05:57Z</time>
      </trkpt>
      <trkpt lat="42.04644" lon="9.12227">
        <ele>1835.989014</ele>
        <time>2011-10-29T12:06:04Z</time>
      </trkpt>
      <trkpt lat="42.04648" lon="9.12229">
        <ele>1835.290527</ele>
        <time>2011-10-29T12:06:14Z</time>
      </trkpt>
      <trkpt lat="42.04648" lon="9.12228">
        <ele>1835.252197</ele>
        <time>2011-10-29T12:06:15Z</time>
      </trkpt>
      <trkpt lat="42.04641" lon="9.12223">
        <ele>1835.998169</ele>
        <time>2011-10-29T12:06:37Z</time>
      </trkpt>
      <trkpt lat="42.04637" lon="9.1222">
        <ele>1835.981689</ele>
        <time>2011-10-29T12:06:43Z</time>
      </trkpt>
      <trkpt lat="42.04635" lon="9.12216">
        <ele>1835.162231</ele>
        <time>2011-10-29T12:06:50Z</time>
      </trkpt>
      <trkpt lat="42.04633" lon="9.12211">
        <ele>1833.768433</ele>
        <time>2011-10-29T12:07:02Z</time>
      </trkpt>
      <trkpt lat="42.04633" lon="9.12205">
        <ele>1831.822876</ele>
        <time>2011-10-29T12:07:13Z</time>
      </trkpt>
      <trkpt lat="42.04637" lon="9.12202">
        <ele>1829.845093</ele>
        <time>2011-10-29T12:07:21Z</time>
      </trkpt>
      <trkpt lat="42.04637" lon="9.12202">
        <ele>1829.677124</ele>
        <time>2011-10-29T12:07:22Z</time>
      </trkpt>
      <trkpt lat="42.04644" lon="9.12198">
        <ele>1826.499756</ele>
        <time>2011-10-29T12:07:36Z</time>
      </trkpt>
      <trkpt lat="42.04648" lon="9.12196">
        <ele>1824.661987</ele>
        <time>2011-10-29T12:07:52Z</time>
      </trkpt>
      <trkpt lat="42.04651" lon="9.12198">
        <ele>1824.327393</ele>
        <time>2011-10-29T12:08:00Z</time>
      </trkpt>
      <trkpt lat="42.04652" lon="9.12203">
        <ele>1825.797363</ele>
        <time>2011-10-29T12:08:48Z</time>
      </trkpt>
      <trkpt lat="42.04653" lon="9.12204">
        <ele>1826.07959</ele>
        <time>2011-10-29T12:08:49Z</time>
      </trkpt>
      <trkpt lat="42.04659" lon="9.12199">
        <ele>1822.138916</ele>
        <time>2011-10-29T12:09:05Z</time>
      </trkpt>
      <trkpt lat="42.04663" lon="9.12201">
        <ele>1821.706055</ele>
        <time>2011-10-29T12:09:11Z</time>
      </trkpt>
      <trkpt lat="42.04667" lon="9.12201">
        <ele>1820.253296</ele>
        <time>2011-10-29T12:09:24Z</time>
      </trkpt>
      <trkpt lat="42.0467" lon="9.12204">
        <ele>1820.95166</ele>
        <time>2011-10-29T12:09:31Z</time>
      </trkpt>
      <trkpt lat="42.04674" lon="9.12205">
        <ele>1820.025146</ele>
        <time>2011-10-29T12:09:35Z</time>
      </trkpt>
      <trkpt lat="42.04677" lon="9.12208">
        <ele>1820.100464</ele>
        <time>2011-10-29T12:09:39Z</time>
      </trkpt>
      <trkpt lat="42.0468" lon="9.12212">
        <ele>1820.887329</ele>
        <time>2011-10-29T12:09:48Z</time>
      </trkpt>
      <trkpt lat="42.04681" lon="9.12218">
        <ele>1823.036133</ele>
        <time>2011-10-29T12:10:02Z</time>
      </trkpt>
      <trkpt lat="42.04681" lon="9.12218">
        <ele>1823.104126</ele>
        <time>2011-10-29T12:10:03Z</time>
      </trkpt>
      <trkpt lat="42.04685" lon="9.12227">
        <ele>1824.727173</ele>
        <time>2011-10-29T12:10:25Z</time>
      </trkpt>
      <trkpt lat="42.04688" lon="9.12231">
        <ele>1823.972412</ele>
        <time>2011-10-29T12:10:30Z</time>
      </trkpt>
      <trkpt lat="42.0469" lon="9.12236">
        <ele>1824.034668</ele>
        <time>2011-10-29T12:10:37Z</time>
      </trkpt>
      <trkpt lat="42.04692" lon="9.12241">
        <ele>1823.770386</ele>
        <time>2011-10-29T12:10:42Z</time>
      </trkpt>
      <trkpt lat="42.04695" lon="9.12245">
        <ele>1823.006592</ele>
        <time>2011-10-29T12:10:48Z</time>
      </trkpt>
      <trkpt lat="42.04698" lon="9.12249">
        <ele>1822.513062</ele>
        <time>2011-10-29T12:10:52Z</time>
      </trkpt>
      <trkpt lat="42.04702" lon="9.12251">
        <ele>1821.036621</ele>
        <time>2011-10-29T12:10:59Z</time>
      </trkpt>
      <trkpt lat="42.04706" lon="9.12252">
        <ele>1819.297241</ele>
        <time>2011-10-29T12:11:10Z</time>
      </trkpt>
      <trkpt lat="42.04706" lon="9.12252">
        <ele>1819.283936</ele>
        <time>2011-10-29T12:11:11Z</time>
      </trkpt>
      <trkpt lat="42.04714" lon="9.12252">
        <ele>1815.894165</ele>
        <time>2011-10-29T12:11:41Z</time>
      </trkpt>
      <trkpt lat="42.04718" lon="9.1225">
        <ele>1813.706787</ele>
        <time>2011-10-29T12:12:12Z</time>
      </trkpt>
      <trkpt lat="42.04718" lon="9.1225">
        <ele>1813.505615</ele>
        <time>2011-10-29T12:12:13Z</time>
      </trkpt>
      <trkpt lat="42.04726" lon="9.12249">
        <ele>1811.263794</ele>
        <time>2011-10-29T12:12:45Z</time>
      </trkpt>
      <trkpt lat="42.04729" lon="9.12246">
        <ele>1809.555664</ele>
        <time>2011-10-29T12:12:59Z</time>
      </trkpt>
      <trkpt lat="42.04732" lon="9.12241">
        <ele>1807.705078</ele>
        <time>2011-10-29T12:13:17Z</time>
      </trkpt>
      <trkpt lat="42.04732" lon="9.12241">
        <ele>1807.574219</ele>
        <time>2011-10-29T12:13:18Z</time>
      </trkpt>
      <trkpt lat="42.04739" lon="9.12236">
        <ele>1804.497314</ele>
        <time>2011-10-29T12:13:49Z</time>
      </trkpt>
      <trkpt lat="42.04741" lon="9.12231">
        <ele>1803.105347</ele>
        <time>2011-10-29T12:14:24Z</time>
      </trkpt>
      <trkpt lat="42.0474" lon="9.1223">
        <ele>1803.07605</ele>
        <time>2011-10-29T12:14:25Z</time>
      </trkpt>
      <trkpt lat="42.04747" lon="9.12223">
        <ele>1800.57605</ele>
        <time>2011-10-29T12:14:53Z</time>
      </trkpt>
      <trkpt lat="42.04751" lon="9.12221">
        <ele>1799.410645</ele>
        <time>2011-10-29T12:15:02Z</time>
      </trkpt>
      <trkpt lat="42.04755" lon="9.12223">
        <ele>1798.724243</ele>
        <time>2011-10-29T12:15:12Z</time>
      </trkpt>
      <trkpt lat="42.04758" lon="9.1222">
        <ele>1797.628784</ele>
        <time>2011-10-29T12:15:30Z</time>
      </trkpt>
      <trkpt lat="42.04758" lon="9.12219">
        <ele>1797.55249</ele>
        <time>2011-10-29T12:15:31Z</time>
      </trkpt>
      <trkpt lat="42.04762" lon="9.12214">
        <ele>1796.25293</ele>
        <time>2011-10-29T12:16:09Z</time>
      </trkpt>
      <trkpt lat="42.04764" lon="9.12208">
        <ele>1795.367432</ele>
        <time>2011-10-29T12:16:37Z</time>
      </trkpt>
      <trkpt lat="42.04765" lon="9.12208">
        <ele>1795.318115</ele>
        <time>2011-10-29T12:16:38Z</time>
      </trkpt>
      <trkpt lat="42.04767" lon="9.12198">
        <ele>1794.106201</ele>
        <time>2011-10-29T12:16:53Z</time>
      </trkpt>
      <trkpt lat="42.04768" lon="9.12193">
        <ele>1793.579346</ele>
        <time>2011-10-29T12:16:57Z</time>
      </trkpt>
      <trkpt lat="42.0477" lon="9.12189">
        <ele>1793.1427</ele>
        <time>2011-10-29T12:17:01Z</time>
      </trkpt>
      <trkpt lat="42.04773" lon="9.12186">
        <ele>1792.831543</ele>
        <time>2011-10-29T12:17:05Z</time>
      </trkpt>
      <trkpt lat="42.04777" lon="9.12183">
        <ele>1792.474731</ele>
        <time>2011-10-29T12:17:10Z</time>
      </trkpt>
      <trkpt lat="42.04781" lon="9.12182">
        <ele>1792.284302</ele>
        <time>2011-10-29T12:17:14Z</time>
      </trkpt>
      <trkpt lat="42.04785" lon="9.1218">
        <ele>1792.078491</ele>
        <time>2011-10-29T12:17:18Z</time>
      </trkpt>
      <trkpt lat="42.04788" lon="9.12176">
        <ele>1791.864746</ele>
        <time>2011-10-29T12:17:23Z</time>
      </trkpt>
      <trkpt lat="42.04786" lon="9.12171">
        <ele>1791.59436</ele>
        <time>2011-10-29T12:17:28Z</time>
      </trkpt>
      <trkpt lat="42.04786" lon="9.12166">
        <ele>1791.287964</ele>
        <time>2011-10-29T12:17:32Z</time>
      </trkpt>
      <trkpt lat="42.04785" lon="9.1216">
        <ele>1790.931396</ele>
        <time>2011-10-29T12:17:36Z</time>
      </trkpt>
      <trkpt lat="42.04783" lon="9.12155">
        <ele>1790.46936</ele>
        <time>2011-10-29T12:17:40Z</time>
      </trkpt>
      <trkpt lat="42.04783" lon="9.12154">
        <ele>1790.400024</ele>
        <time>2011-10-29T12:17:41Z</time>
      </trkpt>
      <trkpt lat="42.04788" lon="9.12164">
        <ele>1791.30481</ele>
        <time>2011-10-29T12:18:20Z</time>
      </trkpt>
      <trkpt lat="42.0479" lon="9.12169">
        <ele>1791.621826</ele>
        <time>2011-10-29T12:18:25Z</time>
      </trkpt>
      <trkpt lat="42.04792" lon="9.12175">
        <ele>1791.851196</ele>
        <time>2011-10-29T12:18:29Z</time>
      </trkpt>
      <trkpt lat="42.04794" lon="9.12179">
        <ele>1791.979004</ele>
        <time>2011-10-29T12:18:33Z</time>
      </trkpt>
      <trkpt lat="42.04796" lon="9.12184">
        <ele>1792.272583</ele>
        <time>2011-10-29T12:18:37Z</time>
      </trkpt>
      <trkpt lat="42.04798" lon="9.12188">
        <ele>1792.590942</ele>
        <time>2011-10-29T12:18:41Z</time>
      </trkpt>
      <trkpt lat="42.04798" lon="9.12189">
        <ele>1792.668457</ele>
        <time>2011-10-29T12:18:42Z</time>
      </trkpt>
      <trkpt lat="42.04796" lon="9.12197">
        <ele>1793.284302</ele>
        <time>2011-10-29T12:18:53Z</time>
      </trkpt>
      <trkpt lat="42.04793" lon="9.12196">
        <ele>1793.279907</ele>
        <time>2011-10-29T12:18:56Z</time>
      </trkpt>
      <trkpt lat="42.04789" lon="9.12195">
        <ele>1793.293945</ele>
        <time>2011-10-29T12:19:00Z</time>
      </trkpt>
      <trkpt lat="42.04785" lon="9.12194">
        <ele>1793.337769</ele>
        <time>2011-10-29T12:19:03Z</time>
      </trkpt>
      <trkpt lat="42.04781" lon="9.12194">
        <ele>1793.352173</ele>
        <time>2011-10-29T12:19:06Z</time>
      </trkpt>
      <trkpt lat="42.04778" lon="9.12192">
        <ele>1793.283447</ele>
        <time>2011-10-29T12:19:09Z</time>
      </trkpt>
      <trkpt lat="42.04774" lon="9.1219">
        <ele>1793.181763</ele>
        <time>2011-10-29T12:19:12Z</time>
      </trkpt>
      <trkpt lat="42.0477" lon="9.12187">
        <ele>1792.981567</ele>
        <time>2011-10-29T12:19:15Z</time>
      </trkpt>
      <trkpt lat="42.04767" lon="9.12184">
        <ele>1792.796875</ele>
        <time>2011-10-29T12:19:19Z</time>
      </trkpt>
      <trkpt lat="42.04763" lon="9.12182">
        <ele>1792.817017</ele>
        <time>2011-10-29T12:19:25Z</time>
      </trkpt>
      <trkpt lat="42.0476" lon="9.12186">
        <ele>1793.508911</ele>
        <time>2011-10-29T12:19:34Z</time>
      </trkpt>
      <trkpt lat="42.0476" lon="9.12191">
        <ele>1794.152832</ele>
        <time>2011-10-29T12:19:42Z</time>
      </trkpt>
      <trkpt lat="42.04761" lon="9.12193">
        <ele>1794.247192</ele>
        <time>2011-10-29T12:19:43Z</time>
      </trkpt>
      <trkpt lat="42.04761" lon="9.12203">
        <ele>1795.295654</ele>
        <time>2011-10-29T12:20:07Z</time>
      </trkpt>
      <trkpt lat="42.04764" lon="9.12207">
        <ele>1795.259644</ele>
        <time>2011-10-29T12:20:15Z</time>
      </trkpt>
      <trkpt lat="42.04761" lon="9.12211">
        <ele>1796.113647</ele>
        <time>2011-10-29T12:20:31Z</time>
      </trkpt>
      <trkpt lat="42.04762" lon="9.12217">
        <ele>1796.525513</ele>
        <time>2011-10-29T12:20:42Z</time>
      </trkpt>
      <trkpt lat="42.04759" lon="9.1222">
        <ele>1797.512085</ele>
        <time>2011-10-29T12:20:55Z</time>
      </trkpt>
      <trkpt lat="42.04758" lon="9.1222">
        <ele>1797.622681</ele>
        <time>2011-10-29T12:20:56Z</time>
      </trkpt>
      <trkpt lat="42.04753" lon="9.12216">
        <ele>1798.248291</ele>
        <time>2011-10-29T12:21:03Z</time>
      </trkpt>
      <trkpt lat="42.04749" lon="9.12218">
        <ele>1799.372803</ele>
        <time>2011-10-29T12:21:12Z</time>
      </trkpt>
      <trkpt lat="42.04746" lon="9.12222">
        <ele>1800.590698</ele>
        <time>2011-10-29T12:21:26Z</time>
      </trkpt>
      <trkpt lat="42.04742" lon="9.12225">
        <ele>1801.900879</ele>
        <time>2011-10-29T12:21:42Z</time>
      </trkpt>
      <trkpt lat="42.04738" lon="9.12228">
        <ele>1803.232788</ele>
        <time>2011-10-29T12:21:57Z</time>
      </trkpt>
      <trkpt lat="42.04738" lon="9.12228">
        <ele>1803.339478</ele>
        <time>2011-10-29T12:21:58Z</time>
      </trkpt>
      <trkpt lat="42.04734" lon="9.12237">
        <ele>1806.202148</ele>
        <time>2011-10-29T12:22:48Z</time>
      </trkpt>
      <trkpt lat="42.0473" lon="9.12239">
        <ele>1807.726074</ele>
        <time>2011-10-29T12:22:58Z</time>
      </trkpt>
      <trkpt lat="42.04729" lon="9.12239">
        <ele>1807.987427</ele>
        <time>2011-10-29T12:22:59Z</time>
      </trkpt>
      <trkpt lat="42.04722" lon="9.12242">
        <ele>1810.683594</ele>
        <time>2011-10-29T12:23:40Z</time>
      </trkpt>
      <trkpt lat="42.04718" lon="9.12241">
        <ele>1811.921509</ele>
        <time>2011-10-29T12:23:49Z</time>
      </trkpt>
      <trkpt lat="42.04713" lon="9.1224">
        <ele>1813.858154</ele>
        <time>2011-10-29T12:24:01Z</time>
      </trkpt>
      <trkpt lat="42.04712" lon="9.12238">
        <ele>1813.843384</ele>
        <time>2011-10-29T12:24:03Z</time>
      </trkpt>
      <trkpt lat="42.04706" lon="9.12246">
        <ele>1818.353027</ele>
        <time>2011-10-29T12:24:36Z</time>
      </trkpt>
      <trkpt lat="42.04703" lon="9.12251">
        <ele>1820.37146</ele>
        <time>2011-10-29T12:24:52Z</time>
      </trkpt>
      <trkpt lat="42.04699" lon="9.12251">
        <ele>1822.087402</ele>
        <time>2011-10-29T12:25:00Z</time>
      </trkpt>
      <trkpt lat="42.04695" lon="9.12249">
        <ele>1823.37793</ele>
        <time>2011-10-29T12:25:12Z</time>
      </trkpt>
      <trkpt lat="42.04694" lon="9.12248">
        <ele>1823.667603</ele>
        <time>2011-10-29T12:25:13Z</time>
      </trkpt>
      <trkpt lat="42.04689" lon="9.12242">
        <ele>1825.250854</ele>
        <time>2011-10-29T12:25:29Z</time>
      </trkpt>
      <trkpt lat="42.04688" lon="9.12237">
        <ele>1825.115234</ele>
        <time>2011-10-29T12:25:36Z</time>
      </trkpt>
      <trkpt lat="42.04686" lon="9.12232">
        <ele>1825.281006</ele>
        <time>2011-10-29T12:25:41Z</time>
      </trkpt>
      <trkpt lat="42.04684" lon="9.12227">
        <ele>1825.616699</ele>
        <time>2011-10-29T12:25:47Z</time>
      </trkpt>
      <trkpt lat="42.04682" lon="9.12222">
        <ele>1824.397339</ele>
        <time>2011-10-29T12:26:01Z</time>
      </trkpt>
      <trkpt lat="42.04681" lon="9.12217">
        <ele>1822.581421</ele>
        <time>2011-10-29T12:26:08Z</time>
      </trkpt>
      <trkpt lat="42.04679" lon="9.12212">
        <ele>1821.375854</ele>
        <time>2011-10-29T12:26:14Z</time>
      </trkpt>
      <trkpt lat="42.04679" lon="9.12211">
        <ele>1821.104614</ele>
        <time>2011-10-29T12:26:15Z</time>
      </trkpt>
      <trkpt lat="42.04672" lon="9.12206">
        <ele>1821.264404</ele>
        <time>2011-10-29T12:26:24Z</time>
      </trkpt>
      <trkpt lat="42.04669" lon="9.12202">
        <ele>1820.405029</ele>
        <time>2011-10-29T12:26:29Z</time>
      </trkpt>
      <trkpt lat="42.04666" lon="9.122">
        <ele>1820.386597</ele>
        <time>2011-10-29T12:26:34Z</time>
      </trkpt>
      <trkpt lat="42.04662" lon="9.12198">
        <ele>1820.836182</ele>
        <time>2011-10-29T12:26:39Z</time>
      </trkpt>
      <trkpt lat="42.04658" lon="9.12196">
        <ele>1821.100464</ele>
        <time>2011-10-29T12:26:45Z</time>
      </trkpt>
      <trkpt lat="42.04654" lon="9.12193">
        <ele>1821.382446</ele>
        <time>2011-10-29T12:26:52Z</time>
      </trkpt>
      <trkpt lat="42.0465" lon="9.12193">
        <ele>1822.72876</ele>
        <time>2011-10-29T12:27:01Z</time>
      </trkpt>
      <trkpt lat="42.04646" lon="9.12193">
        <ele>1824.238892</ele>
        <time>2011-10-29T12:27:08Z</time>
      </trkpt>
      <trkpt lat="42.04641" lon="9.12195">
        <ele>1826.239136</ele>
        <time>2011-10-29T12:27:17Z</time>
      </trkpt>
      <trkpt lat="42.04641" lon="9.12196">
        <ele>1826.518921</ele>
        <time>2011-10-29T12:27:18Z</time>
      </trkpt>
      <trkpt lat="42.04633" lon="9.12198">
        <ele>1829.500122</ele>
        <time>2011-10-29T12:27:30Z</time>
      </trkpt>
      <trkpt lat="42.04629" lon="9.12199">
        <ele>1830.325684</ele>
        <time>2011-10-29T12:27:35Z</time>
      </trkpt>
      <trkpt lat="42.04625" lon="9.12199">
        <ele>1830.202271</ele>
        <time>2011-10-29T12:27:40Z</time>
      </trkpt>
      <trkpt lat="42.04621" lon="9.12202">
        <ele>1830.914795</ele>
        <time>2011-10-29T12:27:47Z</time>
      </trkpt>
      <trkpt lat="42.04618" lon="9.12205">
        <ele>1831.87915</ele>
        <time>2011-10-29T12:27:52Z</time>
      </trkpt>
      <trkpt lat="42.04618" lon="9.12211">
        <ele>1833.675537</ele>
        <time>2011-10-29T12:27:57Z</time>
      </trkpt>
      <trkpt lat="42.0462" lon="9.12216">
        <ele>1835.413696</ele>
        <time>2011-10-29T12:28:01Z</time>
      </trkpt>
      <trkpt lat="42.04621" lon="9.1222">
        <ele>1836.81958</ele>
        <time>2011-10-29T12:28:04Z</time>
      </trkpt>
      <trkpt lat="42.04623" lon="9.12224">
        <ele>1837.667969</ele>
        <time>2011-10-29T12:28:07Z</time>
      </trkpt>
      <trkpt lat="42.04624" lon="9.12229">
        <ele>1838.40332</ele>
        <time>2011-10-29T12:28:11Z</time>
      </trkpt>
      <trkpt lat="42.04624" lon="9.12234">
        <ele>1838.966675</ele>
        <time>2011-10-29T12:28:15Z</time>
      </trkpt>
      <trkpt lat="42.04623" lon="9.12239">
        <ele>1839.577271</ele>
        <time>2011-10-29T12:28:19Z</time>
      </trkpt>
      <trkpt lat="42.04624" lon="9.1224">
        <ele>1839.772461</ele>
        <time>2011-10-29T12:28:20Z</time>
      </trkpt>
      <trkpt lat="42.04623" lon="9.1225">
        <ele>1840.874146</ele>
        <time>2011-10-29T12:28:27Z</time>
      </trkpt>
      <trkpt lat="42.04624" lon="9.12255">
        <ele>1841.629028</ele>
        <time>2011-10-29T12:28:31Z</time>
      </trkpt>
      <trkpt lat="42.04626" lon="9.1226">
        <ele>1842.344971</ele>
        <time>2011-10-29T12:28:35Z</time>
      </trkpt>
      <trkpt lat="42.04628" lon="9.12263">
        <ele>1842.68103</ele>
        <time>2011-10-29T12:28:39Z</time>
      </trkpt>
      <trkpt lat="42.0463" lon="9.12268">
        <ele>1842.847412</ele>
        <time>2011-10-29T12:28:45Z</time>
      </trkpt>
      <trkpt lat="42.0463" lon="9.12274">
        <ele>1843.519531</ele>
        <time>2011-10-29T12:28:53Z</time>
      </trkpt>
      <trkpt lat="42.04626" lon="9.12275">
        <ele>1844.282227</ele>
        <time>2011-10-29T12:29:00Z</time>
      </trkpt>
      <trkpt lat="42.04623" lon="9.12275">
        <ele>1843.961792</ele>
        <time>2011-10-29T12:29:04Z</time>
      </trkpt>
      <trkpt lat="42.04622" lon="9.12281">
        <ele>1844.660034</ele>
        <time>2011-10-29T12:29:12Z</time>
      </trkpt>
      <trkpt lat="42.0462" lon="9.12286">
        <ele>1847.644775</ele>
        <time>2011-10-29T12:29:20Z</time>
      </trkpt>
      <trkpt lat="42.0462" lon="9.12286">
        <ele>1847.784058</ele>
        <time>2011-10-29T12:29:21Z</time>
      </trkpt>
      <trkpt lat="42.04621" lon="9.12295">
        <ele>1852.737427</ele>
        <time>2011-10-29T12:29:46Z</time>
      </trkpt>
      <trkpt lat="42.04624" lon="9.12297">
        <ele>1853.888672</ele>
        <time>2011-10-29T12:29:52Z</time>
      </trkpt>
      <trkpt lat="42.04627" lon="9.12302">
        <ele>1856.073364</ele>
        <time>2011-10-29T12:30:00Z</time>
      </trkpt>
      <trkpt lat="42.04625" lon="9.12306">
        <ele>1859.12915</ele>
        <time>2011-10-29T12:30:07Z</time>
      </trkpt>
      <trkpt lat="42.04622" lon="9.12311">
        <ele>1862.048096</ele>
        <time>2011-10-29T12:30:16Z</time>
      </trkpt>
      <trkpt lat="42.04624" lon="9.12316">
        <ele>1864.692749</ele>
        <time>2011-10-29T12:30:25Z</time>
      </trkpt>
      <trkpt lat="42.04625" lon="9.12317">
        <ele>1864.915771</ele>
        <time>2011-10-29T12:30:26Z</time>
      </trkpt>
      <trkpt lat="42.04619" lon="9.12325">
        <ele>1869.937622</ele>
        <time>2011-10-29T12:30:57Z</time>
      </trkpt>
      <trkpt lat="42.04622" lon="9.12329">
        <ele>1872.124756</ele>
        <time>2011-10-29T12:31:06Z</time>
      </trkpt>
      <trkpt lat="42.04619" lon="9.12327">
        <ele>1871.151001</ele>
        <time>2011-10-29T12:31:17Z</time>
      </trkpt>
      <trkpt lat="42.04616" lon="9.12324">
        <ele>1869.618652</ele>
        <time>2011-10-29T12:31:20Z</time>
      </trkpt>
      <trkpt lat="42.04613" lon="9.12321">
        <ele>1868.049683</ele>
        <time>2011-10-29T12:31:22Z</time>
      </trkpt>
      <trkpt lat="42.0461" lon="9.12319">
        <ele>1866.97937</ele>
        <time>2011-10-29T12:31:26Z</time>
      </trkpt>
      <trkpt lat="42.04609" lon="9.12318">
        <ele>1866.706787</ele>
        <time>2011-10-29T12:31:27Z</time>
      </trkpt>
      <trkpt lat="42.04603" lon="9.12314">
        <ele>1864.942505</ele>
        <time>2011-10-29T12:31:33Z</time>
      </trkpt>
      <trkpt lat="42.046" lon="9.12312">
        <ele>1863.792236</ele>
        <time>2011-10-29T12:31:37Z</time>
      </trkpt>
      <trkpt lat="42.04596" lon="9.12312">
        <ele>1863.644775</ele>
        <time>2011-10-29T12:31:42Z</time>
      </trkpt>
      <trkpt lat="42.04593" lon="9.12316">
        <ele>1866.459351</ele>
        <time>2011-10-29T12:31:50Z</time>
      </trkpt>
      <trkpt lat="42.04592" lon="9.12321">
        <ele>1869.798706</ele>
        <time>2011-10-29T12:31:57Z</time>
      </trkpt>
      <trkpt lat="42.04593" lon="9.12326">
        <ele>1873.111938</ele>
        <time>2011-10-29T12:32:02Z</time>
      </trkpt>
      <trkpt lat="42.04596" lon="9.1233">
        <ele>1875.126953</ele>
        <time>2011-10-29T12:32:06Z</time>
      </trkpt>
      <trkpt lat="42.04598" lon="9.12334">
        <ele>1877.2948</ele>
        <time>2011-10-29T12:32:10Z</time>
      </trkpt>
      <trkpt lat="42.046" lon="9.12339">
        <ele>1880.580078</ele>
        <time>2011-10-29T12:32:19Z</time>
      </trkpt>
      <trkpt lat="42.04603" lon="9.12342">
        <ele>1882.361206</ele>
        <time>2011-10-29T12:32:25Z</time>
      </trkpt>
      <trkpt lat="42.04606" lon="9.12346">
        <ele>1884.493042</ele>
        <time>2011-10-29T12:32:31Z</time>
      </trkpt>
      <trkpt lat="42.04607" lon="9.12346">
        <ele>1884.807861</ele>
        <time>2011-10-29T12:32:32Z</time>
      </trkpt>
      <trkpt lat="42.04613" lon="9.12352">
        <ele>1888.54541</ele>
        <time>2011-10-29T12:32:47Z</time>
      </trkpt>
      <trkpt lat="42.04616" lon="9.12357">
        <ele>1891.322632</ele>
        <time>2011-10-29T12:33:08Z</time>
      </trkpt>
      <trkpt lat="42.0462" lon="9.12359">
        <ele>1892.333252</ele>
        <time>2011-10-29T12:33:20Z</time>
      </trkpt>
      <trkpt lat="42.04624" lon="9.12359">
        <ele>1891.182617</ele>
        <time>2011-10-29T12:33:30Z</time>
      </trkpt>
      <trkpt lat="42.04628" lon="9.12361">
        <ele>1892.065796</ele>
        <time>2011-10-29T12:33:36Z</time>
      </trkpt>
      <trkpt lat="42.04628" lon="9.12362">
        <ele>1892.325073</ele>
        <time>2011-10-29T12:33:37Z</time>
      </trkpt>
      <trkpt lat="42.04635" lon="9.12368">
        <ele>1894.381714</ele>
        <time>2011-10-29T12:33:50Z</time>
      </trkpt>
      <trkpt lat="42.04637" lon="9.12373">
        <ele>1897.276001</ele>
        <time>2011-10-29T12:34:01Z</time>
      </trkpt>
      <trkpt lat="42.0464" lon="9.12376">
        <ele>1898.22937</ele>
        <time>2011-10-29T12:34:07Z</time>
      </trkpt>
      <trkpt lat="42.04643" lon="9.1238">
        <ele>1900.144287</ele>
        <time>2011-10-29T12:34:14Z</time>
      </trkpt>
      <trkpt lat="42.04647" lon="9.12382">
        <ele>1899.934937</ele>
        <time>2011-10-29T12:34:21Z</time>
      </trkpt>
      <trkpt lat="42.0465" lon="9.12385">
        <ele>1900.819214</ele>
        <time>2011-10-29T12:34:28Z</time>
      </trkpt>
      <trkpt lat="42.04654" lon="9.12387">
        <ele>1900.746704</ele>
        <time>2011-10-29T12:34:34Z</time>
      </trkpt>
      <trkpt lat="42.04657" lon="9.12391">
        <ele>1902.379395</ele>
        <time>2011-10-29T12:34:41Z</time>
      </trkpt>
      <trkpt lat="42.04658" lon="9.12392">
        <ele>1902.590942</ele>
        <time>2011-10-29T12:34:42Z</time>
      </trkpt>
      <trkpt lat="42.04662" lon="9.124">
        <ele>1905.626709</ele>
        <time>2011-10-29T12:34:56Z</time>
      </trkpt>
      <trkpt lat="42.04661" lon="9.12406">
        <ele>1909.509155</ele>
        <time>2011-10-29T12:35:06Z</time>
      </trkpt>
      <trkpt lat="42.04665" lon="9.12408">
        <ele>1908.927856</ele>
        <time>2011-10-29T12:35:11Z</time>
      </trkpt>
      <trkpt lat="42.04667" lon="9.12412">
        <ele>1909.502197</ele>
        <time>2011-10-29T12:35:21Z</time>
      </trkpt>
      <trkpt lat="42.04671" lon="9.12415">
        <ele>1908.89917</ele>
        <time>2011-10-29T12:35:26Z</time>
      </trkpt>
      <trkpt lat="42.04675" lon="9.12418">
        <ele>1908.501587</ele>
        <time>2011-10-29T12:35:30Z</time>
      </trkpt>
      <trkpt lat="42.04678" lon="9.12421">
        <ele>1908.879761</ele>
        <time>2011-10-29T12:35:34Z</time>
      </trkpt>
      <trkpt lat="42.0468" lon="9.12426">
        <ele>1909.495972</ele>
        <time>2011-10-29T12:35:39Z</time>
      </trkpt>
      <trkpt lat="42.04684" lon="9.1243">
        <ele>1909.232666</ele>
        <time>2011-10-29T12:35:44Z</time>
      </trkpt>
      <trkpt lat="42.04684" lon="9.1243">
        <ele>1909.044189</ele>
        <time>2011-10-29T12:35:45Z</time>
      </trkpt>
      <trkpt lat="42.04689" lon="9.12438">
        <ele>1909.851563</ele>
        <time>2011-10-29T12:35:58Z</time>
      </trkpt>
      <trkpt lat="42.0469" lon="9.12443">
        <ele>1910.982422</ele>
        <time>2011-10-29T12:36:07Z</time>
      </trkpt>
      <trkpt lat="42.04691" lon="9.12449">
        <ele>1912.010742</ele>
        <time>2011-10-29T12:36:15Z</time>
      </trkpt>
      <trkpt lat="42.04694" lon="9.12453">
        <ele>1912.259644</ele>
        <time>2011-10-29T12:36:22Z</time>
      </trkpt>
      <trkpt lat="42.04696" lon="9.12458">
        <ele>1912.63916</ele>
        <time>2011-10-29T12:36:30Z</time>
      </trkpt>
      <trkpt lat="42.047" lon="9.1246">
        <ele>1911.558228</ele>
        <time>2011-10-29T12:36:37Z</time>
      </trkpt>
      <trkpt lat="42.04703" lon="9.12464">
        <ele>1911.380737</ele>
        <time>2011-10-29T12:36:41Z</time>
      </trkpt>
      <trkpt lat="42.04706" lon="9.12467">
        <ele>1910.653442</ele>
        <time>2011-10-29T12:36:47Z</time>
      </trkpt>
      <trkpt lat="42.04706" lon="9.12468">
        <ele>1910.429932</ele>
        <time>2011-10-29T12:36:48Z</time>
      </trkpt>
      <trkpt lat="42.04712" lon="9.12474">
        <ele>1907.721313</ele>
        <time>2011-10-29T12:37:00Z</time>
      </trkpt>
      <trkpt lat="42.04712" lon="9.1248">
        <ele>1907.157227</ele>
        <time>2011-10-29T12:37:06Z</time>
      </trkpt>
      <trkpt lat="42.04709" lon="9.12483">
        <ele>1909.131348</ele>
        <time>2011-10-29T12:37:18Z</time>
      </trkpt>
      <trkpt lat="42.04708" lon="9.12489">
        <ele>1909.18042</ele>
        <time>2011-10-29T12:37:40Z</time>
      </trkpt>
      <trkpt lat="42.04704" lon="9.1249">
        <ele>1911.393555</ele>
        <time>2011-10-29T12:38:13Z</time>
      </trkpt>
      <trkpt lat="42.04704" lon="9.1249">
        <ele>1911.582397</ele>
        <time>2011-10-29T12:38:14Z</time>
      </trkpt>
      <trkpt lat="42.04696" lon="9.12492">
        <ele>1915.246948</ele>
        <time>2011-10-29T12:38:35Z</time>
      </trkpt>
      <trkpt lat="42.04693" lon="9.12496">
        <ele>1916.518311</ele>
        <time>2011-10-29T12:38:44Z</time>
      </trkpt>
      <trkpt lat="42.04694" lon="9.12501">
        <ele>1915.916504</ele>
        <time>2011-10-29T12:38:53Z</time>
      </trkpt>
      <trkpt lat="42.04692" lon="9.12506">
        <ele>1916.163452</ele>
        <time>2011-10-29T12:38:59Z</time>
      </trkpt>
      <trkpt lat="42.04691" lon="9.12512">
        <ele>1916.47876</ele>
        <time>2011-10-29T12:39:06Z</time>
      </trkpt>
      <trkpt lat="42.0469" lon="9.12517">
        <ele>1916.755371</ele>
        <time>2011-10-29T12:39:13Z</time>
      </trkpt>
      <trkpt lat="42.04689" lon="9.12523">
        <ele>1916.852783</ele>
        <time>2011-10-29T12:39:20Z</time>
      </trkpt>
      <trkpt lat="42.04689" lon="9.12524">
        <ele>1917.054443</ele>
        <time>2011-10-29T12:39:21Z</time>
      </trkpt>
      <trkpt lat="42.04682" lon="9.12526">
        <ele>1920.301025</ele>
        <time>2011-10-29T12:39:31Z</time>
      </trkpt>
      <trkpt lat="42.04678" lon="9.12527">
        <ele>1922.341919</ele>
        <time>2011-10-29T12:39:36Z</time>
      </trkpt>
      <trkpt lat="42.04674" lon="9.12531">
        <ele>1924.182251</ele>
        <time>2011-10-29T12:39:41Z</time>
      </trkpt>
      <trkpt lat="42.04671" lon="9.12535">
        <ele>1925.921265</ele>
        <time>2011-10-29T12:39:46Z</time>
      </trkpt>
      <trkpt lat="42.04669" lon="9.1254">
        <ele>1927.12146</ele>
        <time>2011-10-29T12:39:51Z</time>
      </trkpt>
      <trkpt lat="42.04668" lon="9.12545">
        <ele>1928.068481</ele>
        <time>2011-10-29T12:39:57Z</time>
      </trkpt>
      <trkpt lat="42.04666" lon="9.1255">
        <ele>1929.120117</ele>
        <time>2011-10-29T12:40:02Z</time>
      </trkpt>
      <trkpt lat="42.04663" lon="9.12554">
        <ele>1930.479736</ele>
        <time>2011-10-29T12:40:08Z</time>
      </trkpt>
      <trkpt lat="42.0466" lon="9.12558">
        <ele>1931.959229</ele>
        <time>2011-10-29T12:40:14Z</time>
      </trkpt>
      <trkpt lat="42.04657" lon="9.12562">
        <ele>1933.036743</ele>
        <time>2011-10-29T12:40:21Z</time>
      </trkpt>
      <trkpt lat="42.04656" lon="9.12562">
        <ele>1933.221924</ele>
        <time>2011-10-29T12:40:22Z</time>
      </trkpt>
      <trkpt lat="42.04649" lon="9.12564">
        <ele>1936.091919</ele>
        <time>2011-10-29T12:40:36Z</time>
      </trkpt>
      <trkpt lat="42.04645" lon="9.12566">
        <ele>1937.435791</ele>
        <time>2011-10-29T12:40:44Z</time>
      </trkpt>
      <trkpt lat="42.04642" lon="9.1257">
        <ele>1938.162964</ele>
        <time>2011-10-29T12:40:49Z</time>
      </trkpt>
      <trkpt lat="42.04639" lon="9.12573">
        <ele>1939.145264</ele>
        <time>2011-10-29T12:40:55Z</time>
      </trkpt>
      <trkpt lat="42.04635" lon="9.12575">
        <ele>1940.328735</ele>
        <time>2011-10-29T12:41:02Z</time>
      </trkpt>
      <trkpt lat="42.04632" lon="9.12578">
        <ele>1941.226196</ele>
        <time>2011-10-29T12:41:08Z</time>
      </trkpt>
      <trkpt lat="42.04629" lon="9.12581">
        <ele>1941.760498</ele>
        <time>2011-10-29T12:41:13Z</time>
      </trkpt>
      <trkpt lat="42.04625" lon="9.12585">
        <ele>1942.541016</ele>
        <time>2011-10-29T12:41:19Z</time>
      </trkpt>
      <trkpt lat="42.04622" lon="9.12587">
        <ele>1943.5625</ele>
        <time>2011-10-29T12:41:24Z</time>
      </trkpt>
      <trkpt lat="42.04621" lon="9.12587">
        <ele>1943.770996</ele>
        <time>2011-10-29T12:41:25Z</time>
      </trkpt>
      <trkpt lat="42.04617" lon="9.12596">
        <ele>1944.837769</ele>
        <time>2011-10-29T12:41:34Z</time>
      </trkpt>
      <trkpt lat="42.04617" lon="9.12601">
        <ele>1945.004761</ele>
        <time>2011-10-29T12:41:38Z</time>
      </trkpt>
      <trkpt lat="42.04616" lon="9.12606">
        <ele>1945.286011</ele>
        <time>2011-10-29T12:41:42Z</time>
      </trkpt>
      <trkpt lat="42.04614" lon="9.1261">
        <ele>1945.680542</ele>
        <time>2011-10-29T12:41:46Z</time>
      </trkpt>
      <trkpt lat="42.04612" lon="9.12615">
        <ele>1945.967407</ele>
        <time>2011-10-29T12:41:50Z</time>
      </trkpt>
      <trkpt lat="42.04609" lon="9.1262">
        <ele>1946.414551</ele>
        <time>2011-10-29T12:41:54Z</time>
      </trkpt>
      <trkpt lat="42.04607" lon="9.12624">
        <ele>1946.793579</ele>
        <time>2011-10-29T12:41:58Z</time>
      </trkpt>
      <trkpt lat="42.04604" lon="9.12627">
        <ele>1947.18811</ele>
        <time>2011-10-29T12:42:01Z</time>
      </trkpt>
      <trkpt lat="42.04601" lon="9.1263">
        <ele>1947.453613</ele>
        <time>2011-10-29T12:42:04Z</time>
      </trkpt>
      <trkpt lat="42.04599" lon="9.12634">
        <ele>1947.671997</ele>
        <time>2011-10-29T12:42:08Z</time>
      </trkpt>
      <trkpt lat="42.04596" lon="9.12638">
        <ele>1947.842529</ele>
        <time>2011-10-29T12:42:12Z</time>
      </trkpt>
      <trkpt lat="42.04593" lon="9.12641">
        <ele>1948.162964</ele>
        <time>2011-10-29T12:42:16Z</time>
      </trkpt>
      <trkpt lat="42.0459" lon="9.12644">
        <ele>1948.586548</ele>
        <time>2011-10-29T12:42:20Z</time>
      </trkpt>
      <trkpt lat="42.04586" lon="9.12647">
        <ele>1948.950562</ele>
        <time>2011-10-29T12:42:24Z</time>
      </trkpt>
      <trkpt lat="42.04583" lon="9.12649">
        <ele>1949.246216</ele>
        <time>2011-10-29T12:42:28Z</time>
      </trkpt>
      <trkpt lat="42.04582" lon="9.1265">
        <ele>1949.325439</ele>
        <time>2011-10-29T12:42:29Z</time>
      </trkpt>
      <trkpt lat="42.04576" lon="9.12655">
        <ele>1949.653564</ele>
        <time>2011-10-29T12:42:36Z</time>
      </trkpt>
      <trkpt lat="42.04573" lon="9.12657">
        <ele>1949.747559</ele>
        <time>2011-10-29T12:42:40Z</time>
      </trkpt>
      <trkpt lat="42.0457" lon="9.12661">
        <ele>1949.714478</ele>
        <time>2011-10-29T12:42:44Z</time>
      </trkpt>
      <trkpt lat="42.04566" lon="9.12664">
        <ele>1949.649902</ele>
        <time>2011-10-29T12:42:48Z</time>
      </trkpt>
      <trkpt lat="42.04563" lon="9.12667">
        <ele>1949.508423</ele>
        <time>2011-10-29T12:42:52Z</time>
      </trkpt>
      <trkpt lat="42.0456" lon="9.1267">
        <ele>1949.280884</ele>
        <time>2011-10-29T12:42:56Z</time>
      </trkpt>
      <trkpt lat="42.04556" lon="9.12672">
        <ele>1948.985474</ele>
        <time>2011-10-29T12:43:00Z</time>
      </trkpt>
      <trkpt lat="42.04552" lon="9.12674">
        <ele>1948.522095</ele>
        <time>2011-10-29T12:43:04Z</time>
      </trkpt>
      <trkpt lat="42.04548" lon="9.12676">
        <ele>1948.025024</ele>
        <time>2011-10-29T12:43:08Z</time>
      </trkpt>
      <trkpt lat="42.04545" lon="9.12679">
        <ele>1947.360962</ele>
        <time>2011-10-29T12:43:12Z</time>
      </trkpt>
      <trkpt lat="42.04542" lon="9.12682">
        <ele>1946.582153</ele>
        <time>2011-10-29T12:43:18Z</time>
      </trkpt>
      <trkpt lat="42.04538" lon="9.12685">
        <ele>1945.734741</ele>
        <time>2011-10-29T12:43:24Z</time>
      </trkpt>
      <trkpt lat="42.04535" lon="9.12689">
        <ele>1944.71875</ele>
        <time>2011-10-29T12:43:32Z</time>
      </trkpt>
      <trkpt lat="42.04535" lon="9.12689">
        <ele>1944.625</ele>
        <time>2011-10-29T12:43:33Z</time>
      </trkpt>
      <trkpt lat="42.04528" lon="9.12694">
        <ele>1942.878296</ele>
        <time>2011-10-29T12:43:44Z</time>
      </trkpt>
      <trkpt lat="42.04524" lon="9.12695">
        <ele>1942.282227</ele>
        <time>2011-10-29T12:43:49Z</time>
      </trkpt>
      <trkpt lat="42.04521" lon="9.12697">
        <ele>1941.682495</ele>
        <time>2011-10-29T12:43:53Z</time>
      </trkpt>
      <trkpt lat="42.04517" lon="9.12699">
        <ele>1940.942505</ele>
        <time>2011-10-29T12:43:58Z</time>
      </trkpt>
      <trkpt lat="42.04512" lon="9.127">
        <ele>1940.182007</ele>
        <time>2011-10-29T12:44:03Z</time>
      </trkpt>
      <trkpt lat="42.04508" lon="9.12701">
        <ele>1939.427124</ele>
        <time>2011-10-29T12:44:07Z</time>
      </trkpt>
      <trkpt lat="42.04504" lon="9.127">
        <ele>1939.090698</ele>
        <time>2011-10-29T12:44:10Z</time>
      </trkpt>
      <trkpt lat="42.045" lon="9.12701">
        <ele>1938.639771</ele>
        <time>2011-10-29T12:44:15Z</time>
      </trkpt>
      <trkpt lat="42.04496" lon="9.12703">
        <ele>1938.079224</ele>
        <time>2011-10-29T12:44:20Z</time>
      </trkpt>
      <trkpt lat="42.04494" lon="9.12706">
        <ele>1937.470093</ele>
        <time>2011-10-29T12:44:29Z</time>
      </trkpt>
      <trkpt lat="42.04494" lon="9.12712">
        <ele>1937.133667</ele>
        <time>2011-10-29T12:44:34Z</time>
      </trkpt>
      <trkpt lat="42.04494" lon="9.12713">
        <ele>1937.085449</ele>
        <time>2011-10-29T12:44:35Z</time>
      </trkpt>
      <trkpt lat="42.04495" lon="9.12723">
        <ele>1936.407227</ele>
        <time>2011-10-29T12:44:45Z</time>
      </trkpt>
      <trkpt lat="42.04494" lon="9.12728">
        <ele>1935.917114</ele>
        <time>2011-10-29T12:44:52Z</time>
      </trkpt>
      <trkpt lat="42.04493" lon="9.12734">
        <ele>1935.225952</ele>
        <time>2011-10-29T12:45:00Z</time>
      </trkpt>
      <trkpt lat="42.04492" lon="9.1274">
        <ele>1934.6698</ele>
        <time>2011-10-29T12:45:06Z</time>
      </trkpt>
      <trkpt lat="42.04492" lon="9.12745">
        <ele>1934.214355</ele>
        <time>2011-10-29T12:45:11Z</time>
      </trkpt>
      <trkpt lat="42.04491" lon="9.1275">
        <ele>1933.72168</ele>
        <time>2011-10-29T12:45:17Z</time>
      </trkpt>
      <trkpt lat="42.04488" lon="9.12755">
        <ele>1933.395996</ele>
        <time>2011-10-29T12:45:24Z</time>
      </trkpt>
      <trkpt lat="42.04486" lon="9.1276">
        <ele>1933.360229</ele>
        <time>2011-10-29T12:45:30Z</time>
      </trkpt>
      <trkpt lat="42.04484" lon="9.12765">
        <ele>1933.099487</ele>
        <time>2011-10-29T12:45:36Z</time>
      </trkpt>
      <trkpt lat="42.04484" lon="9.12766">
        <ele>1933.054321</ele>
        <time>2011-10-29T12:45:37Z</time>
      </trkpt>
      <trkpt lat="42.0448" lon="9.12774">
        <ele>1932.532959</ele>
        <time>2011-10-29T12:45:45Z</time>
      </trkpt>
      <trkpt lat="42.04476" lon="9.12777">
        <ele>1931.656616</ele>
        <time>2011-10-29T12:45:53Z</time>
      </trkpt>
      <trkpt lat="42.04473" lon="9.12779">
        <ele>1930.796875</ele>
        <time>2011-10-29T12:45:59Z</time>
      </trkpt>
      <trkpt lat="42.04469" lon="9.12782">
        <ele>1929.805054</ele>
        <time>2011-10-29T12:46:06Z</time>
      </trkpt>
      <trkpt lat="42.04464" lon="9.12782">
        <ele>1928.606812</ele>
        <time>2011-10-29T12:46:13Z</time>
      </trkpt>
      <trkpt lat="42.0446" lon="9.12783">
        <ele>1927.5625</ele>
        <time>2011-10-29T12:46:18Z</time>
      </trkpt>
      <trkpt lat="42.04457" lon="9.12785">
        <ele>1926.637939</ele>
        <time>2011-10-29T12:46:23Z</time>
      </trkpt>
      <trkpt lat="42.04453" lon="9.12784">
        <ele>1925.834351</ele>
        <time>2011-10-29T12:46:27Z</time>
      </trkpt>
      <trkpt lat="42.04449" lon="9.12785">
        <ele>1925.047974</ele>
        <time>2011-10-29T12:46:32Z</time>
      </trkpt>
      <trkpt lat="42.04445" lon="9.12787">
        <ele>1924.103638</ele>
        <time>2011-10-29T12:46:37Z</time>
      </trkpt>
      <trkpt lat="42.04444" lon="9.12787">
        <ele>1923.932495</ele>
        <time>2011-10-29T12:46:38Z</time>
      </trkpt>
      <trkpt lat="42.04437" lon="9.12788">
        <ele>1922.251343</ele>
        <time>2011-10-29T12:46:49Z</time>
      </trkpt>
      <trkpt lat="42.04435" lon="9.12793">
        <ele>1921.459839</ele>
        <time>2011-10-29T12:46:54Z</time>
      </trkpt>
      <trkpt lat="42.04432" lon="9.12797">
        <ele>1920.556152</ele>
        <time>2011-10-29T12:47:00Z</time>
      </trkpt>
      <trkpt lat="42.04429" lon="9.12801">
        <ele>1919.472778</ele>
        <time>2011-10-29T12:47:05Z</time>
      </trkpt>
      <trkpt lat="42.04427" lon="9.12806">
        <ele>1918.88147</ele>
        <time>2011-10-29T12:47:09Z</time>
      </trkpt>
      <trkpt lat="42.04426" lon="9.12811">
        <ele>1918.460449</ele>
        <time>2011-10-29T12:47:15Z</time>
      </trkpt>
      <trkpt lat="42.04424" lon="9.12816">
        <ele>1918.01062</ele>
        <time>2011-10-29T12:47:21Z</time>
      </trkpt>
      <trkpt lat="42.04422" lon="9.12821">
        <ele>1917.288574</ele>
        <time>2011-10-29T12:47:27Z</time>
      </trkpt>
      <trkpt lat="42.0442" lon="9.12826">
        <ele>1916.629028</ele>
        <time>2011-10-29T12:47:32Z</time>
      </trkpt>
      <trkpt lat="42.04418" lon="9.1283">
        <ele>1915.787231</ele>
        <time>2011-10-29T12:47:36Z</time>
      </trkpt>
      <trkpt lat="42.04415" lon="9.12834">
        <ele>1914.857178</ele>
        <time>2011-10-29T12:47:40Z</time>
      </trkpt>
      <trkpt lat="42.04415" lon="9.12836">
        <ele>1914.792969</ele>
        <time>2011-10-29T12:47:41Z</time>
      </trkpt>
      <trkpt lat="42.04407" lon="9.12837">
        <ele>1912.618774</ele>
        <time>2011-10-29T12:47:50Z</time>
      </trkpt>
      <trkpt lat="42.04403" lon="9.12838">
        <ele>1911.709351</ele>
        <time>2011-10-29T12:47:54Z</time>
      </trkpt>
      <trkpt lat="42.044" lon="9.1284">
        <ele>1910.915527</ele>
        <time>2011-10-29T12:47:57Z</time>
      </trkpt>
      <trkpt lat="42.04397" lon="9.12842">
        <ele>1910.070801</ele>
        <time>2011-10-29T12:48:00Z</time>
      </trkpt>
      <trkpt lat="42.04393" lon="9.12844">
        <ele>1909.02063</ele>
        <time>2011-10-29T12:48:04Z</time>
      </trkpt>
      <trkpt lat="42.0439" lon="9.12847">
        <ele>1908.248535</ele>
        <time>2011-10-29T12:48:07Z</time>
      </trkpt>
      <trkpt lat="42.04388" lon="9.12851">
        <ele>1907.418457</ele>
        <time>2011-10-29T12:48:10Z</time>
      </trkpt>
      <trkpt lat="42.04385" lon="9.12854">
        <ele>1906.428711</ele>
        <time>2011-10-29T12:48:14Z</time>
      </trkpt>
      <trkpt lat="42.04381" lon="9.12857">
        <ele>1905.332642</ele>
        <time>2011-10-29T12:48:18Z</time>
      </trkpt>
      <trkpt lat="42.04378" lon="9.1286">
        <ele>1904.386841</ele>
        <time>2011-10-29T12:48:24Z</time>
      </trkpt>
      <trkpt lat="42.04375" lon="9.12864">
        <ele>1903.586792</ele>
        <time>2011-10-29T12:48:28Z</time>
      </trkpt>
      <trkpt lat="42.04372" lon="9.12868">
        <ele>1902.751953</ele>
        <time>2011-10-29T12:48:32Z</time>
      </trkpt>
      <trkpt lat="42.0437" lon="9.12872">
        <ele>1902.028442</ele>
        <time>2011-10-29T12:48:37Z</time>
      </trkpt>
      <trkpt lat="42.04366" lon="9.12875">
        <ele>1900.980347</ele>
        <time>2011-10-29T12:48:42Z</time>
      </trkpt>
      <trkpt lat="42.04366" lon="9.12876">
        <ele>1900.809448</ele>
        <time>2011-10-29T12:48:43Z</time>
      </trkpt>
      <trkpt lat="42.04359" lon="9.12881">
        <ele>1899.314941</ele>
        <time>2011-10-29T12:48:50Z</time>
      </trkpt>
      <trkpt lat="42.04356" lon="9.12884">
        <ele>1898.706543</ele>
        <time>2011-10-29T12:48:54Z</time>
      </trkpt>
      <trkpt lat="42.04353" lon="9.12886">
        <ele>1898.079224</ele>
        <time>2011-10-29T12:48:57Z</time>
      </trkpt>
      <trkpt lat="42.04351" lon="9.12888">
        <ele>1897.457275</ele>
        <time>2011-10-29T12:49:00Z</time>
      </trkpt>
      <trkpt lat="42.04347" lon="9.12891">
        <ele>1896.734619</ele>
        <time>2011-10-29T12:49:03Z</time>
      </trkpt>
      <trkpt lat="42.04344" lon="9.12893">
        <ele>1896.035034</ele>
        <time>2011-10-29T12:49:06Z</time>
      </trkpt>
      <trkpt lat="42.04341" lon="9.12894">
        <ele>1895.252686</ele>
        <time>2011-10-29T12:49:09Z</time>
      </trkpt>
      <trkpt lat="42.04337" lon="9.12895">
        <ele>1894.352661</ele>
        <time>2011-10-29T12:49:13Z</time>
      </trkpt>
      <trkpt lat="42.04332" lon="9.12896">
        <ele>1893.361328</ele>
        <time>2011-10-29T12:49:17Z</time>
      </trkpt>
      <trkpt lat="42.04329" lon="9.12899">
        <ele>1892.468262</ele>
        <time>2011-10-29T12:49:20Z</time>
      </trkpt>
      <trkpt lat="42.04325" lon="9.12902">
        <ele>1891.290771</ele>
        <time>2011-10-29T12:49:24Z</time>
      </trkpt>
      <trkpt lat="42.04322" lon="9.12905">
        <ele>1890.232422</ele>
        <time>2011-10-29T12:49:29Z</time>
      </trkpt>
      <trkpt lat="42.04321" lon="9.12911">
        <ele>1889.300049</ele>
        <time>2011-10-29T12:49:36Z</time>
      </trkpt>
      <trkpt lat="42.04319" lon="9.12915">
        <ele>1888.548096</ele>
        <time>2011-10-29T12:49:42Z</time>
      </trkpt>
      <trkpt lat="42.04316" lon="9.1292">
        <ele>1887.722778</ele>
        <time>2011-10-29T12:49:48Z</time>
      </trkpt>
      <trkpt lat="42.04315" lon="9.12921">
        <ele>1887.52124</ele>
        <time>2011-10-29T12:49:49Z</time>
      </trkpt>
      <trkpt lat="42.04311" lon="9.12927">
        <ele>1886.635498</ele>
        <time>2011-10-29T12:49:57Z</time>
      </trkpt>
      <trkpt lat="42.0431" lon="9.12932">
        <ele>1886.237183</ele>
        <time>2011-10-29T12:50:01Z</time>
      </trkpt>
      <trkpt lat="42.04308" lon="9.12936">
        <ele>1885.717773</ele>
        <time>2011-10-29T12:50:05Z</time>
      </trkpt>
      <trkpt lat="42.04305" lon="9.12939">
        <ele>1885.16748</ele>
        <time>2011-10-29T12:50:09Z</time>
      </trkpt>
      <trkpt lat="42.04301" lon="9.12941">
        <ele>1884.519897</ele>
        <time>2011-10-29T12:50:13Z</time>
      </trkpt>
      <trkpt lat="42.04298" lon="9.12944">
        <ele>1883.855225</ele>
        <time>2011-10-29T12:50:17Z</time>
      </trkpt>
      <trkpt lat="42.04294" lon="9.12945">
        <ele>1883.242554</ele>
        <time>2011-10-29T12:50:22Z</time>
      </trkpt>
      <trkpt lat="42.0429" lon="9.12947">
        <ele>1882.503418</ele>
        <time>2011-10-29T12:50:26Z</time>
      </trkpt>
      <trkpt lat="42.04287" lon="9.1295">
        <ele>1881.652466</ele>
        <time>2011-10-29T12:50:30Z</time>
      </trkpt>
      <trkpt lat="42.04284" lon="9.12954">
        <ele>1880.730835</ele>
        <time>2011-10-29T12:50:35Z</time>
      </trkpt>
      <trkpt lat="42.04281" lon="9.12958">
        <ele>1879.636719</ele>
        <time>2011-10-29T12:50:42Z</time>
      </trkpt>
      <trkpt lat="42.04278" lon="9.12962">
        <ele>1878.540283</ele>
        <time>2011-10-29T12:50:50Z</time>
      </trkpt>
      <trkpt lat="42.04277" lon="9.12962">
        <ele>1878.417847</ele>
        <time>2011-10-29T12:50:51Z</time>
      </trkpt>
      <trkpt lat="42.04272" lon="9.12969">
        <ele>1876.574585</ele>
        <time>2011-10-29T12:51:04Z</time>
      </trkpt>
      <trkpt lat="42.04268" lon="9.12972">
        <ele>1875.585449</ele>
        <time>2011-10-29T12:51:12Z</time>
      </trkpt>
      <trkpt lat="42.04264" lon="9.12973">
        <ele>1874.959961</ele>
        <time>2011-10-29T12:51:19Z</time>
      </trkpt>
      <trkpt lat="42.0426" lon="9.12975">
        <ele>1874.49939</ele>
        <time>2011-10-29T12:51:25Z</time>
      </trkpt>
      <trkpt lat="42.04256" lon="9.12976">
        <ele>1874.122925</ele>
        <time>2011-10-29T12:51:31Z</time>
      </trkpt>
      <trkpt lat="42.04253" lon="9.12979">
        <ele>1873.395996</ele>
        <time>2011-10-29T12:51:36Z</time>
      </trkpt>
      <trkpt lat="42.0425" lon="9.12982">
        <ele>1872.799072</ele>
        <time>2011-10-29T12:51:43Z</time>
      </trkpt>
      <trkpt lat="42.04246" lon="9.12984">
        <ele>1872.089478</ele>
        <time>2011-10-29T12:51:48Z</time>
      </trkpt>
      <trkpt lat="42.04244" lon="9.12989">
        <ele>1871.142212</ele>
        <time>2011-10-29T12:51:53Z</time>
      </trkpt>
      <trkpt lat="42.04245" lon="9.1299">
        <ele>1870.990967</ele>
        <time>2011-10-29T12:51:54Z</time>
      </trkpt>
      <trkpt lat="42.04241" lon="9.12999">
        <ele>1869.229126</ele>
        <time>2011-10-29T12:52:05Z</time>
      </trkpt>
      <trkpt lat="42.04238" lon="9.13002">
        <ele>1868.280884</ele>
        <time>2011-10-29T12:52:09Z</time>
      </trkpt>
      <trkpt lat="42.04234" lon="9.13002">
        <ele>1867.811035</ele>
        <time>2011-10-29T12:52:15Z</time>
      </trkpt>
      <trkpt lat="42.04229" lon="9.13002">
        <ele>1867.299316</ele>
        <time>2011-10-29T12:52:21Z</time>
      </trkpt>
      <trkpt lat="42.04228" lon="9.13006">
        <ele>1866.24585</ele>
        <time>2011-10-29T12:52:26Z</time>
      </trkpt>
      <trkpt lat="42.04227" lon="9.13011">
        <ele>1865.168335</ele>
        <time>2011-10-29T12:52:32Z</time>
      </trkpt>
      <trkpt lat="42.04226" lon="9.13017">
        <ele>1863.958618</ele>
        <time>2011-10-29T12:52:39Z</time>
      </trkpt>
      <trkpt lat="42.04222" lon="9.1302">
        <ele>1862.678711</ele>
        <time>2011-10-29T12:52:46Z</time>
      </trkpt>
      <trkpt lat="42.04219" lon="9.13024">
        <ele>1861.586792</ele>
        <time>2011-10-29T12:52:55Z</time>
      </trkpt>
      <trkpt lat="42.04219" lon="9.13025">
        <ele>1861.432129</ele>
        <time>2011-10-29T12:52:56Z</time>
      </trkpt>
      <trkpt lat="42.04213" lon="9.1303">
        <ele>1859.8125</ele>
        <time>2011-10-29T12:53:11Z</time>
      </trkpt>
      <trkpt lat="42.04211" lon="9.13034">
        <ele>1858.992554</ele>
        <time>2011-10-29T12:53:17Z</time>
      </trkpt>
      <trkpt lat="42.04207" lon="9.13038">
        <ele>1858.022461</ele>
        <time>2011-10-29T12:53:22Z</time>
      </trkpt>
      <trkpt lat="42.04206" lon="9.13043">
        <ele>1857.194946</ele>
        <time>2011-10-29T12:53:28Z</time>
      </trkpt>
      <trkpt lat="42.04207" lon="9.13048">
        <ele>1856.522461</ele>
        <time>2011-10-29T12:53:34Z</time>
      </trkpt>
      <trkpt lat="42.04205" lon="9.13053">
        <ele>1855.589966</ele>
        <time>2011-10-29T12:53:40Z</time>
      </trkpt>
      <trkpt lat="42.04201" lon="9.13054">
        <ele>1854.890015</ele>
        <time>2011-10-29T12:53:45Z</time>
      </trkpt>
      <trkpt lat="42.04197" lon="9.13056">
        <ele>1854.099976</ele>
        <time>2011-10-29T12:53:50Z</time>
      </trkpt>
      <trkpt lat="42.04193" lon="9.13058">
        <ele>1853.324951</ele>
        <time>2011-10-29T12:53:55Z</time>
      </trkpt>
      <trkpt lat="42.04189" lon="9.13059">
        <ele>1852.650024</ele>
        <time>2011-10-29T12:54:02Z</time>
      </trkpt>
      <trkpt lat="42.04188" lon="9.13059">
        <ele>1852.632446</ele>
        <time>2011-10-29T12:54:03Z</time>
      </trkpt>
      <trkpt lat="42.04182" lon="9.13061">
        <ele>1851.45752</ele>
        <time>2011-10-29T12:54:15Z</time>
      </trkpt>
      <trkpt lat="42.04179" lon="9.13065">
        <ele>1850.535034</ele>
        <time>2011-10-29T12:54:20Z</time>
      </trkpt>
      <trkpt lat="42.04176" lon="9.1307">
        <ele>1849.535034</ele>
        <time>2011-10-29T12:54:26Z</time>
      </trkpt>
      <trkpt lat="42.04173" lon="9.13072">
        <ele>1848.67749</ele>
        <time>2011-10-29T12:54:30Z</time>
      </trkpt>
      <trkpt lat="42.04169" lon="9.13072">
        <ele>1848.262085</ele>
        <time>2011-10-29T12:54:33Z</time>
      </trkpt>
      <trkpt lat="42.04165" lon="9.13071">
        <ele>1848.216553</ele>
        <time>2011-10-29T12:54:37Z</time>
      </trkpt>
      <trkpt lat="42.04161" lon="9.13071">
        <ele>1848.067139</ele>
        <time>2011-10-29T12:54:41Z</time>
      </trkpt>
      <trkpt lat="42.04157" lon="9.13071">
        <ele>1847.720947</ele>
        <time>2011-10-29T12:54:46Z</time>
      </trkpt>
      <trkpt lat="42.04153" lon="9.13071">
        <ele>1847.602295</ele>
        <time>2011-10-29T12:54:49Z</time>
      </trkpt>
      <trkpt lat="42.0415" lon="9.13074">
        <ele>1846.831787</ele>
        <time>2011-10-29T12:54:53Z</time>
      </trkpt>
      <trkpt lat="42.04148" lon="9.13079">
        <ele>1846.190674</ele>
        <time>2011-10-29T12:54:57Z</time>
      </trkpt>
      <trkpt lat="42.04148" lon="9.13085">
        <ele>1845.498657</ele>
        <time>2011-10-29T12:55:03Z</time>
      </trkpt>
      <trkpt lat="42.04149" lon="9.13086">
        <ele>1845.456909</ele>
        <time>2011-10-29T12:55:04Z</time>
      </trkpt>
      <trkpt lat="42.04145" lon="9.13096">
        <ele>1844.167603</ele>
        <time>2011-10-29T12:55:20Z</time>
      </trkpt>
      <trkpt lat="42.04143" lon="9.13099">
        <ele>1843.697998</ele>
        <time>2011-10-29T12:55:24Z</time>
      </trkpt>
      <trkpt lat="42.0414" lon="9.13102">
        <ele>1843.309937</ele>
        <time>2011-10-29T12:55:27Z</time>
      </trkpt>
      <trkpt lat="42.04137" lon="9.13106">
        <ele>1842.732666</ele>
        <time>2011-10-29T12:55:31Z</time>
      </trkpt>
      <trkpt lat="42.04136" lon="9.13112">
        <ele>1842.106567</ele>
        <time>2011-10-29T12:55:35Z</time>
      </trkpt>
      <trkpt lat="42.04135" lon="9.13117">
        <ele>1841.455322</ele>
        <time>2011-10-29T12:55:39Z</time>
      </trkpt>
      <trkpt lat="42.04134" lon="9.13122">
        <ele>1840.888306</ele>
        <time>2011-10-29T12:55:43Z</time>
      </trkpt>
      <trkpt lat="42.04133" lon="9.13127">
        <ele>1840.343628</ele>
        <time>2011-10-29T12:55:47Z</time>
      </trkpt>
      <trkpt lat="42.04132" lon="9.13132">
        <ele>1839.893799</ele>
        <time>2011-10-29T12:55:51Z</time>
      </trkpt>
      <trkpt lat="42.04134" lon="9.13137">
        <ele>1839.537964</ele>
        <time>2011-10-29T12:55:56Z</time>
      </trkpt>
      <trkpt lat="42.04137" lon="9.1314">
        <ele>1839.343384</ele>
        <time>2011-10-29T12:56:00Z</time>
      </trkpt>
      <trkpt lat="42.0414" lon="9.13145">
        <ele>1839.012085</ele>
        <time>2011-10-29T12:56:04Z</time>
      </trkpt>
      <trkpt lat="42.0414" lon="9.13146">
        <ele>1838.90918</ele>
        <time>2011-10-29T12:56:05Z</time>
      </trkpt>
      <trkpt lat="42.04144" lon="9.13153">
        <ele>1838.371582</ele>
        <time>2011-10-29T12:56:11Z</time>
      </trkpt>
      <trkpt lat="42.04145" lon="9.13158">
        <ele>1837.981445</ele>
        <time>2011-10-29T12:56:15Z</time>
      </trkpt>
      <trkpt lat="42.04146" lon="9.13163">
        <ele>1837.602783</ele>
        <time>2011-10-29T12:56:18Z</time>
      </trkpt>
      <trkpt lat="42.04147" lon="9.13168">
        <ele>1837.243652</ele>
        <time>2011-10-29T12:56:21Z</time>
      </trkpt>
      <trkpt lat="42.04148" lon="9.13173">
        <ele>1836.877808</ele>
        <time>2011-10-29T12:56:24Z</time>
      </trkpt>
      <trkpt lat="42.04148" lon="9.13178">
        <ele>1836.410034</ele>
        <time>2011-10-29T12:56:28Z</time>
      </trkpt>
      <trkpt lat="42.0415" lon="9.13183">
        <ele>1836.013672</ele>
        <time>2011-10-29T12:56:32Z</time>
      </trkpt>
      <trkpt lat="42.0415" lon="9.13189">
        <ele>1835.546631</ele>
        <time>2011-10-29T12:56:36Z</time>
      </trkpt>
      <trkpt lat="42.04149" lon="9.13195">
        <ele>1835.294189</ele>
        <time>2011-10-29T12:56:41Z</time>
      </trkpt>
      <trkpt lat="42.04148" lon="9.132">
        <ele>1835.340454</ele>
        <time>2011-10-29T12:56:46Z</time>
      </trkpt>
      <trkpt lat="42.04147" lon="9.13205">
        <ele>1835.387451</ele>
        <time>2011-10-29T12:56:50Z</time>
      </trkpt>
      <trkpt lat="42.04147" lon="9.1321">
        <ele>1835.422119</ele>
        <time>2011-10-29T12:56:54Z</time>
      </trkpt>
      <trkpt lat="42.04145" lon="9.13215">
        <ele>1835.462402</ele>
        <time>2011-10-29T12:56:58Z</time>
      </trkpt>
      <trkpt lat="42.04142" lon="9.13218">
        <ele>1835.487793</ele>
        <time>2011-10-29T12:57:02Z</time>
      </trkpt>
      <trkpt lat="42.04137" lon="9.13219">
        <ele>1835.500122</ele>
        <time>2011-10-29T12:57:09Z</time>
      </trkpt>
      <trkpt lat="42.04137" lon="9.13219">
        <ele>1835.501465</ele>
        <time>2011-10-29T12:57:10Z</time>
      </trkpt>
      <trkpt lat="42.04129" lon="9.13221">
        <ele>1835.499146</ele>
        <time>2011-10-29T12:57:18Z</time>
      </trkpt>
      <trkpt lat="42.04126" lon="9.13224">
        <ele>1835.470703</ele>
        <time>2011-10-29T12:57:22Z</time>
      </trkpt>
      <trkpt lat="42.04123" lon="9.13228">
        <ele>1835.417236</ele>
        <time>2011-10-29T12:57:26Z</time>
      </trkpt>
      <trkpt lat="42.0412" lon="9.13231">
        <ele>1835.361206</ele>
        <time>2011-10-29T12:57:29Z</time>
      </trkpt>
      <trkpt lat="42.04117" lon="9.13233">
        <ele>1835.305298</ele>
        <time>2011-10-29T12:57:32Z</time>
      </trkpt>
      <trkpt lat="42.04113" lon="9.13235">
        <ele>1835.275635</ele>
        <time>2011-10-29T12:57:36Z</time>
      </trkpt>
      <trkpt lat="42.0411" lon="9.13239">
        <ele>1835.3302</ele>
        <time>2011-10-29T12:57:40Z</time>
      </trkpt>
      <trkpt lat="42.04106" lon="9.13241">
        <ele>1835.400024</ele>
        <time>2011-10-29T12:57:44Z</time>
      </trkpt>
      <trkpt lat="42.04102" lon="9.13242">
        <ele>1835.46936</ele>
        <time>2011-10-29T12:57:47Z</time>
      </trkpt>
      <trkpt lat="42.04098" lon="9.13243">
        <ele>1835.522095</ele>
        <time>2011-10-29T12:57:51Z</time>
      </trkpt>
      <trkpt lat="42.04094" lon="9.13245">
        <ele>1835.520752</ele>
        <time>2011-10-29T12:57:53Z</time>
      </trkpt>
      <trkpt lat="42.04091" lon="9.13246">
        <ele>1835.503662</ele>
        <time>2011-10-29T12:57:56Z</time>
      </trkpt>
      <trkpt lat="42.04087" lon="9.13249">
        <ele>1835.290527</ele>
        <time>2011-10-29T12:58:00Z</time>
      </trkpt>
      <trkpt lat="42.04084" lon="9.13252">
        <ele>1834.991943</ele>
        <time>2011-10-29T12:58:03Z</time>
      </trkpt>
      <trkpt lat="42.0408" lon="9.13253">
        <ele>1834.787964</ele>
        <time>2011-10-29T12:58:07Z</time>
      </trkpt>
      <trkpt lat="42.04076" lon="9.13254">
        <ele>1834.601196</ele>
        <time>2011-10-29T12:58:11Z</time>
      </trkpt>
      <trkpt lat="42.04075" lon="9.13254">
        <ele>1834.598145</ele>
        <time>2011-10-29T12:58:12Z</time>
      </trkpt>
      <trkpt lat="42.04068" lon="9.13255">
        <ele>1834.244995</ele>
        <time>2011-10-29T12:58:19Z</time>
      </trkpt>
      <trkpt lat="42.04063" lon="9.13255">
        <ele>1833.626465</ele>
        <time>2011-10-29T12:58:23Z</time>
      </trkpt>
      <trkpt lat="42.04059" lon="9.13256">
        <ele>1832.92334</ele>
        <time>2011-10-29T12:58:28Z</time>
      </trkpt>
      <trkpt lat="42.04056" lon="9.13256">
        <ele>1832.248291</ele>
        <time>2011-10-29T12:58:32Z</time>
      </trkpt>
      <trkpt lat="42.04051" lon="9.13257">
        <ele>1831.421997</ele>
        <time>2011-10-29T12:58:37Z</time>
      </trkpt>
      <trkpt lat="42.04048" lon="9.1326">
        <ele>1830.591187</ele>
        <time>2011-10-29T12:58:42Z</time>
      </trkpt>
      <trkpt lat="42.04044" lon="9.13262">
        <ele>1829.563965</ele>
        <time>2011-10-29T12:58:48Z</time>
      </trkpt>
      <trkpt lat="42.04042" lon="9.13267">
        <ele>1828.497437</ele>
        <time>2011-10-29T12:58:57Z</time>
      </trkpt>
      <trkpt lat="42.04038" lon="9.1327">
        <ele>1827.49292</ele>
        <time>2011-10-29T12:59:06Z</time>
      </trkpt>
      <trkpt lat="42.04034" lon="9.1327">
        <ele>1826.803711</ele>
        <time>2011-10-29T12:59:15Z</time>
      </trkpt>
      <trkpt lat="42.04033" lon="9.1327">
        <ele>1826.681885</ele>
        <time>2011-10-29T12:59:16Z</time>
      </trkpt>
      <trkpt lat="42.04028" lon="9.13276">
        <ele>1824.982178</ele>
        <time>2011-10-29T12:59:38Z</time>
      </trkpt>
      <trkpt lat="42.04025" lon="9.13275">
        <ele>1824.478516</ele>
        <time>2011-10-29T12:59:45Z</time>
      </trkpt>
      <trkpt lat="42.04021" lon="9.13274">
        <ele>1823.706055</ele>
        <time>2011-10-29T12:59:53Z</time>
      </trkpt>
      <trkpt lat="42.04016" lon="9.13273">
        <ele>1822.260742</ele>
        <time>2011-10-29T13:00:04Z</time>
      </trkpt>
      <trkpt lat="42.04013" lon="9.13269">
        <ele>1821.61438</ele>
        <time>2011-10-29T13:00:22Z</time>
      </trkpt>
      <trkpt lat="42.04013" lon="9.1327">
        <ele>1821.353271</ele>
        <time>2011-10-29T13:00:23Z</time>
      </trkpt>
      <trkpt lat="42.04005" lon="9.13269">
        <ele>1818.423462</ele>
        <time>2011-10-29T13:00:39Z</time>
      </trkpt>
      <trkpt lat="42.04001" lon="9.13267">
        <ele>1817.468994</ele>
        <time>2011-10-29T13:00:54Z</time>
      </trkpt>
      <trkpt lat="42.03997" lon="9.13268">
        <ele>1815.542358</ele>
        <time>2011-10-29T13:01:10Z</time>
      </trkpt>
      <trkpt lat="42.03992" lon="9.13267">
        <ele>1813.989258</ele>
        <time>2011-10-29T13:01:22Z</time>
      </trkpt>
      <trkpt lat="42.03988" lon="9.13266">
        <ele>1812.841064</ele>
        <time>2011-10-29T13:01:32Z</time>
      </trkpt>
      <trkpt lat="42.03988" lon="9.13266">
        <ele>1812.639282</ele>
        <time>2011-10-29T13:01:33Z</time>
      </trkpt>
      <trkpt lat="42.03984" lon="9.13275">
        <ele>1808.679321</ele>
        <time>2011-10-29T13:01:55Z</time>
      </trkpt>
      <trkpt lat="42.03984" lon="9.1328">
        <ele>1807.574341</ele>
        <time>2011-10-29T13:01:59Z</time>
      </trkpt>
      <trkpt lat="42.03985" lon="9.13285">
        <ele>1806.823364</ele>
        <time>2011-10-29T13:02:04Z</time>
      </trkpt>
      <trkpt lat="42.03985" lon="9.13291">
        <ele>1805.179199</ele>
        <time>2011-10-29T13:02:11Z</time>
      </trkpt>
      <trkpt lat="42.03982" lon="9.13295">
        <ele>1802.964355</ele>
        <time>2011-10-29T13:02:21Z</time>
      </trkpt>
      <trkpt lat="42.03978" lon="9.13297">
        <ele>1801.406006</ele>
        <time>2011-10-29T13:02:44Z</time>
      </trkpt>
      <trkpt lat="42.03977" lon="9.13297">
        <ele>1801.213501</ele>
        <time>2011-10-29T13:02:45Z</time>
      </trkpt>
      <trkpt lat="42.03972" lon="9.13306">
        <ele>1800.040039</ele>
        <time>2011-10-29T13:03:08Z</time>
      </trkpt>
      <trkpt lat="42.0397" lon="9.13309">
        <ele>1799.92749</ele>
        <time>2011-10-29T13:03:12Z</time>
      </trkpt>
      <trkpt lat="42.03967" lon="9.13312">
        <ele>1799.742554</ele>
        <time>2011-10-29T13:03:15Z</time>
      </trkpt>
      <trkpt lat="42.03964" lon="9.13315">
        <ele>1799.502441</ele>
        <time>2011-10-29T13:03:18Z</time>
      </trkpt>
      <trkpt lat="42.0396" lon="9.13317">
        <ele>1799.267456</ele>
        <time>2011-10-29T13:03:21Z</time>
      </trkpt>
      <trkpt lat="42.03957" lon="9.13319">
        <ele>1799.012451</ele>
        <time>2011-10-29T13:03:24Z</time>
      </trkpt>
      <trkpt lat="42.03954" lon="9.13321">
        <ele>1798.775024</ele>
        <time>2011-10-29T13:03:27Z</time>
      </trkpt>
      <trkpt lat="42.03951" lon="9.13323">
        <ele>1798.547485</ele>
        <time>2011-10-29T13:03:30Z</time>
      </trkpt>
      <trkpt lat="42.03947" lon="9.13325">
        <ele>1798.282471</ele>
        <time>2011-10-29T13:03:33Z</time>
      </trkpt>
      <trkpt lat="42.03943" lon="9.13325">
        <ele>1797.905029</ele>
        <time>2011-10-29T13:03:37Z</time>
      </trkpt>
      <trkpt lat="42.03939" lon="9.13325">
        <ele>1797.599976</ele>
        <time>2011-10-29T13:03:40Z</time>
      </trkpt>
      <trkpt lat="42.03936" lon="9.13324">
        <ele>1797.262451</ele>
        <time>2011-10-29T13:03:43Z</time>
      </trkpt>
      <trkpt lat="42.03932" lon="9.13323">
        <ele>1796.897461</ele>
        <time>2011-10-29T13:03:46Z</time>
      </trkpt>
      <trkpt lat="42.0393" lon="9.13322">
        <ele>1796.767456</ele>
        <time>2011-10-29T13:03:47Z</time>
      </trkpt>
      <trkpt lat="42.03924" lon="9.13322">
        <ele>1796.529175</ele>
        <time>2011-10-29T13:03:52Z</time>
      </trkpt>
      <trkpt lat="42.0392" lon="9.1332">
        <ele>1796.475952</ele>
        <time>2011-10-29T13:03:55Z</time>
      </trkpt>
      <trkpt lat="42.03917" lon="9.13319">
        <ele>1796.421509</ele>
        <time>2011-10-29T13:03:58Z</time>
      </trkpt>
      <trkpt lat="42.03914" lon="9.13318">
        <ele>1796.371582</ele>
        <time>2011-10-29T13:04:01Z</time>
      </trkpt>
      <trkpt lat="42.0391" lon="9.13316">
        <ele>1796.303345</ele>
        <time>2011-10-29T13:04:04Z</time>
      </trkpt>
      <trkpt lat="42.03907" lon="9.13314">
        <ele>1796.216919</ele>
        <time>2011-10-29T13:04:06Z</time>
      </trkpt>
      <trkpt lat="42.03904" lon="9.13311">
        <ele>1796.103027</ele>
        <time>2011-10-29T13:04:10Z</time>
      </trkpt>
      <trkpt lat="42.039" lon="9.13307">
        <ele>1795.976563</ele>
        <time>2011-10-29T13:04:14Z</time>
      </trkpt>
      <trkpt lat="42.03897" lon="9.13305">
        <ele>1795.880371</ele>
        <time>2011-10-29T13:04:18Z</time>
      </trkpt>
      <trkpt lat="42.03893" lon="9.13303">
        <ele>1795.781128</ele>
        <time>2011-10-29T13:04:23Z</time>
      </trkpt>
      <trkpt lat="42.03889" lon="9.13304">
        <ele>1795.753784</ele>
        <time>2011-10-29T13:04:28Z</time>
      </trkpt>
      <trkpt lat="42.03885" lon="9.13302">
        <ele>1795.641846</ele>
        <time>2011-10-29T13:04:36Z</time>
      </trkpt>
      <trkpt lat="42.03883" lon="9.133">
        <ele>1795.60498</ele>
        <time>2011-10-29T13:04:38Z</time>
      </trkpt>
      <trkpt lat="42.03881" lon="9.13296">
        <ele>1795.537476</ele>
        <time>2011-10-29T13:04:40Z</time>
      </trkpt>
      <trkpt lat="42.03879" lon="9.13292">
        <ele>1795.467529</ele>
        <time>2011-10-29T13:04:42Z</time>
      </trkpt>
      <trkpt lat="42.03877" lon="9.13289">
        <ele>1795.407471</ele>
        <time>2011-10-29T13:04:44Z</time>
      </trkpt>
      <trkpt lat="42.03875" lon="9.13286">
        <ele>1795.382446</ele>
        <time>2011-10-29T13:04:46Z</time>
      </trkpt>
      <trkpt lat="42.03872" lon="9.13284">
        <ele>1795.392456</ele>
        <time>2011-10-29T13:04:48Z</time>
      </trkpt>
      <trkpt lat="42.0387" lon="9.13283">
        <ele>1795.397461</ele>
        <time>2011-10-29T13:04:49Z</time>
      </trkpt>
      <trkpt lat="42.03865" lon="9.1328">
        <ele>1795.44751</ele>
        <time>2011-10-29T13:04:54Z</time>
      </trkpt>
      <trkpt lat="42.03861" lon="9.13277">
        <ele>1795.432495</ele>
        <time>2011-10-29T13:04:57Z</time>
      </trkpt>
      <trkpt lat="42.03858" lon="9.13273">
        <ele>1795.41748</ele>
        <time>2011-10-29T13:05:01Z</time>
      </trkpt>
      <trkpt lat="42.03856" lon="9.13271">
        <ele>1795.392456</ele>
        <time>2011-10-29T13:05:04Z</time>
      </trkpt>
      <trkpt lat="42.03852" lon="9.13268">
        <ele>1795.415039</ele>
        <time>2011-10-29T13:05:07Z</time>
      </trkpt>
      <trkpt lat="42.03848" lon="9.13268">
        <ele>1795.537476</ele>
        <time>2011-10-29T13:05:11Z</time>
      </trkpt>
      <trkpt lat="42.03844" lon="9.13272">
        <ele>1795.72998</ele>
        <time>2011-10-29T13:05:31Z</time>
      </trkpt>
      <trkpt lat="42.03847" lon="9.13277">
        <ele>1795.809937</ele>
        <time>2011-10-29T13:06:38Z</time>
      </trkpt>
      <trkpt lat="42.03847" lon="9.13277">
        <ele>1795.809937</ele>
        <time>2011-10-29T13:06:39Z</time>
      </trkpt>
      <trkpt lat="42.03839" lon="9.13273">
        <ele>1795.985229</ele>
        <time>2011-10-29T13:07:20Z</time>
      </trkpt>
      <trkpt lat="42.03835" lon="9.1327">
        <ele>1796.088745</ele>
        <time>2011-10-29T13:07:32Z</time>
      </trkpt>
      <trkpt lat="42.03832" lon="9.13273">
        <ele>1796.3125</ele>
        <time>2011-10-29T13:07:38Z</time>
      </trkpt>
      <trkpt lat="42.03829" lon="9.13277">
        <ele>1796.545044</ele>
        <time>2011-10-29T13:07:44Z</time>
      </trkpt>
      <trkpt lat="42.03828" lon="9.13277">
        <ele>1796.599976</ele>
        <time>2011-10-29T13:07:45Z</time>
      </trkpt>
      <trkpt lat="42.03822" lon="9.13278">
        <ele>1796.915039</ele>
        <time>2011-10-29T13:07:50Z</time>
      </trkpt>
      <trkpt lat="42.03818" lon="9.13275">
        <ele>1797.040039</ele>
        <time>2011-10-29T13:07:54Z</time>
      </trkpt>
      <trkpt lat="42.03814" lon="9.13274">
        <ele>1797.223389</ele>
        <time>2011-10-29T13:07:59Z</time>
      </trkpt>
      <trkpt lat="42.0381" lon="9.13275">
        <ele>1797.410034</ele>
        <time>2011-10-29T13:08:03Z</time>
      </trkpt>
      <trkpt lat="42.03806" lon="9.13277">
        <ele>1797.660034</ele>
        <time>2011-10-29T13:08:07Z</time>
      </trkpt>
      <trkpt lat="42.03804" lon="9.13281">
        <ele>1797.875</ele>
        <time>2011-10-29T13:08:10Z</time>
      </trkpt>
      <trkpt lat="42.03802" lon="9.13285">
        <ele>1798.099976</ele>
        <time>2011-10-29T13:08:13Z</time>
      </trkpt>
      <trkpt lat="42.03799" lon="9.13288">
        <ele>1798.35498</ele>
        <time>2011-10-29T13:08:17Z</time>
      </trkpt>
      <trkpt lat="42.03796" lon="9.13291">
        <ele>1798.60498</ele>
        <time>2011-10-29T13:08:21Z</time>
      </trkpt>
      <trkpt lat="42.03792" lon="9.13293">
        <ele>1798.978516</ele>
        <time>2011-10-29T13:08:25Z</time>
      </trkpt>
      <trkpt lat="42.03788" lon="9.13295">
        <ele>1799.282349</ele>
        <time>2011-10-29T13:08:29Z</time>
      </trkpt>
      <trkpt lat="42.03785" lon="9.13297">
        <ele>1799.570923</ele>
        <time>2011-10-29T13:08:33Z</time>
      </trkpt>
      <trkpt lat="42.03781" lon="9.133">
        <ele>1799.857422</ele>
        <time>2011-10-29T13:08:38Z</time>
      </trkpt>
      <trkpt lat="42.03778" lon="9.13303">
        <ele>1800.113647</ele>
        <time>2011-10-29T13:08:43Z</time>
      </trkpt>
      <trkpt lat="42.03774" lon="9.13306">
        <ele>1800.375122</ele>
        <time>2011-10-29T13:08:48Z</time>
      </trkpt>
      <trkpt lat="42.03773" lon="9.13306">
        <ele>1800.429077</ele>
        <time>2011-10-29T13:08:49Z</time>
      </trkpt>
      <trkpt lat="42.03767" lon="9.13313">
        <ele>1800.688965</ele>
        <time>2011-10-29T13:08:57Z</time>
      </trkpt>
      <trkpt lat="42.03763" lon="9.13313">
        <ele>1800.85022</ele>
        <time>2011-10-29T13:09:01Z</time>
      </trkpt>
      <trkpt lat="42.0376" lon="9.13315">
        <ele>1800.989624</ele>
        <time>2011-10-29T13:09:05Z</time>
      </trkpt>
      <trkpt lat="42.03756" lon="9.13318">
        <ele>1801.047241</ele>
        <time>2011-10-29T13:09:09Z</time>
      </trkpt>
      <trkpt lat="42.03752" lon="9.1332">
        <ele>1801.119629</ele>
        <time>2011-10-29T13:09:13Z</time>
      </trkpt>
      <trkpt lat="42.03749" lon="9.13323">
        <ele>1801.122437</ele>
        <time>2011-10-29T13:09:17Z</time>
      </trkpt>
      <trkpt lat="42.03745" lon="9.13326">
        <ele>1801.342407</ele>
        <time>2011-10-29T13:09:21Z</time>
      </trkpt>
      <trkpt lat="42.03742" lon="9.1333">
        <ele>1801.649292</ele>
        <time>2011-10-29T13:09:25Z</time>
      </trkpt>
      <trkpt lat="42.0374" lon="9.13334">
        <ele>1801.836914</ele>
        <time>2011-10-29T13:09:28Z</time>
      </trkpt>
      <trkpt lat="42.03737" lon="9.13338">
        <ele>1802.006104</ele>
        <time>2011-10-29T13:09:32Z</time>
      </trkpt>
      <trkpt lat="42.03735" lon="9.13343">
        <ele>1802.10498</ele>
        <time>2011-10-29T13:09:36Z</time>
      </trkpt>
      <trkpt lat="42.03734" lon="9.13348">
        <ele>1802.106689</ele>
        <time>2011-10-29T13:09:40Z</time>
      </trkpt>
      <trkpt lat="42.03734" lon="9.13353">
        <ele>1802.060669</ele>
        <time>2011-10-29T13:09:52Z</time>
      </trkpt>
      <trkpt lat="42.03734" lon="9.13354">
        <ele>1802.037964</ele>
        <time>2011-10-29T13:09:53Z</time>
      </trkpt>
      <trkpt lat="42.03733" lon="9.13363">
        <ele>1801.967163</ele>
        <time>2011-10-29T13:10:01Z</time>
      </trkpt>
      <trkpt lat="42.03731" lon="9.13369">
        <ele>1801.92981</ele>
        <time>2011-10-29T13:10:06Z</time>
      </trkpt>
      <trkpt lat="42.03731" lon="9.13374">
        <ele>1801.860962</ele>
        <time>2011-10-29T13:10:10Z</time>
      </trkpt>
      <trkpt lat="42.03731" lon="9.13379">
        <ele>1801.792236</ele>
        <time>2011-10-29T13:10:14Z</time>
      </trkpt>
      <trkpt lat="42.03732" lon="9.13385">
        <ele>1801.733154</ele>
        <time>2011-10-29T13:10:21Z</time>
      </trkpt>
      <trkpt lat="42.0373" lon="9.1339">
        <ele>1801.414917</ele>
        <time>2011-10-29T13:10:30Z</time>
      </trkpt>
      <trkpt lat="42.03728" lon="9.13395">
        <ele>1801.053101</ele>
        <time>2011-10-29T13:10:35Z</time>
      </trkpt>
      <trkpt lat="42.03726" lon="9.134">
        <ele>1800.693604</ele>
        <time>2011-10-29T13:10:44Z</time>
      </trkpt>
      <trkpt lat="42.03725" lon="9.13405">
        <ele>1800.327026</ele>
        <time>2011-10-29T13:10:49Z</time>
      </trkpt>
      <trkpt lat="42.03725" lon="9.13411">
        <ele>1799.963135</ele>
        <time>2011-10-29T13:10:53Z</time>
      </trkpt>
      <trkpt lat="42.03725" lon="9.13412">
        <ele>1799.88562</ele>
        <time>2011-10-29T13:10:54Z</time>
      </trkpt>
      <trkpt lat="42.03726" lon="9.13422">
        <ele>1799.230591</ele>
        <time>2011-10-29T13:11:01Z</time>
      </trkpt>
      <trkpt lat="42.03727" lon="9.13428">
        <ele>1798.837402</ele>
        <time>2011-10-29T13:11:05Z</time>
      </trkpt>
      <trkpt lat="42.03727" lon="9.13433">
        <ele>1798.45459</ele>
        <time>2011-10-29T13:11:12Z</time>
      </trkpt>
      <trkpt lat="42.03726" lon="9.13438">
        <ele>1798.133057</ele>
        <time>2011-10-29T13:11:16Z</time>
      </trkpt>
      <trkpt lat="42.03726" lon="9.13444">
        <ele>1797.752319</ele>
        <time>2011-10-29T13:11:20Z</time>
      </trkpt>
      <trkpt lat="42.03726" lon="9.13449">
        <ele>1797.46875</ele>
        <time>2011-10-29T13:11:24Z</time>
      </trkpt>
      <trkpt lat="42.03727" lon="9.13454">
        <ele>1797.200439</ele>
        <time>2011-10-29T13:11:28Z</time>
      </trkpt>
      <trkpt lat="42.03729" lon="9.1346">
        <ele>1796.875854</ele>
        <time>2011-10-29T13:11:32Z</time>
      </trkpt>
      <trkpt lat="42.0373" lon="9.13464">
        <ele>1796.606934</ele>
        <time>2011-10-29T13:11:35Z</time>
      </trkpt>
      <trkpt lat="42.03732" lon="9.1347">
        <ele>1796.253906</ele>
        <time>2011-10-29T13:11:43Z</time>
      </trkpt>
      <trkpt lat="42.03736" lon="9.13472">
        <ele>1795.931885</ele>
        <time>2011-10-29T13:12:26Z</time>
      </trkpt>
      <trkpt lat="42.03736" lon="9.13471">
        <ele>1795.925049</ele>
        <time>2011-10-29T13:12:27Z</time>
      </trkpt>
      <trkpt lat="42.03728" lon="9.13473">
        <ele>1796.307251</ele>
        <time>2011-10-29T13:13:10Z</time>
      </trkpt>
      <trkpt lat="42.03726" lon="9.13477">
        <ele>1796.250366</ele>
        <time>2011-10-29T13:13:13Z</time>
      </trkpt>
      <trkpt lat="42.03725" lon="9.13481">
        <ele>1796.152222</ele>
        <time>2011-10-29T13:13:16Z</time>
      </trkpt>
      <trkpt lat="42.03723" lon="9.13486">
        <ele>1796.074707</ele>
        <time>2011-10-29T13:13:19Z</time>
      </trkpt>
      <trkpt lat="42.03721" lon="9.13491">
        <ele>1795.99292</ele>
        <time>2011-10-29T13:13:22Z</time>
      </trkpt>
      <trkpt lat="42.0372" lon="9.13495">
        <ele>1795.893188</ele>
        <time>2011-10-29T13:13:25Z</time>
      </trkpt>
      <trkpt lat="42.03719" lon="9.13499">
        <ele>1795.814453</ele>
        <time>2011-10-29T13:13:27Z</time>
      </trkpt>
      <trkpt lat="42.03718" lon="9.13501">
        <ele>1795.761108</ele>
        <time>2011-10-29T13:13:28Z</time>
      </trkpt>
      <trkpt lat="42.03717" lon="9.13509">
        <ele>1795.526978</ele>
        <time>2011-10-29T13:13:32Z</time>
      </trkpt>
      <trkpt lat="42.03716" lon="9.13513">
        <ele>1795.340332</ele>
        <time>2011-10-29T13:13:34Z</time>
      </trkpt>
      <trkpt lat="42.03715" lon="9.13519">
        <ele>1795.086426</ele>
        <time>2011-10-29T13:13:37Z</time>
      </trkpt>
      <trkpt lat="42.03714" lon="9.13525">
        <ele>1794.852417</ele>
        <time>2011-10-29T13:13:40Z</time>
      </trkpt>
      <trkpt lat="42.03714" lon="9.1353">
        <ele>1794.583252</ele>
        <time>2011-10-29T13:13:43Z</time>
      </trkpt>
      <trkpt lat="42.03713" lon="9.13536">
        <ele>1794.314331</ele>
        <time>2011-10-29T13:13:46Z</time>
      </trkpt>
      <trkpt lat="42.03713" lon="9.13542">
        <ele>1794.029175</ele>
        <time>2011-10-29T13:13:49Z</time>
      </trkpt>
      <trkpt lat="42.03713" lon="9.13547">
        <ele>1793.740967</ele>
        <time>2011-10-29T13:13:52Z</time>
      </trkpt>
      <trkpt lat="42.03712" lon="9.13553">
        <ele>1793.495361</ele>
        <time>2011-10-29T13:13:55Z</time>
      </trkpt>
      <trkpt lat="42.03712" lon="9.13558">
        <ele>1793.215576</ele>
        <time>2011-10-29T13:13:58Z</time>
      </trkpt>
      <trkpt lat="42.03712" lon="9.13563">
        <ele>1792.96228</ele>
        <time>2011-10-29T13:14:01Z</time>
      </trkpt>
      <trkpt lat="42.03712" lon="9.13568">
        <ele>1792.744019</ele>
        <time>2011-10-29T13:14:04Z</time>
      </trkpt>
      <trkpt lat="42.03712" lon="9.13573">
        <ele>1792.48999</ele>
        <time>2011-10-29T13:14:07Z</time>
      </trkpt>
      <trkpt lat="42.03712" lon="9.13578">
        <ele>1792.24646</ele>
        <time>2011-10-29T13:14:10Z</time>
      </trkpt>
      <trkpt lat="42.03712" lon="9.13583">
        <ele>1792.052856</ele>
        <time>2011-10-29T13:14:13Z</time>
      </trkpt>
      <trkpt lat="42.03712" lon="9.13587">
        <ele>1791.834961</ele>
        <time>2011-10-29T13:14:16Z</time>
      </trkpt>
      <trkpt lat="42.03712" lon="9.13592">
        <ele>1791.619751</ele>
        <time>2011-10-29T13:14:19Z</time>
      </trkpt>
      <trkpt lat="42.03712" lon="9.13597">
        <ele>1791.40686</ele>
        <time>2011-10-29T13:14:22Z</time>
      </trkpt>
      <trkpt lat="42.03711" lon="9.13603">
        <ele>1791.138184</ele>
        <time>2011-10-29T13:14:26Z</time>
      </trkpt>
      <trkpt lat="42.03709" lon="9.13607">
        <ele>1790.914795</ele>
        <time>2011-10-29T13:14:29Z</time>
      </trkpt>
      <trkpt lat="42.03708" lon="9.13609">
        <ele>1790.832764</ele>
        <time>2011-10-29T13:14:30Z</time>
      </trkpt>
      <trkpt lat="42.03706" lon="9.13616">
        <ele>1790.382813</ele>
        <time>2011-10-29T13:14:35Z</time>
      </trkpt>
      <trkpt lat="42.03705" lon="9.13621">
        <ele>1790.112793</ele>
        <time>2011-10-29T13:14:38Z</time>
      </trkpt>
      <trkpt lat="42.03704" lon="9.13626">
        <ele>1789.897339</ele>
        <time>2011-10-29T13:14:41Z</time>
      </trkpt>
      <trkpt lat="42.03703" lon="9.13631">
        <ele>1789.80603</ele>
        <time>2011-10-29T13:14:44Z</time>
      </trkpt>
      <trkpt lat="42.037" lon="9.13634">
        <ele>1789.643066</ele>
        <time>2011-10-29T13:14:47Z</time>
      </trkpt>
      <trkpt lat="42.03696" lon="9.13635">
        <ele>1789.447021</ele>
        <time>2011-10-29T13:14:50Z</time>
      </trkpt>
      <trkpt lat="42.03692" lon="9.13638">
        <ele>1789.222534</ele>
        <time>2011-10-29T13:14:54Z</time>
      </trkpt>
      <trkpt lat="42.03689" lon="9.13638">
        <ele>1789.062012</ele>
        <time>2011-10-29T13:14:57Z</time>
      </trkpt>
      <trkpt lat="42.03685" lon="9.13637">
        <ele>1788.862549</ele>
        <time>2011-10-29T13:15:00Z</time>
      </trkpt>
      <trkpt lat="42.03682" lon="9.13639">
        <ele>1788.720581</ele>
        <time>2011-10-29T13:15:03Z</time>
      </trkpt>
      <trkpt lat="42.03678" lon="9.13641">
        <ele>1788.683716</ele>
        <time>2011-10-29T13:15:06Z</time>
      </trkpt>
      <trkpt lat="42.03675" lon="9.13644">
        <ele>1788.606201</ele>
        <time>2011-10-29T13:15:09Z</time>
      </trkpt>
      <trkpt lat="42.03672" lon="9.13647">
        <ele>1788.491211</ele>
        <time>2011-10-29T13:15:13Z</time>
      </trkpt>
      <trkpt lat="42.03669" lon="9.1365">
        <ele>1788.358765</ele>
        <time>2011-10-29T13:15:18Z</time>
      </trkpt>
      <trkpt lat="42.03666" lon="9.13653">
        <ele>1788.215576</ele>
        <time>2011-10-29T13:15:22Z</time>
      </trkpt>
      <trkpt lat="42.03663" lon="9.13657">
        <ele>1788.026611</ele>
        <time>2011-10-29T13:15:26Z</time>
      </trkpt>
      <trkpt lat="42.03659" lon="9.13658">
        <ele>1787.883057</ele>
        <time>2011-10-29T13:15:29Z</time>
      </trkpt>
      <trkpt lat="42.03656" lon="9.13659">
        <ele>1787.768555</ele>
        <time>2011-10-29T13:15:32Z</time>
      </trkpt>
      <trkpt lat="42.03655" lon="9.13659">
        <ele>1787.729736</ele>
        <time>2011-10-29T13:15:33Z</time>
      </trkpt>
      <trkpt lat="42.03649" lon="9.13661">
        <ele>1787.455566</ele>
        <time>2011-10-29T13:15:38Z</time>
      </trkpt>
      <trkpt lat="42.03645" lon="9.13663">
        <ele>1787.244629</ele>
        <time>2011-10-29T13:15:41Z</time>
      </trkpt>
      <trkpt lat="42.03642" lon="9.13666">
        <ele>1786.969116</ele>
        <time>2011-10-29T13:15:44Z</time>
      </trkpt>
      <trkpt lat="42.03638" lon="9.13668">
        <ele>1786.656494</ele>
        <time>2011-10-29T13:15:48Z</time>
      </trkpt>
      <trkpt lat="42.03635" lon="9.13669">
        <ele>1786.560059</ele>
        <time>2011-10-29T13:15:51Z</time>
      </trkpt>
      <trkpt lat="42.03631" lon="9.1367">
        <ele>1786.6875</ele>
        <time>2011-10-29T13:15:54Z</time>
      </trkpt>
      <trkpt lat="42.03628" lon="9.13671">
        <ele>1786.785034</ele>
        <time>2011-10-29T13:15:57Z</time>
      </trkpt>
      <trkpt lat="42.03625" lon="9.13674">
        <ele>1786.800049</ele>
        <time>2011-10-29T13:16:00Z</time>
      </trkpt>
      <trkpt lat="42.03622" lon="9.13675">
        <ele>1786.91748</ele>
        <time>2011-10-29T13:16:03Z</time>
      </trkpt>
      <trkpt lat="42.03618" lon="9.13675">
        <ele>1787.125977</ele>
        <time>2011-10-29T13:16:06Z</time>
      </trkpt>
      <trkpt lat="42.03615" lon="9.13678">
        <ele>1787.216064</ele>
        <time>2011-10-29T13:16:09Z</time>
      </trkpt>
      <trkpt lat="42.03612" lon="9.13683">
        <ele>1787.137451</ele>
        <time>2011-10-29T13:16:13Z</time>
      </trkpt>
      <trkpt lat="42.03611" lon="9.13688">
        <ele>1786.951294</ele>
        <time>2011-10-29T13:16:18Z</time>
      </trkpt>
      <trkpt lat="42.0361" lon="9.13693">
        <ele>1786.749634</ele>
        <time>2011-10-29T13:16:22Z</time>
      </trkpt>
      <trkpt lat="42.03609" lon="9.13698">
        <ele>1786.545776</ele>
        <time>2011-10-29T13:16:26Z</time>
      </trkpt>
      <trkpt lat="42.03607" lon="9.13703">
        <ele>1786.373047</ele>
        <time>2011-10-29T13:16:30Z</time>
      </trkpt>
      <trkpt lat="42.03605" lon="9.13708">
        <ele>1786.221802</ele>
        <time>2011-10-29T13:16:34Z</time>
      </trkpt>
      <trkpt lat="42.03604" lon="9.13709">
        <ele>1786.182617</ele>
        <time>2011-10-29T13:16:35Z</time>
      </trkpt>
      <trkpt lat="42.03599" lon="9.13715">
        <ele>1785.960205</ele>
        <time>2011-10-29T13:16:43Z</time>
      </trkpt>
      <trkpt lat="42.03597" lon="9.1372">
        <ele>1785.70459</ele>
        <time>2011-10-29T13:16:49Z</time>
      </trkpt>
      <trkpt lat="42.03594" lon="9.13723">
        <ele>1785.543701</ele>
        <time>2011-10-29T13:16:55Z</time>
      </trkpt>
      <trkpt lat="42.03589" lon="9.13721">
        <ele>1785.653198</ele>
        <time>2011-10-29T13:17:12Z</time>
      </trkpt>
      <trkpt lat="42.03585" lon="9.13721">
        <ele>1785.865112</ele>
        <time>2011-10-29T13:17:19Z</time>
      </trkpt>
      <trkpt lat="42.03581" lon="9.13721">
        <ele>1786.223145</ele>
        <time>2011-10-29T13:17:25Z</time>
      </trkpt>
      <trkpt lat="42.03578" lon="9.13717">
        <ele>1786.812378</ele>
        <time>2011-10-29T13:17:29Z</time>
      </trkpt>
      <trkpt lat="42.03575" lon="9.13714">
        <ele>1787.316772</ele>
        <time>2011-10-29T13:17:34Z</time>
      </trkpt>
      <trkpt lat="42.03571" lon="9.13711">
        <ele>1787.913818</ele>
        <time>2011-10-29T13:17:39Z</time>
      </trkpt>
      <trkpt lat="42.0357" lon="9.13711">
        <ele>1787.994873</ele>
        <time>2011-10-29T13:17:40Z</time>
      </trkpt>
      <trkpt lat="42.03563" lon="9.13711">
        <ele>1788.645874</ele>
        <time>2011-10-29T13:17:48Z</time>
      </trkpt>
      <trkpt lat="42.03559" lon="9.13714">
        <ele>1788.76001</ele>
        <time>2011-10-29T13:17:53Z</time>
      </trkpt>
      <trkpt lat="42.03556" lon="9.13717">
        <ele>1788.677246</ele>
        <time>2011-10-29T13:17:57Z</time>
      </trkpt>
      <trkpt lat="42.03553" lon="9.13722">
        <ele>1788.525757</ele>
        <time>2011-10-29T13:18:02Z</time>
      </trkpt>
      <trkpt lat="42.03553" lon="9.13727">
        <ele>1788.030029</ele>
        <time>2011-10-29T13:18:27Z</time>
      </trkpt>
      <trkpt lat="42.03552" lon="9.13733">
        <ele>1787.575684</ele>
        <time>2011-10-29T13:19:24Z</time>
      </trkpt>
      <trkpt lat="42.03552" lon="9.13733">
        <ele>1787.562988</ele>
        <time>2011-10-29T13:19:25Z</time>
      </trkpt>
      <trkpt lat="42.03547" lon="9.13733">
        <ele>1787.936279</ele>
        <time>2011-10-29T13:20:54Z</time>
      </trkpt>
      <trkpt lat="42.0354" lon="9.13734">
        <ele>1788.318115</ele>
        <time>2011-10-29T13:21:02Z</time>
      </trkpt>
      <trkpt lat="42.03536" lon="9.13737">
        <ele>1788.479736</ele>
        <time>2011-10-29T13:21:07Z</time>
      </trkpt>
      <trkpt lat="42.03533" lon="9.13739">
        <ele>1788.629028</ele>
        <time>2011-10-29T13:21:11Z</time>
      </trkpt>
      <trkpt lat="42.03529" lon="9.13742">
        <ele>1788.71814</ele>
        <time>2011-10-29T13:21:15Z</time>
      </trkpt>
      <trkpt lat="42.03527" lon="9.13746">
        <ele>1788.447021</ele>
        <time>2011-10-29T13:21:19Z</time>
      </trkpt>
      <trkpt lat="42.03524" lon="9.1375">
        <ele>1788.261475</ele>
        <time>2011-10-29T13:21:22Z</time>
      </trkpt>
      <trkpt lat="42.03522" lon="9.13755">
        <ele>1787.948975</ele>
        <time>2011-10-29T13:21:26Z</time>
      </trkpt>
      <trkpt lat="42.03519" lon="9.13759">
        <ele>1787.67041</ele>
        <time>2011-10-29T13:21:30Z</time>
      </trkpt>
      <trkpt lat="42.03516" lon="9.13763">
        <ele>1787.426758</ele>
        <time>2011-10-29T13:21:34Z</time>
      </trkpt>
      <trkpt lat="42.03513" lon="9.13767">
        <ele>1787.248413</ele>
        <time>2011-10-29T13:21:38Z</time>
      </trkpt>
      <trkpt lat="42.0351" lon="9.1377">
        <ele>1787.194946</ele>
        <time>2011-10-29T13:21:42Z</time>
      </trkpt>
      <trkpt lat="42.03507" lon="9.13772">
        <ele>1787.130859</ele>
        <time>2011-10-29T13:21:46Z</time>
      </trkpt>
      <trkpt lat="42.03504" lon="9.13776">
        <ele>1786.804688</ele>
        <time>2011-10-29T13:21:50Z</time>
      </trkpt>
      <trkpt lat="42.03501" lon="9.1378">
        <ele>1786.561035</ele>
        <time>2011-10-29T13:21:54Z</time>
      </trkpt>
      <trkpt lat="42.035" lon="9.13781">
        <ele>1786.457764</ele>
        <time>2011-10-29T13:21:55Z</time>
      </trkpt>
      <trkpt lat="42.03496" lon="9.13786">
        <ele>1786.338257</ele>
        <time>2011-10-29T13:22:00Z</time>
      </trkpt>
      <trkpt lat="42.03493" lon="9.13791">
        <ele>1786.169067</ele>
        <time>2011-10-29T13:22:04Z</time>
      </trkpt>
      <trkpt lat="42.03492" lon="9.13796">
        <ele>1785.83252</ele>
        <time>2011-10-29T13:22:08Z</time>
      </trkpt>
      <trkpt lat="42.03489" lon="9.13801">
        <ele>1785.837402</ele>
        <time>2011-10-29T13:22:12Z</time>
      </trkpt>
      <trkpt lat="42.03487" lon="9.13805">
        <ele>1785.857544</ele>
        <time>2011-10-29T13:22:15Z</time>
      </trkpt>
      <trkpt lat="42.03484" lon="9.13809">
        <ele>1785.947754</ele>
        <time>2011-10-29T13:22:18Z</time>
      </trkpt>
      <trkpt lat="42.03482" lon="9.13813">
        <ele>1786.078857</ele>
        <time>2011-10-29T13:22:21Z</time>
      </trkpt>
      <trkpt lat="42.03479" lon="9.13817">
        <ele>1786.174561</ele>
        <time>2011-10-29T13:22:24Z</time>
      </trkpt>
      <trkpt lat="42.03477" lon="9.13821">
        <ele>1786.168701</ele>
        <time>2011-10-29T13:22:27Z</time>
      </trkpt>
      <trkpt lat="42.03475" lon="9.13825">
        <ele>1786.079102</ele>
        <time>2011-10-29T13:22:30Z</time>
      </trkpt>
      <trkpt lat="42.03474" lon="9.13829">
        <ele>1785.971924</ele>
        <time>2011-10-29T13:22:33Z</time>
      </trkpt>
      <trkpt lat="42.03472" lon="9.13834">
        <ele>1785.901855</ele>
        <time>2011-10-29T13:22:36Z</time>
      </trkpt>
      <trkpt lat="42.03471" lon="9.13838">
        <ele>1785.757935</ele>
        <time>2011-10-29T13:22:39Z</time>
      </trkpt>
      <trkpt lat="42.03469" lon="9.13844">
        <ele>1785.712158</ele>
        <time>2011-10-29T13:22:42Z</time>
      </trkpt>
      <trkpt lat="42.03468" lon="9.13849">
        <ele>1785.552612</ele>
        <time>2011-10-29T13:22:45Z</time>
      </trkpt>
      <trkpt lat="42.03466" lon="9.13855">
        <ele>1785.411011</ele>
        <time>2011-10-29T13:22:48Z</time>
      </trkpt>
      <trkpt lat="42.03465" lon="9.13861">
        <ele>1785.295288</ele>
        <time>2011-10-29T13:22:51Z</time>
      </trkpt>
      <trkpt lat="42.03463" lon="9.13866">
        <ele>1785.247681</ele>
        <time>2011-10-29T13:22:54Z</time>
      </trkpt>
      <trkpt lat="42.03462" lon="9.13871">
        <ele>1785.187622</ele>
        <time>2011-10-29T13:22:57Z</time>
      </trkpt>
      <trkpt lat="42.03461" lon="9.13872">
        <ele>1785.140381</ele>
        <time>2011-10-29T13:22:58Z</time>
      </trkpt>
      <trkpt lat="42.0346" lon="9.1388">
        <ele>1784.891724</ele>
        <time>2011-10-29T13:23:03Z</time>
      </trkpt>
      <trkpt lat="42.03458" lon="9.13885">
        <ele>1784.767944</ele>
        <time>2011-10-29T13:23:06Z</time>
      </trkpt>
      <trkpt lat="42.03458" lon="9.1389">
        <ele>1784.482544</ele>
        <time>2011-10-29T13:23:10Z</time>
      </trkpt>
      <trkpt lat="42.03457" lon="9.13896">
        <ele>1784.218262</ele>
        <time>2011-10-29T13:23:15Z</time>
      </trkpt>
      <trkpt lat="42.03455" lon="9.139">
        <ele>1784.09021</ele>
        <time>2011-10-29T13:23:19Z</time>
      </trkpt>
      <trkpt lat="42.03455" lon="9.13906">
        <ele>1783.592041</ele>
        <time>2011-10-29T13:23:23Z</time>
      </trkpt>
      <trkpt lat="42.03454" lon="9.13911">
        <ele>1783.110107</ele>
        <time>2011-10-29T13:23:27Z</time>
      </trkpt>
      <trkpt lat="42.03452" lon="9.13916">
        <ele>1782.973145</ele>
        <time>2011-10-29T13:23:32Z</time>
      </trkpt>
      <trkpt lat="42.03447" lon="9.13922">
        <ele>1782.922241</ele>
        <time>2011-10-29T13:23:44Z</time>
      </trkpt>
      <trkpt lat="42.03443" lon="9.13923">
        <ele>1783.197021</ele>
        <time>2011-10-29T13:23:52Z</time>
      </trkpt>
      <trkpt lat="42.0344" lon="9.1392">
        <ele>1784.049072</ele>
        <time>2011-10-29T13:24:04Z</time>
      </trkpt>
      <trkpt lat="42.03439" lon="9.1392">
        <ele>1784.130005</ele>
        <time>2011-10-29T13:24:05Z</time>
      </trkpt>
      <trkpt lat="42.03435" lon="9.13915">
        <ele>1786.203735</ele>
        <time>2011-10-29T13:24:15Z</time>
      </trkpt>
      <trkpt lat="42.03431" lon="9.13917">
        <ele>1787.325806</ele>
        <time>2011-10-29T13:24:20Z</time>
      </trkpt>
      <trkpt lat="42.03427" lon="9.13918">
        <ele>1788.601807</ele>
        <time>2011-10-29T13:24:25Z</time>
      </trkpt>
      <trkpt lat="42.03423" lon="9.13918">
        <ele>1789.935181</ele>
        <time>2011-10-29T13:24:30Z</time>
      </trkpt>
      <trkpt lat="42.03419" lon="9.13917">
        <ele>1791.201416</ele>
        <time>2011-10-29T13:24:34Z</time>
      </trkpt>
      <trkpt lat="42.03415" lon="9.13918">
        <ele>1792.453125</ele>
        <time>2011-10-29T13:24:38Z</time>
      </trkpt>
      <trkpt lat="42.03411" lon="9.13919">
        <ele>1793.607666</ele>
        <time>2011-10-29T13:24:43Z</time>
      </trkpt>
      <trkpt lat="42.03407" lon="9.13919">
        <ele>1795.162354</ele>
        <time>2011-10-29T13:24:49Z</time>
      </trkpt>
      <trkpt lat="42.03403" lon="9.13918">
        <ele>1796.60144</ele>
        <time>2011-10-29T13:24:54Z</time>
      </trkpt>
      <trkpt lat="42.03399" lon="9.13917">
        <ele>1798.080933</ele>
        <time>2011-10-29T13:24:59Z</time>
      </trkpt>
      <trkpt lat="42.03395" lon="9.13915">
        <ele>1799.663086</ele>
        <time>2011-10-29T13:25:07Z</time>
      </trkpt>
      <trkpt lat="42.03394" lon="9.13914">
        <ele>1799.967896</ele>
        <time>2011-10-29T13:25:08Z</time>
      </trkpt>
      <trkpt lat="42.03385" lon="9.13916">
        <ele>1802.050171</ele>
        <time>2011-10-29T13:25:18Z</time>
      </trkpt>
      <trkpt lat="42.03381" lon="9.13916">
        <ele>1803.071655</ele>
        <time>2011-10-29T13:25:26Z</time>
      </trkpt>
      <trkpt lat="42.03378" lon="9.13917">
        <ele>1803.779053</ele>
        <time>2011-10-29T13:25:28Z</time>
      </trkpt>
      <trkpt lat="42.03374" lon="9.13918">
        <ele>1804.802734</ele>
        <time>2011-10-29T13:25:31Z</time>
      </trkpt>
      <trkpt lat="42.03371" lon="9.13914">
        <ele>1806.160156</ele>
        <time>2011-10-29T13:25:37Z</time>
      </trkpt>
      <trkpt lat="42.03368" lon="9.13911">
        <ele>1807.319946</ele>
        <time>2011-10-29T13:25:42Z</time>
      </trkpt>
      <trkpt lat="42.03364" lon="9.13912">
        <ele>1808.40332</ele>
        <time>2011-10-29T13:25:46Z</time>
      </trkpt>
      <trkpt lat="42.03362" lon="9.13908">
        <ele>1809.423828</ele>
        <time>2011-10-29T13:25:50Z</time>
      </trkpt>
      <trkpt lat="42.03359" lon="9.13907">
        <ele>1810.471436</ele>
        <time>2011-10-29T13:25:54Z</time>
      </trkpt>
      <trkpt lat="42.03355" lon="9.13906">
        <ele>1811.532471</ele>
        <time>2011-10-29T13:25:58Z</time>
      </trkpt>
      <trkpt lat="42.03351" lon="9.13905">
        <ele>1812.717285</ele>
        <time>2011-10-29T13:26:02Z</time>
      </trkpt>
      <trkpt lat="42.03348" lon="9.13905">
        <ele>1813.491821</ele>
        <time>2011-10-29T13:26:05Z</time>
      </trkpt>
      <trkpt lat="42.03343" lon="9.13905">
        <ele>1814.455933</ele>
        <time>2011-10-29T13:26:09Z</time>
      </trkpt>
      <trkpt lat="42.03342" lon="9.13906">
        <ele>1814.745239</ele>
        <time>2011-10-29T13:26:10Z</time>
      </trkpt>
      <trkpt lat="42.03335" lon="9.13907">
        <ele>1816.112305</ele>
        <time>2011-10-29T13:26:16Z</time>
      </trkpt>
      <trkpt lat="42.03331" lon="9.13907">
        <ele>1817.035767</ele>
        <time>2011-10-29T13:26:20Z</time>
      </trkpt>
      <trkpt lat="42.03327" lon="9.13906">
        <ele>1818.076538</ele>
        <time>2011-10-29T13:26:24Z</time>
      </trkpt>
      <trkpt lat="42.03323" lon="9.13903">
        <ele>1819.057129</ele>
        <time>2011-10-29T13:26:30Z</time>
      </trkpt>
      <trkpt lat="42.03319" lon="9.13903">
        <ele>1819.97583</ele>
        <time>2011-10-29T13:26:35Z</time>
      </trkpt>
      <trkpt lat="42.03315" lon="9.13906">
        <ele>1820.542725</ele>
        <time>2011-10-29T13:26:40Z</time>
      </trkpt>
      <trkpt lat="42.03312" lon="9.13909">
        <ele>1820.922119</ele>
        <time>2011-10-29T13:26:44Z</time>
      </trkpt>
      <trkpt lat="42.03308" lon="9.13912">
        <ele>1821.505859</ele>
        <time>2011-10-29T13:26:48Z</time>
      </trkpt>
      <trkpt lat="42.03305" lon="9.13914">
        <ele>1822.161133</ele>
        <time>2011-10-29T13:26:52Z</time>
      </trkpt>
      <trkpt lat="42.03302" lon="9.13916">
        <ele>1822.611938</ele>
        <time>2011-10-29T13:26:55Z</time>
      </trkpt>
      <trkpt lat="42.03298" lon="9.13918">
        <ele>1823.120239</ele>
        <time>2011-10-29T13:26:59Z</time>
      </trkpt>
      <trkpt lat="42.03295" lon="9.1392">
        <ele>1823.67749</ele>
        <time>2011-10-29T13:27:03Z</time>
      </trkpt>
      <trkpt lat="42.03291" lon="9.13922">
        <ele>1824.086914</ele>
        <time>2011-10-29T13:27:07Z</time>
      </trkpt>
      <trkpt lat="42.03287" lon="9.13925">
        <ele>1824.616943</ele>
        <time>2011-10-29T13:27:11Z</time>
      </trkpt>
      <trkpt lat="42.03287" lon="9.13926">
        <ele>1824.678711</ele>
        <time>2011-10-29T13:27:12Z</time>
      </trkpt>
      <trkpt lat="42.03281" lon="9.1393">
        <ele>1825.39917</ele>
        <time>2011-10-29T13:27:20Z</time>
      </trkpt>
      <trkpt lat="42.03277" lon="9.13931">
        <ele>1825.900391</ele>
        <time>2011-10-29T13:27:25Z</time>
      </trkpt>
      <trkpt lat="42.03273" lon="9.13931">
        <ele>1826.637695</ele>
        <time>2011-10-29T13:27:29Z</time>
      </trkpt>
      <trkpt lat="42.03269" lon="9.13933">
        <ele>1827.199341</ele>
        <time>2011-10-29T13:27:34Z</time>
      </trkpt>
      <trkpt lat="42.03265" lon="9.13932">
        <ele>1828.030029</ele>
        <time>2011-10-29T13:27:40Z</time>
      </trkpt>
      <trkpt lat="42.03261" lon="9.13933">
        <ele>1828.623169</ele>
        <time>2011-10-29T13:27:45Z</time>
      </trkpt>
      <trkpt lat="42.03257" lon="9.13934">
        <ele>1829.220337</ele>
        <time>2011-10-29T13:27:51Z</time>
      </trkpt>
      <trkpt lat="42.03253" lon="9.13936">
        <ele>1829.665161</ele>
        <time>2011-10-29T13:27:57Z</time>
      </trkpt>
      <trkpt lat="42.03249" lon="9.13937">
        <ele>1829.961548</ele>
        <time>2011-10-29T13:28:02Z</time>
      </trkpt>
      <trkpt lat="42.03245" lon="9.13938">
        <ele>1830.562378</ele>
        <time>2011-10-29T13:28:08Z</time>
      </trkpt>
      <trkpt lat="42.03241" lon="9.13937">
        <ele>1831.26062</ele>
        <time>2011-10-29T13:28:14Z</time>
      </trkpt>
      <trkpt lat="42.0324" lon="9.13937">
        <ele>1831.45752</ele>
        <time>2011-10-29T13:28:15Z</time>
      </trkpt>
      <trkpt lat="42.03232" lon="9.1394">
        <ele>1831.828003</ele>
        <time>2011-10-29T13:28:25Z</time>
      </trkpt>
      <trkpt lat="42.03228" lon="9.1394">
        <ele>1832.454346</ele>
        <time>2011-10-29T13:28:30Z</time>
      </trkpt>
      <trkpt lat="42.03225" lon="9.13941">
        <ele>1832.752686</ele>
        <time>2011-10-29T13:28:34Z</time>
      </trkpt>
      <trkpt lat="42.0322" lon="9.1394">
        <ele>1833.485107</ele>
        <time>2011-10-29T13:28:40Z</time>
      </trkpt>
      <trkpt lat="42.03217" lon="9.13942">
        <ele>1833.671631</ele>
        <time>2011-10-29T13:28:46Z</time>
      </trkpt>
      <trkpt lat="42.03213" lon="9.13941">
        <ele>1834.234619</ele>
        <time>2011-10-29T13:28:50Z</time>
      </trkpt>
      <trkpt lat="42.03209" lon="9.13939">
        <ele>1834.557251</ele>
        <time>2011-10-29T13:28:55Z</time>
      </trkpt>
      <trkpt lat="42.03206" lon="9.13937">
        <ele>1834.932983</ele>
        <time>2011-10-29T13:29:00Z</time>
      </trkpt>
      <trkpt lat="42.03202" lon="9.13934">
        <ele>1835.25</ele>
        <time>2011-10-29T13:29:06Z</time>
      </trkpt>
      <trkpt lat="42.03198" lon="9.13932">
        <ele>1835.552856</ele>
        <time>2011-10-29T13:29:11Z</time>
      </trkpt>
      <trkpt lat="42.03195" lon="9.13928">
        <ele>1836.47522</ele>
        <time>2011-10-29T13:29:16Z</time>
      </trkpt>
      <trkpt lat="42.03194" lon="9.13928">
        <ele>1836.538208</ele>
        <time>2011-10-29T13:29:17Z</time>
      </trkpt>
      <trkpt lat="42.03188" lon="9.13924">
        <ele>1837.11853</ele>
        <time>2011-10-29T13:29:24Z</time>
      </trkpt>
      <trkpt lat="42.03185" lon="9.1392">
        <ele>1837.806885</ele>
        <time>2011-10-29T13:29:29Z</time>
      </trkpt>
      <trkpt lat="42.03183" lon="9.13917">
        <ele>1838.505005</ele>
        <time>2011-10-29T13:29:32Z</time>
      </trkpt>
      <trkpt lat="42.0318" lon="9.13914">
        <ele>1839.236084</ele>
        <time>2011-10-29T13:29:35Z</time>
      </trkpt>
      <trkpt lat="42.03177" lon="9.1391">
        <ele>1840.202393</ele>
        <time>2011-10-29T13:29:39Z</time>
      </trkpt>
      <trkpt lat="42.03176" lon="9.13905">
        <ele>1841.523193</ele>
        <time>2011-10-29T13:29:43Z</time>
      </trkpt>
      <trkpt lat="42.03173" lon="9.13901">
        <ele>1842.556274</ele>
        <time>2011-10-29T13:29:47Z</time>
      </trkpt>
      <trkpt lat="42.0317" lon="9.13898">
        <ele>1843.432983</ele>
        <time>2011-10-29T13:29:51Z</time>
      </trkpt>
      <trkpt lat="42.03167" lon="9.13894">
        <ele>1843.989136</ele>
        <time>2011-10-29T13:29:55Z</time>
      </trkpt>
      <trkpt lat="42.03164" lon="9.13891">
        <ele>1844.559448</ele>
        <time>2011-10-29T13:29:59Z</time>
      </trkpt>
      <trkpt lat="42.03161" lon="9.13887">
        <ele>1845.207275</ele>
        <time>2011-10-29T13:30:04Z</time>
      </trkpt>
      <trkpt lat="42.03159" lon="9.13882">
        <ele>1846.272461</ele>
        <time>2011-10-29T13:30:08Z</time>
      </trkpt>
      <trkpt lat="42.03155" lon="9.13879">
        <ele>1846.719971</ele>
        <time>2011-10-29T13:30:14Z</time>
      </trkpt>
      <trkpt lat="42.03152" lon="9.13876">
        <ele>1847.082886</ele>
        <time>2011-10-29T13:30:19Z</time>
      </trkpt>
      <trkpt lat="42.03151" lon="9.13875">
        <ele>1847.228638</ele>
        <time>2011-10-29T13:30:20Z</time>
      </trkpt>
      <trkpt lat="42.03147" lon="9.13868">
        <ele>1848.756226</ele>
        <time>2011-10-29T13:30:29Z</time>
      </trkpt>
      <trkpt lat="42.03144" lon="9.13865">
        <ele>1849.114746</ele>
        <time>2011-10-29T13:30:34Z</time>
      </trkpt>
      <trkpt lat="42.0314" lon="9.13862">
        <ele>1849.771362</ele>
        <time>2011-10-29T13:30:39Z</time>
      </trkpt>
      <trkpt lat="42.03138" lon="9.13858">
        <ele>1850.894531</ele>
        <time>2011-10-29T13:30:43Z</time>
      </trkpt>
      <trkpt lat="42.03136" lon="9.13855">
        <ele>1851.835083</ele>
        <time>2011-10-29T13:30:47Z</time>
      </trkpt>
      <trkpt lat="42.03132" lon="9.13851">
        <ele>1852.658447</ele>
        <time>2011-10-29T13:30:52Z</time>
      </trkpt>
      <trkpt lat="42.03129" lon="9.13848">
        <ele>1853.648315</ele>
        <time>2011-10-29T13:30:57Z</time>
      </trkpt>
      <trkpt lat="42.03125" lon="9.13846">
        <ele>1854.70166</ele>
        <time>2011-10-29T13:31:02Z</time>
      </trkpt>
      <trkpt lat="42.03121" lon="9.13844">
        <ele>1855.900635</ele>
        <time>2011-10-29T13:31:07Z</time>
      </trkpt>
      <trkpt lat="42.03117" lon="9.13842">
        <ele>1856.879028</ele>
        <time>2011-10-29T13:31:12Z</time>
      </trkpt>
      <trkpt lat="42.03114" lon="9.13839">
        <ele>1858.003662</ele>
        <time>2011-10-29T13:31:17Z</time>
      </trkpt>
      <trkpt lat="42.0311" lon="9.13837">
        <ele>1858.924194</ele>
        <time>2011-10-29T13:31:21Z</time>
      </trkpt>
      <trkpt lat="42.0311" lon="9.13838">
        <ele>1858.81665</ele>
        <time>2011-10-29T13:31:22Z</time>
      </trkpt>
      <trkpt lat="42.03103" lon="9.13834">
        <ele>1860.447998</ele>
        <time>2011-10-29T13:31:31Z</time>
      </trkpt>
      <trkpt lat="42.03099" lon="9.13832">
        <ele>1861.622437</ele>
        <time>2011-10-29T13:31:36Z</time>
      </trkpt>
      <trkpt lat="42.03095" lon="9.1383">
        <ele>1862.531372</ele>
        <time>2011-10-29T13:31:42Z</time>
      </trkpt>
      <trkpt lat="42.03091" lon="9.13829">
        <ele>1862.819214</ele>
        <time>2011-10-29T13:31:47Z</time>
      </trkpt>
      <trkpt lat="42.03088" lon="9.13826">
        <ele>1864.180054</ele>
        <time>2011-10-29T13:31:53Z</time>
      </trkpt>
      <trkpt lat="42.03084" lon="9.13827">
        <ele>1864.369263</ele>
        <time>2011-10-29T13:31:58Z</time>
      </trkpt>
      <trkpt lat="42.0308" lon="9.13827">
        <ele>1865.184448</ele>
        <time>2011-10-29T13:32:04Z</time>
      </trkpt>
      <trkpt lat="42.03075" lon="9.13828">
        <ele>1866.032715</ele>
        <time>2011-10-29T13:32:11Z</time>
      </trkpt>
      <trkpt lat="42.03072" lon="9.13829">
        <ele>1866.362793</ele>
        <time>2011-10-29T13:32:16Z</time>
      </trkpt>
      <trkpt lat="42.03068" lon="9.13831">
        <ele>1866.616089</ele>
        <time>2011-10-29T13:32:20Z</time>
      </trkpt>
      <trkpt lat="42.03064" lon="9.13833">
        <ele>1866.811157</ele>
        <time>2011-10-29T13:32:26Z</time>
      </trkpt>
      <trkpt lat="42.03063" lon="9.13833">
        <ele>1866.923462</ele>
        <time>2011-10-29T13:32:27Z</time>
      </trkpt>
      <trkpt lat="42.03057" lon="9.13838">
        <ele>1866.661255</ele>
        <time>2011-10-29T13:32:36Z</time>
      </trkpt>
      <trkpt lat="42.03054" lon="9.13841">
        <ele>1865.676147</ele>
        <time>2011-10-29T13:32:41Z</time>
      </trkpt>
      <trkpt lat="42.03051" lon="9.13843">
        <ele>1865.470093</ele>
        <time>2011-10-29T13:32:45Z</time>
      </trkpt>
      <trkpt lat="42.03047" lon="9.13845">
        <ele>1865.865356</ele>
        <time>2011-10-29T13:32:49Z</time>
      </trkpt>
      <trkpt lat="42.03043" lon="9.13846">
        <ele>1866.208008</ele>
        <time>2011-10-29T13:32:53Z</time>
      </trkpt>
      <trkpt lat="42.03039" lon="9.13846">
        <ele>1867.300049</ele>
        <time>2011-10-29T13:32:58Z</time>
      </trkpt>
      <trkpt lat="42.03034" lon="9.13846">
        <ele>1867.855957</ele>
        <time>2011-10-29T13:33:03Z</time>
      </trkpt>
      <trkpt lat="42.0303" lon="9.13846">
        <ele>1868.389648</ele>
        <time>2011-10-29T13:33:07Z</time>
      </trkpt>
      <trkpt lat="42.03026" lon="9.13845">
        <ele>1869.26355</ele>
        <time>2011-10-29T13:33:11Z</time>
      </trkpt>
      <trkpt lat="42.03022" lon="9.13845">
        <ele>1869.804688</ele>
        <time>2011-10-29T13:33:16Z</time>
      </trkpt>
      <trkpt lat="42.03018" lon="9.13843">
        <ele>1871.092529</ele>
        <time>2011-10-29T13:33:21Z</time>
      </trkpt>
      <trkpt lat="42.03014" lon="9.13843">
        <ele>1871.64856</ele>
        <time>2011-10-29T13:33:25Z</time>
      </trkpt>
      <trkpt lat="42.0301" lon="9.13843">
        <ele>1872.517578</ele>
        <time>2011-10-29T13:33:30Z</time>
      </trkpt>
      <trkpt lat="42.03009" lon="9.13843">
        <ele>1872.701782</ele>
        <time>2011-10-29T13:33:31Z</time>
      </trkpt>
      <trkpt lat="42.03002" lon="9.13843">
        <ele>1873.271729</ele>
        <time>2011-10-29T13:33:39Z</time>
      </trkpt>
      <trkpt lat="42.02999" lon="9.13842">
        <ele>1874.101074</ele>
        <time>2011-10-29T13:33:43Z</time>
      </trkpt>
      <trkpt lat="42.02995" lon="9.13842">
        <ele>1874.962036</ele>
        <time>2011-10-29T13:33:47Z</time>
      </trkpt>
      <trkpt lat="42.0299" lon="9.13842">
        <ele>1875.862061</ele>
        <time>2011-10-29T13:33:52Z</time>
      </trkpt>
      <trkpt lat="42.02986" lon="9.13842">
        <ele>1876.603394</ele>
        <time>2011-10-29T13:33:57Z</time>
      </trkpt>
      <trkpt lat="42.02983" lon="9.13843">
        <ele>1877.142456</ele>
        <time>2011-10-29T13:34:02Z</time>
      </trkpt>
      <trkpt lat="42.02978" lon="9.13845">
        <ele>1877.552124</ele>
        <time>2011-10-29T13:34:08Z</time>
      </trkpt>
      <trkpt lat="42.02975" lon="9.13847">
        <ele>1877.869263</ele>
        <time>2011-10-29T13:34:12Z</time>
      </trkpt>
      <trkpt lat="42.02972" lon="9.1385">
        <ele>1877.774414</ele>
        <time>2011-10-29T13:34:16Z</time>
      </trkpt>
      <trkpt lat="42.02968" lon="9.1385">
        <ele>1878.69458</ele>
        <time>2011-10-29T13:34:22Z</time>
      </trkpt>
      <trkpt lat="42.02964" lon="9.13849">
        <ele>1880.380493</ele>
        <time>2011-10-29T13:34:28Z</time>
      </trkpt>
      <trkpt lat="42.02959" lon="9.1385">
        <ele>1881.137939</ele>
        <time>2011-10-29T13:34:35Z</time>
      </trkpt>
      <trkpt lat="42.02959" lon="9.1385">
        <ele>1881.317139</ele>
        <time>2011-10-29T13:34:36Z</time>
      </trkpt>
      <trkpt lat="42.02951" lon="9.13851">
        <ele>1883.078369</ele>
        <time>2011-10-29T13:34:48Z</time>
      </trkpt>
      <trkpt lat="42.02947" lon="9.13851">
        <ele>1884.362305</ele>
        <time>2011-10-29T13:34:56Z</time>
      </trkpt>
      <trkpt lat="42.02943" lon="9.13849">
        <ele>1886.155396</ele>
        <time>2011-10-29T13:35:03Z</time>
      </trkpt>
      <trkpt lat="42.02939" lon="9.13849">
        <ele>1887.42981</ele>
        <time>2011-10-29T13:35:10Z</time>
      </trkpt>
      <trkpt lat="42.02935" lon="9.13847">
        <ele>1889.086914</ele>
        <time>2011-10-29T13:35:17Z</time>
      </trkpt>
      <trkpt lat="42.02931" lon="9.13847">
        <ele>1890.342773</ele>
        <time>2011-10-29T13:35:23Z</time>
      </trkpt>
      <trkpt lat="42.02927" lon="9.13847">
        <ele>1891.781982</ele>
        <time>2011-10-29T13:35:30Z</time>
      </trkpt>
      <trkpt lat="42.02923" lon="9.13846">
        <ele>1893.03125</ele>
        <time>2011-10-29T13:35:35Z</time>
      </trkpt>
      <trkpt lat="42.02919" lon="9.13847">
        <ele>1894.001709</ele>
        <time>2011-10-29T13:35:42Z</time>
      </trkpt>
      <trkpt lat="42.02918" lon="9.13847">
        <ele>1894.186157</ele>
        <time>2011-10-29T13:35:43Z</time>
      </trkpt>
      <trkpt lat="42.02913" lon="9.13843">
        <ele>1897.347534</ele>
        <time>2011-10-29T13:35:55Z</time>
      </trkpt>
      <trkpt lat="42.0291" lon="9.13839">
        <ele>1899.528198</ele>
        <time>2011-10-29T13:36:04Z</time>
      </trkpt>
      <trkpt lat="42.02905" lon="9.1384">
        <ele>1900.622803</ele>
        <time>2011-10-29T13:36:09Z</time>
      </trkpt>
      <trkpt lat="42.02902" lon="9.13839">
        <ele>1901.518921</ele>
        <time>2011-10-29T13:36:14Z</time>
      </trkpt>
      <trkpt lat="42.02897" lon="9.13838">
        <ele>1902.513916</ele>
        <time>2011-10-29T13:36:19Z</time>
      </trkpt>
      <trkpt lat="42.02895" lon="9.13834">
        <ele>1904.245728</ele>
        <time>2011-10-29T13:36:25Z</time>
      </trkpt>
      <trkpt lat="42.02891" lon="9.13831">
        <ele>1905.446411</ele>
        <time>2011-10-29T13:36:33Z</time>
      </trkpt>
      <trkpt lat="42.02887" lon="9.13831">
        <ele>1906.333862</ele>
        <time>2011-10-29T13:36:37Z</time>
      </trkpt>
      <trkpt lat="42.02883" lon="9.1383">
        <ele>1907.276001</ele>
        <time>2011-10-29T13:36:43Z</time>
      </trkpt>
      <trkpt lat="42.02882" lon="9.1383">
        <ele>1907.342529</ele>
        <time>2011-10-29T13:36:44Z</time>
      </trkpt>
      <trkpt lat="42.02877" lon="9.13823">
        <ele>1910.371948</ele>
        <time>2011-10-29T13:36:59Z</time>
      </trkpt>
      <trkpt lat="42.02874" lon="9.1382">
        <ele>1911.963501</ele>
        <time>2011-10-29T13:37:06Z</time>
      </trkpt>
      <trkpt lat="42.0287" lon="9.13818">
        <ele>1913.40564</ele>
        <time>2011-10-29T13:37:13Z</time>
      </trkpt>
      <trkpt lat="42.02866" lon="9.13815">
        <ele>1914.997192</ele>
        <time>2011-10-29T13:37:21Z</time>
      </trkpt>
      <trkpt lat="42.02863" lon="9.13811">
        <ele>1916.808105</ele>
        <time>2011-10-29T13:37:30Z</time>
      </trkpt>
      <trkpt lat="42.02858" lon="9.13809">
        <ele>1918.093506</ele>
        <time>2011-10-29T13:37:38Z</time>
      </trkpt>
      <trkpt lat="42.02855" lon="9.13806">
        <ele>1919.802979</ele>
        <time>2011-10-29T13:37:45Z</time>
      </trkpt>
      <trkpt lat="42.02854" lon="9.13806">
        <ele>1920.079346</ele>
        <time>2011-10-29T13:37:46Z</time>
      </trkpt>
      <trkpt lat="42.02847" lon="9.13805">
        <ele>1921.182007</ele>
        <time>2011-10-29T13:37:58Z</time>
      </trkpt>
      <trkpt lat="42.02843" lon="9.13803">
        <ele>1922.53479</ele>
        <time>2011-10-29T13:38:05Z</time>
      </trkpt>
      <trkpt lat="42.02839" lon="9.138">
        <ele>1923.930908</ele>
        <time>2011-10-29T13:38:12Z</time>
      </trkpt>
      <trkpt lat="42.02834" lon="9.13799">
        <ele>1924.86145</ele>
        <time>2011-10-29T13:38:18Z</time>
      </trkpt>
      <trkpt lat="42.02831" lon="9.13799">
        <ele>1925.304199</ele>
        <time>2011-10-29T13:38:22Z</time>
      </trkpt>
      <trkpt lat="42.02827" lon="9.138">
        <ele>1925.611816</ele>
        <time>2011-10-29T13:38:26Z</time>
      </trkpt>
      <trkpt lat="42.02823" lon="9.13797">
        <ele>1927.154175</ele>
        <time>2011-10-29T13:38:31Z</time>
      </trkpt>
      <trkpt lat="42.02819" lon="9.13796">
        <ele>1927.862793</ele>
        <time>2011-10-29T13:38:36Z</time>
      </trkpt>
      <trkpt lat="42.02815" lon="9.13796">
        <ele>1928.598389</ele>
        <time>2011-10-29T13:38:41Z</time>
      </trkpt>
      <trkpt lat="42.02811" lon="9.13795">
        <ele>1929.36792</ele>
        <time>2011-10-29T13:38:46Z</time>
      </trkpt>
      <trkpt lat="42.0281" lon="9.13796">
        <ele>1929.420898</ele>
        <time>2011-10-29T13:38:47Z</time>
      </trkpt>
      <trkpt lat="42.02802" lon="9.13794">
        <ele>1930.999146</ele>
        <time>2011-10-29T13:38:58Z</time>
      </trkpt>
      <trkpt lat="42.02798" lon="9.13795">
        <ele>1931.315308</ele>
        <time>2011-10-29T13:39:04Z</time>
      </trkpt>
      <trkpt lat="42.02794" lon="9.13796">
        <ele>1931.767578</ele>
        <time>2011-10-29T13:39:10Z</time>
      </trkpt>
      <trkpt lat="42.0279" lon="9.13797">
        <ele>1932.016602</ele>
        <time>2011-10-29T13:39:18Z</time>
      </trkpt>
      <trkpt lat="42.02786" lon="9.13796">
        <ele>1933.135254</ele>
        <time>2011-10-29T13:39:25Z</time>
      </trkpt>
      <trkpt lat="42.02782" lon="9.13798">
        <ele>1933.279053</ele>
        <time>2011-10-29T13:39:33Z</time>
      </trkpt>
      <trkpt lat="42.02778" lon="9.13801">
        <ele>1933.240845</ele>
        <time>2011-10-29T13:39:38Z</time>
      </trkpt>
      <trkpt lat="42.02775" lon="9.13802">
        <ele>1933.806274</ele>
        <time>2011-10-29T13:39:42Z</time>
      </trkpt>
      <trkpt lat="42.0277" lon="9.13803">
        <ele>1934.473389</ele>
        <time>2011-10-29T13:39:47Z</time>
      </trkpt>
      <trkpt lat="42.02769" lon="9.13803">
        <ele>1934.669067</ele>
        <time>2011-10-29T13:39:48Z</time>
      </trkpt>
      <trkpt lat="42.02765" lon="9.13798">
        <ele>1936.696167</ele>
        <time>2011-10-29T13:40:00Z</time>
      </trkpt>
      <trkpt lat="42.02767" lon="9.13793">
        <ele>1937.266357</ele>
        <time>2011-10-29T13:40:06Z</time>
      </trkpt>
      <trkpt lat="42.02766" lon="9.13788">
        <ele>1938.535522</ele>
        <time>2011-10-29T13:40:12Z</time>
      </trkpt>
      <trkpt lat="42.02769" lon="9.13783">
        <ele>1939.013062</ele>
        <time>2011-10-29T13:40:18Z</time>
      </trkpt>
      <trkpt lat="42.0277" lon="9.13778">
        <ele>1939.970093</ele>
        <time>2011-10-29T13:40:23Z</time>
      </trkpt>
      <trkpt lat="42.02767" lon="9.13775">
        <ele>1940.879639</ele>
        <time>2011-10-29T13:40:28Z</time>
      </trkpt>
      <trkpt lat="42.02766" lon="9.1377">
        <ele>1941.860596</ele>
        <time>2011-10-29T13:40:33Z</time>
      </trkpt>
      <trkpt lat="42.02764" lon="9.13764">
        <ele>1942.779663</ele>
        <time>2011-10-29T13:40:39Z</time>
      </trkpt>
      <trkpt lat="42.0276" lon="9.13764">
        <ele>1942.984009</ele>
        <time>2011-10-29T13:40:45Z</time>
      </trkpt>
      <trkpt lat="42.02756" lon="9.13763">
        <ele>1943.245728</ele>
        <time>2011-10-29T13:40:52Z</time>
      </trkpt>
      <trkpt lat="42.02755" lon="9.13763">
        <ele>1943.291748</ele>
        <time>2011-10-29T13:40:53Z</time>
      </trkpt>
      <trkpt lat="42.02748" lon="9.13762">
        <ele>1943.602783</ele>
        <time>2011-10-29T13:41:02Z</time>
      </trkpt>
      <trkpt lat="42.02744" lon="9.13762">
        <ele>1943.794678</ele>
        <time>2011-10-29T13:41:07Z</time>
      </trkpt>
      <trkpt lat="42.0274" lon="9.13762">
        <ele>1943.969849</ele>
        <time>2011-10-29T13:41:11Z</time>
      </trkpt>
      <trkpt lat="42.02736" lon="9.13764">
        <ele>1944.24231</ele>
        <time>2011-10-29T13:41:17Z</time>
      </trkpt>
      <trkpt lat="42.02732" lon="9.13764">
        <ele>1944.512817</ele>
        <time>2011-10-29T13:41:22Z</time>
      </trkpt>
      <trkpt lat="42.02728" lon="9.13765">
        <ele>1944.716797</ele>
        <time>2011-10-29T13:41:29Z</time>
      </trkpt>
      <trkpt lat="42.02724" lon="9.13765">
        <ele>1944.275024</ele>
        <time>2011-10-29T13:41:33Z</time>
      </trkpt>
      <trkpt lat="42.0272" lon="9.13767">
        <ele>1944.108521</ele>
        <time>2011-10-29T13:41:38Z</time>
      </trkpt>
      <trkpt lat="42.02716" lon="9.13768">
        <ele>1943.984009</ele>
        <time>2011-10-29T13:41:42Z</time>
      </trkpt>
      <trkpt lat="42.02712" lon="9.13769">
        <ele>1943.890991</ele>
        <time>2011-10-29T13:41:46Z</time>
      </trkpt>
      <trkpt lat="42.02707" lon="9.13771">
        <ele>1943.913086</ele>
        <time>2011-10-29T13:41:50Z</time>
      </trkpt>
      <trkpt lat="42.02703" lon="9.1377">
        <ele>1943.659546</ele>
        <time>2011-10-29T13:41:54Z</time>
      </trkpt>
      <trkpt lat="42.02702" lon="9.13771">
        <ele>1943.721069</ele>
        <time>2011-10-29T13:41:55Z</time>
      </trkpt>
      <trkpt lat="42.02696" lon="9.13774">
        <ele>1944.490234</ele>
        <time>2011-10-29T13:42:03Z</time>
      </trkpt>
      <trkpt lat="42.02693" lon="9.13775">
        <ele>1944.916504</ele>
        <time>2011-10-29T13:42:06Z</time>
      </trkpt>
      <trkpt lat="42.02689" lon="9.13776">
        <ele>1945.311035</ele>
        <time>2011-10-29T13:42:09Z</time>
      </trkpt>
      <trkpt lat="42.02685" lon="9.13779">
        <ele>1946.682495</ele>
        <time>2011-10-29T13:42:13Z</time>
      </trkpt>
      <trkpt lat="42.02681" lon="9.13781">
        <ele>1947.195801</ele>
        <time>2011-10-29T13:42:17Z</time>
      </trkpt>
      <trkpt lat="42.02677" lon="9.13782">
        <ele>1947.310913</ele>
        <time>2011-10-29T13:42:21Z</time>
      </trkpt>
      <trkpt lat="42.02674" lon="9.13784">
        <ele>1947.337524</ele>
        <time>2011-10-29T13:42:25Z</time>
      </trkpt>
      <trkpt lat="42.02671" lon="9.13787">
        <ele>1948.178101</ele>
        <time>2011-10-29T13:42:29Z</time>
      </trkpt>
      <trkpt lat="42.02667" lon="9.13788">
        <ele>1948.227417</ele>
        <time>2011-10-29T13:42:33Z</time>
      </trkpt>
      <trkpt lat="42.02664" lon="9.1379">
        <ele>1948.309448</ele>
        <time>2011-10-29T13:42:36Z</time>
      </trkpt>
      <trkpt lat="42.0266" lon="9.13791">
        <ele>1948.418213</ele>
        <time>2011-10-29T13:42:39Z</time>
      </trkpt>
      <trkpt lat="42.02656" lon="9.13792">
        <ele>1948.412231</ele>
        <time>2011-10-29T13:42:42Z</time>
      </trkpt>
      <trkpt lat="42.02653" lon="9.13793">
        <ele>1948.181885</ele>
        <time>2011-10-29T13:42:45Z</time>
      </trkpt>
      <trkpt lat="42.02649" lon="9.13793">
        <ele>1947.895508</ele>
        <time>2011-10-29T13:42:49Z</time>
      </trkpt>
      <trkpt lat="42.02645" lon="9.13795">
        <ele>1948.234985</ele>
        <time>2011-10-29T13:42:54Z</time>
      </trkpt>
      <trkpt lat="42.02641" lon="9.13795">
        <ele>1947.701294</ele>
        <time>2011-10-29T13:42:57Z</time>
      </trkpt>
      <trkpt lat="42.0264" lon="9.13796">
        <ele>1947.75647</ele>
        <time>2011-10-29T13:42:58Z</time>
      </trkpt>
      <trkpt lat="42.02634" lon="9.13798">
        <ele>1948.171265</ele>
        <time>2011-10-29T13:43:03Z</time>
      </trkpt>
      <trkpt lat="42.0263" lon="9.138">
        <ele>1948.772461</ele>
        <time>2011-10-29T13:43:06Z</time>
      </trkpt>
      <trkpt lat="42.02627" lon="9.13801">
        <ele>1949.150024</ele>
        <time>2011-10-29T13:43:09Z</time>
      </trkpt>
      <trkpt lat="42.02623" lon="9.13803">
        <ele>1949.441772</ele>
        <time>2011-10-29T13:43:12Z</time>
      </trkpt>
      <trkpt lat="42.02619" lon="9.13806">
        <ele>1949.733154</ele>
        <time>2011-10-29T13:43:15Z</time>
      </trkpt>
      <trkpt lat="42.02616" lon="9.13807">
        <ele>1949.864868</ele>
        <time>2011-10-29T13:43:18Z</time>
      </trkpt>
      <trkpt lat="42.02612" lon="9.13808">
        <ele>1950.00647</ele>
        <time>2011-10-29T13:43:21Z</time>
      </trkpt>
      <trkpt lat="42.02608" lon="9.1381">
        <ele>1950.206909</ele>
        <time>2011-10-29T13:43:25Z</time>
      </trkpt>
      <trkpt lat="42.02604" lon="9.13812">
        <ele>1950.553223</ele>
        <time>2011-10-29T13:43:29Z</time>
      </trkpt>
      <trkpt lat="42.026" lon="9.13813">
        <ele>1950.64502</ele>
        <time>2011-10-29T13:43:34Z</time>
      </trkpt>
      <trkpt lat="42.02596" lon="9.13813">
        <ele>1950.530029</ele>
        <time>2011-10-29T13:43:38Z</time>
      </trkpt>
      <trkpt lat="42.02592" lon="9.13812">
        <ele>1950.001221</ele>
        <time>2011-10-29T13:43:43Z</time>
      </trkpt>
      <trkpt lat="42.02588" lon="9.13811">
        <ele>1949.900757</ele>
        <time>2011-10-29T13:43:47Z</time>
      </trkpt>
      <trkpt lat="42.02585" lon="9.1381">
        <ele>1949.645264</ele>
        <time>2011-10-29T13:43:50Z</time>
      </trkpt>
      <trkpt lat="42.02581" lon="9.1381">
        <ele>1949.503784</ele>
        <time>2011-10-29T13:43:53Z</time>
      </trkpt>
      <trkpt lat="42.02577" lon="9.13811">
        <ele>1949.863647</ele>
        <time>2011-10-29T13:43:57Z</time>
      </trkpt>
      <trkpt lat="42.02573" lon="9.13811">
        <ele>1949.79834</ele>
        <time>2011-10-29T13:44:00Z</time>
      </trkpt>
      <trkpt lat="42.02572" lon="9.13811">
        <ele>1949.766602</ele>
        <time>2011-10-29T13:44:01Z</time>
      </trkpt>
      <trkpt lat="42.02566" lon="9.13811">
        <ele>1949.776001</ele>
        <time>2011-10-29T13:44:06Z</time>
      </trkpt>
      <trkpt lat="42.02562" lon="9.1381">
        <ele>1949.484619</ele>
        <time>2011-10-29T13:44:09Z</time>
      </trkpt>
      <trkpt lat="42.02558" lon="9.13808">
        <ele>1949.182617</ele>
        <time>2011-10-29T13:44:12Z</time>
      </trkpt>
      <trkpt lat="42.02555" lon="9.13807">
        <ele>1948.927124</ele>
        <time>2011-10-29T13:44:15Z</time>
      </trkpt>
      <trkpt lat="42.02551" lon="9.13807">
        <ele>1948.818237</ele>
        <time>2011-10-29T13:44:18Z</time>
      </trkpt>
      <trkpt lat="42.02547" lon="9.13806">
        <ele>1948.599609</ele>
        <time>2011-10-29T13:44:22Z</time>
      </trkpt>
      <trkpt lat="42.02543" lon="9.13807">
        <ele>1948.915894</ele>
        <time>2011-10-29T13:44:25Z</time>
      </trkpt>
      <trkpt lat="42.02539" lon="9.13806">
        <ele>1949.046387</ele>
        <time>2011-10-29T13:44:29Z</time>
      </trkpt>
      <trkpt lat="42.02535" lon="9.13806">
        <ele>1949.102539</ele>
        <time>2011-10-29T13:44:33Z</time>
      </trkpt>
      <trkpt lat="42.02531" lon="9.13805">
        <ele>1949.045776</ele>
        <time>2011-10-29T13:44:36Z</time>
      </trkpt>
      <trkpt lat="42.02527" lon="9.13803">
        <ele>1948.773193</ele>
        <time>2011-10-29T13:44:41Z</time>
      </trkpt>
      <trkpt lat="42.02523" lon="9.13801">
        <ele>1948.611938</ele>
        <time>2011-10-29T13:44:46Z</time>
      </trkpt>
      <trkpt lat="42.02519" lon="9.13799">
        <ele>1948.411499</ele>
        <time>2011-10-29T13:44:53Z</time>
      </trkpt>
      <trkpt lat="42.02515" lon="9.13796">
        <ele>1947.998169</ele>
        <time>2011-10-29T13:44:57Z</time>
      </trkpt>
      <trkpt lat="42.02511" lon="9.13795">
        <ele>1947.98938</ele>
        <time>2011-10-29T13:45:03Z</time>
      </trkpt>
      <trkpt lat="42.02511" lon="9.13795">
        <ele>1948.03418</ele>
        <time>2011-10-29T13:45:04Z</time>
      </trkpt>
      <trkpt lat="42.02504" lon="9.13791">
        <ele>1947.768066</ele>
        <time>2011-10-29T13:45:13Z</time>
      </trkpt>
      <trkpt lat="42.025" lon="9.13791">
        <ele>1947.808594</ele>
        <time>2011-10-29T13:45:18Z</time>
      </trkpt>
      <trkpt lat="42.02496" lon="9.13789">
        <ele>1947.221802</ele>
        <time>2011-10-29T13:45:23Z</time>
      </trkpt>
      <trkpt lat="42.02492" lon="9.13788">
        <ele>1946.77124</ele>
        <time>2011-10-29T13:45:27Z</time>
      </trkpt>
      <trkpt lat="42.02488" lon="9.13787">
        <ele>1946.429932</ele>
        <time>2011-10-29T13:45:30Z</time>
      </trkpt>
      <trkpt lat="42.02484" lon="9.13785">
        <ele>1945.903809</ele>
        <time>2011-10-29T13:45:35Z</time>
      </trkpt>
      <trkpt lat="42.0248" lon="9.13784">
        <ele>1945.55249</ele>
        <time>2011-10-29T13:45:38Z</time>
      </trkpt>
      <trkpt lat="42.02476" lon="9.13783">
        <ele>1945.056641</ele>
        <time>2011-10-29T13:45:42Z</time>
      </trkpt>
      <trkpt lat="42.02473" lon="9.13784">
        <ele>1945.178589</ele>
        <time>2011-10-29T13:45:45Z</time>
      </trkpt>
      <trkpt lat="42.02468" lon="9.13784">
        <ele>1945.142212</ele>
        <time>2011-10-29T13:45:49Z</time>
      </trkpt>
      <trkpt lat="42.02464" lon="9.13784">
        <ele>1944.961182</ele>
        <time>2011-10-29T13:45:53Z</time>
      </trkpt>
      <trkpt lat="42.0246" lon="9.13785">
        <ele>1944.917969</ele>
        <time>2011-10-29T13:45:57Z</time>
      </trkpt>
      <trkpt lat="42.02456" lon="9.13787">
        <ele>1945.184448</ele>
        <time>2011-10-29T13:46:02Z</time>
      </trkpt>
      <trkpt lat="42.02452" lon="9.13788">
        <ele>1944.62793</ele>
        <time>2011-10-29T13:46:08Z</time>
      </trkpt>
      <trkpt lat="42.02451" lon="9.13788">
        <ele>1944.499756</ele>
        <time>2011-10-29T13:46:09Z</time>
      </trkpt>
      <trkpt lat="42.02444" lon="9.13788">
        <ele>1943.234253</ele>
        <time>2011-10-29T13:46:29Z</time>
      </trkpt>
      <trkpt lat="42.02439" lon="9.13789">
        <ele>1942.961792</ele>
        <time>2011-10-29T13:46:37Z</time>
      </trkpt>
      <trkpt lat="42.02436" lon="9.13792">
        <ele>1943.089111</ele>
        <time>2011-10-29T13:46:41Z</time>
      </trkpt>
      <trkpt lat="42.02432" lon="9.13794">
        <ele>1942.953369</ele>
        <time>2011-10-29T13:46:48Z</time>
      </trkpt>
      <trkpt lat="42.02428" lon="9.13795">
        <ele>1942.78186</ele>
        <time>2011-10-29T13:46:53Z</time>
      </trkpt>
      <trkpt lat="42.02425" lon="9.13798">
        <ele>1943.048584</ele>
        <time>2011-10-29T13:46:56Z</time>
      </trkpt>
      <trkpt lat="42.02422" lon="9.138">
        <ele>1943.05603</ele>
        <time>2011-10-29T13:46:59Z</time>
      </trkpt>
      <trkpt lat="42.02418" lon="9.13801">
        <ele>1943.023071</ele>
        <time>2011-10-29T13:47:02Z</time>
      </trkpt>
      <trkpt lat="42.02414" lon="9.13803">
        <ele>1943.056641</ele>
        <time>2011-10-29T13:47:05Z</time>
      </trkpt>
      <trkpt lat="42.0241" lon="9.13803">
        <ele>1942.493042</ele>
        <time>2011-10-29T13:47:08Z</time>
      </trkpt>
      <trkpt lat="42.02406" lon="9.13803">
        <ele>1941.927734</ele>
        <time>2011-10-29T13:47:11Z</time>
      </trkpt>
      <trkpt lat="42.02405" lon="9.13803">
        <ele>1941.790161</ele>
        <time>2011-10-29T13:47:12Z</time>
      </trkpt>
      <trkpt lat="42.02398" lon="9.13806">
        <ele>1941.480591</ele>
        <time>2011-10-29T13:47:17Z</time>
      </trkpt>
      <trkpt lat="42.02394" lon="9.13806">
        <ele>1940.932739</ele>
        <time>2011-10-29T13:47:20Z</time>
      </trkpt>
      <trkpt lat="42.0239" lon="9.13807">
        <ele>1940.535034</ele>
        <time>2011-10-29T13:47:23Z</time>
      </trkpt>
      <trkpt lat="42.02386" lon="9.13806">
        <ele>1939.800903</ele>
        <time>2011-10-29T13:47:27Z</time>
      </trkpt>
      <trkpt lat="42.02382" lon="9.13807">
        <ele>1939.212036</ele>
        <time>2011-10-29T13:47:31Z</time>
      </trkpt>
      <trkpt lat="42.02378" lon="9.13806">
        <ele>1938.303589</ele>
        <time>2011-10-29T13:47:35Z</time>
      </trkpt>
      <trkpt lat="42.02374" lon="9.13805">
        <ele>1937.357056</ele>
        <time>2011-10-29T13:47:38Z</time>
      </trkpt>
      <trkpt lat="42.02369" lon="9.13806">
        <ele>1936.9823</ele>
        <time>2011-10-29T13:47:42Z</time>
      </trkpt>
      <trkpt lat="42.02365" lon="9.13807">
        <ele>1936.444458</ele>
        <time>2011-10-29T13:47:46Z</time>
      </trkpt>
      <trkpt lat="42.02362" lon="9.13809">
        <ele>1936.131836</ele>
        <time>2011-10-29T13:47:51Z</time>
      </trkpt>
      <trkpt lat="42.02358" lon="9.13811">
        <ele>1935.356445</ele>
        <time>2011-10-29T13:47:56Z</time>
      </trkpt>
      <trkpt lat="42.02355" lon="9.13814">
        <ele>1935.363525</ele>
        <time>2011-10-29T13:47:59Z</time>
      </trkpt>
      <trkpt lat="42.02352" lon="9.13818">
        <ele>1935.51416</ele>
        <time>2011-10-29T13:48:03Z</time>
      </trkpt>
      <trkpt lat="42.02349" lon="9.13821">
        <ele>1935.423096</ele>
        <time>2011-10-29T13:48:06Z</time>
      </trkpt>
      <trkpt lat="42.02346" lon="9.13825">
        <ele>1935.974976</ele>
        <time>2011-10-29T13:48:10Z</time>
      </trkpt>
      <trkpt lat="42.02343" lon="9.13828">
        <ele>1935.901489</ele>
        <time>2011-10-29T13:48:13Z</time>
      </trkpt>
      <trkpt lat="42.02342" lon="9.13829">
        <ele>1936.004395</ele>
        <time>2011-10-29T13:48:14Z</time>
      </trkpt>
      <trkpt lat="42.02339" lon="9.13837">
        <ele>1936.868042</ele>
        <time>2011-10-29T13:48:19Z</time>
      </trkpt>
      <trkpt lat="42.02336" lon="9.1384">
        <ele>1936.910034</ele>
        <time>2011-10-29T13:48:22Z</time>
      </trkpt>
      <trkpt lat="42.02334" lon="9.13843">
        <ele>1936.930908</ele>
        <time>2011-10-29T13:48:25Z</time>
      </trkpt>
      <trkpt lat="42.0233" lon="9.13846">
        <ele>1936.605103</ele>
        <time>2011-10-29T13:48:28Z</time>
      </trkpt>
      <trkpt lat="42.02328" lon="9.13849">
        <ele>1936.724365</ele>
        <time>2011-10-29T13:48:31Z</time>
      </trkpt>
      <trkpt lat="42.02325" lon="9.13853">
        <ele>1936.821167</ele>
        <time>2011-10-29T13:48:34Z</time>
      </trkpt>
      <trkpt lat="42.02322" lon="9.13855">
        <ele>1936.602051</ele>
        <time>2011-10-29T13:48:37Z</time>
      </trkpt>
      <trkpt lat="42.02318" lon="9.13857">
        <ele>1936.149048</ele>
        <time>2011-10-29T13:48:40Z</time>
      </trkpt>
      <trkpt lat="42.02316" lon="9.1386">
        <ele>1936.097046</ele>
        <time>2011-10-29T13:48:43Z</time>
      </trkpt>
      <trkpt lat="42.02313" lon="9.13864">
        <ele>1935.906128</ele>
        <time>2011-10-29T13:48:46Z</time>
      </trkpt>
      <trkpt lat="42.0231" lon="9.13866">
        <ele>1935.447388</ele>
        <time>2011-10-29T13:48:49Z</time>
      </trkpt>
      <trkpt lat="42.02306" lon="9.13869">
        <ele>1934.926636</ele>
        <time>2011-10-29T13:48:52Z</time>
      </trkpt>
      <trkpt lat="42.02303" lon="9.13872">
        <ele>1934.455322</ele>
        <time>2011-10-29T13:48:55Z</time>
      </trkpt>
      <trkpt lat="42.023" lon="9.13874">
        <ele>1933.879028</ele>
        <time>2011-10-29T13:48:58Z</time>
      </trkpt>
      <trkpt lat="42.02297" lon="9.13877">
        <ele>1933.591309</ele>
        <time>2011-10-29T13:49:01Z</time>
      </trkpt>
      <trkpt lat="42.02294" lon="9.13881">
        <ele>1933.616577</ele>
        <time>2011-10-29T13:49:04Z</time>
      </trkpt>
      <trkpt lat="42.02291" lon="9.13884">
        <ele>1933.697998</ele>
        <time>2011-10-29T13:49:07Z</time>
      </trkpt>
      <trkpt lat="42.02288" lon="9.13887">
        <ele>1933.683716</ele>
        <time>2011-10-29T13:49:10Z</time>
      </trkpt>
      <trkpt lat="42.02285" lon="9.13889">
        <ele>1933.259888</ele>
        <time>2011-10-29T13:49:13Z</time>
      </trkpt>
      <trkpt lat="42.02282" lon="9.13892">
        <ele>1933.009644</ele>
        <time>2011-10-29T13:49:16Z</time>
      </trkpt>
      <trkpt lat="42.02281" lon="9.13893">
        <ele>1933.037476</ele>
        <time>2011-10-29T13:49:17Z</time>
      </trkpt>
      <trkpt lat="42.02275" lon="9.13899">
        <ele>1933.547729</ele>
        <time>2011-10-29T13:49:24Z</time>
      </trkpt>
      <trkpt lat="42.02272" lon="9.13902">
        <ele>1933.818481</ele>
        <time>2011-10-29T13:49:27Z</time>
      </trkpt>
      <trkpt lat="42.02269" lon="9.13906">
        <ele>1934.352905</ele>
        <time>2011-10-29T13:49:30Z</time>
      </trkpt>
      <trkpt lat="42.02266" lon="9.13909">
        <ele>1934.748535</ele>
        <time>2011-10-29T13:49:33Z</time>
      </trkpt>
      <trkpt lat="42.02264" lon="9.1391">
        <ele>1934.647339</ele>
        <time>2011-10-29T13:49:35Z</time>
      </trkpt>
      <trkpt lat="42.02259" lon="9.13912">
        <ele>1934.544678</ele>
        <time>2011-10-29T13:49:37Z</time>
      </trkpt>
      <trkpt lat="42.02255" lon="9.13914">
        <ele>1934.769653</ele>
        <time>2011-10-29T13:49:40Z</time>
      </trkpt>
      <trkpt lat="42.02252" lon="9.13917">
        <ele>1934.964722</ele>
        <time>2011-10-29T13:49:43Z</time>
      </trkpt>
      <trkpt lat="42.02248" lon="9.13917">
        <ele>1934.375977</ele>
        <time>2011-10-29T13:49:46Z</time>
      </trkpt>
      <trkpt lat="42.02244" lon="9.13918">
        <ele>1934.166382</ele>
        <time>2011-10-29T13:49:49Z</time>
      </trkpt>
      <trkpt lat="42.02241" lon="9.1392">
        <ele>1934.520752</ele>
        <time>2011-10-29T13:49:52Z</time>
      </trkpt>
      <trkpt lat="42.02237" lon="9.13921">
        <ele>1934.288452</ele>
        <time>2011-10-29T13:49:55Z</time>
      </trkpt>
      <trkpt lat="42.02234" lon="9.13922">
        <ele>1934.060913</ele>
        <time>2011-10-29T13:49:58Z</time>
      </trkpt>
      <trkpt lat="42.0223" lon="9.13922">
        <ele>1933.770752</ele>
        <time>2011-10-29T13:50:01Z</time>
      </trkpt>
      <trkpt lat="42.02224" lon="9.13921">
        <ele>1932.320801</ele>
        <time>2011-10-29T13:50:06Z</time>
      </trkpt>
      <trkpt lat="42.02221" lon="9.13921">
        <ele>1932.052246</ele>
        <time>2011-10-29T13:50:09Z</time>
      </trkpt>
      <trkpt lat="42.02217" lon="9.13922">
        <ele>1932.518677</ele>
        <time>2011-10-29T13:50:12Z</time>
      </trkpt>
      <trkpt lat="42.02213" lon="9.13922">
        <ele>1932.676392</ele>
        <time>2011-10-29T13:50:15Z</time>
      </trkpt>
      <trkpt lat="42.02209" lon="9.13922">
        <ele>1932.632813</ele>
        <time>2011-10-29T13:50:18Z</time>
      </trkpt>
      <trkpt lat="42.02208" lon="9.13922">
        <ele>1932.561523</ele>
        <time>2011-10-29T13:50:19Z</time>
      </trkpt>
      <trkpt lat="42.02202" lon="9.13921">
        <ele>1932.098022</ele>
        <time>2011-10-29T13:50:25Z</time>
      </trkpt>
      <trkpt lat="42.02198" lon="9.13922">
        <ele>1932.655762</ele>
        <time>2011-10-29T13:50:29Z</time>
      </trkpt>
      <trkpt lat="42.02193" lon="9.13923">
        <ele>1933.060303</ele>
        <time>2011-10-29T13:50:34Z</time>
      </trkpt>
      <trkpt lat="42.02189" lon="9.13922">
        <ele>1932.521362</ele>
        <time>2011-10-29T13:50:38Z</time>
      </trkpt>
      <trkpt lat="42.02185" lon="9.13922">
        <ele>1932.539185</ele>
        <time>2011-10-29T13:50:42Z</time>
      </trkpt>
      <trkpt lat="42.02181" lon="9.13922">
        <ele>1932.508789</ele>
        <time>2011-10-29T13:50:45Z</time>
      </trkpt>
      <trkpt lat="42.02177" lon="9.13921">
        <ele>1932.173462</ele>
        <time>2011-10-29T13:50:48Z</time>
      </trkpt>
      <trkpt lat="42.02173" lon="9.1392">
        <ele>1931.5177</ele>
        <time>2011-10-29T13:50:51Z</time>
      </trkpt>
      <trkpt lat="42.02169" lon="9.1392">
        <ele>1931.360596</ele>
        <time>2011-10-29T13:50:55Z</time>
      </trkpt>
      <trkpt lat="42.02166" lon="9.13919">
        <ele>1930.944092</ele>
        <time>2011-10-29T13:50:59Z</time>
      </trkpt>
      <trkpt lat="42.02162" lon="9.13918">
        <ele>1930.01123</ele>
        <time>2011-10-29T13:51:02Z</time>
      </trkpt>
      <trkpt lat="42.02158" lon="9.13917">
        <ele>1929.638794</ele>
        <time>2011-10-29T13:51:05Z</time>
      </trkpt>
      <trkpt lat="42.02154" lon="9.13916">
        <ele>1929.036255</ele>
        <time>2011-10-29T13:51:09Z</time>
      </trkpt>
      <trkpt lat="42.02151" lon="9.13916">
        <ele>1928.708252</ele>
        <time>2011-10-29T13:51:12Z</time>
      </trkpt>
      <trkpt lat="42.02147" lon="9.13916">
        <ele>1928.71582</ele>
        <time>2011-10-29T13:51:15Z</time>
      </trkpt>
      <trkpt lat="42.02143" lon="9.13916">
        <ele>1928.421753</ele>
        <time>2011-10-29T13:51:18Z</time>
      </trkpt>
      <trkpt lat="42.02138" lon="9.13916">
        <ele>1928.279663</ele>
        <time>2011-10-29T13:51:22Z</time>
      </trkpt>
      <trkpt lat="42.02137" lon="9.13915">
        <ele>1927.920776</ele>
        <time>2011-10-29T13:51:23Z</time>
      </trkpt>
      <trkpt lat="42.02131" lon="9.13914">
        <ele>1927.538696</ele>
        <time>2011-10-29T13:51:28Z</time>
      </trkpt>
      <trkpt lat="42.02127" lon="9.13915">
        <ele>1928.071655</ele>
        <time>2011-10-29T13:51:31Z</time>
      </trkpt>
      <trkpt lat="42.02123" lon="9.13916">
        <ele>1928.987183</ele>
        <time>2011-10-29T13:51:34Z</time>
      </trkpt>
      <trkpt lat="42.02119" lon="9.13917">
        <ele>1929.78418</ele>
        <time>2011-10-29T13:51:37Z</time>
      </trkpt>
      <trkpt lat="42.02115" lon="9.13916">
        <ele>1929.912476</ele>
        <time>2011-10-29T13:51:41Z</time>
      </trkpt>
      <trkpt lat="42.02112" lon="9.13915">
        <ele>1929.699341</ele>
        <time>2011-10-29T13:51:44Z</time>
      </trkpt>
      <trkpt lat="42.02108" lon="9.13915">
        <ele>1930.154907</ele>
        <time>2011-10-29T13:51:48Z</time>
      </trkpt>
      <trkpt lat="42.02104" lon="9.13913">
        <ele>1929.99292</ele>
        <time>2011-10-29T13:51:52Z</time>
      </trkpt>
      <trkpt lat="42.021" lon="9.13914">
        <ele>1930.445557</ele>
        <time>2011-10-29T13:51:56Z</time>
      </trkpt>
      <trkpt lat="42.02095" lon="9.13913">
        <ele>1930.474243</ele>
        <time>2011-10-29T13:52:02Z</time>
      </trkpt>
      <trkpt lat="42.02092" lon="9.13912">
        <ele>1930.454712</ele>
        <time>2011-10-29T13:52:05Z</time>
      </trkpt>
      <trkpt lat="42.02087" lon="9.13912">
        <ele>1930.847046</ele>
        <time>2011-10-29T13:52:10Z</time>
      </trkpt>
      <trkpt lat="42.02084" lon="9.1391">
        <ele>1930.413086</ele>
        <time>2011-10-29T13:52:14Z</time>
      </trkpt>
      <trkpt lat="42.0208" lon="9.13908">
        <ele>1929.739258</ele>
        <time>2011-10-29T13:52:18Z</time>
      </trkpt>
      <trkpt lat="42.02076" lon="9.13907">
        <ele>1929.802612</ele>
        <time>2011-10-29T13:52:22Z</time>
      </trkpt>
      <trkpt lat="42.02072" lon="9.13906">
        <ele>1929.71936</ele>
        <time>2011-10-29T13:52:26Z</time>
      </trkpt>
      <trkpt lat="42.02071" lon="9.13906">
        <ele>1929.755005</ele>
        <time>2011-10-29T13:52:27Z</time>
      </trkpt>
      <trkpt lat="42.02064" lon="9.13903">
        <ele>1929.375488</ele>
        <time>2011-10-29T13:52:34Z</time>
      </trkpt>
      <trkpt lat="42.02061" lon="9.13901">
        <ele>1928.692505</ele>
        <time>2011-10-29T13:52:37Z</time>
      </trkpt>
      <trkpt lat="42.02057" lon="9.139">
        <ele>1928.904663</ele>
        <time>2011-10-29T13:52:40Z</time>
      </trkpt>
      <trkpt lat="42.02052" lon="9.13901">
        <ele>1929.349731</ele>
        <time>2011-10-29T13:52:43Z</time>
      </trkpt>
      <trkpt lat="42.02049" lon="9.139">
        <ele>1929.500854</ele>
        <time>2011-10-29T13:52:46Z</time>
      </trkpt>
      <trkpt lat="42.02044" lon="9.139">
        <ele>1929.660645</ele>
        <time>2011-10-29T13:52:49Z</time>
      </trkpt>
      <trkpt lat="42.02041" lon="9.139">
        <ele>1929.69397</ele>
        <time>2011-10-29T13:52:52Z</time>
      </trkpt>
      <trkpt lat="42.02037" lon="9.13899">
        <ele>1929.379028</ele>
        <time>2011-10-29T13:52:55Z</time>
      </trkpt>
      <trkpt lat="42.02033" lon="9.139">
        <ele>1929.556152</ele>
        <time>2011-10-29T13:52:59Z</time>
      </trkpt>
      <trkpt lat="42.02029" lon="9.139">
        <ele>1929.506592</ele>
        <time>2011-10-29T13:53:05Z</time>
      </trkpt>
      <trkpt lat="42.02025" lon="9.13899">
        <ele>1929.104736</ele>
        <time>2011-10-29T13:53:09Z</time>
      </trkpt>
      <trkpt lat="42.02021" lon="9.139">
        <ele>1929.645996</ele>
        <time>2011-10-29T13:53:13Z</time>
      </trkpt>
      <trkpt lat="42.02017" lon="9.13902">
        <ele>1930.076416</ele>
        <time>2011-10-29T13:53:17Z</time>
      </trkpt>
      <trkpt lat="42.02013" lon="9.13902">
        <ele>1930.154175</ele>
        <time>2011-10-29T13:53:20Z</time>
      </trkpt>
      <trkpt lat="42.02009" lon="9.13902">
        <ele>1930.382813</ele>
        <time>2011-10-29T13:53:23Z</time>
      </trkpt>
      <trkpt lat="42.02006" lon="9.13902">
        <ele>1930.035522</ele>
        <time>2011-10-29T13:53:26Z</time>
      </trkpt>
      <trkpt lat="42.02002" lon="9.13901">
        <ele>1929.853516</ele>
        <time>2011-10-29T13:53:29Z</time>
      </trkpt>
      <trkpt lat="42.02001" lon="9.13901">
        <ele>1929.856445</ele>
        <time>2011-10-29T13:53:30Z</time>
      </trkpt>
      <trkpt lat="42.01994" lon="9.13902">
        <ele>1929.531494</ele>
        <time>2011-10-29T13:53:36Z</time>
      </trkpt>
      <trkpt lat="42.0199" lon="9.13903">
        <ele>1929.634766</ele>
        <time>2011-10-29T13:53:39Z</time>
      </trkpt>
      <trkpt lat="42.01987" lon="9.13904">
        <ele>1929.198608</ele>
        <time>2011-10-29T13:53:42Z</time>
      </trkpt>
      <trkpt lat="42.01983" lon="9.13905">
        <ele>1929.095459</ele>
        <time>2011-10-29T13:53:45Z</time>
      </trkpt>
      <trkpt lat="42.01979" lon="9.13906">
        <ele>1929.383179</ele>
        <time>2011-10-29T13:53:48Z</time>
      </trkpt>
      <trkpt lat="42.01975" lon="9.13907">
        <ele>1928.671997</ele>
        <time>2011-10-29T13:53:52Z</time>
      </trkpt>
      <trkpt lat="42.01972" lon="9.13907">
        <ele>1927.875488</ele>
        <time>2011-10-29T13:53:55Z</time>
      </trkpt>
      <trkpt lat="42.01967" lon="9.13907">
        <ele>1927.010132</ele>
        <time>2011-10-29T13:54:00Z</time>
      </trkpt>
      <trkpt lat="42.01963" lon="9.13906">
        <ele>1926.539551</ele>
        <time>2011-10-29T13:54:04Z</time>
      </trkpt>
      <trkpt lat="42.0196" lon="9.13906">
        <ele>1925.758179</ele>
        <time>2011-10-29T13:54:08Z</time>
      </trkpt>
      <trkpt lat="42.01956" lon="9.13908">
        <ele>1924.854736</ele>
        <time>2011-10-29T13:54:12Z</time>
      </trkpt>
      <trkpt lat="42.01953" lon="9.1391">
        <ele>1924.05249</ele>
        <time>2011-10-29T13:54:15Z</time>
      </trkpt>
      <trkpt lat="42.01949" lon="9.13913">
        <ele>1923.504028</ele>
        <time>2011-10-29T13:54:18Z</time>
      </trkpt>
      <trkpt lat="42.01942" lon="9.13914">
        <ele>1923.174683</ele>
        <time>2011-10-29T13:54:22Z</time>
      </trkpt>
      <trkpt lat="42.01939" lon="9.1392">
        <ele>1922.5979</ele>
        <time>2011-10-29T13:54:28Z</time>
      </trkpt>
      <trkpt lat="42.01936" lon="9.13924">
        <ele>1922.36499</ele>
        <time>2011-10-29T13:54:31Z</time>
      </trkpt>
      <trkpt lat="42.01935" lon="9.13925">
        <ele>1922.331665</ele>
        <time>2011-10-29T13:54:32Z</time>
      </trkpt>
      <trkpt lat="42.01929" lon="9.13929">
        <ele>1922.371704</ele>
        <time>2011-10-29T13:54:37Z</time>
      </trkpt>
      <trkpt lat="42.01926" lon="9.13931">
        <ele>1922.524536</ele>
        <time>2011-10-29T13:54:40Z</time>
      </trkpt>
      <trkpt lat="42.01923" lon="9.13935">
        <ele>1922.74231</ele>
        <time>2011-10-29T13:55:15Z</time>
      </trkpt>
      <trkpt lat="42.01918" lon="9.13935">
        <ele>1923.16748</ele>
        <time>2011-10-29T13:55:46Z</time>
      </trkpt>
      <trkpt lat="42.01918" lon="9.13935">
        <ele>1923.217896</ele>
        <time>2011-10-29T13:55:47Z</time>
      </trkpt>
      <trkpt lat="42.01911" lon="9.13934">
        <ele>1923.963013</ele>
        <time>2011-10-29T13:55:56Z</time>
      </trkpt>
      <trkpt lat="42.01907" lon="9.13934">
        <ele>1924.382935</ele>
        <time>2011-10-29T13:56:01Z</time>
      </trkpt>
      <trkpt lat="42.01902" lon="9.13933">
        <ele>1925.424927</ele>
        <time>2011-10-29T13:56:06Z</time>
      </trkpt>
      <trkpt lat="42.01899" lon="9.1393">
        <ele>1926.209961</ele>
        <time>2011-10-29T13:56:13Z</time>
      </trkpt>
      <trkpt lat="42.01895" lon="9.1393">
        <ele>1927.084839</ele>
        <time>2011-10-29T13:56:17Z</time>
      </trkpt>
      <trkpt lat="42.01891" lon="9.1393">
        <ele>1928.072632</ele>
        <time>2011-10-29T13:56:21Z</time>
      </trkpt>
      <trkpt lat="42.01887" lon="9.1393">
        <ele>1929.078247</ele>
        <time>2011-10-29T13:56:25Z</time>
      </trkpt>
      <trkpt lat="42.01883" lon="9.13931">
        <ele>1930.08606</ele>
        <time>2011-10-29T13:56:31Z</time>
      </trkpt>
      <trkpt lat="42.01879" lon="9.13927">
        <ele>1930.750732</ele>
        <time>2011-10-29T13:56:36Z</time>
      </trkpt>
      <trkpt lat="42.01877" lon="9.13924">
        <ele>1931.098755</ele>
        <time>2011-10-29T13:56:39Z</time>
      </trkpt>
      <trkpt lat="42.01873" lon="9.1392">
        <ele>1931.724976</ele>
        <time>2011-10-29T13:56:43Z</time>
      </trkpt>
      <trkpt lat="42.01871" lon="9.13917">
        <ele>1932.149292</ele>
        <time>2011-10-29T13:56:47Z</time>
      </trkpt>
      <trkpt lat="42.0187" lon="9.13916">
        <ele>1932.194214</ele>
        <time>2011-10-29T13:56:48Z</time>
      </trkpt>
      <trkpt lat="42.01865" lon="9.13909">
        <ele>1932.878052</ele>
        <time>2011-10-29T13:56:54Z</time>
      </trkpt>
      <trkpt lat="42.01861" lon="9.13906">
        <ele>1933.406494</ele>
        <time>2011-10-29T13:56:58Z</time>
      </trkpt>
      <trkpt lat="42.01857" lon="9.13904">
        <ele>1933.896118</ele>
        <time>2011-10-29T13:57:02Z</time>
      </trkpt>
      <trkpt lat="42.01853" lon="9.13904">
        <ele>1934.567383</ele>
        <time>2011-10-29T13:57:06Z</time>
      </trkpt>
      <trkpt lat="42.01849" lon="9.13903">
        <ele>1935.17395</ele>
        <time>2011-10-29T13:57:10Z</time>
      </trkpt>
      <trkpt lat="42.01845" lon="9.13902">
        <ele>1935.741455</ele>
        <time>2011-10-29T13:57:14Z</time>
      </trkpt>
      <trkpt lat="42.01841" lon="9.13902">
        <ele>1936.349487</ele>
        <time>2011-10-29T13:57:18Z</time>
      </trkpt>
      <trkpt lat="42.01837" lon="9.13902">
        <ele>1937.011963</ele>
        <time>2011-10-29T13:57:22Z</time>
      </trkpt>
      <trkpt lat="42.01833" lon="9.13903">
        <ele>1937.710449</ele>
        <time>2011-10-29T13:57:26Z</time>
      </trkpt>
      <trkpt lat="42.01829" lon="9.13903">
        <ele>1938.310059</ele>
        <time>2011-10-29T13:57:30Z</time>
      </trkpt>
      <trkpt lat="42.01826" lon="9.13899">
        <ele>1938.672607</ele>
        <time>2011-10-29T13:57:34Z</time>
      </trkpt>
      <trkpt lat="42.01822" lon="9.13897">
        <ele>1939.110962</ele>
        <time>2011-10-29T13:57:38Z</time>
      </trkpt>
      <trkpt lat="42.01819" lon="9.13894">
        <ele>1939.406006</ele>
        <time>2011-10-29T13:57:42Z</time>
      </trkpt>
      <trkpt lat="42.01815" lon="9.13894">
        <ele>1939.580566</ele>
        <time>2011-10-29T13:57:46Z</time>
      </trkpt>
      <trkpt lat="42.01811" lon="9.13893">
        <ele>1939.719238</ele>
        <time>2011-10-29T13:57:50Z</time>
      </trkpt>
      <trkpt lat="42.0181" lon="9.13893">
        <ele>1939.75647</ele>
        <time>2011-10-29T13:57:51Z</time>
      </trkpt>
      <trkpt lat="42.01803" lon="9.13891">
        <ele>1940.041138</ele>
        <time>2011-10-29T13:57:59Z</time>
      </trkpt>
      <trkpt lat="42.01799" lon="9.13891">
        <ele>1940.206665</ele>
        <time>2011-10-29T13:58:03Z</time>
      </trkpt>
      <trkpt lat="42.01795" lon="9.13889">
        <ele>1940.473022</ele>
        <time>2011-10-29T13:58:08Z</time>
      </trkpt>
      <trkpt lat="42.01792" lon="9.13886">
        <ele>1940.823364</ele>
        <time>2011-10-29T13:58:12Z</time>
      </trkpt>
      <trkpt lat="42.01788" lon="9.13884">
        <ele>1941.036499</ele>
        <time>2011-10-29T13:58:16Z</time>
      </trkpt>
      <trkpt lat="42.01784" lon="9.13883">
        <ele>1941.231934</ele>
        <time>2011-10-29T13:58:20Z</time>
      </trkpt>
      <trkpt lat="42.01779" lon="9.13883">
        <ele>1941.625488</ele>
        <time>2011-10-29T13:58:24Z</time>
      </trkpt>
      <trkpt lat="42.01775" lon="9.13883">
        <ele>1941.932251</ele>
        <time>2011-10-29T13:58:28Z</time>
      </trkpt>
      <trkpt lat="42.01771" lon="9.1388">
        <ele>1941.126831</ele>
        <time>2011-10-29T13:58:32Z</time>
      </trkpt>
      <trkpt lat="42.01769" lon="9.13877">
        <ele>1940.407471</ele>
        <time>2011-10-29T13:58:36Z</time>
      </trkpt>
      <trkpt lat="42.01766" lon="9.13875">
        <ele>1939.78894</ele>
        <time>2011-10-29T13:58:40Z</time>
      </trkpt>
      <trkpt lat="42.01762" lon="9.13874">
        <ele>1939.297974</ele>
        <time>2011-10-29T13:58:44Z</time>
      </trkpt>
      <trkpt lat="42.01758" lon="9.13873">
        <ele>1938.765259</ele>
        <time>2011-10-29T13:58:49Z</time>
      </trkpt>
      <trkpt lat="42.01754" lon="9.13874">
        <ele>1938.413452</ele>
        <time>2011-10-29T13:58:55Z</time>
      </trkpt>
      <trkpt lat="42.01754" lon="9.13874">
        <ele>1938.352661</ele>
        <time>2011-10-29T13:58:56Z</time>
      </trkpt>
      <trkpt lat="42.01748" lon="9.1387">
        <ele>1937.531128</ele>
        <time>2011-10-29T13:59:05Z</time>
      </trkpt>
      <trkpt lat="42.01744" lon="9.13868">
        <ele>1937.141846</ele>
        <time>2011-10-29T13:59:09Z</time>
      </trkpt>
      <trkpt lat="42.01741" lon="9.13867">
        <ele>1936.810913</ele>
        <time>2011-10-29T13:59:12Z</time>
      </trkpt>
      <trkpt lat="42.01737" lon="9.13865">
        <ele>1936.48645</ele>
        <time>2011-10-29T13:59:15Z</time>
      </trkpt>
      <trkpt lat="42.01734" lon="9.13863">
        <ele>1936.248169</ele>
        <time>2011-10-29T13:59:18Z</time>
      </trkpt>
      <trkpt lat="42.01731" lon="9.13862">
        <ele>1935.97644</ele>
        <time>2011-10-29T13:59:21Z</time>
      </trkpt>
      <trkpt lat="42.01728" lon="9.13859">
        <ele>1935.703369</ele>
        <time>2011-10-29T13:59:24Z</time>
      </trkpt>
      <trkpt lat="42.01725" lon="9.13857">
        <ele>1935.469238</ele>
        <time>2011-10-29T13:59:27Z</time>
      </trkpt>
      <trkpt lat="42.01721" lon="9.13855">
        <ele>1935.105591</ele>
        <time>2011-10-29T13:59:30Z</time>
      </trkpt>
      <trkpt lat="42.01718" lon="9.13852">
        <ele>1934.858521</ele>
        <time>2011-10-29T13:59:33Z</time>
      </trkpt>
      <trkpt lat="42.01714" lon="9.1385">
        <ele>1934.650024</ele>
        <time>2011-10-29T13:59:36Z</time>
      </trkpt>
      <trkpt lat="42.01711" lon="9.13847">
        <ele>1934.367065</ele>
        <time>2011-10-29T13:59:39Z</time>
      </trkpt>
      <trkpt lat="42.01707" lon="9.13845">
        <ele>1934.159302</ele>
        <time>2011-10-29T13:59:42Z</time>
      </trkpt>
      <trkpt lat="42.01705" lon="9.13844">
        <ele>1934.013428</ele>
        <time>2011-10-29T13:59:44Z</time>
      </trkpt>
      <trkpt lat="42.01702" lon="9.1384">
        <ele>1933.982666</ele>
        <time>2011-10-29T13:59:46Z</time>
      </trkpt>
      <trkpt lat="42.01698" lon="9.13839">
        <ele>1933.711304</ele>
        <time>2011-10-29T13:59:49Z</time>
      </trkpt>
      <trkpt lat="42.01694" lon="9.13837">
        <ele>1933.465576</ele>
        <time>2011-10-29T13:59:52Z</time>
      </trkpt>
      <trkpt lat="42.0169" lon="9.13834">
        <ele>1933.339355</ele>
        <time>2011-10-29T13:59:55Z</time>
      </trkpt>
      <trkpt lat="42.01687" lon="9.13832">
        <ele>1933.39856</ele>
        <time>2011-10-29T13:59:58Z</time>
      </trkpt>
      <trkpt lat="42.01686" lon="9.13831">
        <ele>1933.470093</ele>
        <time>2011-10-29T13:59:59Z</time>
      </trkpt>
      <trkpt lat="42.0168" lon="9.13827">
        <ele>1933.565186</ele>
        <time>2011-10-29T14:00:04Z</time>
      </trkpt>
      <trkpt lat="42.01676" lon="9.13826">
        <ele>1933.400146</ele>
        <time>2011-10-29T14:00:07Z</time>
      </trkpt>
      <trkpt lat="42.01672" lon="9.13825">
        <ele>1933.184937</ele>
        <time>2011-10-29T14:00:10Z</time>
      </trkpt>
      <trkpt lat="42.01668" lon="9.13825">
        <ele>1932.986206</ele>
        <time>2011-10-29T14:00:13Z</time>
      </trkpt>
      <trkpt lat="42.01664" lon="9.13824">
        <ele>1932.840576</ele>
        <time>2011-10-29T14:00:16Z</time>
      </trkpt>
      <trkpt lat="42.0166" lon="9.13823">
        <ele>1932.706177</ele>
        <time>2011-10-29T14:00:19Z</time>
      </trkpt>
      <trkpt lat="42.01656" lon="9.1382">
        <ele>1932.718262</ele>
        <time>2011-10-29T14:00:23Z</time>
      </trkpt>
      <trkpt lat="42.01652" lon="9.13819">
        <ele>1932.556641</ele>
        <time>2011-10-29T14:00:27Z</time>
      </trkpt>
      <trkpt lat="42.01649" lon="9.13818">
        <ele>1932.412964</ele>
        <time>2011-10-29T14:00:31Z</time>
      </trkpt>
      <trkpt lat="42.01645" lon="9.13817">
        <ele>1932.256714</ele>
        <time>2011-10-29T14:00:35Z</time>
      </trkpt>
      <trkpt lat="42.01641" lon="9.13817">
        <ele>1932.088135</ele>
        <time>2011-10-29T14:00:39Z</time>
      </trkpt>
      <trkpt lat="42.01638" lon="9.13813">
        <ele>1932.200195</ele>
        <time>2011-10-29T14:00:46Z</time>
      </trkpt>
      <trkpt lat="42.0164" lon="9.13808">
        <ele>1932.71167</ele>
        <time>2011-10-29T14:01:19Z</time>
      </trkpt>
      <trkpt lat="42.0164" lon="9.13807">
        <ele>1932.800049</ele>
        <time>2011-10-29T14:01:20Z</time>
      </trkpt>
      <trkpt lat="42.01644" lon="9.13799">
        <ele>1933.225952</ele>
        <time>2011-10-29T14:01:29Z</time>
      </trkpt>
      <trkpt lat="42.01646" lon="9.13794">
        <ele>1933.464233</ele>
        <time>2011-10-29T14:01:33Z</time>
      </trkpt>
      <trkpt lat="42.01647" lon="9.13788">
        <ele>1933.659058</ele>
        <time>2011-10-29T14:01:37Z</time>
      </trkpt>
      <trkpt lat="42.01648" lon="9.13783">
        <ele>1933.837158</ele>
        <time>2011-10-29T14:01:41Z</time>
      </trkpt>
      <trkpt lat="42.01648" lon="9.13778">
        <ele>1933.97937</ele>
        <time>2011-10-29T14:01:44Z</time>
      </trkpt>
      <trkpt lat="42.01648" lon="9.13772">
        <ele>1934.162109</ele>
        <time>2011-10-29T14:01:48Z</time>
      </trkpt>
      <trkpt lat="42.01645" lon="9.13769">
        <ele>1934.256226</ele>
        <time>2011-10-29T14:01:52Z</time>
      </trkpt>
      <trkpt lat="42.01643" lon="9.13765">
        <ele>1934.348022</ele>
        <time>2011-10-29T14:01:56Z</time>
      </trkpt>
      <trkpt lat="42.0164" lon="9.13761">
        <ele>1934.426758</ele>
        <time>2011-10-29T14:02:00Z</time>
      </trkpt>
      <trkpt lat="42.01637" lon="9.13758">
        <ele>1934.52356</ele>
        <time>2011-10-29T14:02:04Z</time>
      </trkpt>
      <trkpt lat="42.01634" lon="9.13754">
        <ele>1934.633179</ele>
        <time>2011-10-29T14:02:08Z</time>
      </trkpt>
      <trkpt lat="42.01632" lon="9.13749">
        <ele>1934.828125</ele>
        <time>2011-10-29T14:02:15Z</time>
      </trkpt>
      <trkpt lat="42.01629" lon="9.13746">
        <ele>1934.971069</ele>
        <time>2011-10-29T14:02:25Z</time>
      </trkpt>
      <trkpt lat="42.01628" lon="9.13745">
        <ele>1935.017334</ele>
        <time>2011-10-29T14:02:26Z</time>
      </trkpt>
      <trkpt lat="42.01626" lon="9.13736">
        <ele>1935.49353</ele>
        <time>2011-10-29T14:02:34Z</time>
      </trkpt>
      <trkpt lat="42.01627" lon="9.13731">
        <ele>1935.795654</ele>
        <time>2011-10-29T14:02:38Z</time>
      </trkpt>
      <trkpt lat="42.01627" lon="9.13726">
        <ele>1936.116821</ele>
        <time>2011-10-29T14:02:43Z</time>
      </trkpt>
      <trkpt lat="42.01626" lon="9.13721">
        <ele>1936.430908</ele>
        <time>2011-10-29T14:02:48Z</time>
      </trkpt>
      <trkpt lat="42.01627" lon="9.13716">
        <ele>1936.725708</ele>
        <time>2011-10-29T14:02:53Z</time>
      </trkpt>
      <trkpt lat="42.01626" lon="9.13711">
        <ele>1937.015625</ele>
        <time>2011-10-29T14:02:57Z</time>
      </trkpt>
      <trkpt lat="42.01626" lon="9.13706">
        <ele>1937.301025</ele>
        <time>2011-10-29T14:03:01Z</time>
      </trkpt>
      <trkpt lat="42.01625" lon="9.13701">
        <ele>1937.586548</ele>
        <time>2011-10-29T14:03:05Z</time>
      </trkpt>
      <trkpt lat="42.01623" lon="9.13698">
        <ele>1937.841797</ele>
        <time>2011-10-29T14:03:09Z</time>
      </trkpt>
      <trkpt lat="42.0162" lon="9.13693">
        <ele>1938.143433</ele>
        <time>2011-10-29T14:03:17Z</time>
      </trkpt>
      <trkpt lat="42.01618" lon="9.13689">
        <ele>1938.416748</ele>
        <time>2011-10-29T14:03:20Z</time>
      </trkpt>
      <trkpt lat="42.01617" lon="9.13684">
        <ele>1938.766479</ele>
        <time>2011-10-29T14:03:24Z</time>
      </trkpt>
      <trkpt lat="42.01616" lon="9.13679">
        <ele>1938.902466</ele>
        <time>2011-10-29T14:03:28Z</time>
      </trkpt>
      <trkpt lat="42.01616" lon="9.13678">
        <ele>1938.92749</ele>
        <time>2011-10-29T14:03:29Z</time>
      </trkpt>
      <trkpt lat="42.01615" lon="9.13669">
        <ele>1939.099976</ele>
        <time>2011-10-29T14:03:35Z</time>
      </trkpt>
      <trkpt lat="42.01613" lon="9.13664">
        <ele>1939.22998</ele>
        <time>2011-10-29T14:03:39Z</time>
      </trkpt>
      <trkpt lat="42.01612" lon="9.1366">
        <ele>1939.327515</ele>
        <time>2011-10-29T14:03:42Z</time>
      </trkpt>
      <trkpt lat="42.0161" lon="9.13656">
        <ele>1939.4375</ele>
        <time>2011-10-29T14:03:45Z</time>
      </trkpt>
      <trkpt lat="42.01609" lon="9.13651">
        <ele>1939.35498</ele>
        <time>2011-10-29T14:03:48Z</time>
      </trkpt>
      <trkpt lat="42.01608" lon="9.13646">
        <ele>1939.282471</ele>
        <time>2011-10-29T14:03:51Z</time>
      </trkpt>
      <trkpt lat="42.01607" lon="9.13642">
        <ele>1939.20752</ele>
        <time>2011-10-29T14:03:54Z</time>
      </trkpt>
      <trkpt lat="42.01606" lon="9.13638">
        <ele>1939.079956</ele>
        <time>2011-10-29T14:03:57Z</time>
      </trkpt>
      <trkpt lat="42.01603" lon="9.13633">
        <ele>1938.752441</ele>
        <time>2011-10-29T14:04:01Z</time>
      </trkpt>
      <trkpt lat="42.01601" lon="9.13628">
        <ele>1938.555054</ele>
        <time>2011-10-29T14:04:05Z</time>
      </trkpt>
      <trkpt lat="42.016" lon="9.13624">
        <ele>1938.430054</ele>
        <time>2011-10-29T14:04:08Z</time>
      </trkpt>
      <trkpt lat="42.01598" lon="9.1362">
        <ele>1937.994019</ele>
        <time>2011-10-29T14:04:11Z</time>
      </trkpt>
      <trkpt lat="42.01595" lon="9.13616">
        <ele>1937.328979</ele>
        <time>2011-10-29T14:04:14Z</time>
      </trkpt>
      <trkpt lat="42.01592" lon="9.13613">
        <ele>1936.676514</ele>
        <time>2011-10-29T14:04:17Z</time>
      </trkpt>
      <trkpt lat="42.01589" lon="9.1361">
        <ele>1936.106079</ele>
        <time>2011-10-29T14:04:20Z</time>
      </trkpt>
      <trkpt lat="42.01586" lon="9.13606">
        <ele>1935.521606</ele>
        <time>2011-10-29T14:04:23Z</time>
      </trkpt>
      <trkpt lat="42.01583" lon="9.13604">
        <ele>1934.953003</ele>
        <time>2011-10-29T14:04:26Z</time>
      </trkpt>
      <trkpt lat="42.0158" lon="9.13601">
        <ele>1934.400513</ele>
        <time>2011-10-29T14:04:29Z</time>
      </trkpt>
      <trkpt lat="42.01579" lon="9.13599">
        <ele>1934.218506</ele>
        <time>2011-10-29T14:04:30Z</time>
      </trkpt>
      <trkpt lat="42.01574" lon="9.13594">
        <ele>1933.359253</ele>
        <time>2011-10-29T14:04:35Z</time>
      </trkpt>
      <trkpt lat="42.01571" lon="9.1359">
        <ele>1932.858276</ele>
        <time>2011-10-29T14:04:38Z</time>
      </trkpt>
      <trkpt lat="42.01569" lon="9.13586">
        <ele>1932.45105</ele>
        <time>2011-10-29T14:04:41Z</time>
      </trkpt>
      <trkpt lat="42.01567" lon="9.13582">
        <ele>1931.782349</ele>
        <time>2011-10-29T14:04:44Z</time>
      </trkpt>
      <trkpt lat="42.01564" lon="9.13579">
        <ele>1931.10498</ele>
        <time>2011-10-29T14:04:47Z</time>
      </trkpt>
      <trkpt lat="42.0156" lon="9.13577">
        <ele>1930.419922</ele>
        <time>2011-10-29T14:04:50Z</time>
      </trkpt>
      <trkpt lat="42.01558" lon="9.13572">
        <ele>1929.780396</ele>
        <time>2011-10-29T14:04:53Z</time>
      </trkpt>
      <trkpt lat="42.01556" lon="9.13568">
        <ele>1929.231201</ele>
        <time>2011-10-29T14:04:56Z</time>
      </trkpt>
      <trkpt lat="42.01553" lon="9.13564">
        <ele>1928.635376</ele>
        <time>2011-10-29T14:04:59Z</time>
      </trkpt>
      <trkpt lat="42.01551" lon="9.1356">
        <ele>1928.071655</ele>
        <time>2011-10-29T14:05:02Z</time>
      </trkpt>
      <trkpt lat="42.01549" lon="9.13556">
        <ele>1927.545044</ele>
        <time>2011-10-29T14:05:05Z</time>
      </trkpt>
      <trkpt lat="42.01546" lon="9.13554">
        <ele>1926.972168</ele>
        <time>2011-10-29T14:05:08Z</time>
      </trkpt>
      <trkpt lat="42.01543" lon="9.13551">
        <ele>1926.224731</ele>
        <time>2011-10-29T14:05:11Z</time>
      </trkpt>
      <trkpt lat="42.0154" lon="9.13548">
        <ele>1925.405518</ele>
        <time>2011-10-29T14:05:14Z</time>
      </trkpt>
      <trkpt lat="42.01537" lon="9.13546">
        <ele>1924.637085</ele>
        <time>2011-10-29T14:05:17Z</time>
      </trkpt>
      <trkpt lat="42.01535" lon="9.13542">
        <ele>1923.777344</ele>
        <time>2011-10-29T14:05:20Z</time>
      </trkpt>
      <trkpt lat="42.01533" lon="9.13537">
        <ele>1922.801758</ele>
        <time>2011-10-29T14:05:24Z</time>
      </trkpt>
      <trkpt lat="42.01531" lon="9.13531">
        <ele>1921.731445</ele>
        <time>2011-10-29T14:05:28Z</time>
      </trkpt>
      <trkpt lat="42.01528" lon="9.13529">
        <ele>1920.898438</ele>
        <time>2011-10-29T14:05:31Z</time>
      </trkpt>
      <trkpt lat="42.01527" lon="9.13528">
        <ele>1920.591187</ele>
        <time>2011-10-29T14:05:32Z</time>
      </trkpt>
      <trkpt lat="42.01523" lon="9.13521">
        <ele>1918.623169</ele>
        <time>2011-10-29T14:05:38Z</time>
      </trkpt>
      <trkpt lat="42.0152" lon="9.13517">
        <ele>1917.496338</ele>
        <time>2011-10-29T14:05:42Z</time>
      </trkpt>
      <trkpt lat="42.01517" lon="9.13512">
        <ele>1916.284424</ele>
        <time>2011-10-29T14:05:46Z</time>
      </trkpt>
      <trkpt lat="42.01515" lon="9.13509">
        <ele>1915.281494</ele>
        <time>2011-10-29T14:05:50Z</time>
      </trkpt>
      <trkpt lat="42.01513" lon="9.13503">
        <ele>1914.265137</ele>
        <time>2011-10-29T14:05:54Z</time>
      </trkpt>
      <trkpt lat="42.01511" lon="9.13499">
        <ele>1913.197266</ele>
        <time>2011-10-29T14:05:58Z</time>
      </trkpt>
      <trkpt lat="42.01508" lon="9.13494">
        <ele>1912.171997</ele>
        <time>2011-10-29T14:06:02Z</time>
      </trkpt>
      <trkpt lat="42.01505" lon="9.13491">
        <ele>1911.147583</ele>
        <time>2011-10-29T14:06:06Z</time>
      </trkpt>
      <trkpt lat="42.01503" lon="9.13486">
        <ele>1910.143433</ele>
        <time>2011-10-29T14:06:10Z</time>
      </trkpt>
      <trkpt lat="42.015" lon="9.13482">
        <ele>1909.111084</ele>
        <time>2011-10-29T14:06:15Z</time>
      </trkpt>
      <trkpt lat="42.01497" lon="9.13478">
        <ele>1908.074585</ele>
        <time>2011-10-29T14:06:19Z</time>
      </trkpt>
      <trkpt lat="42.01495" lon="9.13475">
        <ele>1907.311401</ele>
        <time>2011-10-29T14:06:22Z</time>
      </trkpt>
      <trkpt lat="42.01492" lon="9.13471">
        <ele>1906.300659</ele>
        <time>2011-10-29T14:06:26Z</time>
      </trkpt>
      <trkpt lat="42.01488" lon="9.13471">
        <ele>1905.612671</ele>
        <time>2011-10-29T14:06:30Z</time>
      </trkpt>
      <trkpt lat="42.01485" lon="9.13468">
        <ele>1904.548584</ele>
        <time>2011-10-29T14:06:34Z</time>
      </trkpt>
      <trkpt lat="42.01484" lon="9.13467">
        <ele>1904.276611</ele>
        <time>2011-10-29T14:06:35Z</time>
      </trkpt>
      <trkpt lat="42.01477" lon="9.13463">
        <ele>1901.991577</ele>
        <time>2011-10-29T14:06:42Z</time>
      </trkpt>
      <trkpt lat="42.01473" lon="9.13462">
        <ele>1900.886353</ele>
        <time>2011-10-29T14:06:46Z</time>
      </trkpt>
      <trkpt lat="42.01469" lon="9.13462">
        <ele>1899.859985</ele>
        <time>2011-10-29T14:06:50Z</time>
      </trkpt>
      <trkpt lat="42.01465" lon="9.13461">
        <ele>1898.668823</ele>
        <time>2011-10-29T14:06:54Z</time>
      </trkpt>
      <trkpt lat="42.01461" lon="9.1346">
        <ele>1897.662231</ele>
        <time>2011-10-29T14:06:57Z</time>
      </trkpt>
      <trkpt lat="42.01457" lon="9.13459">
        <ele>1896.563354</ele>
        <time>2011-10-29T14:07:00Z</time>
      </trkpt>
      <trkpt lat="42.01454" lon="9.13459">
        <ele>1895.64856</ele>
        <time>2011-10-29T14:07:03Z</time>
      </trkpt>
      <trkpt lat="42.0145" lon="9.13455">
        <ele>1894.578125</ele>
        <time>2011-10-29T14:07:07Z</time>
      </trkpt>
      <trkpt lat="42.01448" lon="9.1345">
        <ele>1893.654053</ele>
        <time>2011-10-29T14:07:11Z</time>
      </trkpt>
      <trkpt lat="42.01445" lon="9.13446">
        <ele>1892.843018</ele>
        <time>2011-10-29T14:07:15Z</time>
      </trkpt>
      <trkpt lat="42.01443" lon="9.13442">
        <ele>1892.304199</ele>
        <time>2011-10-29T14:07:18Z</time>
      </trkpt>
      <trkpt lat="42.01441" lon="9.13439">
        <ele>1891.432617</ele>
        <time>2011-10-29T14:07:21Z</time>
      </trkpt>
      <trkpt lat="42.01438" lon="9.13436">
        <ele>1890.46875</ele>
        <time>2011-10-29T14:07:24Z</time>
      </trkpt>
      <trkpt lat="42.01435" lon="9.13433">
        <ele>1889.355957</ele>
        <time>2011-10-29T14:07:28Z</time>
      </trkpt>
      <trkpt lat="42.01432" lon="9.13428">
        <ele>1888.352051</ele>
        <time>2011-10-29T14:07:32Z</time>
      </trkpt>
      <trkpt lat="42.01431" lon="9.13423">
        <ele>1887.938599</ele>
        <time>2011-10-29T14:07:36Z</time>
      </trkpt>
      <trkpt lat="42.01431" lon="9.13422">
        <ele>1887.78418</ele>
        <time>2011-10-29T14:07:37Z</time>
      </trkpt>
      <trkpt lat="42.01426" lon="9.13413">
        <ele>1886.059204</ele>
        <time>2011-10-29T14:07:44Z</time>
      </trkpt>
      <trkpt lat="42.01424" lon="9.1341">
        <ele>1885.218506</ele>
        <time>2011-10-29T14:07:47Z</time>
      </trkpt>
      <trkpt lat="42.01421" lon="9.13407">
        <ele>1884.410889</ele>
        <time>2011-10-29T14:07:50Z</time>
      </trkpt>
      <trkpt lat="42.01418" lon="9.13404">
        <ele>1883.50415</ele>
        <time>2011-10-29T14:07:53Z</time>
      </trkpt>
      <trkpt lat="42.01415" lon="9.13401">
        <ele>1882.594971</ele>
        <time>2011-10-29T14:07:56Z</time>
      </trkpt>
      <trkpt lat="42.01411" lon="9.13398">
        <ele>1881.465332</ele>
        <time>2011-10-29T14:08:00Z</time>
      </trkpt>
      <trkpt lat="42.01408" lon="9.13396">
        <ele>1880.464966</ele>
        <time>2011-10-29T14:08:04Z</time>
      </trkpt>
      <trkpt lat="42.01404" lon="9.13394">
        <ele>1879.572632</ele>
        <time>2011-10-29T14:08:07Z</time>
      </trkpt>
      <trkpt lat="42.01401" lon="9.13392">
        <ele>1878.508911</ele>
        <time>2011-10-29T14:08:11Z</time>
      </trkpt>
      <trkpt lat="42.01398" lon="9.13388">
        <ele>1877.604492</ele>
        <time>2011-10-29T14:08:15Z</time>
      </trkpt>
      <trkpt lat="42.01394" lon="9.13384">
        <ele>1876.424561</ele>
        <time>2011-10-29T14:08:19Z</time>
      </trkpt>
      <trkpt lat="42.01391" lon="9.13381">
        <ele>1875.510254</ele>
        <time>2011-10-29T14:08:22Z</time>
      </trkpt>
      <trkpt lat="42.01388" lon="9.13377">
        <ele>1874.470215</ele>
        <time>2011-10-29T14:08:26Z</time>
      </trkpt>
      <trkpt lat="42.01386" lon="9.13373">
        <ele>1873.503296</ele>
        <time>2011-10-29T14:08:29Z</time>
      </trkpt>
      <trkpt lat="42.01383" lon="9.1337">
        <ele>1872.516724</ele>
        <time>2011-10-29T14:08:32Z</time>
      </trkpt>
      <trkpt lat="42.01381" lon="9.13366">
        <ele>1871.760986</ele>
        <time>2011-10-29T14:08:35Z</time>
      </trkpt>
      <trkpt lat="42.01378" lon="9.13363">
        <ele>1870.713867</ele>
        <time>2011-10-29T14:08:38Z</time>
      </trkpt>
      <trkpt lat="42.01377" lon="9.13361">
        <ele>1870.376709</ele>
        <time>2011-10-29T14:08:39Z</time>
      </trkpt>
      <trkpt lat="42.01373" lon="9.13355">
        <ele>1868.904663</ele>
        <time>2011-10-29T14:08:44Z</time>
      </trkpt>
      <trkpt lat="42.0137" lon="9.13351">
        <ele>1867.94751</ele>
        <time>2011-10-29T14:08:47Z</time>
      </trkpt>
      <trkpt lat="42.01367" lon="9.13348">
        <ele>1866.457642</ele>
        <time>2011-10-29T14:08:51Z</time>
      </trkpt>
      <trkpt lat="42.01364" lon="9.13346">
        <ele>1865.234741</ele>
        <time>2011-10-29T14:08:54Z</time>
      </trkpt>
      <trkpt lat="42.01361" lon="9.13342">
        <ele>1864.174561</ele>
        <time>2011-10-29T14:08:57Z</time>
      </trkpt>
      <trkpt lat="42.01358" lon="9.13338">
        <ele>1862.866089</ele>
        <time>2011-10-29T14:09:01Z</time>
      </trkpt>
      <trkpt lat="42.01355" lon="9.13334">
        <ele>1861.490723</ele>
        <time>2011-10-29T14:09:05Z</time>
      </trkpt>
      <trkpt lat="42.01354" lon="9.13329">
        <ele>1860.654541</ele>
        <time>2011-10-29T14:09:10Z</time>
      </trkpt>
      <trkpt lat="42.01351" lon="9.13325">
        <ele>1859.479736</ele>
        <time>2011-10-29T14:09:15Z</time>
      </trkpt>
      <trkpt lat="42.01348" lon="9.13321">
        <ele>1858.107666</ele>
        <time>2011-10-29T14:09:20Z</time>
      </trkpt>
      <trkpt lat="42.01345" lon="9.13319">
        <ele>1856.670532</ele>
        <time>2011-10-29T14:09:24Z</time>
      </trkpt>
      <trkpt lat="42.01342" lon="9.13316">
        <ele>1855.315674</ele>
        <time>2011-10-29T14:09:28Z</time>
      </trkpt>
      <trkpt lat="42.01338" lon="9.13314">
        <ele>1853.648071</ele>
        <time>2011-10-29T14:09:33Z</time>
      </trkpt>
      <trkpt lat="42.01334" lon="9.13314">
        <ele>1852.122681</ele>
        <time>2011-10-29T14:09:37Z</time>
      </trkpt>
      <trkpt lat="42.01332" lon="9.13309">
        <ele>1850.817017</ele>
        <time>2011-10-29T14:09:43Z</time>
      </trkpt>
      <trkpt lat="42.01331" lon="9.13307">
        <ele>1850.580078</ele>
        <time>2011-10-29T14:09:44Z</time>
      </trkpt>
      <trkpt lat="42.01328" lon="9.133">
        <ele>1848.639648</ele>
        <time>2011-10-29T14:09:51Z</time>
      </trkpt>
      <trkpt lat="42.01324" lon="9.13298">
        <ele>1847.004639</ele>
        <time>2011-10-29T14:09:55Z</time>
      </trkpt>
      <trkpt lat="42.01321" lon="9.13294">
        <ele>1845.566895</ele>
        <time>2011-10-29T14:10:00Z</time>
      </trkpt>
      <trkpt lat="42.01318" lon="9.1329">
        <ele>1844.209839</ele>
        <time>2011-10-29T14:10:04Z</time>
      </trkpt>
      <trkpt lat="42.01316" lon="9.13287">
        <ele>1843.223877</ele>
        <time>2011-10-29T14:10:07Z</time>
      </trkpt>
      <trkpt lat="42.01313" lon="9.13283">
        <ele>1842.027832</ele>
        <time>2011-10-29T14:10:11Z</time>
      </trkpt>
      <trkpt lat="42.0131" lon="9.13279">
        <ele>1840.873657</ele>
        <time>2011-10-29T14:10:15Z</time>
      </trkpt>
      <trkpt lat="42.01308" lon="9.13273">
        <ele>1840.061279</ele>
        <time>2011-10-29T14:10:19Z</time>
      </trkpt>
      <trkpt lat="42.01305" lon="9.13268">
        <ele>1839.062988</ele>
        <time>2011-10-29T14:10:23Z</time>
      </trkpt>
      <trkpt lat="42.01303" lon="9.13266">
        <ele>1838.159424</ele>
        <time>2011-10-29T14:10:26Z</time>
      </trkpt>
      <trkpt lat="42.013" lon="9.13263">
        <ele>1837.235229</ele>
        <time>2011-10-29T14:10:29Z</time>
      </trkpt>
      <trkpt lat="42.01297" lon="9.1326">
        <ele>1836.339722</ele>
        <time>2011-10-29T14:10:32Z</time>
      </trkpt>
      <trkpt lat="42.01295" lon="9.13257">
        <ele>1835.452393</ele>
        <time>2011-10-29T14:10:35Z</time>
      </trkpt>
      <trkpt lat="42.01292" lon="9.13254">
        <ele>1834.547607</ele>
        <time>2011-10-29T14:10:38Z</time>
      </trkpt>
      <trkpt lat="42.01289" lon="9.13251">
        <ele>1833.751709</ele>
        <time>2011-10-29T14:10:41Z</time>
      </trkpt>
      <trkpt lat="42.01286" lon="9.13248">
        <ele>1832.917114</ele>
        <time>2011-10-29T14:10:44Z</time>
      </trkpt>
      <trkpt lat="42.01285" lon="9.13247">
        <ele>1832.571411</ele>
        <time>2011-10-29T14:10:45Z</time>
      </trkpt>
      <trkpt lat="42.0128" lon="9.13243">
        <ele>1830.935059</ele>
        <time>2011-10-29T14:10:50Z</time>
      </trkpt>
      <trkpt lat="42.01277" lon="9.1324">
        <ele>1830.119507</ele>
        <time>2011-10-29T14:10:53Z</time>
      </trkpt>
      <trkpt lat="42.01274" lon="9.13236">
        <ele>1829.511353</ele>
        <time>2011-10-29T14:10:56Z</time>
      </trkpt>
      <trkpt lat="42.01272" lon="9.13233">
        <ele>1828.893433</ele>
        <time>2011-10-29T14:10:59Z</time>
      </trkpt>
      <trkpt lat="42.01269" lon="9.13229">
        <ele>1828.29895</ele>
        <time>2011-10-29T14:11:02Z</time>
      </trkpt>
      <trkpt lat="42.01267" lon="9.13225">
        <ele>1827.800171</ele>
        <time>2011-10-29T14:11:05Z</time>
      </trkpt>
      <trkpt lat="42.01264" lon="9.13222">
        <ele>1827.272949</ele>
        <time>2011-10-29T14:11:08Z</time>
      </trkpt>
      <trkpt lat="42.01261" lon="9.13218">
        <ele>1826.785889</ele>
        <time>2011-10-29T14:11:11Z</time>
      </trkpt>
      <trkpt lat="42.01258" lon="9.13214">
        <ele>1826.235229</ele>
        <time>2011-10-29T14:11:14Z</time>
      </trkpt>
      <trkpt lat="42.01255" lon="9.1321">
        <ele>1825.73291</ele>
        <time>2011-10-29T14:11:17Z</time>
      </trkpt>
      <trkpt lat="42.01252" lon="9.13207">
        <ele>1825.197632</ele>
        <time>2011-10-29T14:11:20Z</time>
      </trkpt>
      <trkpt lat="42.01249" lon="9.13204">
        <ele>1824.713623</ele>
        <time>2011-10-29T14:11:23Z</time>
      </trkpt>
      <trkpt lat="42.01246" lon="9.132">
        <ele>1824.250244</ele>
        <time>2011-10-29T14:11:26Z</time>
      </trkpt>
      <trkpt lat="42.01243" lon="9.13196">
        <ele>1823.765991</ele>
        <time>2011-10-29T14:11:29Z</time>
      </trkpt>
      <trkpt lat="42.0124" lon="9.13193">
        <ele>1823.26062</ele>
        <time>2011-10-29T14:11:32Z</time>
      </trkpt>
      <trkpt lat="42.01237" lon="9.1319">
        <ele>1822.747925</ele>
        <time>2011-10-29T14:11:35Z</time>
      </trkpt>
      <trkpt lat="42.01234" lon="9.13186">
        <ele>1822.343628</ele>
        <time>2011-10-29T14:11:38Z</time>
      </trkpt>
      <trkpt lat="42.01231" lon="9.13182">
        <ele>1821.922974</ele>
        <time>2011-10-29T14:11:41Z</time>
      </trkpt>
      <trkpt lat="42.01228" lon="9.13179">
        <ele>1821.490723</ele>
        <time>2011-10-29T14:11:44Z</time>
      </trkpt>
      <trkpt lat="42.01225" lon="9.13175">
        <ele>1821.112427</ele>
        <time>2011-10-29T14:11:47Z</time>
      </trkpt>
      <trkpt lat="42.01224" lon="9.13174">
        <ele>1820.978882</ele>
        <time>2011-10-29T14:11:48Z</time>
      </trkpt>
      <trkpt lat="42.01219" lon="9.13167">
        <ele>1820.380493</ele>
        <time>2011-10-29T14:11:53Z</time>
      </trkpt>
      <trkpt lat="42.01216" lon="9.13164">
        <ele>1820.065063</ele>
        <time>2011-10-29T14:11:56Z</time>
      </trkpt>
      <trkpt lat="42.01212" lon="9.1316">
        <ele>1819.700195</ele>
        <time>2011-10-29T14:11:59Z</time>
      </trkpt>
      <trkpt lat="42.01208" lon="9.13157">
        <ele>1819.271484</ele>
        <time>2011-10-29T14:12:02Z</time>
      </trkpt>
      <trkpt lat="42.01206" lon="9.13153">
        <ele>1819.106689</ele>
        <time>2011-10-29T14:12:05Z</time>
      </trkpt>
      <trkpt lat="42.01203" lon="9.13149">
        <ele>1818.859619</ele>
        <time>2011-10-29T14:12:08Z</time>
      </trkpt>
      <trkpt lat="42.012" lon="9.13145">
        <ele>1818.466797</ele>
        <time>2011-10-29T14:12:11Z</time>
      </trkpt>
      <trkpt lat="42.01196" lon="9.13142">
        <ele>1818.036987</ele>
        <time>2011-10-29T14:12:14Z</time>
      </trkpt>
      <trkpt lat="42.01193" lon="9.13139">
        <ele>1817.673462</ele>
        <time>2011-10-29T14:12:17Z</time>
      </trkpt>
      <trkpt lat="42.0119" lon="9.13134">
        <ele>1817.338867</ele>
        <time>2011-10-29T14:12:20Z</time>
      </trkpt>
      <trkpt lat="42.01187" lon="9.13131">
        <ele>1817.031616</ele>
        <time>2011-10-29T14:12:23Z</time>
      </trkpt>
      <trkpt lat="42.01184" lon="9.13126">
        <ele>1816.7323</ele>
        <time>2011-10-29T14:12:26Z</time>
      </trkpt>
      <trkpt lat="42.01181" lon="9.13123">
        <ele>1816.434082</ele>
        <time>2011-10-29T14:12:29Z</time>
      </trkpt>
      <trkpt lat="42.01177" lon="9.13119">
        <ele>1816.094971</ele>
        <time>2011-10-29T14:12:32Z</time>
      </trkpt>
      <trkpt lat="42.01174" lon="9.13115">
        <ele>1815.822754</ele>
        <time>2011-10-29T14:12:35Z</time>
      </trkpt>
      <trkpt lat="42.01171" lon="9.13111">
        <ele>1815.575928</ele>
        <time>2011-10-29T14:12:38Z</time>
      </trkpt>
      <trkpt lat="42.01168" lon="9.13106">
        <ele>1815.371826</ele>
        <time>2011-10-29T14:12:41Z</time>
      </trkpt>
      <trkpt lat="42.01166" lon="9.13103">
        <ele>1815.15625</ele>
        <time>2011-10-29T14:12:44Z</time>
      </trkpt>
      <trkpt lat="42.01163" lon="9.13099">
        <ele>1814.898804</ele>
        <time>2011-10-29T14:12:47Z</time>
      </trkpt>
      <trkpt lat="42.0116" lon="9.13096">
        <ele>1814.645386</ele>
        <time>2011-10-29T14:12:50Z</time>
      </trkpt>
      <trkpt lat="42.01158" lon="9.13095">
        <ele>1814.524048</ele>
        <time>2011-10-29T14:12:51Z</time>
      </trkpt>
      <trkpt lat="42.01152" lon="9.1309">
        <ele>1813.897461</ele>
        <time>2011-10-29T14:12:56Z</time>
      </trkpt>
      <trkpt lat="42.01148" lon="9.13089">
        <ele>1813.491821</ele>
        <time>2011-10-29T14:12:59Z</time>
      </trkpt>
      <trkpt lat="42.01145" lon="9.13086">
        <ele>1813.206787</ele>
        <time>2011-10-29T14:13:02Z</time>
      </trkpt>
      <trkpt lat="42.01141" lon="9.13084">
        <ele>1812.855591</ele>
        <time>2011-10-29T14:13:05Z</time>
      </trkpt>
      <trkpt lat="42.01138" lon="9.13081">
        <ele>1812.421265</ele>
        <time>2011-10-29T14:13:08Z</time>
      </trkpt>
      <trkpt lat="42.01134" lon="9.13079">
        <ele>1811.931152</ele>
        <time>2011-10-29T14:13:11Z</time>
      </trkpt>
      <trkpt lat="42.01131" lon="9.13077">
        <ele>1811.541382</ele>
        <time>2011-10-29T14:13:14Z</time>
      </trkpt>
      <trkpt lat="42.01127" lon="9.13076">
        <ele>1811.165771</ele>
        <time>2011-10-29T14:13:17Z</time>
      </trkpt>
      <trkpt lat="42.01124" lon="9.13074">
        <ele>1810.776123</ele>
        <time>2011-10-29T14:13:20Z</time>
      </trkpt>
      <trkpt lat="42.0112" lon="9.13072">
        <ele>1810.315063</ele>
        <time>2011-10-29T14:13:24Z</time>
      </trkpt>
      <trkpt lat="42.01116" lon="9.1307">
        <ele>1809.897949</ele>
        <time>2011-10-29T14:13:27Z</time>
      </trkpt>
      <trkpt lat="42.01112" lon="9.13068">
        <ele>1809.501099</ele>
        <time>2011-10-29T14:13:30Z</time>
      </trkpt>
      <trkpt lat="42.01109" lon="9.13066">
        <ele>1809.124268</ele>
        <time>2011-10-29T14:13:33Z</time>
      </trkpt>
      <trkpt lat="42.01105" lon="9.13064">
        <ele>1808.827515</ele>
        <time>2011-10-29T14:13:36Z</time>
      </trkpt>
      <trkpt lat="42.01101" lon="9.13063">
        <ele>1808.587524</ele>
        <time>2011-10-29T14:13:39Z</time>
      </trkpt>
      <trkpt lat="42.01097" lon="9.13061">
        <ele>1808.310059</ele>
        <time>2011-10-29T14:13:43Z</time>
      </trkpt>
      <trkpt lat="42.01094" lon="9.13059">
        <ele>1808.084961</ele>
        <time>2011-10-29T14:13:46Z</time>
      </trkpt>
      <trkpt lat="42.01091" lon="9.13057">
        <ele>1807.859985</ele>
        <time>2011-10-29T14:13:49Z</time>
      </trkpt>
      <trkpt lat="42.01088" lon="9.13055">
        <ele>1807.642456</ele>
        <time>2011-10-29T14:13:52Z</time>
      </trkpt>
      <trkpt lat="42.01087" lon="9.13054">
        <ele>1807.560059</ele>
        <time>2011-10-29T14:13:53Z</time>
      </trkpt>
      <trkpt lat="42.01081" lon="9.13051">
        <ele>1807.147461</ele>
        <time>2011-10-29T14:13:59Z</time>
      </trkpt>
      <trkpt lat="42.01077" lon="9.13048">
        <ele>1806.869995</ele>
        <time>2011-10-29T14:14:03Z</time>
      </trkpt>
      <trkpt lat="42.01073" lon="9.13046">
        <ele>1806.652466</ele>
        <time>2011-10-29T14:14:06Z</time>
      </trkpt>
      <trkpt lat="42.0107" lon="9.13044">
        <ele>1806.420044</ele>
        <time>2011-10-29T14:14:09Z</time>
      </trkpt>
      <trkpt lat="42.01067" lon="9.13042">
        <ele>1806.202515</ele>
        <time>2011-10-29T14:14:12Z</time>
      </trkpt>
      <trkpt lat="42.01064" lon="9.1304">
        <ele>1805.955933</ele>
        <time>2011-10-29T14:14:15Z</time>
      </trkpt>
      <trkpt lat="42.01059" lon="9.13038">
        <ele>1805.539795</ele>
        <time>2011-10-29T14:14:19Z</time>
      </trkpt>
      <trkpt lat="42.01055" lon="9.13036">
        <ele>1805.139893</ele>
        <time>2011-10-29T14:14:23Z</time>
      </trkpt>
      <trkpt lat="42.01051" lon="9.13033">
        <ele>1804.747192</ele>
        <time>2011-10-29T14:14:27Z</time>
      </trkpt>
      <trkpt lat="42.01047" lon="9.13031">
        <ele>1804.359009</ele>
        <time>2011-10-29T14:14:31Z</time>
      </trkpt>
      <trkpt lat="42.01044" lon="9.13029">
        <ele>1803.997803</ele>
        <time>2011-10-29T14:14:37Z</time>
      </trkpt>
      <trkpt lat="42.0104" lon="9.13027">
        <ele>1803.670776</ele>
        <time>2011-10-29T14:14:41Z</time>
      </trkpt>
      <trkpt lat="42.01036" lon="9.13024">
        <ele>1803.333008</ele>
        <time>2011-10-29T14:14:45Z</time>
      </trkpt>
      <trkpt lat="42.01033" lon="9.13023">
        <ele>1803.021729</ele>
        <time>2011-10-29T14:14:49Z</time>
      </trkpt>
      <trkpt lat="42.0103" lon="9.13021">
        <ele>1802.7052</ele>
        <time>2011-10-29T14:14:53Z</time>
      </trkpt>
      <trkpt lat="42.01029" lon="9.1302">
        <ele>1802.619751</ele>
        <time>2011-10-29T14:14:54Z</time>
      </trkpt>
      <trkpt lat="42.01022" lon="9.13017">
        <ele>1802</ele>
        <time>2011-10-29T14:15:01Z</time>
      </trkpt>
      <trkpt lat="42.01018" lon="9.13013">
        <ele>1801.382446</ele>
        <time>2011-10-29T14:15:05Z</time>
      </trkpt>
      <trkpt lat="42.01015" lon="9.13011">
        <ele>1800.757446</ele>
        <time>2011-10-29T14:15:08Z</time>
      </trkpt>
      <trkpt lat="42.01011" lon="9.13009">
        <ele>1800.064941</ele>
        <time>2011-10-29T14:15:11Z</time>
      </trkpt>
      <trkpt lat="42.01008" lon="9.13008">
        <ele>1799.175781</ele>
        <time>2011-10-29T14:15:15Z</time>
      </trkpt>
      <trkpt lat="42.01005" lon="9.13006">
        <ele>1798.342773</ele>
        <time>2011-10-29T14:15:18Z</time>
      </trkpt>
      <trkpt lat="42.01001" lon="9.13003">
        <ele>1797.401367</ele>
        <time>2011-10-29T14:15:22Z</time>
      </trkpt>
      <trkpt lat="42.00997" lon="9.13001">
        <ele>1796.406372</ele>
        <time>2011-10-29T14:15:26Z</time>
      </trkpt>
      <trkpt lat="42.00994" lon="9.12998">
        <ele>1795.532349</ele>
        <time>2011-10-29T14:15:29Z</time>
      </trkpt>
      <trkpt lat="42.00991" lon="9.12995">
        <ele>1794.723877</ele>
        <time>2011-10-29T14:15:32Z</time>
      </trkpt>
      <trkpt lat="42.00988" lon="9.12993">
        <ele>1793.908081</ele>
        <time>2011-10-29T14:15:36Z</time>
      </trkpt>
      <trkpt lat="42.00984" lon="9.12992">
        <ele>1793.075684</ele>
        <time>2011-10-29T14:15:40Z</time>
      </trkpt>
      <trkpt lat="42.0098" lon="9.1299">
        <ele>1792.234253</ele>
        <time>2011-10-29T14:15:44Z</time>
      </trkpt>
      <trkpt lat="42.00976" lon="9.12988">
        <ele>1791.322144</ele>
        <time>2011-10-29T14:15:48Z</time>
      </trkpt>
      <trkpt lat="42.00972" lon="9.12986">
        <ele>1790.43811</ele>
        <time>2011-10-29T14:15:52Z</time>
      </trkpt>
      <trkpt lat="42.00968" lon="9.12984">
        <ele>1789.536011</ele>
        <time>2011-10-29T14:15:56Z</time>
      </trkpt>
      <trkpt lat="42.00967" lon="9.12984">
        <ele>1789.28418</ele>
        <time>2011-10-29T14:15:57Z</time>
      </trkpt>
      <trkpt lat="42.0096" lon="9.12981">
        <ele>1787.928589</ele>
        <time>2011-10-29T14:16:03Z</time>
      </trkpt>
      <trkpt lat="42.00956" lon="9.12979">
        <ele>1787.043091</ele>
        <time>2011-10-29T14:16:07Z</time>
      </trkpt>
      <trkpt lat="42.00953" lon="9.12978">
        <ele>1786.389648</ele>
        <time>2011-10-29T14:16:10Z</time>
      </trkpt>
      <trkpt lat="42.00949" lon="9.12976">
        <ele>1785.632813</ele>
        <time>2011-10-29T14:16:13Z</time>
      </trkpt>
      <trkpt lat="42.00946" lon="9.12974">
        <ele>1784.900146</ele>
        <time>2011-10-29T14:16:16Z</time>
      </trkpt>
      <trkpt lat="42.00942" lon="9.12972">
        <ele>1784.18811</ele>
        <time>2011-10-29T14:16:19Z</time>
      </trkpt>
      <trkpt lat="42.00939" lon="9.1297">
        <ele>1783.467529</ele>
        <time>2011-10-29T14:16:22Z</time>
      </trkpt>
      <trkpt lat="42.00936" lon="9.12969">
        <ele>1782.834595</ele>
        <time>2011-10-29T14:16:25Z</time>
      </trkpt>
      <trkpt lat="42.00932" lon="9.12966">
        <ele>1782.035034</ele>
        <time>2011-10-29T14:16:28Z</time>
      </trkpt>
      <trkpt lat="42.00928" lon="9.12964">
        <ele>1781.18811</ele>
        <time>2011-10-29T14:16:32Z</time>
      </trkpt>
      <trkpt lat="42.00924" lon="9.12961">
        <ele>1780.351929</ele>
        <time>2011-10-29T14:16:36Z</time>
      </trkpt>
      <trkpt lat="42.00921" lon="9.12959">
        <ele>1779.704834</ele>
        <time>2011-10-29T14:16:39Z</time>
      </trkpt>
      <trkpt lat="42.00917" lon="9.12956">
        <ele>1778.911987</ele>
        <time>2011-10-29T14:16:43Z</time>
      </trkpt>
      <trkpt lat="42.00914" lon="9.12954">
        <ele>1778.213379</ele>
        <time>2011-10-29T14:16:47Z</time>
      </trkpt>
      <trkpt lat="42.0091" lon="9.12951">
        <ele>1777.460449</ele>
        <time>2011-10-29T14:16:51Z</time>
      </trkpt>
      <trkpt lat="42.00906" lon="9.12949">
        <ele>1776.719727</ele>
        <time>2011-10-29T14:16:56Z</time>
      </trkpt>
      <trkpt lat="42.00902" lon="9.12947">
        <ele>1776.094482</ele>
        <time>2011-10-29T14:17:00Z</time>
      </trkpt>
      <trkpt lat="42.00901" lon="9.12947">
        <ele>1775.920776</ele>
        <time>2011-10-29T14:17:01Z</time>
      </trkpt>
      <trkpt lat="42.00894" lon="9.12943">
        <ele>1774.700684</ele>
        <time>2011-10-29T14:17:09Z</time>
      </trkpt>
      <trkpt lat="42.0089" lon="9.1294">
        <ele>1774.018188</ele>
        <time>2011-10-29T14:17:13Z</time>
      </trkpt>
      <trkpt lat="42.00887" lon="9.12938">
        <ele>1773.252808</ele>
        <time>2011-10-29T14:17:17Z</time>
      </trkpt>
      <trkpt lat="42.00884" lon="9.12936">
        <ele>1772.577759</ele>
        <time>2011-10-29T14:17:20Z</time>
      </trkpt>
      <trkpt lat="42.0088" lon="9.12934">
        <ele>1771.77124</ele>
        <time>2011-10-29T14:17:24Z</time>
      </trkpt>
      <trkpt lat="42.00876" lon="9.12932">
        <ele>1770.86853</ele>
        <time>2011-10-29T14:17:28Z</time>
      </trkpt>
      <trkpt lat="42.00872" lon="9.12929">
        <ele>1769.938477</ele>
        <time>2011-10-29T14:17:32Z</time>
      </trkpt>
      <trkpt lat="42.00869" lon="9.12926">
        <ele>1769.153076</ele>
        <time>2011-10-29T14:17:36Z</time>
      </trkpt>
      <trkpt lat="42.00865" lon="9.12925">
        <ele>1768.259155</ele>
        <time>2011-10-29T14:17:40Z</time>
      </trkpt>
      <trkpt lat="42.00861" lon="9.12923">
        <ele>1767.370483</ele>
        <time>2011-10-29T14:17:44Z</time>
      </trkpt>
      <trkpt lat="42.00857" lon="9.12921">
        <ele>1766.699951</ele>
        <time>2011-10-29T14:17:47Z</time>
      </trkpt>
      <trkpt lat="42.00854" lon="9.12919">
        <ele>1765.898071</ele>
        <time>2011-10-29T14:17:51Z</time>
      </trkpt>
      <trkpt lat="42.0085" lon="9.12917">
        <ele>1765.16333</ele>
        <time>2011-10-29T14:17:55Z</time>
      </trkpt>
      <trkpt lat="42.00847" lon="9.12913">
        <ele>1764.411377</ele>
        <time>2011-10-29T14:18:00Z</time>
      </trkpt>
      <trkpt lat="42.00843" lon="9.12911">
        <ele>1763.517456</ele>
        <time>2011-10-29T14:18:04Z</time>
      </trkpt>
      <trkpt lat="42.00842" lon="9.1291">
        <ele>1763.314087</ele>
        <time>2011-10-29T14:18:05Z</time>
      </trkpt>
      <trkpt lat="42.00836" lon="9.12906">
        <ele>1761.760498</ele>
        <time>2011-10-29T14:18:12Z</time>
      </trkpt>
      <trkpt lat="42.00832" lon="9.12904">
        <ele>1760.776245</ele>
        <time>2011-10-29T14:18:16Z</time>
      </trkpt>
      <trkpt lat="42.00828" lon="9.12902">
        <ele>1760.016602</ele>
        <time>2011-10-29T14:18:20Z</time>
      </trkpt>
      <trkpt lat="42.00825" lon="9.12901">
        <ele>1759.172729</ele>
        <time>2011-10-29T14:18:24Z</time>
      </trkpt>
      <trkpt lat="42.00821" lon="9.12899">
        <ele>1758.386841</ele>
        <time>2011-10-29T14:18:28Z</time>
      </trkpt>
      <trkpt lat="42.00817" lon="9.12897">
        <ele>1757.502319</ele>
        <time>2011-10-29T14:18:32Z</time>
      </trkpt>
      <trkpt lat="42.00814" lon="9.12894">
        <ele>1756.677979</ele>
        <time>2011-10-29T14:18:36Z</time>
      </trkpt>
      <trkpt lat="42.0081" lon="9.12892">
        <ele>1755.790894</ele>
        <time>2011-10-29T14:18:40Z</time>
      </trkpt>
      <trkpt lat="42.00807" lon="9.1289">
        <ele>1755.097656</ele>
        <time>2011-10-29T14:18:43Z</time>
      </trkpt>
      <trkpt lat="42.00803" lon="9.12887">
        <ele>1754.174805</ele>
        <time>2011-10-29T14:18:47Z</time>
      </trkpt>
      <trkpt lat="42.00799" lon="9.12885">
        <ele>1753.265503</ele>
        <time>2011-10-29T14:18:51Z</time>
      </trkpt>
      <trkpt lat="42.00795" lon="9.12883">
        <ele>1752.361206</ele>
        <time>2011-10-29T14:18:55Z</time>
      </trkpt>
      <trkpt lat="42.00792" lon="9.1288">
        <ele>1751.484131</ele>
        <time>2011-10-29T14:18:59Z</time>
      </trkpt>
      <trkpt lat="42.00788" lon="9.12878">
        <ele>1750.616089</ele>
        <time>2011-10-29T14:19:03Z</time>
      </trkpt>
      <trkpt lat="42.00785" lon="9.12876">
        <ele>1749.72876</ele>
        <time>2011-10-29T14:19:07Z</time>
      </trkpt>
      <trkpt lat="42.00784" lon="9.12875">
        <ele>1749.569946</ele>
        <time>2011-10-29T14:19:08Z</time>
      </trkpt>
      <trkpt lat="42.00777" lon="9.12871">
        <ele>1747.885254</ele>
        <time>2011-10-29T14:19:17Z</time>
      </trkpt>
      <trkpt lat="42.00773" lon="9.12868">
        <ele>1747.01001</ele>
        <time>2011-10-29T14:19:21Z</time>
      </trkpt>
      <trkpt lat="42.0077" lon="9.12867">
        <ele>1746.146729</ele>
        <time>2011-10-29T14:19:25Z</time>
      </trkpt>
      <trkpt lat="42.00766" lon="9.12865">
        <ele>1745.38562</ele>
        <time>2011-10-29T14:19:29Z</time>
      </trkpt>
      <trkpt lat="42.00763" lon="9.12862">
        <ele>1744.602905</ele>
        <time>2011-10-29T14:19:33Z</time>
      </trkpt>
      <trkpt lat="42.00759" lon="9.12861">
        <ele>1743.650024</ele>
        <time>2011-10-29T14:19:37Z</time>
      </trkpt>
      <trkpt lat="42.00754" lon="9.12859">
        <ele>1742.650024</ele>
        <time>2011-10-29T14:19:41Z</time>
      </trkpt>
      <trkpt lat="42.0075" lon="9.12859">
        <ele>1741.775024</ele>
        <time>2011-10-29T14:19:45Z</time>
      </trkpt>
      <trkpt lat="42.00747" lon="9.12857">
        <ele>1741.012939</ele>
        <time>2011-10-29T14:19:48Z</time>
      </trkpt>
      <trkpt lat="42.00744" lon="9.12855">
        <ele>1740.157104</ele>
        <time>2011-10-29T14:19:51Z</time>
      </trkpt>
      <trkpt lat="42.0074" lon="9.12853">
        <ele>1739.194702</ele>
        <time>2011-10-29T14:19:55Z</time>
      </trkpt>
      <trkpt lat="42.00736" lon="9.1285">
        <ele>1738.155029</ele>
        <time>2011-10-29T14:19:59Z</time>
      </trkpt>
      <trkpt lat="42.00733" lon="9.12849">
        <ele>1737.352783</ele>
        <time>2011-10-29T14:20:02Z</time>
      </trkpt>
      <trkpt lat="42.00729" lon="9.12846">
        <ele>1736.33252</ele>
        <time>2011-10-29T14:20:06Z</time>
      </trkpt>
      <trkpt lat="42.00726" lon="9.12843">
        <ele>1735.539551</ele>
        <time>2011-10-29T14:20:09Z</time>
      </trkpt>
      <trkpt lat="42.00725" lon="9.12842">
        <ele>1735.295532</ele>
        <time>2011-10-29T14:20:10Z</time>
      </trkpt>
      <trkpt lat="42.00719" lon="9.12839">
        <ele>1733.827393</ele>
        <time>2011-10-29T14:20:16Z</time>
      </trkpt>
      <trkpt lat="42.00715" lon="9.12838">
        <ele>1732.78479</ele>
        <time>2011-10-29T14:20:20Z</time>
      </trkpt>
      <trkpt lat="42.00711" lon="9.12836">
        <ele>1731.73877</ele>
        <time>2011-10-29T14:20:24Z</time>
      </trkpt>
      <trkpt lat="42.00707" lon="9.12834">
        <ele>1730.632935</ele>
        <time>2011-10-29T14:20:28Z</time>
      </trkpt>
      <trkpt lat="42.00704" lon="9.12832">
        <ele>1729.648071</ele>
        <time>2011-10-29T14:20:32Z</time>
      </trkpt>
      <trkpt lat="42.007" lon="9.1283">
        <ele>1728.638306</ele>
        <time>2011-10-29T14:20:36Z</time>
      </trkpt>
      <trkpt lat="42.00696" lon="9.12827">
        <ele>1727.581177</ele>
        <time>2011-10-29T14:20:40Z</time>
      </trkpt>
      <trkpt lat="42.00692" lon="9.12825">
        <ele>1726.63208</ele>
        <time>2011-10-29T14:20:44Z</time>
      </trkpt>
      <trkpt lat="42.00688" lon="9.12823">
        <ele>1725.608276</ele>
        <time>2011-10-29T14:20:48Z</time>
      </trkpt>
      <trkpt lat="42.00685" lon="9.1282">
        <ele>1724.731934</ele>
        <time>2011-10-29T14:20:52Z</time>
      </trkpt>
      <trkpt lat="42.00681" lon="9.12817">
        <ele>1723.787964</ele>
        <time>2011-10-29T14:20:56Z</time>
      </trkpt>
      <trkpt lat="42.00677" lon="9.12814">
        <ele>1722.920044</ele>
        <time>2011-10-29T14:21:00Z</time>
      </trkpt>
      <trkpt lat="42.00674" lon="9.12811">
        <ele>1722.050537</ele>
        <time>2011-10-29T14:21:04Z</time>
      </trkpt>
      <trkpt lat="42.0067" lon="9.12808">
        <ele>1721.284546</ele>
        <time>2011-10-29T14:21:08Z</time>
      </trkpt>
      <trkpt lat="42.00666" lon="9.12806">
        <ele>1720.499634</ele>
        <time>2011-10-29T14:21:12Z</time>
      </trkpt>
      <trkpt lat="42.00665" lon="9.12806">
        <ele>1720.303467</ele>
        <time>2011-10-29T14:21:13Z</time>
      </trkpt>
      <trkpt lat="42.00658" lon="9.12803">
        <ele>1718.988159</ele>
        <time>2011-10-29T14:21:19Z</time>
      </trkpt>
      <trkpt lat="42.00655" lon="9.12802">
        <ele>1718.304199</ele>
        <time>2011-10-29T14:21:22Z</time>
      </trkpt>
      <trkpt lat="42.00652" lon="9.128">
        <ele>1717.593018</ele>
        <time>2011-10-29T14:21:25Z</time>
      </trkpt>
      <trkpt lat="42.00648" lon="9.12798">
        <ele>1716.805054</ele>
        <time>2011-10-29T14:21:29Z</time>
      </trkpt>
      <trkpt lat="42.00644" lon="9.12796">
        <ele>1716.08728</ele>
        <time>2011-10-29T14:21:32Z</time>
      </trkpt>
      <trkpt lat="42.00641" lon="9.12794">
        <ele>1715.38269</ele>
        <time>2011-10-29T14:21:35Z</time>
      </trkpt>
      <trkpt lat="42.00637" lon="9.12792">
        <ele>1714.538696</ele>
        <time>2011-10-29T14:21:39Z</time>
      </trkpt>
      <trkpt lat="42.00634" lon="9.1279">
        <ele>1713.832031</ele>
        <time>2011-10-29T14:21:42Z</time>
      </trkpt>
      <trkpt lat="42.00631" lon="9.12788">
        <ele>1713.203979</ele>
        <time>2011-10-29T14:21:45Z</time>
      </trkpt>
      <trkpt lat="42.00627" lon="9.12786">
        <ele>1712.557617</ele>
        <time>2011-10-29T14:21:48Z</time>
      </trkpt>
      <trkpt lat="42.00624" lon="9.12783">
        <ele>1711.9021</ele>
        <time>2011-10-29T14:21:52Z</time>
      </trkpt>
      <trkpt lat="42.00621" lon="9.12782">
        <ele>1711.21814</ele>
        <time>2011-10-29T14:21:55Z</time>
      </trkpt>
      <trkpt lat="42.00617" lon="9.1278">
        <ele>1710.389526</ele>
        <time>2011-10-29T14:21:59Z</time>
      </trkpt>
      <trkpt lat="42.00614" lon="9.12778">
        <ele>1709.786499</ele>
        <time>2011-10-29T14:22:02Z</time>
      </trkpt>
      <trkpt lat="42.0061" lon="9.12776">
        <ele>1709.154907</ele>
        <time>2011-10-29T14:22:05Z</time>
      </trkpt>
      <trkpt lat="42.00607" lon="9.12774">
        <ele>1708.509033</ele>
        <time>2011-10-29T14:22:08Z</time>
      </trkpt>
      <trkpt lat="42.00603" lon="9.12771">
        <ele>1707.764771</ele>
        <time>2011-10-29T14:22:12Z</time>
      </trkpt>
      <trkpt lat="42.006" lon="9.12769">
        <ele>1707.132568</ele>
        <time>2011-10-29T14:22:15Z</time>
      </trkpt>
      <trkpt lat="42.00599" lon="9.12769">
        <ele>1706.904297</ele>
        <time>2011-10-29T14:22:16Z</time>
      </trkpt>
      <trkpt lat="42.00593" lon="9.12765">
        <ele>1705.877441</ele>
        <time>2011-10-29T14:22:21Z</time>
      </trkpt>
      <trkpt lat="42.00589" lon="9.12763">
        <ele>1705.158447</ele>
        <time>2011-10-29T14:22:25Z</time>
      </trkpt>
      <trkpt lat="42.00585" lon="9.12761">
        <ele>1704.555298</ele>
        <time>2011-10-29T14:22:29Z</time>
      </trkpt>
      <trkpt lat="42.00581" lon="9.12761">
        <ele>1704.157471</ele>
        <time>2011-10-29T14:22:33Z</time>
      </trkpt>
      <trkpt lat="42.00574" lon="9.12761">
        <ele>1703.540405</ele>
        <time>2011-10-29T14:22:38Z</time>
      </trkpt>
      <trkpt lat="42.00571" lon="9.12762">
        <ele>1703.151733</ele>
        <time>2011-10-29T14:22:42Z</time>
      </trkpt>
      <trkpt lat="42.00567" lon="9.12761">
        <ele>1702.814697</ele>
        <time>2011-10-29T14:22:45Z</time>
      </trkpt>
      <trkpt lat="42.00563" lon="9.12762">
        <ele>1702.432007</ele>
        <time>2011-10-29T14:22:48Z</time>
      </trkpt>
      <trkpt lat="42.0056" lon="9.12762">
        <ele>1702.102295</ele>
        <time>2011-10-29T14:22:51Z</time>
      </trkpt>
      <trkpt lat="42.00556" lon="9.12763">
        <ele>1701.707397</ele>
        <time>2011-10-29T14:22:54Z</time>
      </trkpt>
      <trkpt lat="42.00552" lon="9.12764">
        <ele>1701.261475</ele>
        <time>2011-10-29T14:22:58Z</time>
      </trkpt>
      <trkpt lat="42.00548" lon="9.12764">
        <ele>1700.887085</ele>
        <time>2011-10-29T14:23:01Z</time>
      </trkpt>
      <trkpt lat="42.00545" lon="9.12765">
        <ele>1700.535645</ele>
        <time>2011-10-29T14:23:04Z</time>
      </trkpt>
      <trkpt lat="42.00542" lon="9.12765">
        <ele>1700.182251</ele>
        <time>2011-10-29T14:23:07Z</time>
      </trkpt>
      <trkpt lat="42.00538" lon="9.12766">
        <ele>1699.589966</ele>
        <time>2011-10-29T14:23:10Z</time>
      </trkpt>
      <trkpt lat="42.00534" lon="9.12766">
        <ele>1698.91748</ele>
        <time>2011-10-29T14:23:14Z</time>
      </trkpt>
      <trkpt lat="42.00529" lon="9.12767">
        <ele>1698.242554</ele>
        <time>2011-10-29T14:23:18Z</time>
      </trkpt>
      <trkpt lat="42.00529" lon="9.12767">
        <ele>1698.117554</ele>
        <time>2011-10-29T14:23:19Z</time>
      </trkpt>
      <trkpt lat="42.00522" lon="9.12768">
        <ele>1697.060059</ele>
        <time>2011-10-29T14:23:25Z</time>
      </trkpt>
      <trkpt lat="42.00518" lon="9.1277">
        <ele>1696.492554</ele>
        <time>2011-10-29T14:23:27Z</time>
      </trkpt>
      <trkpt lat="42.00515" lon="9.12773">
        <ele>1695.887451</ele>
        <time>2011-10-29T14:23:29Z</time>
      </trkpt>
      <trkpt lat="42.00511" lon="9.12774">
        <ele>1695.172485</ele>
        <time>2011-10-29T14:23:32Z</time>
      </trkpt>
      <trkpt lat="42.00507" lon="9.12774">
        <ele>1694.609985</ele>
        <time>2011-10-29T14:23:35Z</time>
      </trkpt>
      <trkpt lat="42.00504" lon="9.12774">
        <ele>1693.984985</ele>
        <time>2011-10-29T14:23:38Z</time>
      </trkpt>
      <trkpt lat="42.005" lon="9.12774">
        <ele>1693.400024</ele>
        <time>2011-10-29T14:23:41Z</time>
      </trkpt>
      <trkpt lat="42.00496" lon="9.12774">
        <ele>1692.780029</ele>
        <time>2011-10-29T14:23:44Z</time>
      </trkpt>
      <trkpt lat="42.00492" lon="9.12776">
        <ele>1691.949951</ele>
        <time>2011-10-29T14:23:47Z</time>
      </trkpt>
      <trkpt lat="42.00488" lon="9.12776">
        <ele>1691.04248</ele>
        <time>2011-10-29T14:23:51Z</time>
      </trkpt>
      <trkpt lat="42.00484" lon="9.12777">
        <ele>1690.1875</ele>
        <time>2011-10-29T14:23:54Z</time>
      </trkpt>
      <trkpt lat="42.0048" lon="9.12777">
        <ele>1689.38501</ele>
        <time>2011-10-29T14:23:57Z</time>
      </trkpt>
      <trkpt lat="42.00476" lon="9.12778">
        <ele>1688.597534</ele>
        <time>2011-10-29T14:24:00Z</time>
      </trkpt>
      <trkpt lat="42.00473" lon="9.12778">
        <ele>1687.787476</ele>
        <time>2011-10-29T14:24:03Z</time>
      </trkpt>
      <trkpt lat="42.00468" lon="9.12779">
        <ele>1686.887451</ele>
        <time>2011-10-29T14:24:06Z</time>
      </trkpt>
      <trkpt lat="42.00465" lon="9.1278">
        <ele>1686.152466</ele>
        <time>2011-10-29T14:24:09Z</time>
      </trkpt>
      <trkpt lat="42.00461" lon="9.12781">
        <ele>1685.22998</ele>
        <time>2011-10-29T14:24:13Z</time>
      </trkpt>
      <trkpt lat="42.00457" lon="9.12781">
        <ele>1684.525024</ele>
        <time>2011-10-29T14:24:16Z</time>
      </trkpt>
      <trkpt lat="42.00453" lon="9.12781">
        <ele>1683.594971</ele>
        <time>2011-10-29T14:24:20Z</time>
      </trkpt>
      <trkpt lat="42.00451" lon="9.12782">
        <ele>1683.310059</ele>
        <time>2011-10-29T14:24:21Z</time>
      </trkpt>
      <trkpt lat="42.00445" lon="9.12783">
        <ele>1681.591797</ele>
        <time>2011-10-29T14:24:27Z</time>
      </trkpt>
      <trkpt lat="42.00441" lon="9.12783">
        <ele>1680.402222</ele>
        <time>2011-10-29T14:24:31Z</time>
      </trkpt>
      <trkpt lat="42.00437" lon="9.12784">
        <ele>1679.145996</ele>
        <time>2011-10-29T14:24:35Z</time>
      </trkpt>
      <trkpt lat="42.00432" lon="9.12784">
        <ele>1678.000854</ele>
        <time>2011-10-29T14:24:39Z</time>
      </trkpt>
      <trkpt lat="42.00428" lon="9.12784">
        <ele>1676.848022</ele>
        <time>2011-10-29T14:24:43Z</time>
      </trkpt>
      <trkpt lat="42.00424" lon="9.12785">
        <ele>1675.682739</ele>
        <time>2011-10-29T14:24:47Z</time>
      </trkpt>
      <trkpt lat="42.00421" lon="9.12786">
        <ele>1674.718384</ele>
        <time>2011-10-29T14:24:50Z</time>
      </trkpt>
      <trkpt lat="42.00417" lon="9.12786">
        <ele>1673.645508</ele>
        <time>2011-10-29T14:24:53Z</time>
      </trkpt>
      <trkpt lat="42.00414" lon="9.12786">
        <ele>1672.62085</ele>
        <time>2011-10-29T14:24:56Z</time>
      </trkpt>
      <trkpt lat="42.0041" lon="9.12787">
        <ele>1671.647583</ele>
        <time>2011-10-29T14:24:59Z</time>
      </trkpt>
      <trkpt lat="42.00407" lon="9.12785">
        <ele>1670.730591</ele>
        <time>2011-10-29T14:25:02Z</time>
      </trkpt>
      <trkpt lat="42.00403" lon="9.12784">
        <ele>1669.682251</ele>
        <time>2011-10-29T14:25:05Z</time>
      </trkpt>
      <trkpt lat="42.00401" lon="9.12781">
        <ele>1669.067505</ele>
        <time>2011-10-29T14:25:08Z</time>
      </trkpt>
      <trkpt lat="42.00399" lon="9.12776">
        <ele>1668.676147</ele>
        <time>2011-10-29T14:25:11Z</time>
      </trkpt>
      <trkpt lat="42.00397" lon="9.12771">
        <ele>1668.501831</ele>
        <time>2011-10-29T14:25:14Z</time>
      </trkpt>
      <trkpt lat="42.00396" lon="9.12766">
        <ele>1668.420166</ele>
        <time>2011-10-29T14:25:17Z</time>
      </trkpt>
      <trkpt lat="42.00395" lon="9.12761">
        <ele>1668.31189</ele>
        <time>2011-10-29T14:25:20Z</time>
      </trkpt>
      <trkpt lat="42.00394" lon="9.12757">
        <ele>1668.262817</ele>
        <time>2011-10-29T14:25:23Z</time>
      </trkpt>
      <trkpt lat="42.00394" lon="9.12755">
        <ele>1668.199951</ele>
        <time>2011-10-29T14:25:24Z</time>
      </trkpt>
      <trkpt lat="42.00391" lon="9.12748">
        <ele>1667.650024</ele>
        <time>2011-10-29T14:25:29Z</time>
      </trkpt>
      <trkpt lat="42.0039" lon="9.12744">
        <ele>1667.329956</ele>
        <time>2011-10-29T14:25:32Z</time>
      </trkpt>
      <trkpt lat="42.00389" lon="9.1274">
        <ele>1667.01001</ele>
        <time>2011-10-29T14:25:35Z</time>
      </trkpt>
      <trkpt lat="42.00387" lon="9.12735">
        <ele>1666.695068</ele>
        <time>2011-10-29T14:25:38Z</time>
      </trkpt>
      <trkpt lat="42.00385" lon="9.12728">
        <ele>1666.02002</ele>
        <time>2011-10-29T14:25:43Z</time>
      </trkpt>
      <trkpt lat="42.00382" lon="9.12723">
        <ele>1665.352539</ele>
        <time>2011-10-29T14:25:47Z</time>
      </trkpt>
      <trkpt lat="42.0038" lon="9.12719">
        <ele>1664.757568</ele>
        <time>2011-10-29T14:25:50Z</time>
      </trkpt>
      <trkpt lat="42.00378" lon="9.12716">
        <ele>1664.222534</ele>
        <time>2011-10-29T14:25:53Z</time>
      </trkpt>
      <trkpt lat="42.00376" lon="9.12712">
        <ele>1663.594971</ele>
        <time>2011-10-29T14:25:56Z</time>
      </trkpt>
      <trkpt lat="42.00374" lon="9.12707">
        <ele>1663.247559</ele>
        <time>2011-10-29T14:25:59Z</time>
      </trkpt>
      <trkpt lat="42.00372" lon="9.12702">
        <ele>1662.665039</ele>
        <time>2011-10-29T14:26:03Z</time>
      </trkpt>
      <trkpt lat="42.0037" lon="9.12698">
        <ele>1662.155029</ele>
        <time>2011-10-29T14:26:06Z</time>
      </trkpt>
      <trkpt lat="42.00368" lon="9.12693">
        <ele>1661.682495</ele>
        <time>2011-10-29T14:26:09Z</time>
      </trkpt>
      <trkpt lat="42.00367" lon="9.12688">
        <ele>1660.974976</ele>
        <time>2011-10-29T14:26:12Z</time>
      </trkpt>
      <trkpt lat="42.00365" lon="9.12683">
        <ele>1660.327881</ele>
        <time>2011-10-29T14:26:15Z</time>
      </trkpt>
      <trkpt lat="42.00364" lon="9.12679">
        <ele>1659.744263</ele>
        <time>2011-10-29T14:26:18Z</time>
      </trkpt>
      <trkpt lat="42.00362" lon="9.12674">
        <ele>1659.188843</ele>
        <time>2011-10-29T14:26:21Z</time>
      </trkpt>
      <trkpt lat="42.00361" lon="9.1267">
        <ele>1658.61853</ele>
        <time>2011-10-29T14:26:24Z</time>
      </trkpt>
      <trkpt lat="42.0036" lon="9.12668">
        <ele>1658.366211</ele>
        <time>2011-10-29T14:26:25Z</time>
      </trkpt>
      <trkpt lat="42.00356" lon="9.12662">
        <ele>1657.145142</ele>
        <time>2011-10-29T14:26:30Z</time>
      </trkpt>
      <trkpt lat="42.00352" lon="9.12659">
        <ele>1656.318726</ele>
        <time>2011-10-29T14:26:33Z</time>
      </trkpt>
      <trkpt lat="42.00349" lon="9.12657">
        <ele>1655.595703</ele>
        <time>2011-10-29T14:26:36Z</time>
      </trkpt>
      <trkpt lat="42.00346" lon="9.12655">
        <ele>1654.919556</ele>
        <time>2011-10-29T14:26:39Z</time>
      </trkpt>
      <trkpt lat="42.00343" lon="9.12652">
        <ele>1654.071899</ele>
        <time>2011-10-29T14:26:43Z</time>
      </trkpt>
      <trkpt lat="42.00339" lon="9.12651">
        <ele>1653.181885</ele>
        <time>2011-10-29T14:26:47Z</time>
      </trkpt>
      <trkpt lat="42.00335" lon="9.1265">
        <ele>1652.371948</ele>
        <time>2011-10-29T14:26:50Z</time>
      </trkpt>
      <trkpt lat="42.00331" lon="9.12649">
        <ele>1651.580444</ele>
        <time>2011-10-29T14:26:53Z</time>
      </trkpt>
      <trkpt lat="42.00327" lon="9.12648">
        <ele>1650.786743</ele>
        <time>2011-10-29T14:26:56Z</time>
      </trkpt>
      <trkpt lat="42.00324" lon="9.12648">
        <ele>1649.982422</ele>
        <time>2011-10-29T14:26:59Z</time>
      </trkpt>
      <trkpt lat="42.0032" lon="9.12647">
        <ele>1649.915405</ele>
        <time>2011-10-29T14:27:02Z</time>
      </trkpt>
      <trkpt lat="42.00316" lon="9.12647">
        <ele>1649.825806</ele>
        <time>2011-10-29T14:27:05Z</time>
      </trkpt>
      <trkpt lat="42.00312" lon="9.12647">
        <ele>1649.683594</ele>
        <time>2011-10-29T14:27:08Z</time>
      </trkpt>
      <trkpt lat="42.00309" lon="9.12648">
        <ele>1649.515991</ele>
        <time>2011-10-29T14:27:11Z</time>
      </trkpt>
      <trkpt lat="42.00305" lon="9.12647">
        <ele>1649.388428</ele>
        <time>2011-10-29T14:27:14Z</time>
      </trkpt>
      <trkpt lat="42.00301" lon="9.12648">
        <ele>1649.216064</ele>
        <time>2011-10-29T14:27:17Z</time>
      </trkpt>
      <trkpt lat="42.00297" lon="9.12648">
        <ele>1649.055786</ele>
        <time>2011-10-29T14:27:20Z</time>
      </trkpt>
      <trkpt lat="42.00293" lon="9.12648">
        <ele>1648.780518</ele>
        <time>2011-10-29T14:27:23Z</time>
      </trkpt>
      <trkpt lat="42.00289" lon="9.12649">
        <ele>1648.542847</ele>
        <time>2011-10-29T14:27:26Z</time>
      </trkpt>
      <trkpt lat="42.00287" lon="9.12649">
        <ele>1648.418579</ele>
        <time>2011-10-29T14:27:27Z</time>
      </trkpt>
      <trkpt lat="42.00281" lon="9.12651">
        <ele>1647.904419</ele>
        <time>2011-10-29T14:27:32Z</time>
      </trkpt>
      <trkpt lat="42.00277" lon="9.12652">
        <ele>1647.590454</ele>
        <time>2011-10-29T14:27:35Z</time>
      </trkpt>
      <trkpt lat="42.00274" lon="9.12653">
        <ele>1647.338989</ele>
        <time>2011-10-29T14:27:38Z</time>
      </trkpt>
      <trkpt lat="42.0027" lon="9.12654">
        <ele>1647.101929</ele>
        <time>2011-10-29T14:27:41Z</time>
      </trkpt>
      <trkpt lat="42.00266" lon="9.12655">
        <ele>1646.880249</ele>
        <time>2011-10-29T14:27:44Z</time>
      </trkpt>
      <trkpt lat="42.00262" lon="9.12656">
        <ele>1646.626953</ele>
        <time>2011-10-29T14:27:47Z</time>
      </trkpt>
      <trkpt lat="42.00259" lon="9.12656">
        <ele>1646.463623</ele>
        <time>2011-10-29T14:27:50Z</time>
      </trkpt>
      <trkpt lat="42.00254" lon="9.12658">
        <ele>1646.168335</ele>
        <time>2011-10-29T14:27:54Z</time>
      </trkpt>
      <trkpt lat="42.00251" lon="9.12658">
        <ele>1645.941406</ele>
        <time>2011-10-29T14:27:57Z</time>
      </trkpt>
      <trkpt lat="42.00247" lon="9.12659">
        <ele>1645.758789</ele>
        <time>2011-10-29T14:28:00Z</time>
      </trkpt>
      <trkpt lat="42.00243" lon="9.12659">
        <ele>1645.544556</ele>
        <time>2011-10-29T14:28:03Z</time>
      </trkpt>
      <trkpt lat="42.00239" lon="9.1266">
        <ele>1645.274536</ele>
        <time>2011-10-29T14:28:06Z</time>
      </trkpt>
      <trkpt lat="42.00235" lon="9.12661">
        <ele>1644.99646</ele>
        <time>2011-10-29T14:28:09Z</time>
      </trkpt>
      <trkpt lat="42.00232" lon="9.12662">
        <ele>1644.637451</ele>
        <time>2011-10-29T14:28:12Z</time>
      </trkpt>
      <trkpt lat="42.00228" lon="9.12663">
        <ele>1643.98999</ele>
        <time>2011-10-29T14:28:15Z</time>
      </trkpt>
      <trkpt lat="42.00224" lon="9.12664">
        <ele>1643.30249</ele>
        <time>2011-10-29T14:28:18Z</time>
      </trkpt>
      <trkpt lat="42.0022" lon="9.12665">
        <ele>1642.632446</ele>
        <time>2011-10-29T14:28:21Z</time>
      </trkpt>
      <trkpt lat="42.00217" lon="9.12666">
        <ele>1641.969971</ele>
        <time>2011-10-29T14:28:24Z</time>
      </trkpt>
      <trkpt lat="42.00213" lon="9.12667">
        <ele>1641.242554</ele>
        <time>2011-10-29T14:28:27Z</time>
      </trkpt>
      <trkpt lat="42.00212" lon="9.12667">
        <ele>1641.035034</ele>
        <time>2011-10-29T14:28:28Z</time>
      </trkpt>
      <trkpt lat="42.00206" lon="9.12669">
        <ele>1639.984985</ele>
        <time>2011-10-29T14:28:33Z</time>
      </trkpt>
      <trkpt lat="42.00202" lon="9.12669">
        <ele>1639.44751</ele>
        <time>2011-10-29T14:28:36Z</time>
      </trkpt>
      <trkpt lat="42.00199" lon="9.12669">
        <ele>1639.02002</ele>
        <time>2011-10-29T14:28:39Z</time>
      </trkpt>
      <trkpt lat="42.00195" lon="9.12668">
        <ele>1638.609985</ele>
        <time>2011-10-29T14:28:42Z</time>
      </trkpt>
      <trkpt lat="42.00191" lon="9.12667">
        <ele>1638.375</ele>
        <time>2011-10-29T14:28:45Z</time>
      </trkpt>
      <trkpt lat="42.00188" lon="9.12666">
        <ele>1638.140015</ele>
        <time>2011-10-29T14:28:48Z</time>
      </trkpt>
      <trkpt lat="42.00184" lon="9.12664">
        <ele>1637.735596</ele>
        <time>2011-10-29T14:28:51Z</time>
      </trkpt>
      <trkpt lat="42.00181" lon="9.12662">
        <ele>1637.416992</ele>
        <time>2011-10-29T14:28:54Z</time>
      </trkpt>
      <trkpt lat="42.00177" lon="9.1266">
        <ele>1637.01001</ele>
        <time>2011-10-29T14:28:57Z</time>
      </trkpt>
      <trkpt lat="42.00174" lon="9.12658">
        <ele>1636.725708</ele>
        <time>2011-10-29T14:29:00Z</time>
      </trkpt>
      <trkpt lat="42.00171" lon="9.12655">
        <ele>1636.443237</ele>
        <time>2011-10-29T14:29:03Z</time>
      </trkpt>
      <trkpt lat="42.00168" lon="9.12653">
        <ele>1636.130859</ele>
        <time>2011-10-29T14:29:06Z</time>
      </trkpt>
      <trkpt lat="42.00165" lon="9.12651">
        <ele>1635.791748</ele>
        <time>2011-10-29T14:29:09Z</time>
      </trkpt>
      <trkpt lat="42.00161" lon="9.12648">
        <ele>1635.466919</ele>
        <time>2011-10-29T14:29:12Z</time>
      </trkpt>
      <trkpt lat="42.00158" lon="9.12646">
        <ele>1635.177246</ele>
        <time>2011-10-29T14:29:15Z</time>
      </trkpt>
      <trkpt lat="42.00155" lon="9.12643">
        <ele>1634.896729</ele>
        <time>2011-10-29T14:29:18Z</time>
      </trkpt>
      <trkpt lat="42.00152" lon="9.12641">
        <ele>1634.674316</ele>
        <time>2011-10-29T14:29:21Z</time>
      </trkpt>
      <trkpt lat="42.00149" lon="9.12638">
        <ele>1634.283813</ele>
        <time>2011-10-29T14:29:24Z</time>
      </trkpt>
      <trkpt lat="42.00146" lon="9.12636">
        <ele>1633.928589</ele>
        <time>2011-10-29T14:29:27Z</time>
      </trkpt>
      <trkpt lat="42.00142" lon="9.12633">
        <ele>1633.556274</ele>
        <time>2011-10-29T14:29:30Z</time>
      </trkpt>
      <trkpt lat="42.00141" lon="9.12633">
        <ele>1633.467285</ele>
        <time>2011-10-29T14:29:31Z</time>
      </trkpt>
      <trkpt lat="42.00136" lon="9.12628">
        <ele>1632.848389</ele>
        <time>2011-10-29T14:29:36Z</time>
      </trkpt>
      <trkpt lat="42.00133" lon="9.12626">
        <ele>1632.583862</ele>
        <time>2011-10-29T14:29:39Z</time>
      </trkpt>
      <trkpt lat="42.0013" lon="9.12623">
        <ele>1632.201782</ele>
        <time>2011-10-29T14:29:42Z</time>
      </trkpt>
      <trkpt lat="42.00127" lon="9.1262">
        <ele>1631.755737</ele>
        <time>2011-10-29T14:29:45Z</time>
      </trkpt>
      <trkpt lat="42.00124" lon="9.12618">
        <ele>1631.342285</ele>
        <time>2011-10-29T14:29:48Z</time>
      </trkpt>
      <trkpt lat="42.00121" lon="9.12614">
        <ele>1630.826904</ele>
        <time>2011-10-29T14:29:52Z</time>
      </trkpt>
      <trkpt lat="42.00118" lon="9.12611">
        <ele>1630.416504</ele>
        <time>2011-10-29T14:29:55Z</time>
      </trkpt>
      <trkpt lat="42.00115" lon="9.12608">
        <ele>1629.940552</ele>
        <time>2011-10-29T14:29:58Z</time>
      </trkpt>
      <trkpt lat="42.00112" lon="9.12605">
        <ele>1629.322632</ele>
        <time>2011-10-29T14:30:01Z</time>
      </trkpt>
      <trkpt lat="42.00108" lon="9.12602">
        <ele>1628.747314</ele>
        <time>2011-10-29T14:30:04Z</time>
      </trkpt>
      <trkpt lat="42.00105" lon="9.12599">
        <ele>1628.388672</ele>
        <time>2011-10-29T14:30:07Z</time>
      </trkpt>
      <trkpt lat="42.00102" lon="9.12596">
        <ele>1627.944336</ele>
        <time>2011-10-29T14:30:10Z</time>
      </trkpt>
      <trkpt lat="42.00099" lon="9.12593">
        <ele>1627.762573</ele>
        <time>2011-10-29T14:30:13Z</time>
      </trkpt>
      <trkpt lat="42.00096" lon="9.1259">
        <ele>1627.535522</ele>
        <time>2011-10-29T14:30:16Z</time>
      </trkpt>
      <trkpt lat="42.00093" lon="9.12588">
        <ele>1627.324463</ele>
        <time>2011-10-29T14:30:19Z</time>
      </trkpt>
      <trkpt lat="42.0009" lon="9.12585">
        <ele>1627.029297</ele>
        <time>2011-10-29T14:30:22Z</time>
      </trkpt>
      <trkpt lat="42.00087" lon="9.12582">
        <ele>1626.710205</ele>
        <time>2011-10-29T14:30:25Z</time>
      </trkpt>
      <trkpt lat="42.00083" lon="9.1258">
        <ele>1626.35083</ele>
        <time>2011-10-29T14:30:28Z</time>
      </trkpt>
      <trkpt lat="42.0008" lon="9.12577">
        <ele>1626.030151</ele>
        <time>2011-10-29T14:30:31Z</time>
      </trkpt>
      <trkpt lat="42.00079" lon="9.12576">
        <ele>1625.925659</ele>
        <time>2011-10-29T14:30:32Z</time>
      </trkpt>
      <trkpt lat="42.00074" lon="9.12572">
        <ele>1625.265991</ele>
        <time>2011-10-29T14:30:37Z</time>
      </trkpt>
      <trkpt lat="42.00071" lon="9.12569">
        <ele>1624.92688</ele>
        <time>2011-10-29T14:30:40Z</time>
      </trkpt>
      <trkpt lat="42.00068" lon="9.12566">
        <ele>1624.475952</ele>
        <time>2011-10-29T14:30:44Z</time>
      </trkpt>
      <trkpt lat="42.00066" lon="9.12563">
        <ele>1624.209595</ele>
        <time>2011-10-29T14:30:47Z</time>
      </trkpt>
      <trkpt lat="42.00063" lon="9.12559">
        <ele>1623.969604</ele>
        <time>2011-10-29T14:30:50Z</time>
      </trkpt>
      <trkpt lat="42.00061" lon="9.12555">
        <ele>1623.755615</ele>
        <time>2011-10-29T14:30:53Z</time>
      </trkpt>
      <trkpt lat="42.00059" lon="9.12551">
        <ele>1623.629639</ele>
        <time>2011-10-29T14:30:56Z</time>
      </trkpt>
      <trkpt lat="42.00056" lon="9.12547">
        <ele>1623.634155</ele>
        <time>2011-10-29T14:30:59Z</time>
      </trkpt>
      <trkpt lat="42.00054" lon="9.12542">
        <ele>1623.609009</ele>
        <time>2011-10-29T14:31:02Z</time>
      </trkpt>
      <trkpt lat="42.00052" lon="9.12538">
        <ele>1623.53833</ele>
        <time>2011-10-29T14:31:05Z</time>
      </trkpt>
      <trkpt lat="42.0005" lon="9.12534">
        <ele>1623.446777</ele>
        <time>2011-10-29T14:31:08Z</time>
      </trkpt>
      <trkpt lat="42.00047" lon="9.1253">
        <ele>1623.134888</ele>
        <time>2011-10-29T14:31:12Z</time>
      </trkpt>
      <trkpt lat="42.00045" lon="9.12526">
        <ele>1622.907349</ele>
        <time>2011-10-29T14:31:15Z</time>
      </trkpt>
      <trkpt lat="42.00043" lon="9.12522">
        <ele>1622.65979</ele>
        <time>2011-10-29T14:31:18Z</time>
      </trkpt>
      <trkpt lat="42.0004" lon="9.12518">
        <ele>1622.331421</ele>
        <time>2011-10-29T14:31:21Z</time>
      </trkpt>
      <trkpt lat="42.00038" lon="9.12514">
        <ele>1622.033325</ele>
        <time>2011-10-29T14:31:24Z</time>
      </trkpt>
      <trkpt lat="42.00036" lon="9.12511">
        <ele>1621.691528</ele>
        <time>2011-10-29T14:31:27Z</time>
      </trkpt>
      <trkpt lat="42.00033" lon="9.12507">
        <ele>1621.295166</ele>
        <time>2011-10-29T14:31:30Z</time>
      </trkpt>
      <trkpt lat="42.00031" lon="9.12503">
        <ele>1621.014526</ele>
        <time>2011-10-29T14:31:33Z</time>
      </trkpt>
      <trkpt lat="42.00031" lon="9.12502">
        <ele>1620.907593</ele>
        <time>2011-10-29T14:31:34Z</time>
      </trkpt>
      <trkpt lat="42.00026" lon="9.12496">
        <ele>1620.155273</ele>
        <time>2011-10-29T14:31:39Z</time>
      </trkpt>
      <trkpt lat="42.00024" lon="9.12492">
        <ele>1619.792847</ele>
        <time>2011-10-29T14:31:42Z</time>
      </trkpt>
      <trkpt lat="42.00022" lon="9.12488">
        <ele>1619.370239</ele>
        <time>2011-10-29T14:31:45Z</time>
      </trkpt>
      <trkpt lat="42.0002" lon="9.12484">
        <ele>1618.935791</ele>
        <time>2011-10-29T14:31:48Z</time>
      </trkpt>
      <trkpt lat="42.00018" lon="9.12479">
        <ele>1618.69458</ele>
        <time>2011-10-29T14:31:51Z</time>
      </trkpt>
      <trkpt lat="42.00016" lon="9.12475">
        <ele>1618.500854</ele>
        <time>2011-10-29T14:31:54Z</time>
      </trkpt>
      <trkpt lat="42.00014" lon="9.1247">
        <ele>1618.308228</ele>
        <time>2011-10-29T14:31:57Z</time>
      </trkpt>
      <trkpt lat="42.00012" lon="9.12466">
        <ele>1618.341431</ele>
        <time>2011-10-29T14:32:00Z</time>
      </trkpt>
      <trkpt lat="42.00009" lon="9.12461">
        <ele>1618.305542</ele>
        <time>2011-10-29T14:32:04Z</time>
      </trkpt>
      <trkpt lat="42.00006" lon="9.12458">
        <ele>1618.27478</ele>
        <time>2011-10-29T14:32:07Z</time>
      </trkpt>
      <trkpt lat="42.00004" lon="9.12453">
        <ele>1618.307129</ele>
        <time>2011-10-29T14:32:10Z</time>
      </trkpt>
      <trkpt lat="42.00002" lon="9.12449">
        <ele>1618.31189</ele>
        <time>2011-10-29T14:32:13Z</time>
      </trkpt>
      <trkpt lat="41.99999" lon="9.12445">
        <ele>1618.289307</ele>
        <time>2011-10-29T14:32:16Z</time>
      </trkpt>
      <trkpt lat="41.99997" lon="9.12441">
        <ele>1618.297485</ele>
        <time>2011-10-29T14:32:19Z</time>
      </trkpt>
      <trkpt lat="41.99995" lon="9.12438">
        <ele>1618.289551</ele>
        <time>2011-10-29T14:32:22Z</time>
      </trkpt>
      <trkpt lat="41.99992" lon="9.12435">
        <ele>1618.186279</ele>
        <time>2011-10-29T14:32:25Z</time>
      </trkpt>
      <trkpt lat="41.99988" lon="9.12432">
        <ele>1618.032227</ele>
        <time>2011-10-29T14:32:28Z</time>
      </trkpt>
      <trkpt lat="41.99985" lon="9.12429">
        <ele>1617.907349</ele>
        <time>2011-10-29T14:32:31Z</time>
      </trkpt>
      <trkpt lat="41.99982" lon="9.12426">
        <ele>1617.799561</ele>
        <time>2011-10-29T14:32:34Z</time>
      </trkpt>
      <trkpt lat="41.99981" lon="9.12425">
        <ele>1617.753296</ele>
        <time>2011-10-29T14:32:35Z</time>
      </trkpt>
      <trkpt lat="41.99976" lon="9.1242">
        <ele>1617.694946</ele>
        <time>2011-10-29T14:32:40Z</time>
      </trkpt>
      <trkpt lat="41.99973" lon="9.12417">
        <ele>1617.790039</ele>
        <time>2011-10-29T14:32:43Z</time>
      </trkpt>
      <trkpt lat="41.9997" lon="9.12413">
        <ele>1617.972534</ele>
        <time>2011-10-29T14:32:47Z</time>
      </trkpt>
      <trkpt lat="41.99969" lon="9.12408">
        <ele>1618.290039</ele>
        <time>2011-10-29T14:32:51Z</time>
      </trkpt>
      <trkpt lat="41.99967" lon="9.12404">
        <ele>1618.510498</ele>
        <time>2011-10-29T14:32:54Z</time>
      </trkpt>
      <trkpt lat="41.99965" lon="9.124">
        <ele>1618.810913</ele>
        <time>2011-10-29T14:32:57Z</time>
      </trkpt>
      <trkpt lat="41.99963" lon="9.12395">
        <ele>1619.139648</ele>
        <time>2011-10-29T14:33:01Z</time>
      </trkpt>
      <trkpt lat="41.9996" lon="9.12392">
        <ele>1619.336182</ele>
        <time>2011-10-29T14:33:06Z</time>
      </trkpt>
      <trkpt lat="41.99957" lon="9.12389">
        <ele>1619.458618</ele>
        <time>2011-10-29T14:33:10Z</time>
      </trkpt>
      <trkpt lat="41.99953" lon="9.12388">
        <ele>1619.392822</ele>
        <time>2011-10-29T14:33:13Z</time>
      </trkpt>
      <trkpt lat="41.9995" lon="9.12385">
        <ele>1619.484375</ele>
        <time>2011-10-29T14:33:16Z</time>
      </trkpt>
      <trkpt lat="41.99946" lon="9.12383">
        <ele>1619.569824</ele>
        <time>2011-10-29T14:33:19Z</time>
      </trkpt>
      <trkpt lat="41.99943" lon="9.12381">
        <ele>1619.621338</ele>
        <time>2011-10-29T14:33:22Z</time>
      </trkpt>
      <trkpt lat="41.99939" lon="9.12379">
        <ele>1619.721924</ele>
        <time>2011-10-29T14:33:25Z</time>
      </trkpt>
      <trkpt lat="41.99936" lon="9.12376">
        <ele>1619.887451</ele>
        <time>2011-10-29T14:33:28Z</time>
      </trkpt>
      <trkpt lat="41.99933" lon="9.12374">
        <ele>1619.813843</ele>
        <time>2011-10-29T14:33:31Z</time>
      </trkpt>
      <trkpt lat="41.9993" lon="9.12371">
        <ele>1619.879395</ele>
        <time>2011-10-29T14:33:34Z</time>
      </trkpt>
      <trkpt lat="41.99929" lon="9.12367">
        <ele>1620.095947</ele>
        <time>2011-10-29T14:33:37Z</time>
      </trkpt>
      <trkpt lat="41.99928" lon="9.12365">
        <ele>1620.245117</ele>
        <time>2011-10-29T14:33:38Z</time>
      </trkpt>
      <trkpt lat="41.99925" lon="9.12358">
        <ele>1620.760498</ele>
        <time>2011-10-29T14:33:44Z</time>
      </trkpt>
      <trkpt lat="41.99922" lon="9.12355">
        <ele>1620.818481</ele>
        <time>2011-10-29T14:33:48Z</time>
      </trkpt>
      <trkpt lat="41.99919" lon="9.12353">
        <ele>1620.67688</ele>
        <time>2011-10-29T14:33:51Z</time>
      </trkpt>
      <trkpt lat="41.99916" lon="9.12349">
        <ele>1620.733643</ele>
        <time>2011-10-29T14:33:55Z</time>
      </trkpt>
      <trkpt lat="41.99913" lon="9.12346">
        <ele>1620.814941</ele>
        <time>2011-10-29T14:34:05Z</time>
      </trkpt>
      <trkpt lat="41.9991" lon="9.12342">
        <ele>1620.917969</ele>
        <time>2011-10-29T14:34:09Z</time>
      </trkpt>
      <trkpt lat="41.99906" lon="9.1234">
        <ele>1620.79187</ele>
        <time>2011-10-29T14:34:13Z</time>
      </trkpt>
      <trkpt lat="41.99903" lon="9.12338">
        <ele>1620.713135</ele>
        <time>2011-10-29T14:34:16Z</time>
      </trkpt>
      <trkpt lat="41.99899" lon="9.12335">
        <ele>1620.637451</ele>
        <time>2011-10-29T14:34:20Z</time>
      </trkpt>
      <trkpt lat="41.99895" lon="9.12332">
        <ele>1620.598389</ele>
        <time>2011-10-29T14:34:24Z</time>
      </trkpt>
      <trkpt lat="41.99892" lon="9.1233">
        <ele>1620.36438</ele>
        <time>2011-10-29T14:34:27Z</time>
      </trkpt>
      <trkpt lat="41.99889" lon="9.12328">
        <ele>1619.994751</ele>
        <time>2011-10-29T14:34:30Z</time>
      </trkpt>
      <trkpt lat="41.99886" lon="9.12325">
        <ele>1619.873169</ele>
        <time>2011-10-29T14:34:34Z</time>
      </trkpt>
      <trkpt lat="41.99882" lon="9.12321">
        <ele>1619.743408</ele>
        <time>2011-10-29T14:34:55Z</time>
      </trkpt>
      <trkpt lat="41.99882" lon="9.1232">
        <ele>1619.72522</ele>
        <time>2011-10-29T14:34:56Z</time>
      </trkpt>
      <trkpt lat="41.99875" lon="9.1232">
        <ele>1618.396729</ele>
        <time>2011-10-29T14:39:03Z</time>
      </trkpt>
      <trkpt lat="41.99875" lon="9.1232">
        <ele>1618.35791</ele>
        <time>2011-10-29T14:39:04Z</time>
      </trkpt>
    </trkseg>
  </trk>
</gpx>